<?xml version="1.0" encoding="UTF-8" standalone="no" ?>
<gpx xmlns="http://www.topografix.com/GPX/1/1" xmlns:xsi="http://www.w3.org/2001/XMLSchema-instance" xsi:schemaLocation="http://www.topografix.com/GPX/1/1 http://www.topografix.com/GPX/1/1/gpx.xsd" version="1.1" creator="VisuGPX - https://www.visugpx.com">
  <metadata>
    <name>Messimy - St bonnet le froy - Yzeron</name>
    <desc><![CDATA[Sortie du Dimanche 16/10/2011]]></desc>
  </metadata>
  <trk>
    <name><![CDATA[2011-10-16 09:00 VLO]]></name>
    <trkseg>
      <trkpt lat="45.699" lon="4.67579">
        <ele>355</ele>
        <time>2011-10-16T07:00:35Z</time>
      </trkpt>
      <trkpt lat="45.69904" lon="4.67573">
        <ele>355</ele>
        <time>2011-10-16T07:08:40Z</time>
      </trkpt>
      <trkpt lat="45.69908" lon="4.6757">
        <ele>355</ele>
        <time>2011-10-16T07:08:43Z</time>
      </trkpt>
      <trkpt lat="45.69913" lon="4.67568">
        <ele>355</ele>
        <time>2011-10-16T07:08:46Z</time>
      </trkpt>
      <trkpt lat="45.69917" lon="4.67573">
        <ele>355</ele>
        <time>2011-10-16T07:08:48Z</time>
      </trkpt>
      <trkpt lat="45.69919" lon="4.6758">
        <ele>354</ele>
        <time>2011-10-16T07:08:49Z</time>
      </trkpt>
      <trkpt lat="45.69922" lon="4.67588">
        <ele>354</ele>
        <time>2011-10-16T07:08:51Z</time>
      </trkpt>
      <trkpt lat="45.69927" lon="4.67598">
        <ele>353</ele>
        <time>2011-10-16T07:08:53Z</time>
      </trkpt>
      <trkpt lat="45.69929" lon="4.67603">
        <ele>353</ele>
        <time>2011-10-16T07:08:54Z</time>
      </trkpt>
      <trkpt lat="45.69932" lon="4.67609">
        <ele>353</ele>
        <time>2011-10-16T07:08:55Z</time>
      </trkpt>
      <trkpt lat="45.69934" lon="4.67614">
        <ele>352</ele>
        <time>2011-10-16T07:08:56Z</time>
      </trkpt>
      <trkpt lat="45.69936" lon="4.67621">
        <ele>352</ele>
        <time>2011-10-16T07:08:57Z</time>
      </trkpt>
      <trkpt lat="45.69939" lon="4.67628">
        <ele>352</ele>
        <time>2011-10-16T07:08:58Z</time>
      </trkpt>
      <trkpt lat="45.69941" lon="4.67634">
        <ele>352</ele>
        <time>2011-10-16T07:08:59Z</time>
      </trkpt>
      <trkpt lat="45.69943" lon="4.67641">
        <ele>352</ele>
        <time>2011-10-16T07:09:00Z</time>
      </trkpt>
      <trkpt lat="45.69945" lon="4.67648">
        <ele>352</ele>
        <time>2011-10-16T07:09:01Z</time>
      </trkpt>
      <trkpt lat="45.69947" lon="4.67657">
        <ele>352</ele>
        <time>2011-10-16T07:09:02Z</time>
      </trkpt>
      <trkpt lat="45.69949" lon="4.67665">
        <ele>351</ele>
        <time>2011-10-16T07:09:03Z</time>
      </trkpt>
      <trkpt lat="45.69952" lon="4.67674">
        <ele>350</ele>
        <time>2011-10-16T07:09:04Z</time>
      </trkpt>
      <trkpt lat="45.69954" lon="4.67683">
        <ele>350</ele>
        <time>2011-10-16T07:09:05Z</time>
      </trkpt>
      <trkpt lat="45.69955" lon="4.67693">
        <ele>350</ele>
        <time>2011-10-16T07:09:06Z</time>
      </trkpt>
      <trkpt lat="45.69956" lon="4.67701">
        <ele>350</ele>
        <time>2011-10-16T07:09:07Z</time>
      </trkpt>
      <trkpt lat="45.69956" lon="4.6771">
        <ele>349</ele>
        <time>2011-10-16T07:09:08Z</time>
      </trkpt>
      <trkpt lat="45.69958" lon="4.67718">
        <ele>349</ele>
        <time>2011-10-16T07:09:09Z</time>
      </trkpt>
      <trkpt lat="45.69958" lon="4.67726">
        <ele>349</ele>
        <time>2011-10-16T07:09:10Z</time>
      </trkpt>
      <trkpt lat="45.6996" lon="4.67734">
        <ele>349</ele>
        <time>2011-10-16T07:09:11Z</time>
      </trkpt>
      <trkpt lat="45.69962" lon="4.6774">
        <ele>349</ele>
        <time>2011-10-16T07:09:12Z</time>
      </trkpt>
      <trkpt lat="45.69966" lon="4.67746">
        <ele>349</ele>
        <time>2011-10-16T07:09:13Z</time>
      </trkpt>
      <trkpt lat="45.6997" lon="4.67751">
        <ele>348</ele>
        <time>2011-10-16T07:09:14Z</time>
      </trkpt>
      <trkpt lat="45.69975" lon="4.67754">
        <ele>348</ele>
        <time>2011-10-16T07:09:15Z</time>
      </trkpt>
      <trkpt lat="45.69983" lon="4.67758">
        <ele>348</ele>
        <time>2011-10-16T07:09:17Z</time>
      </trkpt>
      <trkpt lat="45.6999" lon="4.67766">
        <ele>348</ele>
        <time>2011-10-16T07:09:19Z</time>
      </trkpt>
      <trkpt lat="45.69996" lon="4.67774">
        <ele>348</ele>
        <time>2011-10-16T07:09:21Z</time>
      </trkpt>
      <trkpt lat="45.7" lon="4.67778">
        <ele>348</ele>
        <time>2011-10-16T07:09:22Z</time>
      </trkpt>
      <trkpt lat="45.70007" lon="4.67784">
        <ele>348</ele>
        <time>2011-10-16T07:09:24Z</time>
      </trkpt>
      <trkpt lat="45.70011" lon="4.67788">
        <ele>348</ele>
        <time>2011-10-16T07:09:25Z</time>
      </trkpt>
      <trkpt lat="45.70015" lon="4.67791">
        <ele>348</ele>
        <time>2011-10-16T07:09:26Z</time>
      </trkpt>
      <trkpt lat="45.70019" lon="4.67795">
        <ele>348</ele>
        <time>2011-10-16T07:09:27Z</time>
      </trkpt>
      <trkpt lat="45.70023" lon="4.67799">
        <ele>348</ele>
        <time>2011-10-16T07:09:28Z</time>
      </trkpt>
      <trkpt lat="45.70027" lon="4.67801">
        <ele>348</ele>
        <time>2011-10-16T07:09:29Z</time>
      </trkpt>
      <trkpt lat="45.70031" lon="4.67804">
        <ele>348</ele>
        <time>2011-10-16T07:09:30Z</time>
      </trkpt>
      <trkpt lat="45.70035" lon="4.67808">
        <ele>348</ele>
        <time>2011-10-16T07:09:31Z</time>
      </trkpt>
      <trkpt lat="45.7004" lon="4.6781">
        <ele>348</ele>
        <time>2011-10-16T07:09:32Z</time>
      </trkpt>
      <trkpt lat="45.70044" lon="4.67814">
        <ele>348</ele>
        <time>2011-10-16T07:09:33Z</time>
      </trkpt>
      <trkpt lat="45.70048" lon="4.67817">
        <ele>348</ele>
        <time>2011-10-16T07:09:34Z</time>
      </trkpt>
      <trkpt lat="45.70056" lon="4.67824">
        <ele>348</ele>
        <time>2011-10-16T07:09:36Z</time>
      </trkpt>
      <trkpt lat="45.70059" lon="4.67827">
        <ele>348</ele>
        <time>2011-10-16T07:09:37Z</time>
      </trkpt>
      <trkpt lat="45.70065" lon="4.67837">
        <ele>347</ele>
        <time>2011-10-16T07:09:39Z</time>
      </trkpt>
      <trkpt lat="45.70069" lon="4.67848">
        <ele>347</ele>
        <time>2011-10-16T07:09:41Z</time>
      </trkpt>
      <trkpt lat="45.7007" lon="4.67854">
        <ele>347</ele>
        <time>2011-10-16T07:09:42Z</time>
      </trkpt>
      <trkpt lat="45.70074" lon="4.67866">
        <ele>346</ele>
        <time>2011-10-16T07:09:44Z</time>
      </trkpt>
      <trkpt lat="45.70077" lon="4.67877">
        <ele>346</ele>
        <time>2011-10-16T07:09:46Z</time>
      </trkpt>
      <trkpt lat="45.70082" lon="4.67886">
        <ele>346</ele>
        <time>2011-10-16T07:09:48Z</time>
      </trkpt>
      <trkpt lat="45.70089" lon="4.67892">
        <ele>347</ele>
        <time>2011-10-16T07:09:50Z</time>
      </trkpt>
      <trkpt lat="45.70093" lon="4.67896">
        <ele>347</ele>
        <time>2011-10-16T07:09:51Z</time>
      </trkpt>
      <trkpt lat="45.70099" lon="4.67903">
        <ele>347</ele>
        <time>2011-10-16T07:09:53Z</time>
      </trkpt>
      <trkpt lat="45.70105" lon="4.6791">
        <ele>347</ele>
        <time>2011-10-16T07:09:55Z</time>
      </trkpt>
      <trkpt lat="45.70111" lon="4.67916">
        <ele>347</ele>
        <time>2011-10-16T07:09:57Z</time>
      </trkpt>
      <trkpt lat="45.70116" lon="4.67922">
        <ele>348</ele>
        <time>2011-10-16T07:09:59Z</time>
      </trkpt>
      <trkpt lat="45.70121" lon="4.67928">
        <ele>348</ele>
        <time>2011-10-16T07:10:01Z</time>
      </trkpt>
      <trkpt lat="45.70126" lon="4.67934">
        <ele>348</ele>
        <time>2011-10-16T07:10:03Z</time>
      </trkpt>
      <trkpt lat="45.7013" lon="4.67939">
        <ele>348</ele>
        <time>2011-10-16T07:10:05Z</time>
      </trkpt>
      <trkpt lat="45.70134" lon="4.67944">
        <ele>348</ele>
        <time>2011-10-16T07:10:07Z</time>
      </trkpt>
      <trkpt lat="45.70139" lon="4.67949">
        <ele>348</ele>
        <time>2011-10-16T07:10:09Z</time>
      </trkpt>
      <trkpt lat="45.70143" lon="4.6795">
        <ele>348</ele>
        <time>2011-10-16T07:10:11Z</time>
      </trkpt>
      <trkpt lat="45.70148" lon="4.67947">
        <ele>348</ele>
        <time>2011-10-16T07:10:13Z</time>
      </trkpt>
      <trkpt lat="45.70155" lon="4.67944">
        <ele>348</ele>
        <time>2011-10-16T07:10:15Z</time>
      </trkpt>
      <trkpt lat="45.70162" lon="4.6794">
        <ele>349</ele>
        <time>2011-10-16T07:10:17Z</time>
      </trkpt>
      <trkpt lat="45.70169" lon="4.67939">
        <ele>349</ele>
        <time>2011-10-16T07:10:19Z</time>
      </trkpt>
      <trkpt lat="45.70176" lon="4.67938">
        <ele>349</ele>
        <time>2011-10-16T07:10:21Z</time>
      </trkpt>
      <trkpt lat="45.70183" lon="4.67938">
        <ele>349</ele>
        <time>2011-10-16T07:10:23Z</time>
      </trkpt>
      <trkpt lat="45.70191" lon="4.67938">
        <ele>349</ele>
        <time>2011-10-16T07:10:25Z</time>
      </trkpt>
      <trkpt lat="45.70199" lon="4.67938">
        <ele>349</ele>
        <time>2011-10-16T07:10:27Z</time>
      </trkpt>
      <trkpt lat="45.70204" lon="4.67936">
        <ele>349</ele>
        <time>2011-10-16T07:10:29Z</time>
      </trkpt>
      <trkpt lat="45.70211" lon="4.67937">
        <ele>350</ele>
        <time>2011-10-16T07:10:31Z</time>
      </trkpt>
      <trkpt lat="45.70218" lon="4.67936">
        <ele>350</ele>
        <time>2011-10-16T07:10:33Z</time>
      </trkpt>
      <trkpt lat="45.70229" lon="4.67936">
        <ele>350</ele>
        <time>2011-10-16T07:10:36Z</time>
      </trkpt>
      <trkpt lat="45.70234" lon="4.67936">
        <ele>350</ele>
        <time>2011-10-16T07:10:37Z</time>
      </trkpt>
      <trkpt lat="45.7024" lon="4.67936">
        <ele>350</ele>
        <time>2011-10-16T07:10:39Z</time>
      </trkpt>
      <trkpt lat="45.70248" lon="4.67936">
        <ele>350</ele>
        <time>2011-10-16T07:10:41Z</time>
      </trkpt>
      <trkpt lat="45.70255" lon="4.67936">
        <ele>349</ele>
        <time>2011-10-16T07:10:43Z</time>
      </trkpt>
      <trkpt lat="45.70259" lon="4.67934">
        <ele>349</ele>
        <time>2011-10-16T07:10:44Z</time>
      </trkpt>
      <trkpt lat="45.70264" lon="4.67933">
        <ele>349</ele>
        <time>2011-10-16T07:10:45Z</time>
      </trkpt>
      <trkpt lat="45.70268" lon="4.67932">
        <ele>349</ele>
        <time>2011-10-16T07:10:46Z</time>
      </trkpt>
      <trkpt lat="45.70272" lon="4.67929">
        <ele>349</ele>
        <time>2011-10-16T07:10:47Z</time>
      </trkpt>
      <trkpt lat="45.7028" lon="4.67924">
        <ele>349</ele>
        <time>2011-10-16T07:10:49Z</time>
      </trkpt>
      <trkpt lat="45.70287" lon="4.67919">
        <ele>349</ele>
        <time>2011-10-16T07:10:51Z</time>
      </trkpt>
      <trkpt lat="45.70294" lon="4.67915">
        <ele>349</ele>
        <time>2011-10-16T07:10:53Z</time>
      </trkpt>
      <trkpt lat="45.70302" lon="4.6791">
        <ele>349</ele>
        <time>2011-10-16T07:10:55Z</time>
      </trkpt>
      <trkpt lat="45.7031" lon="4.67908">
        <ele>349</ele>
        <time>2011-10-16T07:10:57Z</time>
      </trkpt>
      <trkpt lat="45.70318" lon="4.67908">
        <ele>349</ele>
        <time>2011-10-16T07:10:59Z</time>
      </trkpt>
      <trkpt lat="45.70326" lon="4.67907">
        <ele>348</ele>
        <time>2011-10-16T07:11:01Z</time>
      </trkpt>
      <trkpt lat="45.70334" lon="4.67907">
        <ele>348</ele>
        <time>2011-10-16T07:11:03Z</time>
      </trkpt>
      <trkpt lat="45.70341" lon="4.67908">
        <ele>348</ele>
        <time>2011-10-16T07:11:05Z</time>
      </trkpt>
      <trkpt lat="45.70348" lon="4.67909">
        <ele>347</ele>
        <time>2011-10-16T07:11:07Z</time>
      </trkpt>
      <trkpt lat="45.70355" lon="4.67909">
        <ele>347</ele>
        <time>2011-10-16T07:11:09Z</time>
      </trkpt>
      <trkpt lat="45.70361" lon="4.67909">
        <ele>347</ele>
        <time>2011-10-16T07:11:11Z</time>
      </trkpt>
      <trkpt lat="45.70367" lon="4.67905">
        <ele>347</ele>
        <time>2011-10-16T07:11:13Z</time>
      </trkpt>
      <trkpt lat="45.70369" lon="4.67897">
        <ele>347</ele>
        <time>2011-10-16T07:11:15Z</time>
      </trkpt>
      <trkpt lat="45.70366" lon="4.67889">
        <ele>347</ele>
        <time>2011-10-16T07:11:17Z</time>
      </trkpt>
      <trkpt lat="45.70365" lon="4.67882">
        <ele>347</ele>
        <time>2011-10-16T07:11:19Z</time>
      </trkpt>
      <trkpt lat="45.70363" lon="4.67874">
        <ele>347</ele>
        <time>2011-10-16T07:11:21Z</time>
      </trkpt>
      <trkpt lat="45.70364" lon="4.67867">
        <ele>347</ele>
        <time>2011-10-16T07:11:23Z</time>
      </trkpt>
      <trkpt lat="45.7037" lon="4.67863">
        <ele>347</ele>
        <time>2011-10-16T07:11:25Z</time>
      </trkpt>
      <trkpt lat="45.70377" lon="4.67864">
        <ele>347</ele>
        <time>2011-10-16T07:11:27Z</time>
      </trkpt>
      <trkpt lat="45.70385" lon="4.67865">
        <ele>347</ele>
        <time>2011-10-16T07:11:29Z</time>
      </trkpt>
      <trkpt lat="45.70389" lon="4.67866">
        <ele>346</ele>
        <time>2011-10-16T07:11:30Z</time>
      </trkpt>
      <trkpt lat="45.70394" lon="4.67868">
        <ele>346</ele>
        <time>2011-10-16T07:11:31Z</time>
      </trkpt>
      <trkpt lat="45.70399" lon="4.67868">
        <ele>346</ele>
        <time>2011-10-16T07:11:32Z</time>
      </trkpt>
      <trkpt lat="45.70405" lon="4.67869">
        <ele>346</ele>
        <time>2011-10-16T07:11:33Z</time>
      </trkpt>
      <trkpt lat="45.7041" lon="4.6787">
        <ele>346</ele>
        <time>2011-10-16T07:11:34Z</time>
      </trkpt>
      <trkpt lat="45.7042" lon="4.67872">
        <ele>344</ele>
        <time>2011-10-16T07:11:36Z</time>
      </trkpt>
      <trkpt lat="45.70425" lon="4.67871">
        <ele>344</ele>
        <time>2011-10-16T07:11:37Z</time>
      </trkpt>
      <trkpt lat="45.70436" lon="4.67869">
        <ele>344</ele>
        <time>2011-10-16T07:11:39Z</time>
      </trkpt>
      <trkpt lat="45.70442" lon="4.67869">
        <ele>343</ele>
        <time>2011-10-16T07:11:40Z</time>
      </trkpt>
      <trkpt lat="45.70449" lon="4.67868">
        <ele>343</ele>
        <time>2011-10-16T07:11:41Z</time>
      </trkpt>
      <trkpt lat="45.70454" lon="4.67867">
        <ele>343</ele>
        <time>2011-10-16T07:11:42Z</time>
      </trkpt>
      <trkpt lat="45.70459" lon="4.67867">
        <ele>343</ele>
        <time>2011-10-16T07:11:43Z</time>
      </trkpt>
      <trkpt lat="45.70464" lon="4.67867">
        <ele>343</ele>
        <time>2011-10-16T07:11:44Z</time>
      </trkpt>
      <trkpt lat="45.70469" lon="4.67866">
        <ele>343</ele>
        <time>2011-10-16T07:11:45Z</time>
      </trkpt>
      <trkpt lat="45.70477" lon="4.67863">
        <ele>343</ele>
        <time>2011-10-16T07:11:47Z</time>
      </trkpt>
      <trkpt lat="45.70485" lon="4.67857">
        <ele>343</ele>
        <time>2011-10-16T07:11:49Z</time>
      </trkpt>
      <trkpt lat="45.70489" lon="4.67846">
        <ele>342</ele>
        <time>2011-10-16T07:11:51Z</time>
      </trkpt>
      <trkpt lat="45.70492" lon="4.67834">
        <ele>342</ele>
        <time>2011-10-16T07:11:53Z</time>
      </trkpt>
      <trkpt lat="45.7049" lon="4.67828">
        <ele>343</ele>
        <time>2011-10-16T07:11:54Z</time>
      </trkpt>
      <trkpt lat="45.70489" lon="4.67815">
        <ele>343</ele>
        <time>2011-10-16T07:11:56Z</time>
      </trkpt>
      <trkpt lat="45.70488" lon="4.67808">
        <ele>344</ele>
        <time>2011-10-16T07:11:57Z</time>
      </trkpt>
      <trkpt lat="45.70488" lon="4.67801">
        <ele>344</ele>
        <time>2011-10-16T07:11:58Z</time>
      </trkpt>
      <trkpt lat="45.70486" lon="4.67793">
        <ele>344</ele>
        <time>2011-10-16T07:11:59Z</time>
      </trkpt>
      <trkpt lat="45.70486" lon="4.67786">
        <ele>344</ele>
        <time>2011-10-16T07:12:00Z</time>
      </trkpt>
      <trkpt lat="45.70484" lon="4.67779">
        <ele>344</ele>
        <time>2011-10-16T07:12:01Z</time>
      </trkpt>
      <trkpt lat="45.70484" lon="4.67771">
        <ele>344</ele>
        <time>2011-10-16T07:12:02Z</time>
      </trkpt>
      <trkpt lat="45.70482" lon="4.67764">
        <ele>344</ele>
        <time>2011-10-16T07:12:03Z</time>
      </trkpt>
      <trkpt lat="45.70482" lon="4.67756">
        <ele>344</ele>
        <time>2011-10-16T07:12:04Z</time>
      </trkpt>
      <trkpt lat="45.7048" lon="4.6775">
        <ele>344</ele>
        <time>2011-10-16T07:12:05Z</time>
      </trkpt>
      <trkpt lat="45.7048" lon="4.67742">
        <ele>345</ele>
        <time>2011-10-16T07:12:06Z</time>
      </trkpt>
      <trkpt lat="45.70478" lon="4.67732">
        <ele>345</ele>
        <time>2011-10-16T07:12:07Z</time>
      </trkpt>
      <trkpt lat="45.70478" lon="4.67726">
        <ele>345</ele>
        <time>2011-10-16T07:12:08Z</time>
      </trkpt>
      <trkpt lat="45.70478" lon="4.67718">
        <ele>346</ele>
        <time>2011-10-16T07:12:09Z</time>
      </trkpt>
      <trkpt lat="45.70477" lon="4.67712">
        <ele>346</ele>
        <time>2011-10-16T07:12:10Z</time>
      </trkpt>
      <trkpt lat="45.70479" lon="4.67705">
        <ele>346</ele>
        <time>2011-10-16T07:12:12Z</time>
      </trkpt>
      <trkpt lat="45.70489" lon="4.67699">
        <ele>346</ele>
        <time>2011-10-16T07:12:14Z</time>
      </trkpt>
      <trkpt lat="45.70494" lon="4.67695">
        <ele>346</ele>
        <time>2011-10-16T07:12:16Z</time>
      </trkpt>
      <trkpt lat="45.705" lon="4.67692">
        <ele>346</ele>
        <time>2011-10-16T07:12:20Z</time>
      </trkpt>
      <trkpt lat="45.70506" lon="4.67695">
        <ele>347</ele>
        <time>2011-10-16T07:12:24Z</time>
      </trkpt>
      <trkpt lat="45.70511" lon="4.67701">
        <ele>347</ele>
        <time>2011-10-16T07:12:26Z</time>
      </trkpt>
      <trkpt lat="45.70516" lon="4.67706">
        <ele>347</ele>
        <time>2011-10-16T07:12:28Z</time>
      </trkpt>
      <trkpt lat="45.7052" lon="4.67712">
        <ele>347</ele>
        <time>2011-10-16T07:12:32Z</time>
      </trkpt>
      <trkpt lat="45.70527" lon="4.67717">
        <ele>347</ele>
        <time>2011-10-16T07:12:35Z</time>
      </trkpt>
      <trkpt lat="45.70533" lon="4.67722">
        <ele>348</ele>
        <time>2011-10-16T07:12:39Z</time>
      </trkpt>
      <trkpt lat="45.70538" lon="4.67725">
        <ele>348</ele>
        <time>2011-10-16T07:12:42Z</time>
      </trkpt>
      <trkpt lat="45.70543" lon="4.67725">
        <ele>348</ele>
        <time>2011-10-16T07:12:44Z</time>
      </trkpt>
      <trkpt lat="45.70548" lon="4.67729">
        <ele>348</ele>
        <time>2011-10-16T07:12:47Z</time>
      </trkpt>
      <trkpt lat="45.70554" lon="4.67731">
        <ele>348</ele>
        <time>2011-10-16T07:12:50Z</time>
      </trkpt>
      <trkpt lat="45.70558" lon="4.67733">
        <ele>348</ele>
        <time>2011-10-16T07:12:52Z</time>
      </trkpt>
      <trkpt lat="45.70563" lon="4.67738">
        <ele>348</ele>
        <time>2011-10-16T07:12:55Z</time>
      </trkpt>
      <trkpt lat="45.7057" lon="4.67738">
        <ele>348</ele>
        <time>2011-10-16T07:13:00Z</time>
      </trkpt>
      <trkpt lat="45.70574" lon="4.67741">
        <ele>348</ele>
        <time>2011-10-16T07:13:02Z</time>
      </trkpt>
      <trkpt lat="45.70578" lon="4.67744">
        <ele>348</ele>
        <time>2011-10-16T07:13:06Z</time>
      </trkpt>
      <trkpt lat="45.70584" lon="4.67747">
        <ele>349</ele>
        <time>2011-10-16T07:13:09Z</time>
      </trkpt>
      <trkpt lat="45.70588" lon="4.67749">
        <ele>349</ele>
        <time>2011-10-16T07:13:11Z</time>
      </trkpt>
      <trkpt lat="45.70591" lon="4.67754">
        <ele>348</ele>
        <time>2011-10-16T07:13:13Z</time>
      </trkpt>
      <trkpt lat="45.70596" lon="4.67756">
        <ele>348</ele>
        <time>2011-10-16T07:13:15Z</time>
      </trkpt>
      <trkpt lat="45.70601" lon="4.67761">
        <ele>348</ele>
        <time>2011-10-16T07:13:18Z</time>
      </trkpt>
      <trkpt lat="45.70606" lon="4.67765">
        <ele>348</ele>
        <time>2011-10-16T07:13:20Z</time>
      </trkpt>
      <trkpt lat="45.70612" lon="4.6777">
        <ele>348</ele>
        <time>2011-10-16T07:13:22Z</time>
      </trkpt>
      <trkpt lat="45.70619" lon="4.67777">
        <ele>348</ele>
        <time>2011-10-16T07:13:24Z</time>
      </trkpt>
      <trkpt lat="45.70623" lon="4.67781">
        <ele>348</ele>
        <time>2011-10-16T07:13:25Z</time>
      </trkpt>
      <trkpt lat="45.70628" lon="4.67786">
        <ele>348</ele>
        <time>2011-10-16T07:13:26Z</time>
      </trkpt>
      <trkpt lat="45.70632" lon="4.67791">
        <ele>348</ele>
        <time>2011-10-16T07:13:27Z</time>
      </trkpt>
      <trkpt lat="45.70637" lon="4.67796">
        <ele>348</ele>
        <time>2011-10-16T07:13:28Z</time>
      </trkpt>
      <trkpt lat="45.70642" lon="4.67802">
        <ele>348</ele>
        <time>2011-10-16T07:13:29Z</time>
      </trkpt>
      <trkpt lat="45.70647" lon="4.67808">
        <ele>348</ele>
        <time>2011-10-16T07:13:30Z</time>
      </trkpt>
      <trkpt lat="45.70653" lon="4.67814">
        <ele>348</ele>
        <time>2011-10-16T07:13:31Z</time>
      </trkpt>
      <trkpt lat="45.70659" lon="4.6782">
        <ele>348</ele>
        <time>2011-10-16T07:13:32Z</time>
      </trkpt>
      <trkpt lat="45.70666" lon="4.67828">
        <ele>347</ele>
        <time>2011-10-16T07:13:33Z</time>
      </trkpt>
      <trkpt lat="45.70671" lon="4.67833">
        <ele>348</ele>
        <time>2011-10-16T07:13:34Z</time>
      </trkpt>
      <trkpt lat="45.70684" lon="4.6784">
        <ele>345</ele>
        <time>2011-10-16T07:13:36Z</time>
      </trkpt>
      <trkpt lat="45.7069" lon="4.67844">
        <ele>345</ele>
        <time>2011-10-16T07:13:37Z</time>
      </trkpt>
      <trkpt lat="45.70695" lon="4.67847">
        <ele>345</ele>
        <time>2011-10-16T07:13:38Z</time>
      </trkpt>
      <trkpt lat="45.70701" lon="4.6785">
        <ele>345</ele>
        <time>2011-10-16T07:13:39Z</time>
      </trkpt>
      <trkpt lat="45.70706" lon="4.67852">
        <ele>345</ele>
        <time>2011-10-16T07:13:40Z</time>
      </trkpt>
      <trkpt lat="45.70718" lon="4.67855">
        <ele>345</ele>
        <time>2011-10-16T07:13:42Z</time>
      </trkpt>
      <trkpt lat="45.70724" lon="4.67857">
        <ele>345</ele>
        <time>2011-10-16T07:13:43Z</time>
      </trkpt>
      <trkpt lat="45.7073" lon="4.67858">
        <ele>346</ele>
        <time>2011-10-16T07:13:44Z</time>
      </trkpt>
      <trkpt lat="45.70736" lon="4.6786">
        <ele>346</ele>
        <time>2011-10-16T07:13:45Z</time>
      </trkpt>
      <trkpt lat="45.70741" lon="4.6786">
        <ele>346</ele>
        <time>2011-10-16T07:13:46Z</time>
      </trkpt>
      <trkpt lat="45.70746" lon="4.67861">
        <ele>346</ele>
        <time>2011-10-16T07:13:47Z</time>
      </trkpt>
      <trkpt lat="45.70752" lon="4.67863">
        <ele>347</ele>
        <time>2011-10-16T07:13:48Z</time>
      </trkpt>
      <trkpt lat="45.70756" lon="4.67863">
        <ele>347</ele>
        <time>2011-10-16T07:13:49Z</time>
      </trkpt>
      <trkpt lat="45.70762" lon="4.67862">
        <ele>347</ele>
        <time>2011-10-16T07:13:50Z</time>
      </trkpt>
      <trkpt lat="45.70767" lon="4.67863">
        <ele>347</ele>
        <time>2011-10-16T07:13:51Z</time>
      </trkpt>
      <trkpt lat="45.70772" lon="4.67863">
        <ele>347</ele>
        <time>2011-10-16T07:13:52Z</time>
      </trkpt>
      <trkpt lat="45.70778" lon="4.67864">
        <ele>347</ele>
        <time>2011-10-16T07:13:53Z</time>
      </trkpt>
      <trkpt lat="45.70783" lon="4.67864">
        <ele>347</ele>
        <time>2011-10-16T07:13:54Z</time>
      </trkpt>
      <trkpt lat="45.70788" lon="4.67864">
        <ele>346</ele>
        <time>2011-10-16T07:13:55Z</time>
      </trkpt>
      <trkpt lat="45.70794" lon="4.67864">
        <ele>346</ele>
        <time>2011-10-16T07:13:56Z</time>
      </trkpt>
      <trkpt lat="45.70799" lon="4.67865">
        <ele>346</ele>
        <time>2011-10-16T07:13:57Z</time>
      </trkpt>
      <trkpt lat="45.70805" lon="4.67865">
        <ele>346</ele>
        <time>2011-10-16T07:13:58Z</time>
      </trkpt>
      <trkpt lat="45.70811" lon="4.67866">
        <ele>346</ele>
        <time>2011-10-16T07:13:59Z</time>
      </trkpt>
      <trkpt lat="45.70816" lon="4.67866">
        <ele>346</ele>
        <time>2011-10-16T07:14:00Z</time>
      </trkpt>
      <trkpt lat="45.70822" lon="4.67866">
        <ele>346</ele>
        <time>2011-10-16T07:14:01Z</time>
      </trkpt>
      <trkpt lat="45.70827" lon="4.67865">
        <ele>346</ele>
        <time>2011-10-16T07:14:02Z</time>
      </trkpt>
      <trkpt lat="45.70832" lon="4.67864">
        <ele>347</ele>
        <time>2011-10-16T07:14:03Z</time>
      </trkpt>
      <trkpt lat="45.70836" lon="4.67865">
        <ele>346</ele>
        <time>2011-10-16T07:14:04Z</time>
      </trkpt>
      <trkpt lat="45.70841" lon="4.67865">
        <ele>346</ele>
        <time>2011-10-16T07:14:05Z</time>
      </trkpt>
      <trkpt lat="45.70846" lon="4.67865">
        <ele>346</ele>
        <time>2011-10-16T07:14:06Z</time>
      </trkpt>
      <trkpt lat="45.70852" lon="4.67865">
        <ele>346</ele>
        <time>2011-10-16T07:14:07Z</time>
      </trkpt>
      <trkpt lat="45.70857" lon="4.67864">
        <ele>346</ele>
        <time>2011-10-16T07:14:08Z</time>
      </trkpt>
      <trkpt lat="45.70862" lon="4.67864">
        <ele>345</ele>
        <time>2011-10-16T07:14:09Z</time>
      </trkpt>
      <trkpt lat="45.70871" lon="4.67864">
        <ele>345</ele>
        <time>2011-10-16T07:14:11Z</time>
      </trkpt>
      <trkpt lat="45.70877" lon="4.67864">
        <ele>345</ele>
        <time>2011-10-16T07:14:12Z</time>
      </trkpt>
      <trkpt lat="45.70882" lon="4.67865">
        <ele>345</ele>
        <time>2011-10-16T07:14:13Z</time>
      </trkpt>
      <trkpt lat="45.7089" lon="4.67868">
        <ele>345</ele>
        <time>2011-10-16T07:14:15Z</time>
      </trkpt>
      <trkpt lat="45.70897" lon="4.6787">
        <ele>345</ele>
        <time>2011-10-16T07:14:16Z</time>
      </trkpt>
      <trkpt lat="45.70904" lon="4.67873">
        <ele>345</ele>
        <time>2011-10-16T07:14:17Z</time>
      </trkpt>
      <trkpt lat="45.70911" lon="4.67874">
        <ele>345</ele>
        <time>2011-10-16T07:14:18Z</time>
      </trkpt>
      <trkpt lat="45.70916" lon="4.67876">
        <ele>344</ele>
        <time>2011-10-16T07:14:19Z</time>
      </trkpt>
      <trkpt lat="45.70923" lon="4.67879">
        <ele>344</ele>
        <time>2011-10-16T07:14:20Z</time>
      </trkpt>
      <trkpt lat="45.70929" lon="4.67882">
        <ele>344</ele>
        <time>2011-10-16T07:14:21Z</time>
      </trkpt>
      <trkpt lat="45.70934" lon="4.67884">
        <ele>344</ele>
        <time>2011-10-16T07:14:22Z</time>
      </trkpt>
      <trkpt lat="45.70939" lon="4.67886">
        <ele>344</ele>
        <time>2011-10-16T07:14:23Z</time>
      </trkpt>
      <trkpt lat="45.70944" lon="4.67888">
        <ele>344</ele>
        <time>2011-10-16T07:14:24Z</time>
      </trkpt>
      <trkpt lat="45.70949" lon="4.67889">
        <ele>344</ele>
        <time>2011-10-16T07:14:25Z</time>
      </trkpt>
      <trkpt lat="45.70958" lon="4.6789">
        <ele>344</ele>
        <time>2011-10-16T07:14:27Z</time>
      </trkpt>
      <trkpt lat="45.70962" lon="4.67889">
        <ele>344</ele>
        <time>2011-10-16T07:14:28Z</time>
      </trkpt>
      <trkpt lat="45.7097" lon="4.67888">
        <ele>344</ele>
        <time>2011-10-16T07:14:30Z</time>
      </trkpt>
      <trkpt lat="45.70978" lon="4.67886">
        <ele>344</ele>
        <time>2011-10-16T07:14:32Z</time>
      </trkpt>
      <trkpt lat="45.70984" lon="4.67884">
        <ele>344</ele>
        <time>2011-10-16T07:14:34Z</time>
      </trkpt>
      <trkpt lat="45.7099" lon="4.67884">
        <ele>344</ele>
        <time>2011-10-16T07:14:36Z</time>
      </trkpt>
      <trkpt lat="45.70997" lon="4.67882">
        <ele>344</ele>
        <time>2011-10-16T07:14:39Z</time>
      </trkpt>
      <trkpt lat="45.71001" lon="4.6788">
        <ele>345</ele>
        <time>2011-10-16T07:14:43Z</time>
      </trkpt>
      <trkpt lat="45.71006" lon="4.67877">
        <ele>345</ele>
        <time>2011-10-16T07:14:47Z</time>
      </trkpt>
      <trkpt lat="45.71006" lon="4.67869">
        <ele>345</ele>
        <time>2011-10-16T07:14:51Z</time>
      </trkpt>
      <trkpt lat="45.71006" lon="4.67862">
        <ele>346</ele>
        <time>2011-10-16T07:15:39Z</time>
      </trkpt>
      <trkpt lat="45.71004" lon="4.67855">
        <ele>346</ele>
        <time>2011-10-16T07:15:42Z</time>
      </trkpt>
      <trkpt lat="45.71003" lon="4.67847">
        <ele>346</ele>
        <time>2011-10-16T07:15:45Z</time>
      </trkpt>
      <trkpt lat="45.71003" lon="4.67838">
        <ele>347</ele>
        <time>2011-10-16T07:15:48Z</time>
      </trkpt>
      <trkpt lat="45.71002" lon="4.67829">
        <ele>348</ele>
        <time>2011-10-16T07:15:51Z</time>
      </trkpt>
      <trkpt lat="45.71002" lon="4.67821">
        <ele>348</ele>
        <time>2011-10-16T07:15:53Z</time>
      </trkpt>
      <trkpt lat="45.71002" lon="4.67814">
        <ele>349</ele>
        <time>2011-10-16T07:15:55Z</time>
      </trkpt>
      <trkpt lat="45.71001" lon="4.67807">
        <ele>349</ele>
        <time>2011-10-16T07:15:57Z</time>
      </trkpt>
      <trkpt lat="45.71001" lon="4.678">
        <ele>350</ele>
        <time>2011-10-16T07:15:59Z</time>
      </trkpt>
      <trkpt lat="45.71002" lon="4.67793">
        <ele>350</ele>
        <time>2011-10-16T07:16:01Z</time>
      </trkpt>
      <trkpt lat="45.71002" lon="4.67786">
        <ele>351</ele>
        <time>2011-10-16T07:16:03Z</time>
      </trkpt>
      <trkpt lat="45.71003" lon="4.67779">
        <ele>351</ele>
        <time>2011-10-16T07:16:05Z</time>
      </trkpt>
      <trkpt lat="45.71004" lon="4.67772">
        <ele>351</ele>
        <time>2011-10-16T07:16:07Z</time>
      </trkpt>
      <trkpt lat="45.71004" lon="4.67765">
        <ele>352</ele>
        <time>2011-10-16T07:16:09Z</time>
      </trkpt>
      <trkpt lat="45.71003" lon="4.67757">
        <ele>352</ele>
        <time>2011-10-16T07:16:11Z</time>
      </trkpt>
      <trkpt lat="45.71002" lon="4.6775">
        <ele>353</ele>
        <time>2011-10-16T07:16:13Z</time>
      </trkpt>
      <trkpt lat="45.71" lon="4.67744">
        <ele>353</ele>
        <time>2011-10-16T07:16:15Z</time>
      </trkpt>
      <trkpt lat="45.70998" lon="4.67737">
        <ele>355</ele>
        <time>2011-10-16T07:16:17Z</time>
      </trkpt>
      <trkpt lat="45.70995" lon="4.6773">
        <ele>355</ele>
        <time>2011-10-16T07:16:19Z</time>
      </trkpt>
      <trkpt lat="45.70993" lon="4.67724">
        <ele>355</ele>
        <time>2011-10-16T07:16:21Z</time>
      </trkpt>
      <trkpt lat="45.70992" lon="4.67717">
        <ele>356</ele>
        <time>2011-10-16T07:16:23Z</time>
      </trkpt>
      <trkpt lat="45.70991" lon="4.6771">
        <ele>356</ele>
        <time>2011-10-16T07:16:25Z</time>
      </trkpt>
      <trkpt lat="45.7099" lon="4.67703">
        <ele>356</ele>
        <time>2011-10-16T07:16:27Z</time>
      </trkpt>
      <trkpt lat="45.70989" lon="4.67696">
        <ele>357</ele>
        <time>2011-10-16T07:16:29Z</time>
      </trkpt>
      <trkpt lat="45.70988" lon="4.67688">
        <ele>357</ele>
        <time>2011-10-16T07:16:31Z</time>
      </trkpt>
      <trkpt lat="45.70987" lon="4.67682">
        <ele>357</ele>
        <time>2011-10-16T07:16:33Z</time>
      </trkpt>
      <trkpt lat="45.70984" lon="4.67671">
        <ele>357</ele>
        <time>2011-10-16T07:16:36Z</time>
      </trkpt>
      <trkpt lat="45.70983" lon="4.67665">
        <ele>359</ele>
        <time>2011-10-16T07:16:37Z</time>
      </trkpt>
      <trkpt lat="45.70981" lon="4.67656">
        <ele>359</ele>
        <time>2011-10-16T07:16:40Z</time>
      </trkpt>
      <trkpt lat="45.7098" lon="4.6765">
        <ele>359</ele>
        <time>2011-10-16T07:16:42Z</time>
      </trkpt>
      <trkpt lat="45.70978" lon="4.67644">
        <ele>360</ele>
        <time>2011-10-16T07:16:44Z</time>
      </trkpt>
      <trkpt lat="45.70976" lon="4.67635">
        <ele>360</ele>
        <time>2011-10-16T07:16:46Z</time>
      </trkpt>
      <trkpt lat="45.70974" lon="4.67627">
        <ele>360</ele>
        <time>2011-10-16T07:16:48Z</time>
      </trkpt>
      <trkpt lat="45.70973" lon="4.67619">
        <ele>361</ele>
        <time>2011-10-16T07:16:50Z</time>
      </trkpt>
      <trkpt lat="45.70972" lon="4.67611">
        <ele>361</ele>
        <time>2011-10-16T07:16:52Z</time>
      </trkpt>
      <trkpt lat="45.70971" lon="4.67604">
        <ele>361</ele>
        <time>2011-10-16T07:16:54Z</time>
      </trkpt>
      <trkpt lat="45.70969" lon="4.67596">
        <ele>361</ele>
        <time>2011-10-16T07:16:56Z</time>
      </trkpt>
      <trkpt lat="45.70968" lon="4.67589">
        <ele>361</ele>
        <time>2011-10-16T07:16:58Z</time>
      </trkpt>
      <trkpt lat="45.70967" lon="4.67582">
        <ele>363</ele>
        <time>2011-10-16T07:17:00Z</time>
      </trkpt>
      <trkpt lat="45.70966" lon="4.67575">
        <ele>363</ele>
        <time>2011-10-16T07:17:02Z</time>
      </trkpt>
      <trkpt lat="45.70965" lon="4.67567">
        <ele>364</ele>
        <time>2011-10-16T07:17:04Z</time>
      </trkpt>
      <trkpt lat="45.70963" lon="4.6756">
        <ele>364</ele>
        <time>2011-10-16T07:17:06Z</time>
      </trkpt>
      <trkpt lat="45.70962" lon="4.67553">
        <ele>364</ele>
        <time>2011-10-16T07:17:08Z</time>
      </trkpt>
      <trkpt lat="45.7096" lon="4.67546">
        <ele>364</ele>
        <time>2011-10-16T07:17:10Z</time>
      </trkpt>
      <trkpt lat="45.70959" lon="4.67539">
        <ele>364</ele>
        <time>2011-10-16T07:17:12Z</time>
      </trkpt>
      <trkpt lat="45.70956" lon="4.6753">
        <ele>365</ele>
        <time>2011-10-16T07:17:15Z</time>
      </trkpt>
      <trkpt lat="45.70955" lon="4.67522">
        <ele>365</ele>
        <time>2011-10-16T07:17:18Z</time>
      </trkpt>
      <trkpt lat="45.70955" lon="4.67513">
        <ele>365</ele>
        <time>2011-10-16T07:17:21Z</time>
      </trkpt>
      <trkpt lat="45.70955" lon="4.67505">
        <ele>365</ele>
        <time>2011-10-16T07:17:24Z</time>
      </trkpt>
      <trkpt lat="45.70956" lon="4.67497">
        <ele>366</ele>
        <time>2011-10-16T07:17:27Z</time>
      </trkpt>
      <trkpt lat="45.70957" lon="4.67489">
        <ele>366</ele>
        <time>2011-10-16T07:17:30Z</time>
      </trkpt>
      <trkpt lat="45.70957" lon="4.67481">
        <ele>366</ele>
        <time>2011-10-16T07:17:33Z</time>
      </trkpt>
      <trkpt lat="45.70958" lon="4.67473">
        <ele>366</ele>
        <time>2011-10-16T07:17:35Z</time>
      </trkpt>
      <trkpt lat="45.70959" lon="4.67463">
        <ele>366</ele>
        <time>2011-10-16T07:17:39Z</time>
      </trkpt>
      <trkpt lat="45.7096" lon="4.67455">
        <ele>366</ele>
        <time>2011-10-16T07:17:41Z</time>
      </trkpt>
      <trkpt lat="45.70961" lon="4.67448">
        <ele>367</ele>
        <time>2011-10-16T07:17:43Z</time>
      </trkpt>
      <trkpt lat="45.70961" lon="4.6744">
        <ele>367</ele>
        <time>2011-10-16T07:17:45Z</time>
      </trkpt>
      <trkpt lat="45.70961" lon="4.6743">
        <ele>367</ele>
        <time>2011-10-16T07:17:47Z</time>
      </trkpt>
      <trkpt lat="45.70961" lon="4.67419">
        <ele>367</ele>
        <time>2011-10-16T07:17:49Z</time>
      </trkpt>
      <trkpt lat="45.70962" lon="4.67407">
        <ele>366</ele>
        <time>2011-10-16T07:17:51Z</time>
      </trkpt>
      <trkpt lat="45.70962" lon="4.67393">
        <ele>366</ele>
        <time>2011-10-16T07:17:53Z</time>
      </trkpt>
      <trkpt lat="45.70961" lon="4.67386">
        <ele>366</ele>
        <time>2011-10-16T07:17:54Z</time>
      </trkpt>
      <trkpt lat="45.7096" lon="4.6738">
        <ele>366</ele>
        <time>2011-10-16T07:17:55Z</time>
      </trkpt>
      <trkpt lat="45.70958" lon="4.67373">
        <ele>366</ele>
        <time>2011-10-16T07:17:56Z</time>
      </trkpt>
      <trkpt lat="45.70955" lon="4.67367">
        <ele>366</ele>
        <time>2011-10-16T07:17:57Z</time>
      </trkpt>
      <trkpt lat="45.70952" lon="4.67362">
        <ele>366</ele>
        <time>2011-10-16T07:17:58Z</time>
      </trkpt>
      <trkpt lat="45.7095" lon="4.67356">
        <ele>366</ele>
        <time>2011-10-16T07:17:59Z</time>
      </trkpt>
      <trkpt lat="45.70947" lon="4.67351">
        <ele>366</ele>
        <time>2011-10-16T07:18:00Z</time>
      </trkpt>
      <trkpt lat="45.70942" lon="4.67342">
        <ele>366</ele>
        <time>2011-10-16T07:18:02Z</time>
      </trkpt>
      <trkpt lat="45.70938" lon="4.67332">
        <ele>366</ele>
        <time>2011-10-16T07:18:04Z</time>
      </trkpt>
      <trkpt lat="45.70933" lon="4.6732">
        <ele>366</ele>
        <time>2011-10-16T07:18:06Z</time>
      </trkpt>
      <trkpt lat="45.70928" lon="4.67312">
        <ele>366</ele>
        <time>2011-10-16T07:18:08Z</time>
      </trkpt>
      <trkpt lat="45.70924" lon="4.67303">
        <ele>366</ele>
        <time>2011-10-16T07:18:10Z</time>
      </trkpt>
      <trkpt lat="45.7092" lon="4.67294">
        <ele>366</ele>
        <time>2011-10-16T07:18:12Z</time>
      </trkpt>
      <trkpt lat="45.70916" lon="4.67284">
        <ele>369</ele>
        <time>2011-10-16T07:18:14Z</time>
      </trkpt>
      <trkpt lat="45.70913" lon="4.67275">
        <ele>369</ele>
        <time>2011-10-16T07:18:16Z</time>
      </trkpt>
      <trkpt lat="45.7091" lon="4.67266">
        <ele>368</ele>
        <time>2011-10-16T07:18:18Z</time>
      </trkpt>
      <trkpt lat="45.70908" lon="4.67256">
        <ele>368</ele>
        <time>2011-10-16T07:18:20Z</time>
      </trkpt>
      <trkpt lat="45.70906" lon="4.67246">
        <ele>368</ele>
        <time>2011-10-16T07:18:22Z</time>
      </trkpt>
      <trkpt lat="45.70905" lon="4.67238">
        <ele>369</ele>
        <time>2011-10-16T07:18:24Z</time>
      </trkpt>
      <trkpt lat="45.70904" lon="4.6723">
        <ele>369</ele>
        <time>2011-10-16T07:18:26Z</time>
      </trkpt>
      <trkpt lat="45.70903" lon="4.67222">
        <ele>370</ele>
        <time>2011-10-16T07:18:29Z</time>
      </trkpt>
      <trkpt lat="45.70903" lon="4.67215">
        <ele>370</ele>
        <time>2011-10-16T07:18:32Z</time>
      </trkpt>
      <trkpt lat="45.70902" lon="4.67206">
        <ele>370</ele>
        <time>2011-10-16T07:18:36Z</time>
      </trkpt>
      <trkpt lat="45.70901" lon="4.67198">
        <ele>370</ele>
        <time>2011-10-16T07:18:41Z</time>
      </trkpt>
      <trkpt lat="45.70899" lon="4.6719">
        <ele>370</ele>
        <time>2011-10-16T07:18:44Z</time>
      </trkpt>
      <trkpt lat="45.70897" lon="4.67184">
        <ele>370</ele>
        <time>2011-10-16T07:18:48Z</time>
      </trkpt>
      <trkpt lat="45.70891" lon="4.67182">
        <ele>370</ele>
        <time>2011-10-16T07:18:53Z</time>
      </trkpt>
      <trkpt lat="45.70886" lon="4.67184">
        <ele>371</ele>
        <time>2011-10-16T07:18:56Z</time>
      </trkpt>
      <trkpt lat="45.70881" lon="4.67184">
        <ele>371</ele>
        <time>2011-10-16T07:18:58Z</time>
      </trkpt>
      <trkpt lat="45.70875" lon="4.67186">
        <ele>371</ele>
        <time>2011-10-16T07:19:01Z</time>
      </trkpt>
      <trkpt lat="45.7087" lon="4.67188">
        <ele>371</ele>
        <time>2011-10-16T07:19:04Z</time>
      </trkpt>
      <trkpt lat="45.70865" lon="4.67184">
        <ele>371</ele>
        <time>2011-10-16T07:19:07Z</time>
      </trkpt>
      <trkpt lat="45.70866" lon="4.67177">
        <ele>371</ele>
        <time>2011-10-16T07:19:09Z</time>
      </trkpt>
      <trkpt lat="45.70863" lon="4.67167">
        <ele>371</ele>
        <time>2011-10-16T07:19:12Z</time>
      </trkpt>
      <trkpt lat="45.70861" lon="4.6716">
        <ele>373</ele>
        <time>2011-10-16T07:19:14Z</time>
      </trkpt>
      <trkpt lat="45.70859" lon="4.6715">
        <ele>373</ele>
        <time>2011-10-16T07:19:17Z</time>
      </trkpt>
      <trkpt lat="45.70857" lon="4.67144">
        <ele>373</ele>
        <time>2011-10-16T07:19:19Z</time>
      </trkpt>
      <trkpt lat="45.70855" lon="4.67135">
        <ele>373</ele>
        <time>2011-10-16T07:19:22Z</time>
      </trkpt>
      <trkpt lat="45.70853" lon="4.67126">
        <ele>373</ele>
        <time>2011-10-16T07:19:25Z</time>
      </trkpt>
      <trkpt lat="45.70851" lon="4.67117">
        <ele>373</ele>
        <time>2011-10-16T07:19:28Z</time>
      </trkpt>
      <trkpt lat="45.7085" lon="4.6711">
        <ele>373</ele>
        <time>2011-10-16T07:19:30Z</time>
      </trkpt>
      <trkpt lat="45.70848" lon="4.67102">
        <ele>374</ele>
        <time>2011-10-16T07:19:33Z</time>
      </trkpt>
      <trkpt lat="45.70847" lon="4.67094">
        <ele>374</ele>
        <time>2011-10-16T07:19:36Z</time>
      </trkpt>
      <trkpt lat="45.70846" lon="4.67084">
        <ele>374</ele>
        <time>2011-10-16T07:19:39Z</time>
      </trkpt>
      <trkpt lat="45.70844" lon="4.67076">
        <ele>376</ele>
        <time>2011-10-16T07:19:42Z</time>
      </trkpt>
      <trkpt lat="45.70843" lon="4.6707">
        <ele>376</ele>
        <time>2011-10-16T07:19:44Z</time>
      </trkpt>
      <trkpt lat="45.70841" lon="4.67062">
        <ele>377</ele>
        <time>2011-10-16T07:19:47Z</time>
      </trkpt>
      <trkpt lat="45.70839" lon="4.67054">
        <ele>377</ele>
        <time>2011-10-16T07:19:50Z</time>
      </trkpt>
      <trkpt lat="45.70837" lon="4.67046">
        <ele>377</ele>
        <time>2011-10-16T07:19:53Z</time>
      </trkpt>
      <trkpt lat="45.70835" lon="4.67038">
        <ele>378</ele>
        <time>2011-10-16T07:19:56Z</time>
      </trkpt>
      <trkpt lat="45.70834" lon="4.6703">
        <ele>379</ele>
        <time>2011-10-16T07:19:59Z</time>
      </trkpt>
      <trkpt lat="45.70832" lon="4.67022">
        <ele>380</ele>
        <time>2011-10-16T07:20:02Z</time>
      </trkpt>
      <trkpt lat="45.70831" lon="4.67014">
        <ele>381</ele>
        <time>2011-10-16T07:20:05Z</time>
      </trkpt>
      <trkpt lat="45.70829" lon="4.67007">
        <ele>381</ele>
        <time>2011-10-16T07:20:08Z</time>
      </trkpt>
      <trkpt lat="45.70828" lon="4.67">
        <ele>383</ele>
        <time>2011-10-16T07:20:11Z</time>
      </trkpt>
      <trkpt lat="45.70826" lon="4.66992">
        <ele>383</ele>
        <time>2011-10-16T07:20:14Z</time>
      </trkpt>
      <trkpt lat="45.70825" lon="4.66985">
        <ele>384</ele>
        <time>2011-10-16T07:20:17Z</time>
      </trkpt>
      <trkpt lat="45.70824" lon="4.66978">
        <ele>385</ele>
        <time>2011-10-16T07:20:20Z</time>
      </trkpt>
      <trkpt lat="45.70822" lon="4.66971">
        <ele>385</ele>
        <time>2011-10-16T07:20:23Z</time>
      </trkpt>
      <trkpt lat="45.7082" lon="4.66963">
        <ele>385</ele>
        <time>2011-10-16T07:20:26Z</time>
      </trkpt>
      <trkpt lat="45.70819" lon="4.66955">
        <ele>386</ele>
        <time>2011-10-16T07:20:29Z</time>
      </trkpt>
      <trkpt lat="45.70817" lon="4.66947">
        <ele>386</ele>
        <time>2011-10-16T07:20:32Z</time>
      </trkpt>
      <trkpt lat="45.70814" lon="4.66936">
        <ele>387</ele>
        <time>2011-10-16T07:20:36Z</time>
      </trkpt>
      <trkpt lat="45.70812" lon="4.66929">
        <ele>387</ele>
        <time>2011-10-16T07:20:39Z</time>
      </trkpt>
      <trkpt lat="45.70812" lon="4.66921">
        <ele>387</ele>
        <time>2011-10-16T07:20:43Z</time>
      </trkpt>
      <trkpt lat="45.70812" lon="4.66912">
        <ele>391</ele>
        <time>2011-10-16T07:20:46Z</time>
      </trkpt>
      <trkpt lat="45.7081" lon="4.66904">
        <ele>391</ele>
        <time>2011-10-16T07:20:49Z</time>
      </trkpt>
      <trkpt lat="45.7081" lon="4.66894">
        <ele>392</ele>
        <time>2011-10-16T07:20:52Z</time>
      </trkpt>
      <trkpt lat="45.70809" lon="4.66887">
        <ele>392</ele>
        <time>2011-10-16T07:20:55Z</time>
      </trkpt>
      <trkpt lat="45.70809" lon="4.6688">
        <ele>392</ele>
        <time>2011-10-16T07:20:58Z</time>
      </trkpt>
      <trkpt lat="45.70808" lon="4.66872">
        <ele>393</ele>
        <time>2011-10-16T07:21:01Z</time>
      </trkpt>
      <trkpt lat="45.70808" lon="4.66864">
        <ele>393</ele>
        <time>2011-10-16T07:21:04Z</time>
      </trkpt>
      <trkpt lat="45.70807" lon="4.66857">
        <ele>393</ele>
        <time>2011-10-16T07:21:07Z</time>
      </trkpt>
      <trkpt lat="45.70806" lon="4.6685">
        <ele>394</ele>
        <time>2011-10-16T07:21:10Z</time>
      </trkpt>
      <trkpt lat="45.70805" lon="4.66843">
        <ele>394</ele>
        <time>2011-10-16T07:21:13Z</time>
      </trkpt>
      <trkpt lat="45.70805" lon="4.66835">
        <ele>394</ele>
        <time>2011-10-16T07:21:16Z</time>
      </trkpt>
      <trkpt lat="45.70805" lon="4.66826">
        <ele>398</ele>
        <time>2011-10-16T07:21:19Z</time>
      </trkpt>
      <trkpt lat="45.70806" lon="4.66818">
        <ele>399</ele>
        <time>2011-10-16T07:21:22Z</time>
      </trkpt>
      <trkpt lat="45.70809" lon="4.66812">
        <ele>399</ele>
        <time>2011-10-16T07:21:25Z</time>
      </trkpt>
      <trkpt lat="45.70812" lon="4.66806">
        <ele>399</ele>
        <time>2011-10-16T07:21:29Z</time>
      </trkpt>
      <trkpt lat="45.70812" lon="4.66799">
        <ele>400</ele>
        <time>2011-10-16T07:21:34Z</time>
      </trkpt>
      <trkpt lat="45.70809" lon="4.66793">
        <ele>400</ele>
        <time>2011-10-16T07:21:42Z</time>
      </trkpt>
      <trkpt lat="45.70814" lon="4.66792">
        <ele>400</ele>
        <time>2011-10-16T07:24:55Z</time>
      </trkpt>
      <trkpt lat="45.70818" lon="4.66789">
        <ele>400</ele>
        <time>2011-10-16T07:24:58Z</time>
      </trkpt>
      <trkpt lat="45.70825" lon="4.66786">
        <ele>401</ele>
        <time>2011-10-16T07:25:01Z</time>
      </trkpt>
      <trkpt lat="45.7083" lon="4.66784">
        <ele>401</ele>
        <time>2011-10-16T07:25:03Z</time>
      </trkpt>
      <trkpt lat="45.70835" lon="4.6678">
        <ele>401</ele>
        <time>2011-10-16T07:25:05Z</time>
      </trkpt>
      <trkpt lat="45.7084" lon="4.66775">
        <ele>401</ele>
        <time>2011-10-16T07:25:07Z</time>
      </trkpt>
      <trkpt lat="45.70845" lon="4.66772">
        <ele>401</ele>
        <time>2011-10-16T07:25:09Z</time>
      </trkpt>
      <trkpt lat="45.70851" lon="4.66768">
        <ele>401</ele>
        <time>2011-10-16T07:25:11Z</time>
      </trkpt>
      <trkpt lat="45.70857" lon="4.66763">
        <ele>401</ele>
        <time>2011-10-16T07:25:13Z</time>
      </trkpt>
      <trkpt lat="45.70863" lon="4.66759">
        <ele>401</ele>
        <time>2011-10-16T07:25:15Z</time>
      </trkpt>
      <trkpt lat="45.70869" lon="4.66754">
        <ele>401</ele>
        <time>2011-10-16T07:25:17Z</time>
      </trkpt>
      <trkpt lat="45.70875" lon="4.6675">
        <ele>401</ele>
        <time>2011-10-16T07:25:19Z</time>
      </trkpt>
      <trkpt lat="45.70881" lon="4.66745">
        <ele>405</ele>
        <time>2011-10-16T07:25:21Z</time>
      </trkpt>
      <trkpt lat="45.70887" lon="4.66742">
        <ele>405</ele>
        <time>2011-10-16T07:25:23Z</time>
      </trkpt>
      <trkpt lat="45.70894" lon="4.66736">
        <ele>405</ele>
        <time>2011-10-16T07:25:25Z</time>
      </trkpt>
      <trkpt lat="45.709" lon="4.66731">
        <ele>405</ele>
        <time>2011-10-16T07:25:27Z</time>
      </trkpt>
      <trkpt lat="45.70907" lon="4.66726">
        <ele>405</ele>
        <time>2011-10-16T07:25:29Z</time>
      </trkpt>
      <trkpt lat="45.70912" lon="4.66722">
        <ele>405</ele>
        <time>2011-10-16T07:25:31Z</time>
      </trkpt>
      <trkpt lat="45.70918" lon="4.66719">
        <ele>403</ele>
        <time>2011-10-16T07:25:33Z</time>
      </trkpt>
      <trkpt lat="45.70927" lon="4.66713">
        <ele>403</ele>
        <time>2011-10-16T07:25:36Z</time>
      </trkpt>
      <trkpt lat="45.70936" lon="4.66706">
        <ele>404</ele>
        <time>2011-10-16T07:25:39Z</time>
      </trkpt>
      <trkpt lat="45.70942" lon="4.66702">
        <ele>404</ele>
        <time>2011-10-16T07:25:41Z</time>
      </trkpt>
      <trkpt lat="45.70948" lon="4.66698">
        <ele>404</ele>
        <time>2011-10-16T07:25:43Z</time>
      </trkpt>
      <trkpt lat="45.70954" lon="4.66694">
        <ele>404</ele>
        <time>2011-10-16T07:25:45Z</time>
      </trkpt>
      <trkpt lat="45.7096" lon="4.66689">
        <ele>404</ele>
        <time>2011-10-16T07:25:47Z</time>
      </trkpt>
      <trkpt lat="45.70965" lon="4.66685">
        <ele>404</ele>
        <time>2011-10-16T07:25:49Z</time>
      </trkpt>
      <trkpt lat="45.70971" lon="4.66682">
        <ele>404</ele>
        <time>2011-10-16T07:25:51Z</time>
      </trkpt>
      <trkpt lat="45.70975" lon="4.66676">
        <ele>404</ele>
        <time>2011-10-16T07:25:53Z</time>
      </trkpt>
      <trkpt lat="45.7098" lon="4.66672">
        <ele>404</ele>
        <time>2011-10-16T07:25:55Z</time>
      </trkpt>
      <trkpt lat="45.70985" lon="4.66669">
        <ele>405</ele>
        <time>2011-10-16T07:25:57Z</time>
      </trkpt>
      <trkpt lat="45.70992" lon="4.66665">
        <ele>408</ele>
        <time>2011-10-16T07:26:00Z</time>
      </trkpt>
      <trkpt lat="45.70998" lon="4.66663">
        <ele>407</ele>
        <time>2011-10-16T07:26:02Z</time>
      </trkpt>
      <trkpt lat="45.71005" lon="4.66663">
        <ele>408</ele>
        <time>2011-10-16T07:26:04Z</time>
      </trkpt>
      <trkpt lat="45.7101" lon="4.66665">
        <ele>408</ele>
        <time>2011-10-16T07:26:06Z</time>
      </trkpt>
      <trkpt lat="45.71014" lon="4.66666">
        <ele>409</ele>
        <time>2011-10-16T07:26:08Z</time>
      </trkpt>
      <trkpt lat="45.71019" lon="4.66664">
        <ele>410</ele>
        <time>2011-10-16T07:26:10Z</time>
      </trkpt>
      <trkpt lat="45.71023" lon="4.66661">
        <ele>410</ele>
        <time>2011-10-16T07:26:13Z</time>
      </trkpt>
      <trkpt lat="45.71027" lon="4.66658">
        <ele>411</ele>
        <time>2011-10-16T07:26:15Z</time>
      </trkpt>
      <trkpt lat="45.71032" lon="4.66654">
        <ele>411</ele>
        <time>2011-10-16T07:26:17Z</time>
      </trkpt>
      <trkpt lat="45.71037" lon="4.6665">
        <ele>411</ele>
        <time>2011-10-16T07:26:20Z</time>
      </trkpt>
      <trkpt lat="45.71043" lon="4.66647">
        <ele>412</ele>
        <time>2011-10-16T07:26:23Z</time>
      </trkpt>
      <trkpt lat="45.7105" lon="4.66646">
        <ele>412</ele>
        <time>2011-10-16T07:26:26Z</time>
      </trkpt>
      <trkpt lat="45.71054" lon="4.66648">
        <ele>412</ele>
        <time>2011-10-16T07:26:28Z</time>
      </trkpt>
      <trkpt lat="45.7106" lon="4.66649">
        <ele>412</ele>
        <time>2011-10-16T07:26:30Z</time>
      </trkpt>
      <trkpt lat="45.71066" lon="4.6665">
        <ele>412</ele>
        <time>2011-10-16T07:26:33Z</time>
      </trkpt>
      <trkpt lat="45.71073" lon="4.66652">
        <ele>412</ele>
        <time>2011-10-16T07:26:36Z</time>
      </trkpt>
      <trkpt lat="45.7108" lon="4.66651">
        <ele>412</ele>
        <time>2011-10-16T07:26:39Z</time>
      </trkpt>
      <trkpt lat="45.71087" lon="4.66653">
        <ele>413</ele>
        <time>2011-10-16T07:26:42Z</time>
      </trkpt>
      <trkpt lat="45.71092" lon="4.66652">
        <ele>413</ele>
        <time>2011-10-16T07:26:44Z</time>
      </trkpt>
      <trkpt lat="45.71097" lon="4.66653">
        <ele>413</ele>
        <time>2011-10-16T07:26:46Z</time>
      </trkpt>
      <trkpt lat="45.71102" lon="4.66653">
        <ele>414</ele>
        <time>2011-10-16T07:26:48Z</time>
      </trkpt>
      <trkpt lat="45.71108" lon="4.66654">
        <ele>414</ele>
        <time>2011-10-16T07:26:50Z</time>
      </trkpt>
      <trkpt lat="45.71113" lon="4.66654">
        <ele>414</ele>
        <time>2011-10-16T07:26:52Z</time>
      </trkpt>
      <trkpt lat="45.71118" lon="4.66653">
        <ele>414</ele>
        <time>2011-10-16T07:26:54Z</time>
      </trkpt>
      <trkpt lat="45.71125" lon="4.66652">
        <ele>415</ele>
        <time>2011-10-16T07:26:57Z</time>
      </trkpt>
      <trkpt lat="45.7113" lon="4.66652">
        <ele>415</ele>
        <time>2011-10-16T07:26:59Z</time>
      </trkpt>
      <trkpt lat="45.71136" lon="4.66651">
        <ele>415</ele>
        <time>2011-10-16T07:27:01Z</time>
      </trkpt>
      <trkpt lat="45.71142" lon="4.6665">
        <ele>415</ele>
        <time>2011-10-16T07:27:03Z</time>
      </trkpt>
      <trkpt lat="45.71146" lon="4.66648">
        <ele>415</ele>
        <time>2011-10-16T07:27:05Z</time>
      </trkpt>
      <trkpt lat="45.71151" lon="4.66646">
        <ele>415</ele>
        <time>2011-10-16T07:27:07Z</time>
      </trkpt>
      <trkpt lat="45.71156" lon="4.66644">
        <ele>415</ele>
        <time>2011-10-16T07:27:09Z</time>
      </trkpt>
      <trkpt lat="45.7116" lon="4.66642">
        <ele>415</ele>
        <time>2011-10-16T07:27:11Z</time>
      </trkpt>
      <trkpt lat="45.71165" lon="4.66638">
        <ele>416</ele>
        <time>2011-10-16T07:27:13Z</time>
      </trkpt>
      <trkpt lat="45.7117" lon="4.66635">
        <ele>415</ele>
        <time>2011-10-16T07:27:15Z</time>
      </trkpt>
      <trkpt lat="45.71174" lon="4.66632">
        <ele>416</ele>
        <time>2011-10-16T07:27:17Z</time>
      </trkpt>
      <trkpt lat="45.71179" lon="4.6663">
        <ele>416</ele>
        <time>2011-10-16T07:27:19Z</time>
      </trkpt>
      <trkpt lat="45.71184" lon="4.66627">
        <ele>416</ele>
        <time>2011-10-16T07:27:21Z</time>
      </trkpt>
      <trkpt lat="45.71188" lon="4.66624">
        <ele>416</ele>
        <time>2011-10-16T07:27:23Z</time>
      </trkpt>
      <trkpt lat="45.71193" lon="4.66622">
        <ele>416</ele>
        <time>2011-10-16T07:27:25Z</time>
      </trkpt>
      <trkpt lat="45.71198" lon="4.66619">
        <ele>416</ele>
        <time>2011-10-16T07:27:27Z</time>
      </trkpt>
      <trkpt lat="45.71203" lon="4.66615">
        <ele>416</ele>
        <time>2011-10-16T07:27:29Z</time>
      </trkpt>
      <trkpt lat="45.71209" lon="4.66612">
        <ele>416</ele>
        <time>2011-10-16T07:27:31Z</time>
      </trkpt>
      <trkpt lat="45.71214" lon="4.66609">
        <ele>416</ele>
        <time>2011-10-16T07:27:33Z</time>
      </trkpt>
      <trkpt lat="45.71221" lon="4.66603">
        <ele>417</ele>
        <time>2011-10-16T07:27:36Z</time>
      </trkpt>
      <trkpt lat="45.71228" lon="4.66598">
        <ele>417</ele>
        <time>2011-10-16T07:27:39Z</time>
      </trkpt>
      <trkpt lat="45.71232" lon="4.66595">
        <ele>417</ele>
        <time>2011-10-16T07:27:41Z</time>
      </trkpt>
      <trkpt lat="45.71237" lon="4.66592">
        <ele>417</ele>
        <time>2011-10-16T07:27:43Z</time>
      </trkpt>
      <trkpt lat="45.71242" lon="4.6659">
        <ele>418</ele>
        <time>2011-10-16T07:27:45Z</time>
      </trkpt>
      <trkpt lat="45.71248" lon="4.66587">
        <ele>418</ele>
        <time>2011-10-16T07:27:47Z</time>
      </trkpt>
      <trkpt lat="45.71254" lon="4.66585">
        <ele>418</ele>
        <time>2011-10-16T07:27:49Z</time>
      </trkpt>
      <trkpt lat="45.71261" lon="4.66583">
        <ele>421</ele>
        <time>2011-10-16T07:27:51Z</time>
      </trkpt>
      <trkpt lat="45.71268" lon="4.66582">
        <ele>422</ele>
        <time>2011-10-16T07:27:53Z</time>
      </trkpt>
      <trkpt lat="45.71274" lon="4.66581">
        <ele>423</ele>
        <time>2011-10-16T07:27:55Z</time>
      </trkpt>
      <trkpt lat="45.71282" lon="4.6658">
        <ele>423</ele>
        <time>2011-10-16T07:27:57Z</time>
      </trkpt>
      <trkpt lat="45.71289" lon="4.66579">
        <ele>423</ele>
        <time>2011-10-16T07:27:59Z</time>
      </trkpt>
      <trkpt lat="45.71297" lon="4.66577">
        <ele>423</ele>
        <time>2011-10-16T07:28:01Z</time>
      </trkpt>
      <trkpt lat="45.71305" lon="4.66576">
        <ele>423</ele>
        <time>2011-10-16T07:28:03Z</time>
      </trkpt>
      <trkpt lat="45.71312" lon="4.66575">
        <ele>423</ele>
        <time>2011-10-16T07:28:05Z</time>
      </trkpt>
      <trkpt lat="45.7132" lon="4.66573">
        <ele>423</ele>
        <time>2011-10-16T07:28:07Z</time>
      </trkpt>
      <trkpt lat="45.71327" lon="4.66571">
        <ele>422</ele>
        <time>2011-10-16T07:28:09Z</time>
      </trkpt>
      <trkpt lat="45.71335" lon="4.6657">
        <ele>422</ele>
        <time>2011-10-16T07:28:11Z</time>
      </trkpt>
      <trkpt lat="45.71342" lon="4.66567">
        <ele>422</ele>
        <time>2011-10-16T07:28:13Z</time>
      </trkpt>
      <trkpt lat="45.71349" lon="4.66566">
        <ele>422</ele>
        <time>2011-10-16T07:28:15Z</time>
      </trkpt>
      <trkpt lat="45.71355" lon="4.66565">
        <ele>423</ele>
        <time>2011-10-16T07:28:17Z</time>
      </trkpt>
      <trkpt lat="45.7136" lon="4.66564">
        <ele>423</ele>
        <time>2011-10-16T07:28:19Z</time>
      </trkpt>
      <trkpt lat="45.71365" lon="4.66563">
        <ele>423</ele>
        <time>2011-10-16T07:28:21Z</time>
      </trkpt>
      <trkpt lat="45.71371" lon="4.66561">
        <ele>423</ele>
        <time>2011-10-16T07:28:23Z</time>
      </trkpt>
      <trkpt lat="45.71376" lon="4.6656">
        <ele>423</ele>
        <time>2011-10-16T07:28:25Z</time>
      </trkpt>
      <trkpt lat="45.71382" lon="4.66557">
        <ele>423</ele>
        <time>2011-10-16T07:28:27Z</time>
      </trkpt>
      <trkpt lat="45.71388" lon="4.66554">
        <ele>423</ele>
        <time>2011-10-16T07:28:29Z</time>
      </trkpt>
      <trkpt lat="45.71393" lon="4.66552">
        <ele>423</ele>
        <time>2011-10-16T07:28:31Z</time>
      </trkpt>
      <trkpt lat="45.71398" lon="4.66548">
        <ele>423</ele>
        <time>2011-10-16T07:28:33Z</time>
      </trkpt>
      <trkpt lat="45.71406" lon="4.66544">
        <ele>423</ele>
        <time>2011-10-16T07:28:36Z</time>
      </trkpt>
      <trkpt lat="45.71414" lon="4.66536">
        <ele>423</ele>
        <time>2011-10-16T07:28:39Z</time>
      </trkpt>
      <trkpt lat="45.71419" lon="4.66532">
        <ele>421</ele>
        <time>2011-10-16T07:28:41Z</time>
      </trkpt>
      <trkpt lat="45.71424" lon="4.66528">
        <ele>421</ele>
        <time>2011-10-16T07:28:43Z</time>
      </trkpt>
      <trkpt lat="45.71428" lon="4.66524">
        <ele>421</ele>
        <time>2011-10-16T07:28:45Z</time>
      </trkpt>
      <trkpt lat="45.71434" lon="4.6652">
        <ele>421</ele>
        <time>2011-10-16T07:28:47Z</time>
      </trkpt>
      <trkpt lat="45.7144" lon="4.66517">
        <ele>421</ele>
        <time>2011-10-16T07:28:49Z</time>
      </trkpt>
      <trkpt lat="45.71445" lon="4.66513">
        <ele>421</ele>
        <time>2011-10-16T07:28:51Z</time>
      </trkpt>
      <trkpt lat="45.71452" lon="4.6651">
        <ele>421</ele>
        <time>2011-10-16T07:28:54Z</time>
      </trkpt>
      <trkpt lat="45.71457" lon="4.66508">
        <ele>421</ele>
        <time>2011-10-16T07:28:56Z</time>
      </trkpt>
      <trkpt lat="45.71464" lon="4.66507">
        <ele>420</ele>
        <time>2011-10-16T07:28:58Z</time>
      </trkpt>
      <trkpt lat="45.71469" lon="4.66504">
        <ele>420</ele>
        <time>2011-10-16T07:29:00Z</time>
      </trkpt>
      <trkpt lat="45.71475" lon="4.665">
        <ele>422</ele>
        <time>2011-10-16T07:29:02Z</time>
      </trkpt>
      <trkpt lat="45.71479" lon="4.66497">
        <ele>426</ele>
        <time>2011-10-16T07:29:04Z</time>
      </trkpt>
      <trkpt lat="45.71484" lon="4.66493">
        <ele>425</ele>
        <time>2011-10-16T07:29:06Z</time>
      </trkpt>
      <trkpt lat="45.71488" lon="4.66489">
        <ele>425</ele>
        <time>2011-10-16T07:29:08Z</time>
      </trkpt>
      <trkpt lat="45.71492" lon="4.66486">
        <ele>425</ele>
        <time>2011-10-16T07:29:10Z</time>
      </trkpt>
      <trkpt lat="45.71497" lon="4.66482">
        <ele>426</ele>
        <time>2011-10-16T07:29:12Z</time>
      </trkpt>
      <trkpt lat="45.71502" lon="4.66478">
        <ele>423</ele>
        <time>2011-10-16T07:29:14Z</time>
      </trkpt>
      <trkpt lat="45.71506" lon="4.66474">
        <ele>424</ele>
        <time>2011-10-16T07:29:16Z</time>
      </trkpt>
      <trkpt lat="45.71511" lon="4.6647">
        <ele>424</ele>
        <time>2011-10-16T07:29:18Z</time>
      </trkpt>
      <trkpt lat="45.71516" lon="4.66466">
        <ele>424</ele>
        <time>2011-10-16T07:29:20Z</time>
      </trkpt>
      <trkpt lat="45.71521" lon="4.66462">
        <ele>425</ele>
        <time>2011-10-16T07:29:22Z</time>
      </trkpt>
      <trkpt lat="45.71525" lon="4.66458">
        <ele>425</ele>
        <time>2011-10-16T07:29:24Z</time>
      </trkpt>
      <trkpt lat="45.7153" lon="4.66454">
        <ele>425</ele>
        <time>2011-10-16T07:29:26Z</time>
      </trkpt>
      <trkpt lat="45.71535" lon="4.66449">
        <ele>425</ele>
        <time>2011-10-16T07:29:28Z</time>
      </trkpt>
      <trkpt lat="45.71539" lon="4.66444">
        <ele>425</ele>
        <time>2011-10-16T07:29:30Z</time>
      </trkpt>
      <trkpt lat="45.71544" lon="4.66441">
        <ele>425</ele>
        <time>2011-10-16T07:29:32Z</time>
      </trkpt>
      <trkpt lat="45.71548" lon="4.66436">
        <ele>425</ele>
        <time>2011-10-16T07:29:34Z</time>
      </trkpt>
      <trkpt lat="45.71552" lon="4.66432">
        <ele>425</ele>
        <time>2011-10-16T07:29:35Z</time>
      </trkpt>
      <trkpt lat="45.71557" lon="4.66426">
        <ele>425</ele>
        <time>2011-10-16T07:29:38Z</time>
      </trkpt>
      <trkpt lat="45.71561" lon="4.66421">
        <ele>425</ele>
        <time>2011-10-16T07:29:40Z</time>
      </trkpt>
      <trkpt lat="45.71564" lon="4.66416">
        <ele>431</ele>
        <time>2011-10-16T07:29:42Z</time>
      </trkpt>
      <trkpt lat="45.71569" lon="4.66412">
        <ele>430</ele>
        <time>2011-10-16T07:29:45Z</time>
      </trkpt>
      <trkpt lat="45.71572" lon="4.66406">
        <ele>430</ele>
        <time>2011-10-16T07:29:48Z</time>
      </trkpt>
      <trkpt lat="45.71575" lon="4.66399">
        <ele>431</ele>
        <time>2011-10-16T07:29:50Z</time>
      </trkpt>
      <trkpt lat="45.71579" lon="4.66392">
        <ele>432</ele>
        <time>2011-10-16T07:29:52Z</time>
      </trkpt>
      <trkpt lat="45.71582" lon="4.66385">
        <ele>433</ele>
        <time>2011-10-16T07:29:54Z</time>
      </trkpt>
      <trkpt lat="45.71585" lon="4.66379">
        <ele>429</ele>
        <time>2011-10-16T07:29:56Z</time>
      </trkpt>
      <trkpt lat="45.71588" lon="4.66372">
        <ele>430</ele>
        <time>2011-10-16T07:29:58Z</time>
      </trkpt>
      <trkpt lat="45.71591" lon="4.66366">
        <ele>430</ele>
        <time>2011-10-16T07:30:00Z</time>
      </trkpt>
      <trkpt lat="45.71594" lon="4.6636">
        <ele>431</ele>
        <time>2011-10-16T07:30:02Z</time>
      </trkpt>
      <trkpt lat="45.71598" lon="4.66354">
        <ele>431</ele>
        <time>2011-10-16T07:30:04Z</time>
      </trkpt>
      <trkpt lat="45.71601" lon="4.66347">
        <ele>432</ele>
        <time>2011-10-16T07:30:06Z</time>
      </trkpt>
      <trkpt lat="45.71605" lon="4.6634">
        <ele>432</ele>
        <time>2011-10-16T07:30:08Z</time>
      </trkpt>
      <trkpt lat="45.71608" lon="4.66334">
        <ele>432</ele>
        <time>2011-10-16T07:30:10Z</time>
      </trkpt>
      <trkpt lat="45.71611" lon="4.66328">
        <ele>436</ele>
        <time>2011-10-16T07:30:12Z</time>
      </trkpt>
      <trkpt lat="45.71614" lon="4.66321">
        <ele>436</ele>
        <time>2011-10-16T07:30:14Z</time>
      </trkpt>
      <trkpt lat="45.71617" lon="4.66316">
        <ele>436</ele>
        <time>2011-10-16T07:30:16Z</time>
      </trkpt>
      <trkpt lat="45.7162" lon="4.6631">
        <ele>436</ele>
        <time>2011-10-16T07:30:18Z</time>
      </trkpt>
      <trkpt lat="45.71623" lon="4.66304">
        <ele>436</ele>
        <time>2011-10-16T07:30:20Z</time>
      </trkpt>
      <trkpt lat="45.71626" lon="4.66297">
        <ele>436</ele>
        <time>2011-10-16T07:30:22Z</time>
      </trkpt>
      <trkpt lat="45.71628" lon="4.6629">
        <ele>437</ele>
        <time>2011-10-16T07:30:24Z</time>
      </trkpt>
      <trkpt lat="45.71632" lon="4.66284">
        <ele>437</ele>
        <time>2011-10-16T07:30:26Z</time>
      </trkpt>
      <trkpt lat="45.71634" lon="4.66277">
        <ele>437</ele>
        <time>2011-10-16T07:30:28Z</time>
      </trkpt>
      <trkpt lat="45.71638" lon="4.6627">
        <ele>437</ele>
        <time>2011-10-16T07:30:30Z</time>
      </trkpt>
      <trkpt lat="45.7164" lon="4.66263">
        <ele>437</ele>
        <time>2011-10-16T07:30:32Z</time>
      </trkpt>
      <trkpt lat="45.71643" lon="4.66257">
        <ele>437</ele>
        <time>2011-10-16T07:30:34Z</time>
      </trkpt>
      <trkpt lat="45.71645" lon="4.6625">
        <ele>439</ele>
        <time>2011-10-16T07:30:36Z</time>
      </trkpt>
      <trkpt lat="45.71648" lon="4.6624">
        <ele>439</ele>
        <time>2011-10-16T07:30:39Z</time>
      </trkpt>
      <trkpt lat="45.7165" lon="4.66231">
        <ele>440</ele>
        <time>2011-10-16T07:30:42Z</time>
      </trkpt>
      <trkpt lat="45.7165" lon="4.66222">
        <ele>440</ele>
        <time>2011-10-16T07:30:45Z</time>
      </trkpt>
      <trkpt lat="45.71652" lon="4.66215">
        <ele>440</ele>
        <time>2011-10-16T07:30:48Z</time>
      </trkpt>
      <trkpt lat="45.71655" lon="4.6621">
        <ele>440</ele>
        <time>2011-10-16T07:30:51Z</time>
      </trkpt>
      <trkpt lat="45.71657" lon="4.66202">
        <ele>440</ele>
        <time>2011-10-16T07:30:56Z</time>
      </trkpt>
      <trkpt lat="45.71657" lon="4.66194">
        <ele>440</ele>
        <time>2011-10-16T07:31:02Z</time>
      </trkpt>
      <trkpt lat="45.71663" lon="4.66198">
        <ele>440</ele>
        <time>2011-10-16T07:33:06Z</time>
      </trkpt>
      <trkpt lat="45.71668" lon="4.66196">
        <ele>434</ele>
        <time>2011-10-16T07:33:08Z</time>
      </trkpt>
      <trkpt lat="45.71673" lon="4.66195">
        <ele>434</ele>
        <time>2011-10-16T07:33:10Z</time>
      </trkpt>
      <trkpt lat="45.71678" lon="4.66193">
        <ele>433</ele>
        <time>2011-10-16T07:33:12Z</time>
      </trkpt>
      <trkpt lat="45.71684" lon="4.6619">
        <ele>433</ele>
        <time>2011-10-16T07:33:14Z</time>
      </trkpt>
      <trkpt lat="45.71691" lon="4.66188">
        <ele>433</ele>
        <time>2011-10-16T07:33:16Z</time>
      </trkpt>
      <trkpt lat="45.71695" lon="4.66186">
        <ele>432</ele>
        <time>2011-10-16T07:33:18Z</time>
      </trkpt>
      <trkpt lat="45.717" lon="4.66184">
        <ele>432</ele>
        <time>2011-10-16T07:33:20Z</time>
      </trkpt>
      <trkpt lat="45.71706" lon="4.66181">
        <ele>431</ele>
        <time>2011-10-16T07:33:22Z</time>
      </trkpt>
      <trkpt lat="45.71712" lon="4.66178">
        <ele>431</ele>
        <time>2011-10-16T07:33:24Z</time>
      </trkpt>
      <trkpt lat="45.71719" lon="4.66175">
        <ele>430</ele>
        <time>2011-10-16T07:33:26Z</time>
      </trkpt>
      <trkpt lat="45.71723" lon="4.66173">
        <ele>430</ele>
        <time>2011-10-16T07:33:27Z</time>
      </trkpt>
      <trkpt lat="45.71728" lon="4.66172">
        <ele>429</ele>
        <time>2011-10-16T07:33:28Z</time>
      </trkpt>
      <trkpt lat="45.71733" lon="4.66171">
        <ele>428</ele>
        <time>2011-10-16T07:33:29Z</time>
      </trkpt>
      <trkpt lat="45.71738" lon="4.66169">
        <ele>427</ele>
        <time>2011-10-16T07:33:30Z</time>
      </trkpt>
      <trkpt lat="45.71746" lon="4.66168">
        <ele>426</ele>
        <time>2011-10-16T07:33:32Z</time>
      </trkpt>
      <trkpt lat="45.71754" lon="4.66166">
        <ele>424</ele>
        <time>2011-10-16T07:33:34Z</time>
      </trkpt>
      <trkpt lat="45.71763" lon="4.66164">
        <ele>422</ele>
        <time>2011-10-16T07:33:36Z</time>
      </trkpt>
      <trkpt lat="45.71768" lon="4.66162">
        <ele>422</ele>
        <time>2011-10-16T07:33:37Z</time>
      </trkpt>
      <trkpt lat="45.71774" lon="4.66159">
        <ele>421</ele>
        <time>2011-10-16T07:33:39Z</time>
      </trkpt>
      <trkpt lat="45.7178" lon="4.66154">
        <ele>420</ele>
        <time>2011-10-16T07:33:41Z</time>
      </trkpt>
      <trkpt lat="45.71785" lon="4.66149">
        <ele>420</ele>
        <time>2011-10-16T07:33:43Z</time>
      </trkpt>
      <trkpt lat="45.71789" lon="4.66145">
        <ele>419</ele>
        <time>2011-10-16T07:33:45Z</time>
      </trkpt>
      <trkpt lat="45.71792" lon="4.6614">
        <ele>419</ele>
        <time>2011-10-16T07:33:47Z</time>
      </trkpt>
      <trkpt lat="45.71796" lon="4.66133">
        <ele>418</ele>
        <time>2011-10-16T07:33:49Z</time>
      </trkpt>
      <trkpt lat="45.718" lon="4.66126">
        <ele>418</ele>
        <time>2011-10-16T07:33:51Z</time>
      </trkpt>
      <trkpt lat="45.71805" lon="4.66118">
        <ele>417</ele>
        <time>2011-10-16T07:33:53Z</time>
      </trkpt>
      <trkpt lat="45.71809" lon="4.66114">
        <ele>417</ele>
        <time>2011-10-16T07:33:55Z</time>
      </trkpt>
      <trkpt lat="45.71815" lon="4.66108">
        <ele>416</ele>
        <time>2011-10-16T07:33:57Z</time>
      </trkpt>
      <trkpt lat="45.7182" lon="4.66101">
        <ele>415</ele>
        <time>2011-10-16T07:33:59Z</time>
      </trkpt>
      <trkpt lat="45.71826" lon="4.66092">
        <ele>414</ele>
        <time>2011-10-16T07:34:01Z</time>
      </trkpt>
      <trkpt lat="45.7183" lon="4.66088">
        <ele>413</ele>
        <time>2011-10-16T07:34:02Z</time>
      </trkpt>
      <trkpt lat="45.71833" lon="4.66083">
        <ele>411</ele>
        <time>2011-10-16T07:34:03Z</time>
      </trkpt>
      <trkpt lat="45.71836" lon="4.66078">
        <ele>409</ele>
        <time>2011-10-16T07:34:04Z</time>
      </trkpt>
      <trkpt lat="45.7184" lon="4.66069">
        <ele>406</ele>
        <time>2011-10-16T07:34:06Z</time>
      </trkpt>
      <trkpt lat="45.71843" lon="4.66061">
        <ele>405</ele>
        <time>2011-10-16T07:34:08Z</time>
      </trkpt>
      <trkpt lat="45.71847" lon="4.66053">
        <ele>404</ele>
        <time>2011-10-16T07:34:10Z</time>
      </trkpt>
      <trkpt lat="45.71851" lon="4.66046">
        <ele>403</ele>
        <time>2011-10-16T07:34:12Z</time>
      </trkpt>
      <trkpt lat="45.71855" lon="4.66039">
        <ele>402</ele>
        <time>2011-10-16T07:34:14Z</time>
      </trkpt>
      <trkpt lat="45.71855" lon="4.66032">
        <ele>402</ele>
        <time>2011-10-16T07:34:17Z</time>
      </trkpt>
      <trkpt lat="45.71858" lon="4.66026">
        <ele>401</ele>
        <time>2011-10-16T07:34:19Z</time>
      </trkpt>
      <trkpt lat="45.71861" lon="4.66021">
        <ele>401</ele>
        <time>2011-10-16T07:34:21Z</time>
      </trkpt>
      <trkpt lat="45.71865" lon="4.66016">
        <ele>401</ele>
        <time>2011-10-16T07:34:23Z</time>
      </trkpt>
      <trkpt lat="45.7187" lon="4.66012">
        <ele>400</ele>
        <time>2011-10-16T07:34:26Z</time>
      </trkpt>
      <trkpt lat="45.71874" lon="4.66008">
        <ele>400</ele>
        <time>2011-10-16T07:34:28Z</time>
      </trkpt>
      <trkpt lat="45.71879" lon="4.66001">
        <ele>399</ele>
        <time>2011-10-16T07:34:31Z</time>
      </trkpt>
      <trkpt lat="45.71884" lon="4.65995">
        <ele>394</ele>
        <time>2011-10-16T07:34:33Z</time>
      </trkpt>
      <trkpt lat="45.71891" lon="4.65986">
        <ele>393</ele>
        <time>2011-10-16T07:34:35Z</time>
      </trkpt>
      <trkpt lat="45.71895" lon="4.65983">
        <ele>393</ele>
        <time>2011-10-16T07:34:37Z</time>
      </trkpt>
      <trkpt lat="45.71898" lon="4.65976">
        <ele>393</ele>
        <time>2011-10-16T07:34:39Z</time>
      </trkpt>
      <trkpt lat="45.71902" lon="4.65971">
        <ele>392</ele>
        <time>2011-10-16T07:34:41Z</time>
      </trkpt>
      <trkpt lat="45.71906" lon="4.65968">
        <ele>392</ele>
        <time>2011-10-16T07:34:43Z</time>
      </trkpt>
      <trkpt lat="45.71911" lon="4.65964">
        <ele>392</ele>
        <time>2011-10-16T07:34:45Z</time>
      </trkpt>
      <trkpt lat="45.71915" lon="4.65958">
        <ele>391</ele>
        <time>2011-10-16T07:34:47Z</time>
      </trkpt>
      <trkpt lat="45.7192" lon="4.65951">
        <ele>385</ele>
        <time>2011-10-16T07:34:49Z</time>
      </trkpt>
      <trkpt lat="45.71926" lon="4.65945">
        <ele>384</ele>
        <time>2011-10-16T07:34:51Z</time>
      </trkpt>
      <trkpt lat="45.71932" lon="4.6594">
        <ele>384</ele>
        <time>2011-10-16T07:34:53Z</time>
      </trkpt>
      <trkpt lat="45.71937" lon="4.65934">
        <ele>384</ele>
        <time>2011-10-16T07:34:55Z</time>
      </trkpt>
      <trkpt lat="45.71942" lon="4.65929">
        <ele>383</ele>
        <time>2011-10-16T07:34:57Z</time>
      </trkpt>
      <trkpt lat="45.71947" lon="4.65925">
        <ele>383</ele>
        <time>2011-10-16T07:35:00Z</time>
      </trkpt>
      <trkpt lat="45.7195" lon="4.6592">
        <ele>383</ele>
        <time>2011-10-16T07:35:03Z</time>
      </trkpt>
      <trkpt lat="45.71955" lon="4.65916">
        <ele>378</ele>
        <time>2011-10-16T07:35:05Z</time>
      </trkpt>
      <trkpt lat="45.71962" lon="4.6591">
        <ele>377</ele>
        <time>2011-10-16T07:35:07Z</time>
      </trkpt>
      <trkpt lat="45.71968" lon="4.65905">
        <ele>377</ele>
        <time>2011-10-16T07:35:09Z</time>
      </trkpt>
      <trkpt lat="45.71973" lon="4.659">
        <ele>376</ele>
        <time>2011-10-16T07:35:11Z</time>
      </trkpt>
      <trkpt lat="45.71978" lon="4.65896">
        <ele>376</ele>
        <time>2011-10-16T07:35:13Z</time>
      </trkpt>
      <trkpt lat="45.71983" lon="4.65892">
        <ele>375</ele>
        <time>2011-10-16T07:35:16Z</time>
      </trkpt>
      <trkpt lat="45.71987" lon="4.65889">
        <ele>375</ele>
        <time>2011-10-16T07:35:37Z</time>
      </trkpt>
      <trkpt lat="45.71992" lon="4.65886">
        <ele>375</ele>
        <time>2011-10-16T07:35:52Z</time>
      </trkpt>
      <trkpt lat="45.71997" lon="4.65884">
        <ele>375</ele>
        <time>2011-10-16T07:35:56Z</time>
      </trkpt>
      <trkpt lat="45.72002" lon="4.65883">
        <ele>371</ele>
        <time>2011-10-16T07:35:58Z</time>
      </trkpt>
      <trkpt lat="45.72008" lon="4.65881">
        <ele>371</ele>
        <time>2011-10-16T07:36:00Z</time>
      </trkpt>
      <trkpt lat="45.72015" lon="4.65879">
        <ele>371</ele>
        <time>2011-10-16T07:36:02Z</time>
      </trkpt>
      <trkpt lat="45.72022" lon="4.65879">
        <ele>370</ele>
        <time>2011-10-16T07:36:04Z</time>
      </trkpt>
      <trkpt lat="45.72029" lon="4.65878">
        <ele>370</ele>
        <time>2011-10-16T07:36:06Z</time>
      </trkpt>
      <trkpt lat="45.72036" lon="4.65877">
        <ele>370</ele>
        <time>2011-10-16T07:36:08Z</time>
      </trkpt>
      <trkpt lat="45.72042" lon="4.65877">
        <ele>370</ele>
        <time>2011-10-16T07:36:10Z</time>
      </trkpt>
      <trkpt lat="45.72047" lon="4.65876">
        <ele>370</ele>
        <time>2011-10-16T07:36:12Z</time>
      </trkpt>
      <trkpt lat="45.72052" lon="4.65873">
        <ele>370</ele>
        <time>2011-10-16T07:36:15Z</time>
      </trkpt>
      <trkpt lat="45.72055" lon="4.65865">
        <ele>369</ele>
        <time>2011-10-16T07:36:17Z</time>
      </trkpt>
      <trkpt lat="45.7206" lon="4.65856">
        <ele>368</ele>
        <time>2011-10-16T07:36:19Z</time>
      </trkpt>
      <trkpt lat="45.72064" lon="4.65846">
        <ele>367</ele>
        <time>2011-10-16T07:36:21Z</time>
      </trkpt>
      <trkpt lat="45.72068" lon="4.65836">
        <ele>366</ele>
        <time>2011-10-16T07:36:23Z</time>
      </trkpt>
      <trkpt lat="45.72072" lon="4.65827">
        <ele>364</ele>
        <time>2011-10-16T07:36:25Z</time>
      </trkpt>
      <trkpt lat="45.72076" lon="4.65818">
        <ele>364</ele>
        <time>2011-10-16T07:36:27Z</time>
      </trkpt>
      <trkpt lat="45.72081" lon="4.65808">
        <ele>364</ele>
        <time>2011-10-16T07:36:29Z</time>
      </trkpt>
      <trkpt lat="45.72084" lon="4.65802">
        <ele>361</ele>
        <time>2011-10-16T07:36:30Z</time>
      </trkpt>
      <trkpt lat="45.72088" lon="4.65796">
        <ele>361</ele>
        <time>2011-10-16T07:36:31Z</time>
      </trkpt>
      <trkpt lat="45.72091" lon="4.65791">
        <ele>361</ele>
        <time>2011-10-16T07:36:32Z</time>
      </trkpt>
      <trkpt lat="45.72098" lon="4.65783">
        <ele>361</ele>
        <time>2011-10-16T07:36:34Z</time>
      </trkpt>
      <trkpt lat="45.72104" lon="4.65777">
        <ele>360</ele>
        <time>2011-10-16T07:36:36Z</time>
      </trkpt>
      <trkpt lat="45.72109" lon="4.65771">
        <ele>360</ele>
        <time>2011-10-16T07:36:38Z</time>
      </trkpt>
      <trkpt lat="45.72115" lon="4.65764">
        <ele>360</ele>
        <time>2011-10-16T07:36:40Z</time>
      </trkpt>
      <trkpt lat="45.72119" lon="4.6576">
        <ele>360</ele>
        <time>2011-10-16T07:36:41Z</time>
      </trkpt>
      <trkpt lat="45.72123" lon="4.65755">
        <ele>360</ele>
        <time>2011-10-16T07:36:42Z</time>
      </trkpt>
      <trkpt lat="45.72128" lon="4.65751">
        <ele>359</ele>
        <time>2011-10-16T07:36:43Z</time>
      </trkpt>
      <trkpt lat="45.72131" lon="4.65748">
        <ele>358</ele>
        <time>2011-10-16T07:36:44Z</time>
      </trkpt>
      <trkpt lat="45.72136" lon="4.65742">
        <ele>358</ele>
        <time>2011-10-16T07:36:46Z</time>
      </trkpt>
      <trkpt lat="45.7214" lon="4.65738">
        <ele>358</ele>
        <time>2011-10-16T07:36:49Z</time>
      </trkpt>
      <trkpt lat="45.72144" lon="4.65733">
        <ele>358</ele>
        <time>2011-10-16T07:36:53Z</time>
      </trkpt>
      <trkpt lat="45.72141" lon="4.65726">
        <ele>358</ele>
        <time>2011-10-16T07:43:06Z</time>
      </trkpt>
      <trkpt lat="45.72139" lon="4.65718">
        <ele>358</ele>
        <time>2011-10-16T07:43:08Z</time>
      </trkpt>
      <trkpt lat="45.72143" lon="4.65706">
        <ele>358</ele>
        <time>2011-10-16T07:43:10Z</time>
      </trkpt>
      <trkpt lat="45.72148" lon="4.65698">
        <ele>358</ele>
        <time>2011-10-16T07:43:12Z</time>
      </trkpt>
      <trkpt lat="45.72153" lon="4.65688">
        <ele>358</ele>
        <time>2011-10-16T07:43:14Z</time>
      </trkpt>
      <trkpt lat="45.72158" lon="4.6568">
        <ele>357</ele>
        <time>2011-10-16T07:43:16Z</time>
      </trkpt>
      <trkpt lat="45.72162" lon="4.65672">
        <ele>356</ele>
        <time>2011-10-16T07:43:18Z</time>
      </trkpt>
      <trkpt lat="45.72167" lon="4.65666">
        <ele>355</ele>
        <time>2011-10-16T07:43:20Z</time>
      </trkpt>
      <trkpt lat="45.72171" lon="4.65661">
        <ele>353</ele>
        <time>2011-10-16T07:43:22Z</time>
      </trkpt>
      <trkpt lat="45.72175" lon="4.65656">
        <ele>352</ele>
        <time>2011-10-16T07:43:24Z</time>
      </trkpt>
      <trkpt lat="45.7218" lon="4.65649">
        <ele>351</ele>
        <time>2011-10-16T07:43:26Z</time>
      </trkpt>
      <trkpt lat="45.72183" lon="4.65645">
        <ele>350</ele>
        <time>2011-10-16T07:43:28Z</time>
      </trkpt>
      <trkpt lat="45.72189" lon="4.65638">
        <ele>349</ele>
        <time>2011-10-16T07:43:30Z</time>
      </trkpt>
      <trkpt lat="45.72192" lon="4.65628">
        <ele>349</ele>
        <time>2011-10-16T07:43:32Z</time>
      </trkpt>
      <trkpt lat="45.7219" lon="4.65618">
        <ele>349</ele>
        <time>2011-10-16T07:43:34Z</time>
      </trkpt>
      <trkpt lat="45.72189" lon="4.65612">
        <ele>349</ele>
        <time>2011-10-16T07:43:36Z</time>
      </trkpt>
      <trkpt lat="45.72187" lon="4.65602">
        <ele>349</ele>
        <time>2011-10-16T07:43:38Z</time>
      </trkpt>
      <trkpt lat="45.72186" lon="4.65596">
        <ele>349</ele>
        <time>2011-10-16T07:43:39Z</time>
      </trkpt>
      <trkpt lat="45.72181" lon="4.65586">
        <ele>350</ele>
        <time>2011-10-16T07:43:41Z</time>
      </trkpt>
      <trkpt lat="45.72178" lon="4.6558">
        <ele>350</ele>
        <time>2011-10-16T07:43:42Z</time>
      </trkpt>
      <trkpt lat="45.72175" lon="4.65574">
        <ele>350</ele>
        <time>2011-10-16T07:43:43Z</time>
      </trkpt>
      <trkpt lat="45.72172" lon="4.65562">
        <ele>349</ele>
        <time>2011-10-16T07:43:45Z</time>
      </trkpt>
      <trkpt lat="45.72173" lon="4.6555">
        <ele>348</ele>
        <time>2011-10-16T07:43:47Z</time>
      </trkpt>
      <trkpt lat="45.72172" lon="4.65539">
        <ele>348</ele>
        <time>2011-10-16T07:43:49Z</time>
      </trkpt>
      <trkpt lat="45.72172" lon="4.65524">
        <ele>348</ele>
        <time>2011-10-16T07:43:51Z</time>
      </trkpt>
      <trkpt lat="45.72171" lon="4.65516">
        <ele>348</ele>
        <time>2011-10-16T07:43:52Z</time>
      </trkpt>
      <trkpt lat="45.72167" lon="4.65504">
        <ele>350</ele>
        <time>2011-10-16T07:43:53Z</time>
      </trkpt>
      <trkpt lat="45.72165" lon="4.65495">
        <ele>352</ele>
        <time>2011-10-16T07:43:54Z</time>
      </trkpt>
      <trkpt lat="45.72161" lon="4.65485">
        <ele>353</ele>
        <time>2011-10-16T07:43:55Z</time>
      </trkpt>
      <trkpt lat="45.72161" lon="4.65474">
        <ele>354</ele>
        <time>2011-10-16T07:43:56Z</time>
      </trkpt>
      <trkpt lat="45.72161" lon="4.65464">
        <ele>354</ele>
        <time>2011-10-16T07:43:57Z</time>
      </trkpt>
      <trkpt lat="45.72161" lon="4.65453">
        <ele>354</ele>
        <time>2011-10-16T07:43:58Z</time>
      </trkpt>
      <trkpt lat="45.72163" lon="4.65443">
        <ele>353</ele>
        <time>2011-10-16T07:43:59Z</time>
      </trkpt>
      <trkpt lat="45.72162" lon="4.65434">
        <ele>352</ele>
        <time>2011-10-16T07:44:00Z</time>
      </trkpt>
      <trkpt lat="45.72162" lon="4.65427">
        <ele>350</ele>
        <time>2011-10-16T07:44:01Z</time>
      </trkpt>
      <trkpt lat="45.72162" lon="4.65419">
        <ele>349</ele>
        <time>2011-10-16T07:44:02Z</time>
      </trkpt>
      <trkpt lat="45.72166" lon="4.6541">
        <ele>348</ele>
        <time>2011-10-16T07:44:03Z</time>
      </trkpt>
      <trkpt lat="45.72171" lon="4.65402">
        <ele>347</ele>
        <time>2011-10-16T07:44:04Z</time>
      </trkpt>
      <trkpt lat="45.72176" lon="4.65395">
        <ele>347</ele>
        <time>2011-10-16T07:44:05Z</time>
      </trkpt>
      <trkpt lat="45.72182" lon="4.65388">
        <ele>348</ele>
        <time>2011-10-16T07:44:06Z</time>
      </trkpt>
      <trkpt lat="45.72188" lon="4.65381">
        <ele>348</ele>
        <time>2011-10-16T07:44:07Z</time>
      </trkpt>
      <trkpt lat="45.72195" lon="4.65376">
        <ele>348</ele>
        <time>2011-10-16T07:44:08Z</time>
      </trkpt>
      <trkpt lat="45.72202" lon="4.65372">
        <ele>348</ele>
        <time>2011-10-16T07:44:09Z</time>
      </trkpt>
      <trkpt lat="45.72208" lon="4.65374">
        <ele>348</ele>
        <time>2011-10-16T07:44:10Z</time>
      </trkpt>
      <trkpt lat="45.72214" lon="4.65376">
        <ele>348</ele>
        <time>2011-10-16T07:44:11Z</time>
      </trkpt>
      <trkpt lat="45.72219" lon="4.6538">
        <ele>348</ele>
        <time>2011-10-16T07:44:12Z</time>
      </trkpt>
      <trkpt lat="45.72223" lon="4.65384">
        <ele>348</ele>
        <time>2011-10-16T07:44:13Z</time>
      </trkpt>
      <trkpt lat="45.72227" lon="4.65393">
        <ele>347</ele>
        <time>2011-10-16T07:44:15Z</time>
      </trkpt>
      <trkpt lat="45.7223" lon="4.65402">
        <ele>347</ele>
        <time>2011-10-16T07:44:17Z</time>
      </trkpt>
      <trkpt lat="45.72233" lon="4.65412">
        <ele>347</ele>
        <time>2011-10-16T07:44:19Z</time>
      </trkpt>
      <trkpt lat="45.72236" lon="4.6542">
        <ele>346</ele>
        <time>2011-10-16T07:44:21Z</time>
      </trkpt>
      <trkpt lat="45.72242" lon="4.65427">
        <ele>346</ele>
        <time>2011-10-16T07:44:23Z</time>
      </trkpt>
      <trkpt lat="45.72248" lon="4.65433">
        <ele>346</ele>
        <time>2011-10-16T07:44:25Z</time>
      </trkpt>
      <trkpt lat="45.72254" lon="4.65437">
        <ele>347</ele>
        <time>2011-10-16T07:44:27Z</time>
      </trkpt>
      <trkpt lat="45.7226" lon="4.65439">
        <ele>347</ele>
        <time>2011-10-16T07:44:29Z</time>
      </trkpt>
      <trkpt lat="45.72267" lon="4.65439">
        <ele>347</ele>
        <time>2011-10-16T07:44:31Z</time>
      </trkpt>
      <trkpt lat="45.72273" lon="4.65438">
        <ele>347</ele>
        <time>2011-10-16T07:44:33Z</time>
      </trkpt>
      <trkpt lat="45.72283" lon="4.65437">
        <ele>348</ele>
        <time>2011-10-16T07:44:35Z</time>
      </trkpt>
      <trkpt lat="45.72289" lon="4.65438">
        <ele>349</ele>
        <time>2011-10-16T07:44:38Z</time>
      </trkpt>
      <trkpt lat="45.72295" lon="4.65438">
        <ele>349</ele>
        <time>2011-10-16T07:44:40Z</time>
      </trkpt>
      <trkpt lat="45.72302" lon="4.65438">
        <ele>350</ele>
        <time>2011-10-16T07:44:42Z</time>
      </trkpt>
      <trkpt lat="45.72308" lon="4.6544">
        <ele>350</ele>
        <time>2011-10-16T07:44:44Z</time>
      </trkpt>
      <trkpt lat="45.72314" lon="4.65443">
        <ele>350</ele>
        <time>2011-10-16T07:44:46Z</time>
      </trkpt>
      <trkpt lat="45.7232" lon="4.65445">
        <ele>351</ele>
        <time>2011-10-16T07:44:48Z</time>
      </trkpt>
      <trkpt lat="45.72326" lon="4.65449">
        <ele>350</ele>
        <time>2011-10-16T07:44:50Z</time>
      </trkpt>
      <trkpt lat="45.72332" lon="4.65453">
        <ele>350</ele>
        <time>2011-10-16T07:44:52Z</time>
      </trkpt>
      <trkpt lat="45.72336" lon="4.65457">
        <ele>357</ele>
        <time>2011-10-16T07:44:54Z</time>
      </trkpt>
      <trkpt lat="45.7234" lon="4.65461">
        <ele>357</ele>
        <time>2011-10-16T07:44:56Z</time>
      </trkpt>
      <trkpt lat="45.72346" lon="4.65466">
        <ele>356</ele>
        <time>2011-10-16T07:44:59Z</time>
      </trkpt>
      <trkpt lat="45.7235" lon="4.65472">
        <ele>356</ele>
        <time>2011-10-16T07:45:02Z</time>
      </trkpt>
      <trkpt lat="45.72355" lon="4.65475">
        <ele>356</ele>
        <time>2011-10-16T07:45:04Z</time>
      </trkpt>
      <trkpt lat="45.7236" lon="4.65478">
        <ele>357</ele>
        <time>2011-10-16T07:45:06Z</time>
      </trkpt>
      <trkpt lat="45.72364" lon="4.6548">
        <ele>357</ele>
        <time>2011-10-16T07:45:08Z</time>
      </trkpt>
      <trkpt lat="45.72369" lon="4.65484">
        <ele>357</ele>
        <time>2011-10-16T07:45:10Z</time>
      </trkpt>
      <trkpt lat="45.72374" lon="4.65486">
        <ele>358</ele>
        <time>2011-10-16T07:45:12Z</time>
      </trkpt>
      <trkpt lat="45.72379" lon="4.65488">
        <ele>358</ele>
        <time>2011-10-16T07:45:14Z</time>
      </trkpt>
      <trkpt lat="45.72384" lon="4.6549">
        <ele>358</ele>
        <time>2011-10-16T07:45:16Z</time>
      </trkpt>
      <trkpt lat="45.72389" lon="4.65492">
        <ele>359</ele>
        <time>2011-10-16T07:45:18Z</time>
      </trkpt>
      <trkpt lat="45.72394" lon="4.65494">
        <ele>359</ele>
        <time>2011-10-16T07:45:20Z</time>
      </trkpt>
      <trkpt lat="45.72399" lon="4.65496">
        <ele>360</ele>
        <time>2011-10-16T07:45:22Z</time>
      </trkpt>
      <trkpt lat="45.72405" lon="4.65499">
        <ele>360</ele>
        <time>2011-10-16T07:45:24Z</time>
      </trkpt>
      <trkpt lat="45.72409" lon="4.65502">
        <ele>358</ele>
        <time>2011-10-16T07:45:26Z</time>
      </trkpt>
      <trkpt lat="45.72414" lon="4.65504">
        <ele>359</ele>
        <time>2011-10-16T07:45:28Z</time>
      </trkpt>
      <trkpt lat="45.72418" lon="4.65508">
        <ele>360</ele>
        <time>2011-10-16T07:45:30Z</time>
      </trkpt>
      <trkpt lat="45.72424" lon="4.65511">
        <ele>360</ele>
        <time>2011-10-16T07:45:33Z</time>
      </trkpt>
      <trkpt lat="45.7243" lon="4.65514">
        <ele>360</ele>
        <time>2011-10-16T07:45:35Z</time>
      </trkpt>
      <trkpt lat="45.72436" lon="4.65514">
        <ele>360</ele>
        <time>2011-10-16T07:45:38Z</time>
      </trkpt>
      <trkpt lat="45.7244" lon="4.65515">
        <ele>360</ele>
        <time>2011-10-16T07:45:41Z</time>
      </trkpt>
      <trkpt lat="45.72445" lon="4.65515">
        <ele>360</ele>
        <time>2011-10-16T07:45:43Z</time>
      </trkpt>
      <trkpt lat="45.7245" lon="4.65514">
        <ele>360</ele>
        <time>2011-10-16T07:45:45Z</time>
      </trkpt>
      <trkpt lat="45.72455" lon="4.65513">
        <ele>360</ele>
        <time>2011-10-16T07:45:47Z</time>
      </trkpt>
      <trkpt lat="45.7246" lon="4.65512">
        <ele>360</ele>
        <time>2011-10-16T07:45:49Z</time>
      </trkpt>
      <trkpt lat="45.72465" lon="4.65508">
        <ele>361</ele>
        <time>2011-10-16T07:45:52Z</time>
      </trkpt>
      <trkpt lat="45.72472" lon="4.65505">
        <ele>362</ele>
        <time>2011-10-16T07:45:55Z</time>
      </trkpt>
      <trkpt lat="45.72477" lon="4.655">
        <ele>363</ele>
        <time>2011-10-16T07:45:58Z</time>
      </trkpt>
      <trkpt lat="45.72483" lon="4.65495">
        <ele>368</ele>
        <time>2011-10-16T07:46:01Z</time>
      </trkpt>
      <trkpt lat="45.72488" lon="4.65492">
        <ele>368</ele>
        <time>2011-10-16T07:46:03Z</time>
      </trkpt>
      <trkpt lat="45.72492" lon="4.65488">
        <ele>368</ele>
        <time>2011-10-16T07:46:05Z</time>
      </trkpt>
      <trkpt lat="45.72497" lon="4.65481">
        <ele>369</ele>
        <time>2011-10-16T07:46:08Z</time>
      </trkpt>
      <trkpt lat="45.72503" lon="4.65475">
        <ele>372</ele>
        <time>2011-10-16T07:46:11Z</time>
      </trkpt>
      <trkpt lat="45.72508" lon="4.65469">
        <ele>373</ele>
        <time>2011-10-16T07:46:14Z</time>
      </trkpt>
      <trkpt lat="45.72512" lon="4.65464">
        <ele>373</ele>
        <time>2011-10-16T07:46:16Z</time>
      </trkpt>
      <trkpt lat="45.72517" lon="4.6546">
        <ele>373</ele>
        <time>2011-10-16T07:46:18Z</time>
      </trkpt>
      <trkpt lat="45.72521" lon="4.65457">
        <ele>374</ele>
        <time>2011-10-16T07:46:20Z</time>
      </trkpt>
      <trkpt lat="45.72526" lon="4.65455">
        <ele>374</ele>
        <time>2011-10-16T07:46:22Z</time>
      </trkpt>
      <trkpt lat="45.72531" lon="4.65452">
        <ele>374</ele>
        <time>2011-10-16T07:46:24Z</time>
      </trkpt>
      <trkpt lat="45.72536" lon="4.6545">
        <ele>374</ele>
        <time>2011-10-16T07:46:26Z</time>
      </trkpt>
      <trkpt lat="45.72541" lon="4.65449">
        <ele>374</ele>
        <time>2011-10-16T07:46:28Z</time>
      </trkpt>
      <trkpt lat="45.72546" lon="4.65448">
        <ele>375</ele>
        <time>2011-10-16T07:46:30Z</time>
      </trkpt>
      <trkpt lat="45.72552" lon="4.65447">
        <ele>375</ele>
        <time>2011-10-16T07:46:32Z</time>
      </trkpt>
      <trkpt lat="45.72557" lon="4.65445">
        <ele>375</ele>
        <time>2011-10-16T07:46:34Z</time>
      </trkpt>
      <trkpt lat="45.72562" lon="4.65444">
        <ele>375</ele>
        <time>2011-10-16T07:46:36Z</time>
      </trkpt>
      <trkpt lat="45.7257" lon="4.65438">
        <ele>376</ele>
        <time>2011-10-16T07:46:39Z</time>
      </trkpt>
      <trkpt lat="45.72575" lon="4.65435">
        <ele>377</ele>
        <time>2011-10-16T07:46:41Z</time>
      </trkpt>
      <trkpt lat="45.7258" lon="4.65433">
        <ele>377</ele>
        <time>2011-10-16T07:46:43Z</time>
      </trkpt>
      <trkpt lat="45.72585" lon="4.65432">
        <ele>381</ele>
        <time>2011-10-16T07:46:45Z</time>
      </trkpt>
      <trkpt lat="45.72591" lon="4.6543">
        <ele>381</ele>
        <time>2011-10-16T07:46:48Z</time>
      </trkpt>
      <trkpt lat="45.72595" lon="4.65428">
        <ele>381</ele>
        <time>2011-10-16T07:46:51Z</time>
      </trkpt>
      <trkpt lat="45.72601" lon="4.65427">
        <ele>381</ele>
        <time>2011-10-16T07:46:57Z</time>
      </trkpt>
      <trkpt lat="45.72606" lon="4.65428">
        <ele>382</ele>
        <time>2011-10-16T07:47:17Z</time>
      </trkpt>
      <trkpt lat="45.72612" lon="4.6543">
        <ele>382</ele>
        <time>2011-10-16T07:47:21Z</time>
      </trkpt>
      <trkpt lat="45.72616" lon="4.65435">
        <ele>382</ele>
        <time>2011-10-16T07:47:24Z</time>
      </trkpt>
      <trkpt lat="45.7262" lon="4.65443">
        <ele>382</ele>
        <time>2011-10-16T07:47:27Z</time>
      </trkpt>
      <trkpt lat="45.72623" lon="4.6545">
        <ele>382</ele>
        <time>2011-10-16T07:47:30Z</time>
      </trkpt>
      <trkpt lat="45.72623" lon="4.65459">
        <ele>382</ele>
        <time>2011-10-16T07:47:34Z</time>
      </trkpt>
      <trkpt lat="45.72626" lon="4.65466">
        <ele>382</ele>
        <time>2011-10-16T07:47:37Z</time>
      </trkpt>
      <trkpt lat="45.72627" lon="4.65474">
        <ele>382</ele>
        <time>2011-10-16T07:47:39Z</time>
      </trkpt>
      <trkpt lat="45.72628" lon="4.65482">
        <ele>381</ele>
        <time>2011-10-16T07:47:42Z</time>
      </trkpt>
      <trkpt lat="45.7263" lon="4.65488">
        <ele>381</ele>
        <time>2011-10-16T07:47:44Z</time>
      </trkpt>
      <trkpt lat="45.72633" lon="4.65495">
        <ele>382</ele>
        <time>2011-10-16T07:47:48Z</time>
      </trkpt>
      <trkpt lat="45.72637" lon="4.65499">
        <ele>382</ele>
        <time>2011-10-16T07:47:50Z</time>
      </trkpt>
      <trkpt lat="45.72641" lon="4.65502">
        <ele>379</ele>
        <time>2011-10-16T07:47:52Z</time>
      </trkpt>
      <trkpt lat="45.72647" lon="4.65506">
        <ele>380</ele>
        <time>2011-10-16T07:47:55Z</time>
      </trkpt>
      <trkpt lat="45.72651" lon="4.65509">
        <ele>380</ele>
        <time>2011-10-16T07:47:57Z</time>
      </trkpt>
      <trkpt lat="45.72656" lon="4.65509">
        <ele>381</ele>
        <time>2011-10-16T07:48:00Z</time>
      </trkpt>
      <trkpt lat="45.72661" lon="4.65509">
        <ele>382</ele>
        <time>2011-10-16T07:48:03Z</time>
      </trkpt>
      <trkpt lat="45.72667" lon="4.65507">
        <ele>385</ele>
        <time>2011-10-16T07:48:06Z</time>
      </trkpt>
      <trkpt lat="45.72672" lon="4.65507">
        <ele>385</ele>
        <time>2011-10-16T07:48:08Z</time>
      </trkpt>
      <trkpt lat="45.72677" lon="4.65507">
        <ele>385</ele>
        <time>2011-10-16T07:48:10Z</time>
      </trkpt>
      <trkpt lat="45.72683" lon="4.6551">
        <ele>385</ele>
        <time>2011-10-16T07:48:13Z</time>
      </trkpt>
      <trkpt lat="45.72687" lon="4.65509">
        <ele>386</ele>
        <time>2011-10-16T07:48:15Z</time>
      </trkpt>
      <trkpt lat="45.72692" lon="4.65512">
        <ele>386</ele>
        <time>2011-10-16T07:48:18Z</time>
      </trkpt>
      <trkpt lat="45.72694" lon="4.65521">
        <ele>386</ele>
        <time>2011-10-16T07:48:21Z</time>
      </trkpt>
      <trkpt lat="45.727" lon="4.65525">
        <ele>386</ele>
        <time>2011-10-16T07:48:24Z</time>
      </trkpt>
      <trkpt lat="45.72704" lon="4.65532">
        <ele>386</ele>
        <time>2011-10-16T07:48:26Z</time>
      </trkpt>
      <trkpt lat="45.72709" lon="4.6553">
        <ele>386</ele>
        <time>2011-10-16T07:48:28Z</time>
      </trkpt>
      <trkpt lat="45.72715" lon="4.65532">
        <ele>386</ele>
        <time>2011-10-16T07:48:31Z</time>
      </trkpt>
      <trkpt lat="45.7272" lon="4.65534">
        <ele>386</ele>
        <time>2011-10-16T07:48:33Z</time>
      </trkpt>
      <trkpt lat="45.72729" lon="4.65537">
        <ele>386</ele>
        <time>2011-10-16T07:48:36Z</time>
      </trkpt>
      <trkpt lat="45.72736" lon="4.6554">
        <ele>386</ele>
        <time>2011-10-16T07:48:38Z</time>
      </trkpt>
      <trkpt lat="45.72733" lon="4.65527">
        <ele>387</ele>
        <time>2011-10-16T07:48:38Z</time>
      </trkpt>
      <trkpt lat="45.72739" lon="4.65527">
        <ele>388</ele>
        <time>2011-10-16T07:48:40Z</time>
      </trkpt>
      <trkpt lat="45.72746" lon="4.6553">
        <ele>388</ele>
        <time>2011-10-16T07:48:42Z</time>
      </trkpt>
      <trkpt lat="45.72756" lon="4.65523">
        <ele>389</ele>
        <time>2011-10-16T07:48:44Z</time>
      </trkpt>
      <trkpt lat="45.7276" lon="4.6552">
        <ele>389</ele>
        <time>2011-10-16T07:48:45Z</time>
      </trkpt>
      <trkpt lat="45.72766" lon="4.65522">
        <ele>388</ele>
        <time>2011-10-16T07:48:47Z</time>
      </trkpt>
      <trkpt lat="45.72772" lon="4.65521">
        <ele>388</ele>
        <time>2011-10-16T07:48:49Z</time>
      </trkpt>
      <trkpt lat="45.72779" lon="4.65519">
        <ele>388</ele>
        <time>2011-10-16T07:48:51Z</time>
      </trkpt>
      <trkpt lat="45.72786" lon="4.65523">
        <ele>387</ele>
        <time>2011-10-16T07:48:53Z</time>
      </trkpt>
      <trkpt lat="45.72789" lon="4.65526">
        <ele>387</ele>
        <time>2011-10-16T07:48:55Z</time>
      </trkpt>
      <trkpt lat="45.72796" lon="4.65525">
        <ele>387</ele>
        <time>2011-10-16T07:48:57Z</time>
      </trkpt>
      <trkpt lat="45.728" lon="4.65526">
        <ele>387</ele>
        <time>2011-10-16T07:48:59Z</time>
      </trkpt>
      <trkpt lat="45.72807" lon="4.65528">
        <ele>387</ele>
        <time>2011-10-16T07:49:01Z</time>
      </trkpt>
      <trkpt lat="45.72814" lon="4.65532">
        <ele>386</ele>
        <time>2011-10-16T07:49:04Z</time>
      </trkpt>
      <trkpt lat="45.72821" lon="4.65534">
        <ele>386</ele>
        <time>2011-10-16T07:49:06Z</time>
      </trkpt>
      <trkpt lat="45.72826" lon="4.65538">
        <ele>386</ele>
        <time>2011-10-16T07:49:08Z</time>
      </trkpt>
      <trkpt lat="45.72831" lon="4.65538">
        <ele>386</ele>
        <time>2011-10-16T07:49:10Z</time>
      </trkpt>
      <trkpt lat="45.72837" lon="4.65541">
        <ele>385</ele>
        <time>2011-10-16T07:49:12Z</time>
      </trkpt>
      <trkpt lat="45.72841" lon="4.65546">
        <ele>384</ele>
        <time>2011-10-16T07:49:14Z</time>
      </trkpt>
      <trkpt lat="45.72846" lon="4.65548">
        <ele>384</ele>
        <time>2011-10-16T07:49:16Z</time>
      </trkpt>
      <trkpt lat="45.72851" lon="4.6555">
        <ele>384</ele>
        <time>2011-10-16T07:49:20Z</time>
      </trkpt>
      <trkpt lat="45.72856" lon="4.65553">
        <ele>384</ele>
        <time>2011-10-16T07:49:23Z</time>
      </trkpt>
      <trkpt lat="45.7286" lon="4.65556">
        <ele>384</ele>
        <time>2011-10-16T07:49:29Z</time>
      </trkpt>
      <trkpt lat="45.72865" lon="4.65555">
        <ele>384</ele>
        <time>2011-10-16T07:50:58Z</time>
      </trkpt>
      <trkpt lat="45.72871" lon="4.65556">
        <ele>384</ele>
        <time>2011-10-16T07:51:01Z</time>
      </trkpt>
      <trkpt lat="45.72876" lon="4.65558">
        <ele>384</ele>
        <time>2011-10-16T07:51:03Z</time>
      </trkpt>
      <trkpt lat="45.72882" lon="4.65559">
        <ele>384</ele>
        <time>2011-10-16T07:51:06Z</time>
      </trkpt>
      <trkpt lat="45.72888" lon="4.6556">
        <ele>384</ele>
        <time>2011-10-16T07:51:08Z</time>
      </trkpt>
      <trkpt lat="45.72893" lon="4.65561">
        <ele>383</ele>
        <time>2011-10-16T07:51:10Z</time>
      </trkpt>
      <trkpt lat="45.72898" lon="4.65561">
        <ele>383</ele>
        <time>2011-10-16T07:51:12Z</time>
      </trkpt>
      <trkpt lat="45.72903" lon="4.65561">
        <ele>383</ele>
        <time>2011-10-16T07:51:14Z</time>
      </trkpt>
      <trkpt lat="45.72909" lon="4.65562">
        <ele>383</ele>
        <time>2011-10-16T07:51:16Z</time>
      </trkpt>
      <trkpt lat="45.72914" lon="4.65562">
        <ele>383</ele>
        <time>2011-10-16T07:51:18Z</time>
      </trkpt>
      <trkpt lat="45.72921" lon="4.65562">
        <ele>383</ele>
        <time>2011-10-16T07:51:20Z</time>
      </trkpt>
      <trkpt lat="45.72927" lon="4.65562">
        <ele>383</ele>
        <time>2011-10-16T07:51:22Z</time>
      </trkpt>
      <trkpt lat="45.72934" lon="4.65563">
        <ele>384</ele>
        <time>2011-10-16T07:51:24Z</time>
      </trkpt>
      <trkpt lat="45.72941" lon="4.65564">
        <ele>384</ele>
        <time>2011-10-16T07:51:26Z</time>
      </trkpt>
      <trkpt lat="45.72948" lon="4.65565">
        <ele>384</ele>
        <time>2011-10-16T07:51:28Z</time>
      </trkpt>
      <trkpt lat="45.72955" lon="4.65566">
        <ele>384</ele>
        <time>2011-10-16T07:51:30Z</time>
      </trkpt>
      <trkpt lat="45.72961" lon="4.65567">
        <ele>384</ele>
        <time>2011-10-16T07:51:32Z</time>
      </trkpt>
      <trkpt lat="45.72968" lon="4.65568">
        <ele>384</ele>
        <time>2011-10-16T07:51:34Z</time>
      </trkpt>
      <trkpt lat="45.72973" lon="4.65569">
        <ele>384</ele>
        <time>2011-10-16T07:51:36Z</time>
      </trkpt>
      <trkpt lat="45.72979" lon="4.65568">
        <ele>384</ele>
        <time>2011-10-16T07:51:37Z</time>
      </trkpt>
      <trkpt lat="45.72983" lon="4.6557">
        <ele>384</ele>
        <time>2011-10-16T07:51:41Z</time>
      </trkpt>
      <trkpt lat="45.72988" lon="4.65571">
        <ele>384</ele>
        <time>2011-10-16T07:51:45Z</time>
      </trkpt>
      <trkpt lat="45.72994" lon="4.65572">
        <ele>384</ele>
        <time>2011-10-16T07:51:49Z</time>
      </trkpt>
      <trkpt lat="45.73001" lon="4.65574">
        <ele>383</ele>
        <time>2011-10-16T07:51:52Z</time>
      </trkpt>
      <trkpt lat="45.73006" lon="4.65575">
        <ele>383</ele>
        <time>2011-10-16T07:51:53Z</time>
      </trkpt>
      <trkpt lat="45.73014" lon="4.65577">
        <ele>383</ele>
        <time>2011-10-16T07:51:55Z</time>
      </trkpt>
      <trkpt lat="45.73021" lon="4.65577">
        <ele>383</ele>
        <time>2011-10-16T07:51:57Z</time>
      </trkpt>
      <trkpt lat="45.73027" lon="4.65574">
        <ele>383</ele>
        <time>2011-10-16T07:51:59Z</time>
      </trkpt>
      <trkpt lat="45.73031" lon="4.65568">
        <ele>383</ele>
        <time>2011-10-16T07:52:01Z</time>
      </trkpt>
      <trkpt lat="45.73035" lon="4.65561">
        <ele>383</ele>
        <time>2011-10-16T07:52:03Z</time>
      </trkpt>
      <trkpt lat="45.73038" lon="4.65554">
        <ele>383</ele>
        <time>2011-10-16T07:52:05Z</time>
      </trkpt>
      <trkpt lat="45.73041" lon="4.65546">
        <ele>383</ele>
        <time>2011-10-16T07:52:07Z</time>
      </trkpt>
      <trkpt lat="45.73045" lon="4.65538">
        <ele>383</ele>
        <time>2011-10-16T07:52:09Z</time>
      </trkpt>
      <trkpt lat="45.73048" lon="4.6553">
        <ele>383</ele>
        <time>2011-10-16T07:52:11Z</time>
      </trkpt>
      <trkpt lat="45.73051" lon="4.65522">
        <ele>383</ele>
        <time>2011-10-16T07:52:13Z</time>
      </trkpt>
      <trkpt lat="45.73054" lon="4.65515">
        <ele>383</ele>
        <time>2011-10-16T07:52:15Z</time>
      </trkpt>
      <trkpt lat="45.73056" lon="4.65506">
        <ele>383</ele>
        <time>2011-10-16T07:52:17Z</time>
      </trkpt>
      <trkpt lat="45.73059" lon="4.65498">
        <ele>385</ele>
        <time>2011-10-16T07:52:19Z</time>
      </trkpt>
      <trkpt lat="45.7306" lon="4.65491">
        <ele>386</ele>
        <time>2011-10-16T07:52:21Z</time>
      </trkpt>
      <trkpt lat="45.73061" lon="4.65485">
        <ele>386</ele>
        <time>2011-10-16T07:52:23Z</time>
      </trkpt>
      <trkpt lat="45.73062" lon="4.65478">
        <ele>386</ele>
        <time>2011-10-16T07:52:25Z</time>
      </trkpt>
      <trkpt lat="45.73062" lon="4.65466">
        <ele>386</ele>
        <time>2011-10-16T07:52:28Z</time>
      </trkpt>
      <trkpt lat="45.73062" lon="4.65458">
        <ele>387</ele>
        <time>2011-10-16T07:52:30Z</time>
      </trkpt>
      <trkpt lat="45.73062" lon="4.65451">
        <ele>387</ele>
        <time>2011-10-16T07:52:32Z</time>
      </trkpt>
      <trkpt lat="45.73061" lon="4.65441">
        <ele>387</ele>
        <time>2011-10-16T07:52:36Z</time>
      </trkpt>
      <trkpt lat="45.73065" lon="4.6542">
        <ele>387</ele>
        <time>2011-10-16T07:52:37Z</time>
      </trkpt>
      <trkpt lat="45.7306" lon="4.65416">
        <ele>388</ele>
        <time>2011-10-16T07:52:40Z</time>
      </trkpt>
      <trkpt lat="45.73056" lon="4.6541">
        <ele>389</ele>
        <time>2011-10-16T07:52:42Z</time>
      </trkpt>
      <trkpt lat="45.73054" lon="4.65404">
        <ele>389</ele>
        <time>2011-10-16T07:52:44Z</time>
      </trkpt>
      <trkpt lat="45.73053" lon="4.65397">
        <ele>389</ele>
        <time>2011-10-16T07:52:46Z</time>
      </trkpt>
      <trkpt lat="45.73052" lon="4.65389">
        <ele>389</ele>
        <time>2011-10-16T07:52:48Z</time>
      </trkpt>
      <trkpt lat="45.7305" lon="4.65382">
        <ele>389</ele>
        <time>2011-10-16T07:52:50Z</time>
      </trkpt>
      <trkpt lat="45.7305" lon="4.65374">
        <ele>390</ele>
        <time>2011-10-16T07:52:52Z</time>
      </trkpt>
      <trkpt lat="45.73049" lon="4.65366">
        <ele>390</ele>
        <time>2011-10-16T07:52:54Z</time>
      </trkpt>
      <trkpt lat="45.73048" lon="4.65358">
        <ele>390</ele>
        <time>2011-10-16T07:52:56Z</time>
      </trkpt>
      <trkpt lat="45.73048" lon="4.6535">
        <ele>390</ele>
        <time>2011-10-16T07:52:58Z</time>
      </trkpt>
      <trkpt lat="45.73047" lon="4.65342">
        <ele>390</ele>
        <time>2011-10-16T07:53:00Z</time>
      </trkpt>
      <trkpt lat="45.73046" lon="4.65334">
        <ele>390</ele>
        <time>2011-10-16T07:53:02Z</time>
      </trkpt>
      <trkpt lat="45.73047" lon="4.65326">
        <ele>391</ele>
        <time>2011-10-16T07:53:04Z</time>
      </trkpt>
      <trkpt lat="45.73046" lon="4.65319">
        <ele>392</ele>
        <time>2011-10-16T07:53:06Z</time>
      </trkpt>
      <trkpt lat="45.73045" lon="4.65311">
        <ele>392</ele>
        <time>2011-10-16T07:53:08Z</time>
      </trkpt>
      <trkpt lat="45.73044" lon="4.65303">
        <ele>392</ele>
        <time>2011-10-16T07:53:10Z</time>
      </trkpt>
      <trkpt lat="45.73044" lon="4.65294">
        <ele>392</ele>
        <time>2011-10-16T07:53:12Z</time>
      </trkpt>
      <trkpt lat="45.73044" lon="4.65286">
        <ele>392</ele>
        <time>2011-10-16T07:53:14Z</time>
      </trkpt>
      <trkpt lat="45.73044" lon="4.65278">
        <ele>393</ele>
        <time>2011-10-16T07:53:16Z</time>
      </trkpt>
      <trkpt lat="45.73046" lon="4.6527">
        <ele>393</ele>
        <time>2011-10-16T07:53:18Z</time>
      </trkpt>
      <trkpt lat="45.73047" lon="4.65262">
        <ele>393</ele>
        <time>2011-10-16T07:53:20Z</time>
      </trkpt>
      <trkpt lat="45.73049" lon="4.65254">
        <ele>393</ele>
        <time>2011-10-16T07:53:22Z</time>
      </trkpt>
      <trkpt lat="45.73051" lon="4.65246">
        <ele>396</ele>
        <time>2011-10-16T07:53:24Z</time>
      </trkpt>
      <trkpt lat="45.73053" lon="4.65238">
        <ele>396</ele>
        <time>2011-10-16T07:53:26Z</time>
      </trkpt>
      <trkpt lat="45.73056" lon="4.6523">
        <ele>396</ele>
        <time>2011-10-16T07:53:28Z</time>
      </trkpt>
      <trkpt lat="45.73058" lon="4.65223">
        <ele>396</ele>
        <time>2011-10-16T07:53:30Z</time>
      </trkpt>
      <trkpt lat="45.73062" lon="4.65215">
        <ele>396</ele>
        <time>2011-10-16T07:53:32Z</time>
      </trkpt>
      <trkpt lat="45.73064" lon="4.65208">
        <ele>397</ele>
        <time>2011-10-16T07:53:34Z</time>
      </trkpt>
      <trkpt lat="45.73067" lon="4.65202">
        <ele>397</ele>
        <time>2011-10-16T07:53:36Z</time>
      </trkpt>
      <trkpt lat="45.73074" lon="4.65192">
        <ele>397</ele>
        <time>2011-10-16T07:53:39Z</time>
      </trkpt>
      <trkpt lat="45.73077" lon="4.65185">
        <ele>397</ele>
        <time>2011-10-16T07:53:41Z</time>
      </trkpt>
      <trkpt lat="45.7308" lon="4.6518">
        <ele>397</ele>
        <time>2011-10-16T07:53:43Z</time>
      </trkpt>
      <trkpt lat="45.73085" lon="4.65175">
        <ele>395</ele>
        <time>2011-10-16T07:53:45Z</time>
      </trkpt>
      <trkpt lat="45.73089" lon="4.6517">
        <ele>395</ele>
        <time>2011-10-16T07:53:47Z</time>
      </trkpt>
      <trkpt lat="45.73093" lon="4.65165">
        <ele>397</ele>
        <time>2011-10-16T07:53:49Z</time>
      </trkpt>
      <trkpt lat="45.73098" lon="4.65161">
        <ele>398</ele>
        <time>2011-10-16T07:53:52Z</time>
      </trkpt>
      <trkpt lat="45.73104" lon="4.6516">
        <ele>398</ele>
        <time>2011-10-16T07:53:54Z</time>
      </trkpt>
      <trkpt lat="45.73108" lon="4.65158">
        <ele>398</ele>
        <time>2011-10-16T07:53:56Z</time>
      </trkpt>
      <trkpt lat="45.73113" lon="4.65157">
        <ele>398</ele>
        <time>2011-10-16T07:53:58Z</time>
      </trkpt>
      <trkpt lat="45.73117" lon="4.65155">
        <ele>398</ele>
        <time>2011-10-16T07:54:00Z</time>
      </trkpt>
      <trkpt lat="45.73122" lon="4.65153">
        <ele>399</ele>
        <time>2011-10-16T07:54:03Z</time>
      </trkpt>
      <trkpt lat="45.73129" lon="4.6515">
        <ele>399</ele>
        <time>2011-10-16T07:54:06Z</time>
      </trkpt>
      <trkpt lat="45.73135" lon="4.65149">
        <ele>399</ele>
        <time>2011-10-16T07:54:08Z</time>
      </trkpt>
      <trkpt lat="45.73142" lon="4.65148">
        <ele>399</ele>
        <time>2011-10-16T07:54:11Z</time>
      </trkpt>
      <trkpt lat="45.73147" lon="4.65147">
        <ele>399</ele>
        <time>2011-10-16T07:54:13Z</time>
      </trkpt>
      <trkpt lat="45.73152" lon="4.65148">
        <ele>399</ele>
        <time>2011-10-16T07:54:16Z</time>
      </trkpt>
      <trkpt lat="45.73159" lon="4.65148">
        <ele>399</ele>
        <time>2011-10-16T07:54:18Z</time>
      </trkpt>
      <trkpt lat="45.73164" lon="4.65148">
        <ele>398</ele>
        <time>2011-10-16T07:54:20Z</time>
      </trkpt>
      <trkpt lat="45.7317" lon="4.65148">
        <ele>399</ele>
        <time>2011-10-16T07:54:22Z</time>
      </trkpt>
      <trkpt lat="45.73177" lon="4.65146">
        <ele>399</ele>
        <time>2011-10-16T07:54:24Z</time>
      </trkpt>
      <trkpt lat="45.73185" lon="4.65145">
        <ele>399</ele>
        <time>2011-10-16T07:54:26Z</time>
      </trkpt>
      <trkpt lat="45.73191" lon="4.65142">
        <ele>399</ele>
        <time>2011-10-16T07:54:28Z</time>
      </trkpt>
      <trkpt lat="45.73199" lon="4.6514">
        <ele>399</ele>
        <time>2011-10-16T07:54:30Z</time>
      </trkpt>
      <trkpt lat="45.73206" lon="4.65137">
        <ele>399</ele>
        <time>2011-10-16T07:54:32Z</time>
      </trkpt>
      <trkpt lat="45.73211" lon="4.65135">
        <ele>399</ele>
        <time>2011-10-16T07:54:33Z</time>
      </trkpt>
      <trkpt lat="45.73217" lon="4.65132">
        <ele>399</ele>
        <time>2011-10-16T07:54:35Z</time>
      </trkpt>
      <trkpt lat="45.73224" lon="4.65129">
        <ele>399</ele>
        <time>2011-10-16T07:54:37Z</time>
      </trkpt>
      <trkpt lat="45.73231" lon="4.65126">
        <ele>399</ele>
        <time>2011-10-16T07:54:39Z</time>
      </trkpt>
      <trkpt lat="45.73237" lon="4.65122">
        <ele>400</ele>
        <time>2011-10-16T07:54:41Z</time>
      </trkpt>
      <trkpt lat="45.73243" lon="4.65118">
        <ele>400</ele>
        <time>2011-10-16T07:54:43Z</time>
      </trkpt>
      <trkpt lat="45.73249" lon="4.65114">
        <ele>400</ele>
        <time>2011-10-16T07:54:45Z</time>
      </trkpt>
      <trkpt lat="45.73255" lon="4.65112">
        <ele>399</ele>
        <time>2011-10-16T07:54:47Z</time>
      </trkpt>
      <trkpt lat="45.73261" lon="4.65108">
        <ele>399</ele>
        <time>2011-10-16T07:54:49Z</time>
      </trkpt>
      <trkpt lat="45.73266" lon="4.65105">
        <ele>399</ele>
        <time>2011-10-16T07:54:51Z</time>
      </trkpt>
      <trkpt lat="45.73272" lon="4.65101">
        <ele>399</ele>
        <time>2011-10-16T07:54:53Z</time>
      </trkpt>
      <trkpt lat="45.73278" lon="4.65098">
        <ele>399</ele>
        <time>2011-10-16T07:54:55Z</time>
      </trkpt>
      <trkpt lat="45.73283" lon="4.65092">
        <ele>399</ele>
        <time>2011-10-16T07:54:57Z</time>
      </trkpt>
      <trkpt lat="45.73288" lon="4.65086">
        <ele>398</ele>
        <time>2011-10-16T07:54:59Z</time>
      </trkpt>
      <trkpt lat="45.73294" lon="4.65081">
        <ele>402</ele>
        <time>2011-10-16T07:55:01Z</time>
      </trkpt>
      <trkpt lat="45.73301" lon="4.65075">
        <ele>402</ele>
        <time>2011-10-16T07:55:03Z</time>
      </trkpt>
      <trkpt lat="45.73306" lon="4.6507">
        <ele>401</ele>
        <time>2011-10-16T07:55:05Z</time>
      </trkpt>
      <trkpt lat="45.7331" lon="4.65063">
        <ele>401</ele>
        <time>2011-10-16T07:55:07Z</time>
      </trkpt>
      <trkpt lat="45.73314" lon="4.65056">
        <ele>401</ele>
        <time>2011-10-16T07:55:09Z</time>
      </trkpt>
      <trkpt lat="45.73318" lon="4.65045">
        <ele>402</ele>
        <time>2011-10-16T07:55:11Z</time>
      </trkpt>
      <trkpt lat="45.73321" lon="4.65034">
        <ele>402</ele>
        <time>2011-10-16T07:55:13Z</time>
      </trkpt>
      <trkpt lat="45.73322" lon="4.65027">
        <ele>402</ele>
        <time>2011-10-16T07:55:14Z</time>
      </trkpt>
      <trkpt lat="45.73323" lon="4.6502">
        <ele>402</ele>
        <time>2011-10-16T07:55:15Z</time>
      </trkpt>
      <trkpt lat="45.73324" lon="4.6501">
        <ele>402</ele>
        <time>2011-10-16T07:55:17Z</time>
      </trkpt>
      <trkpt lat="45.73326" lon="4.65">
        <ele>402</ele>
        <time>2011-10-16T07:55:19Z</time>
      </trkpt>
      <trkpt lat="45.73326" lon="4.64992">
        <ele>403</ele>
        <time>2011-10-16T07:55:20Z</time>
      </trkpt>
      <trkpt lat="45.73328" lon="4.64982">
        <ele>404</ele>
        <time>2011-10-16T07:55:21Z</time>
      </trkpt>
      <trkpt lat="45.73331" lon="4.64974">
        <ele>405</ele>
        <time>2011-10-16T07:55:22Z</time>
      </trkpt>
      <trkpt lat="45.73336" lon="4.64967">
        <ele>401</ele>
        <time>2011-10-16T07:55:23Z</time>
      </trkpt>
      <trkpt lat="45.73341" lon="4.64959">
        <ele>401</ele>
        <time>2011-10-16T07:55:24Z</time>
      </trkpt>
      <trkpt lat="45.73345" lon="4.64956">
        <ele>402</ele>
        <time>2011-10-16T07:55:25Z</time>
      </trkpt>
      <trkpt lat="45.73351" lon="4.64952">
        <ele>402</ele>
        <time>2011-10-16T07:55:26Z</time>
      </trkpt>
      <trkpt lat="45.73356" lon="4.64948">
        <ele>402</ele>
        <time>2011-10-16T07:55:27Z</time>
      </trkpt>
      <trkpt lat="45.73361" lon="4.64947">
        <ele>402</ele>
        <time>2011-10-16T07:55:28Z</time>
      </trkpt>
      <trkpt lat="45.73365" lon="4.64946">
        <ele>402</ele>
        <time>2011-10-16T07:55:29Z</time>
      </trkpt>
      <trkpt lat="45.73374" lon="4.64944">
        <ele>402</ele>
        <time>2011-10-16T07:55:31Z</time>
      </trkpt>
      <trkpt lat="45.73381" lon="4.64942">
        <ele>402</ele>
        <time>2011-10-16T07:55:33Z</time>
      </trkpt>
      <trkpt lat="45.73388" lon="4.64942">
        <ele>402</ele>
        <time>2011-10-16T07:55:34Z</time>
      </trkpt>
      <trkpt lat="45.73396" lon="4.6494">
        <ele>403</ele>
        <time>2011-10-16T07:55:36Z</time>
      </trkpt>
      <trkpt lat="45.734" lon="4.64941">
        <ele>403</ele>
        <time>2011-10-16T07:55:37Z</time>
      </trkpt>
      <trkpt lat="45.73405" lon="4.64942">
        <ele>403</ele>
        <time>2011-10-16T07:55:38Z</time>
      </trkpt>
      <trkpt lat="45.73413" lon="4.6494">
        <ele>403</ele>
        <time>2011-10-16T07:55:40Z</time>
      </trkpt>
      <trkpt lat="45.73422" lon="4.6494">
        <ele>404</ele>
        <time>2011-10-16T07:55:42Z</time>
      </trkpt>
      <trkpt lat="45.73429" lon="4.6494">
        <ele>404</ele>
        <time>2011-10-16T07:55:44Z</time>
      </trkpt>
      <trkpt lat="45.73437" lon="4.64942">
        <ele>404</ele>
        <time>2011-10-16T07:55:46Z</time>
      </trkpt>
      <trkpt lat="45.73443" lon="4.64942">
        <ele>404</ele>
        <time>2011-10-16T07:55:48Z</time>
      </trkpt>
      <trkpt lat="45.7345" lon="4.64942">
        <ele>404</ele>
        <time>2011-10-16T07:55:50Z</time>
      </trkpt>
      <trkpt lat="45.73457" lon="4.64941">
        <ele>404</ele>
        <time>2011-10-16T07:55:52Z</time>
      </trkpt>
      <trkpt lat="45.73464" lon="4.6494">
        <ele>404</ele>
        <time>2011-10-16T07:55:54Z</time>
      </trkpt>
      <trkpt lat="45.73471" lon="4.64939">
        <ele>404</ele>
        <time>2011-10-16T07:55:56Z</time>
      </trkpt>
      <trkpt lat="45.73479" lon="4.64937">
        <ele>405</ele>
        <time>2011-10-16T07:55:58Z</time>
      </trkpt>
      <trkpt lat="45.73485" lon="4.64934">
        <ele>405</ele>
        <time>2011-10-16T07:56:00Z</time>
      </trkpt>
      <trkpt lat="45.73492" lon="4.64932">
        <ele>406</ele>
        <time>2011-10-16T07:56:02Z</time>
      </trkpt>
      <trkpt lat="45.73498" lon="4.64929">
        <ele>407</ele>
        <time>2011-10-16T07:56:04Z</time>
      </trkpt>
      <trkpt lat="45.73504" lon="4.64925">
        <ele>407</ele>
        <time>2011-10-16T07:56:06Z</time>
      </trkpt>
      <trkpt lat="45.73509" lon="4.64921">
        <ele>407</ele>
        <time>2011-10-16T07:56:08Z</time>
      </trkpt>
      <trkpt lat="45.73514" lon="4.64917">
        <ele>407</ele>
        <time>2011-10-16T07:56:10Z</time>
      </trkpt>
      <trkpt lat="45.7352" lon="4.64912">
        <ele>410</ele>
        <time>2011-10-16T07:56:12Z</time>
      </trkpt>
      <trkpt lat="45.73526" lon="4.64908">
        <ele>410</ele>
        <time>2011-10-16T07:56:14Z</time>
      </trkpt>
      <trkpt lat="45.7353" lon="4.64904">
        <ele>410</ele>
        <time>2011-10-16T07:56:16Z</time>
      </trkpt>
      <trkpt lat="45.73535" lon="4.64898">
        <ele>410</ele>
        <time>2011-10-16T07:56:18Z</time>
      </trkpt>
      <trkpt lat="45.7354" lon="4.64892">
        <ele>410</ele>
        <time>2011-10-16T07:56:20Z</time>
      </trkpt>
      <trkpt lat="45.73544" lon="4.64886">
        <ele>410</ele>
        <time>2011-10-16T07:56:22Z</time>
      </trkpt>
      <trkpt lat="45.73549" lon="4.6488">
        <ele>410</ele>
        <time>2011-10-16T07:56:24Z</time>
      </trkpt>
      <trkpt lat="45.73553" lon="4.64873">
        <ele>411</ele>
        <time>2011-10-16T07:56:26Z</time>
      </trkpt>
      <trkpt lat="45.73558" lon="4.64867">
        <ele>411</ele>
        <time>2011-10-16T07:56:28Z</time>
      </trkpt>
      <trkpt lat="45.73563" lon="4.64861">
        <ele>411</ele>
        <time>2011-10-16T07:56:30Z</time>
      </trkpt>
      <trkpt lat="45.73568" lon="4.64854">
        <ele>411</ele>
        <time>2011-10-16T07:56:32Z</time>
      </trkpt>
      <trkpt lat="45.73573" lon="4.64847">
        <ele>412</ele>
        <time>2011-10-16T07:56:34Z</time>
      </trkpt>
      <trkpt lat="45.73578" lon="4.64841">
        <ele>412</ele>
        <time>2011-10-16T07:56:36Z</time>
      </trkpt>
      <trkpt lat="45.73582" lon="4.64834">
        <ele>413</ele>
        <time>2011-10-16T07:56:38Z</time>
      </trkpt>
      <trkpt lat="45.73586" lon="4.64828">
        <ele>412</ele>
        <time>2011-10-16T07:56:40Z</time>
      </trkpt>
      <trkpt lat="45.7359" lon="4.64822">
        <ele>412</ele>
        <time>2011-10-16T07:56:42Z</time>
      </trkpt>
      <trkpt lat="45.73594" lon="4.64816">
        <ele>412</ele>
        <time>2011-10-16T07:56:44Z</time>
      </trkpt>
      <trkpt lat="45.73598" lon="4.64809">
        <ele>411</ele>
        <time>2011-10-16T07:56:46Z</time>
      </trkpt>
      <trkpt lat="45.73602" lon="4.64802">
        <ele>411</ele>
        <time>2011-10-16T07:56:48Z</time>
      </trkpt>
      <trkpt lat="45.73606" lon="4.64793">
        <ele>411</ele>
        <time>2011-10-16T07:56:50Z</time>
      </trkpt>
      <trkpt lat="45.73611" lon="4.64784">
        <ele>411</ele>
        <time>2011-10-16T07:56:52Z</time>
      </trkpt>
      <trkpt lat="45.73615" lon="4.64774">
        <ele>411</ele>
        <time>2011-10-16T07:56:54Z</time>
      </trkpt>
      <trkpt lat="45.73617" lon="4.64768">
        <ele>411</ele>
        <time>2011-10-16T07:56:55Z</time>
      </trkpt>
      <trkpt lat="45.73621" lon="4.64757">
        <ele>411</ele>
        <time>2011-10-16T07:56:57Z</time>
      </trkpt>
      <trkpt lat="45.73623" lon="4.64751">
        <ele>411</ele>
        <time>2011-10-16T07:56:58Z</time>
      </trkpt>
      <trkpt lat="45.73624" lon="4.64744">
        <ele>412</ele>
        <time>2011-10-16T07:56:59Z</time>
      </trkpt>
      <trkpt lat="45.73626" lon="4.64732">
        <ele>412</ele>
        <time>2011-10-16T07:57:01Z</time>
      </trkpt>
      <trkpt lat="45.73627" lon="4.64719">
        <ele>412</ele>
        <time>2011-10-16T07:57:03Z</time>
      </trkpt>
      <trkpt lat="45.73626" lon="4.64706">
        <ele>412</ele>
        <time>2011-10-16T07:57:05Z</time>
      </trkpt>
      <trkpt lat="45.73624" lon="4.64694">
        <ele>413</ele>
        <time>2011-10-16T07:57:07Z</time>
      </trkpt>
      <trkpt lat="45.73624" lon="4.64688">
        <ele>413</ele>
        <time>2011-10-16T07:57:08Z</time>
      </trkpt>
      <trkpt lat="45.73623" lon="4.6468">
        <ele>413</ele>
        <time>2011-10-16T07:57:09Z</time>
      </trkpt>
      <trkpt lat="45.73621" lon="4.64674">
        <ele>413</ele>
        <time>2011-10-16T07:57:10Z</time>
      </trkpt>
      <trkpt lat="45.7362" lon="4.64667">
        <ele>413</ele>
        <time>2011-10-16T07:57:11Z</time>
      </trkpt>
      <trkpt lat="45.7362" lon="4.64655">
        <ele>414</ele>
        <time>2011-10-16T07:57:13Z</time>
      </trkpt>
      <trkpt lat="45.73618" lon="4.64641">
        <ele>414</ele>
        <time>2011-10-16T07:57:15Z</time>
      </trkpt>
      <trkpt lat="45.73618" lon="4.64628">
        <ele>414</ele>
        <time>2011-10-16T07:57:17Z</time>
      </trkpt>
      <trkpt lat="45.73618" lon="4.64621">
        <ele>415</ele>
        <time>2011-10-16T07:57:18Z</time>
      </trkpt>
      <trkpt lat="45.73618" lon="4.64612">
        <ele>415</ele>
        <time>2011-10-16T07:57:20Z</time>
      </trkpt>
      <trkpt lat="45.73615" lon="4.64606">
        <ele>415</ele>
        <time>2011-10-16T07:57:21Z</time>
      </trkpt>
      <trkpt lat="45.73616" lon="4.64595">
        <ele>415</ele>
        <time>2011-10-16T07:57:23Z</time>
      </trkpt>
      <trkpt lat="45.73614" lon="4.64587">
        <ele>415</ele>
        <time>2011-10-16T07:57:24Z</time>
      </trkpt>
      <trkpt lat="45.73613" lon="4.6458">
        <ele>417</ele>
        <time>2011-10-16T07:57:25Z</time>
      </trkpt>
      <trkpt lat="45.73612" lon="4.64573">
        <ele>417</ele>
        <time>2011-10-16T07:57:26Z</time>
      </trkpt>
      <trkpt lat="45.73613" lon="4.64565">
        <ele>417</ele>
        <time>2011-10-16T07:57:27Z</time>
      </trkpt>
      <trkpt lat="45.73614" lon="4.64557">
        <ele>417</ele>
        <time>2011-10-16T07:57:28Z</time>
      </trkpt>
      <trkpt lat="45.73617" lon="4.64551">
        <ele>417</ele>
        <time>2011-10-16T07:57:29Z</time>
      </trkpt>
      <trkpt lat="45.73619" lon="4.64543">
        <ele>417</ele>
        <time>2011-10-16T07:57:30Z</time>
      </trkpt>
      <trkpt lat="45.73621" lon="4.64537">
        <ele>417</ele>
        <time>2011-10-16T07:57:31Z</time>
      </trkpt>
      <trkpt lat="45.73627" lon="4.64527">
        <ele>417</ele>
        <time>2011-10-16T07:57:33Z</time>
      </trkpt>
      <trkpt lat="45.73634" lon="4.64513">
        <ele>417</ele>
        <time>2011-10-16T07:57:35Z</time>
      </trkpt>
      <trkpt lat="45.73638" lon="4.64506">
        <ele>416</ele>
        <time>2011-10-16T07:57:37Z</time>
      </trkpt>
      <trkpt lat="45.73641" lon="4.64494">
        <ele>419</ele>
        <time>2011-10-16T07:57:39Z</time>
      </trkpt>
      <trkpt lat="45.73644" lon="4.64489">
        <ele>419</ele>
        <time>2011-10-16T07:57:40Z</time>
      </trkpt>
      <trkpt lat="45.73648" lon="4.6448">
        <ele>419</ele>
        <time>2011-10-16T07:57:42Z</time>
      </trkpt>
      <trkpt lat="45.73653" lon="4.64472">
        <ele>419</ele>
        <time>2011-10-16T07:57:44Z</time>
      </trkpt>
      <trkpt lat="45.73657" lon="4.64463">
        <ele>420</ele>
        <time>2011-10-16T07:57:46Z</time>
      </trkpt>
      <trkpt lat="45.73662" lon="4.64456">
        <ele>420</ele>
        <time>2011-10-16T07:57:48Z</time>
      </trkpt>
      <trkpt lat="45.73665" lon="4.6445">
        <ele>420</ele>
        <time>2011-10-16T07:57:50Z</time>
      </trkpt>
      <trkpt lat="45.7367" lon="4.64444">
        <ele>415</ele>
        <time>2011-10-16T07:57:53Z</time>
      </trkpt>
      <trkpt lat="45.73673" lon="4.64438">
        <ele>416</ele>
        <time>2011-10-16T07:57:55Z</time>
      </trkpt>
      <trkpt lat="45.73677" lon="4.64431">
        <ele>416</ele>
        <time>2011-10-16T07:57:57Z</time>
      </trkpt>
      <trkpt lat="45.73682" lon="4.64424">
        <ele>416</ele>
        <time>2011-10-16T07:57:59Z</time>
      </trkpt>
      <trkpt lat="45.73687" lon="4.64416">
        <ele>418</ele>
        <time>2011-10-16T07:58:01Z</time>
      </trkpt>
      <trkpt lat="45.73692" lon="4.64406">
        <ele>418</ele>
        <time>2011-10-16T07:58:03Z</time>
      </trkpt>
      <trkpt lat="45.73697" lon="4.64396">
        <ele>417</ele>
        <time>2011-10-16T07:58:05Z</time>
      </trkpt>
      <trkpt lat="45.737" lon="4.64384">
        <ele>417</ele>
        <time>2011-10-16T07:58:07Z</time>
      </trkpt>
      <trkpt lat="45.73702" lon="4.64374">
        <ele>417</ele>
        <time>2011-10-16T07:58:09Z</time>
      </trkpt>
      <trkpt lat="45.73704" lon="4.64363">
        <ele>418</ele>
        <time>2011-10-16T07:58:11Z</time>
      </trkpt>
      <trkpt lat="45.73704" lon="4.64352">
        <ele>418</ele>
        <time>2011-10-16T07:58:13Z</time>
      </trkpt>
      <trkpt lat="45.73705" lon="4.64339">
        <ele>418</ele>
        <time>2011-10-16T07:58:15Z</time>
      </trkpt>
      <trkpt lat="45.73707" lon="4.64327">
        <ele>419</ele>
        <time>2011-10-16T07:58:17Z</time>
      </trkpt>
      <trkpt lat="45.73709" lon="4.64314">
        <ele>419</ele>
        <time>2011-10-16T07:58:19Z</time>
      </trkpt>
      <trkpt lat="45.7371" lon="4.64304">
        <ele>419</ele>
        <time>2011-10-16T07:58:21Z</time>
      </trkpt>
      <trkpt lat="45.73711" lon="4.64292">
        <ele>419</ele>
        <time>2011-10-16T07:58:23Z</time>
      </trkpt>
      <trkpt lat="45.73712" lon="4.64278">
        <ele>419</ele>
        <time>2011-10-16T07:58:25Z</time>
      </trkpt>
      <trkpt lat="45.73712" lon="4.64271">
        <ele>419</ele>
        <time>2011-10-16T07:58:26Z</time>
      </trkpt>
      <trkpt lat="45.73713" lon="4.64262">
        <ele>419</ele>
        <time>2011-10-16T07:58:27Z</time>
      </trkpt>
      <trkpt lat="45.73713" lon="4.64253">
        <ele>419</ele>
        <time>2011-10-16T07:58:28Z</time>
      </trkpt>
      <trkpt lat="45.73712" lon="4.64245">
        <ele>421</ele>
        <time>2011-10-16T07:58:29Z</time>
      </trkpt>
      <trkpt lat="45.73712" lon="4.64237">
        <ele>421</ele>
        <time>2011-10-16T07:58:30Z</time>
      </trkpt>
      <trkpt lat="45.73712" lon="4.6423">
        <ele>421</ele>
        <time>2011-10-16T07:58:31Z</time>
      </trkpt>
      <trkpt lat="45.73714" lon="4.64223">
        <ele>421</ele>
        <time>2011-10-16T07:58:32Z</time>
      </trkpt>
      <trkpt lat="45.73716" lon="4.64216">
        <ele>421</ele>
        <time>2011-10-16T07:58:33Z</time>
      </trkpt>
      <trkpt lat="45.73723" lon="4.64205">
        <ele>421</ele>
        <time>2011-10-16T07:58:35Z</time>
      </trkpt>
      <trkpt lat="45.73725" lon="4.64198">
        <ele>422</ele>
        <time>2011-10-16T07:58:36Z</time>
      </trkpt>
      <trkpt lat="45.73728" lon="4.64192">
        <ele>422</ele>
        <time>2011-10-16T07:58:37Z</time>
      </trkpt>
      <trkpt lat="45.73731" lon="4.64187">
        <ele>422</ele>
        <time>2011-10-16T07:58:38Z</time>
      </trkpt>
      <trkpt lat="45.73735" lon="4.64177">
        <ele>422</ele>
        <time>2011-10-16T07:58:40Z</time>
      </trkpt>
      <trkpt lat="45.73738" lon="4.64172">
        <ele>422</ele>
        <time>2011-10-16T07:58:41Z</time>
      </trkpt>
      <trkpt lat="45.73741" lon="4.64166">
        <ele>424</ele>
        <time>2011-10-16T07:58:42Z</time>
      </trkpt>
      <trkpt lat="45.73745" lon="4.64158">
        <ele>424</ele>
        <time>2011-10-16T07:58:44Z</time>
      </trkpt>
      <trkpt lat="45.73748" lon="4.64152">
        <ele>425</ele>
        <time>2011-10-16T07:58:46Z</time>
      </trkpt>
      <trkpt lat="45.73754" lon="4.64146">
        <ele>424</ele>
        <time>2011-10-16T07:58:48Z</time>
      </trkpt>
      <trkpt lat="45.73757" lon="4.64141">
        <ele>424</ele>
        <time>2011-10-16T07:58:50Z</time>
      </trkpt>
      <trkpt lat="45.73762" lon="4.64136">
        <ele>424</ele>
        <time>2011-10-16T07:58:52Z</time>
      </trkpt>
      <trkpt lat="45.73767" lon="4.64132">
        <ele>424</ele>
        <time>2011-10-16T07:58:54Z</time>
      </trkpt>
      <trkpt lat="45.73772" lon="4.64126">
        <ele>424</ele>
        <time>2011-10-16T07:58:56Z</time>
      </trkpt>
      <trkpt lat="45.73779" lon="4.64121">
        <ele>424</ele>
        <time>2011-10-16T07:58:58Z</time>
      </trkpt>
      <trkpt lat="45.73785" lon="4.64115">
        <ele>424</ele>
        <time>2011-10-16T07:59:00Z</time>
      </trkpt>
      <trkpt lat="45.73791" lon="4.64109">
        <ele>424</ele>
        <time>2011-10-16T07:59:02Z</time>
      </trkpt>
      <trkpt lat="45.73796" lon="4.64104">
        <ele>424</ele>
        <time>2011-10-16T07:59:04Z</time>
      </trkpt>
      <trkpt lat="45.73802" lon="4.64099">
        <ele>424</ele>
        <time>2011-10-16T07:59:06Z</time>
      </trkpt>
      <trkpt lat="45.73805" lon="4.64091">
        <ele>424</ele>
        <time>2011-10-16T07:59:08Z</time>
      </trkpt>
      <trkpt lat="45.73807" lon="4.64083">
        <ele>428</ele>
        <time>2011-10-16T07:59:10Z</time>
      </trkpt>
      <trkpt lat="45.73808" lon="4.64075">
        <ele>428</ele>
        <time>2011-10-16T07:59:12Z</time>
      </trkpt>
      <trkpt lat="45.73811" lon="4.64067">
        <ele>428</ele>
        <time>2011-10-16T07:59:14Z</time>
      </trkpt>
      <trkpt lat="45.73813" lon="4.6406">
        <ele>429</ele>
        <time>2011-10-16T07:59:16Z</time>
      </trkpt>
      <trkpt lat="45.73814" lon="4.64052">
        <ele>429</ele>
        <time>2011-10-16T07:59:18Z</time>
      </trkpt>
      <trkpt lat="45.73816" lon="4.64046">
        <ele>430</ele>
        <time>2011-10-16T07:59:20Z</time>
      </trkpt>
      <trkpt lat="45.73817" lon="4.6404">
        <ele>430</ele>
        <time>2011-10-16T07:59:22Z</time>
      </trkpt>
      <trkpt lat="45.7382" lon="4.64031">
        <ele>430</ele>
        <time>2011-10-16T07:59:25Z</time>
      </trkpt>
      <trkpt lat="45.73821" lon="4.64025">
        <ele>431</ele>
        <time>2011-10-16T07:59:28Z</time>
      </trkpt>
      <trkpt lat="45.73822" lon="4.64017">
        <ele>431</ele>
        <time>2011-10-16T07:59:32Z</time>
      </trkpt>
      <trkpt lat="45.73824" lon="4.64011">
        <ele>431</ele>
        <time>2011-10-16T08:02:12Z</time>
      </trkpt>
      <trkpt lat="45.73826" lon="4.64005">
        <ele>432</ele>
        <time>2011-10-16T08:02:15Z</time>
      </trkpt>
      <trkpt lat="45.73828" lon="4.63997">
        <ele>433</ele>
        <time>2011-10-16T08:02:17Z</time>
      </trkpt>
      <trkpt lat="45.73829" lon="4.6399">
        <ele>434</ele>
        <time>2011-10-16T08:02:19Z</time>
      </trkpt>
      <trkpt lat="45.73833" lon="4.63984">
        <ele>435</ele>
        <time>2011-10-16T08:02:21Z</time>
      </trkpt>
      <trkpt lat="45.73838" lon="4.63981">
        <ele>434</ele>
        <time>2011-10-16T08:02:23Z</time>
      </trkpt>
      <trkpt lat="45.73844" lon="4.63984">
        <ele>434</ele>
        <time>2011-10-16T08:02:25Z</time>
      </trkpt>
      <trkpt lat="45.73848" lon="4.63987">
        <ele>434</ele>
        <time>2011-10-16T08:02:27Z</time>
      </trkpt>
      <trkpt lat="45.73854" lon="4.6399">
        <ele>434</ele>
        <time>2011-10-16T08:02:29Z</time>
      </trkpt>
      <trkpt lat="45.73859" lon="4.63992">
        <ele>434</ele>
        <time>2011-10-16T08:02:31Z</time>
      </trkpt>
      <trkpt lat="45.73863" lon="4.63992">
        <ele>434</ele>
        <time>2011-10-16T08:02:33Z</time>
      </trkpt>
      <trkpt lat="45.73869" lon="4.63988">
        <ele>434</ele>
        <time>2011-10-16T08:02:36Z</time>
      </trkpt>
      <trkpt lat="45.73873" lon="4.63984">
        <ele>434</ele>
        <time>2011-10-16T08:02:39Z</time>
      </trkpt>
      <trkpt lat="45.73877" lon="4.6398">
        <ele>434</ele>
        <time>2011-10-16T08:02:41Z</time>
      </trkpt>
      <trkpt lat="45.7388" lon="4.63972">
        <ele>435</ele>
        <time>2011-10-16T08:02:44Z</time>
      </trkpt>
      <trkpt lat="45.73885" lon="4.63968">
        <ele>435</ele>
        <time>2011-10-16T08:02:47Z</time>
      </trkpt>
      <trkpt lat="45.7389" lon="4.63976">
        <ele>434</ele>
        <time>2011-10-16T08:02:50Z</time>
      </trkpt>
      <trkpt lat="45.73894" lon="4.63983">
        <ele>434</ele>
        <time>2011-10-16T08:02:52Z</time>
      </trkpt>
      <trkpt lat="45.73898" lon="4.63991">
        <ele>433</ele>
        <time>2011-10-16T08:02:54Z</time>
      </trkpt>
      <trkpt lat="45.73898" lon="4.64">
        <ele>433</ele>
        <time>2011-10-16T08:02:55Z</time>
      </trkpt>
      <trkpt lat="45.739" lon="4.64011">
        <ele>429</ele>
        <time>2011-10-16T08:02:57Z</time>
      </trkpt>
      <trkpt lat="45.73899" lon="4.64021">
        <ele>428</ele>
        <time>2011-10-16T08:02:59Z</time>
      </trkpt>
      <trkpt lat="45.73898" lon="4.64032">
        <ele>428</ele>
        <time>2011-10-16T08:03:01Z</time>
      </trkpt>
      <trkpt lat="45.73909" lon="4.64036">
        <ele>428</ele>
        <time>2011-10-16T08:03:03Z</time>
      </trkpt>
      <trkpt lat="45.73918" lon="4.6404">
        <ele>430</ele>
        <time>2011-10-16T08:03:05Z</time>
      </trkpt>
      <trkpt lat="45.73923" lon="4.64042">
        <ele>430</ele>
        <time>2011-10-16T08:03:06Z</time>
      </trkpt>
      <trkpt lat="45.73929" lon="4.64045">
        <ele>430</ele>
        <time>2011-10-16T08:03:07Z</time>
      </trkpt>
      <trkpt lat="45.73931" lon="4.6405">
        <ele>430</ele>
        <time>2011-10-16T08:03:08Z</time>
      </trkpt>
      <trkpt lat="45.73937" lon="4.64058">
        <ele>430</ele>
        <time>2011-10-16T08:03:10Z</time>
      </trkpt>
      <trkpt lat="45.73932" lon="4.64063">
        <ele>429</ele>
        <time>2011-10-16T08:03:11Z</time>
      </trkpt>
      <trkpt lat="45.73934" lon="4.6407">
        <ele>428</ele>
        <time>2011-10-16T08:03:12Z</time>
      </trkpt>
      <trkpt lat="45.73934" lon="4.64077">
        <ele>428</ele>
        <time>2011-10-16T08:03:13Z</time>
      </trkpt>
      <trkpt lat="45.73936" lon="4.64084">
        <ele>429</ele>
        <time>2011-10-16T08:03:14Z</time>
      </trkpt>
      <trkpt lat="45.73935" lon="4.64091">
        <ele>429</ele>
        <time>2011-10-16T08:03:15Z</time>
      </trkpt>
      <trkpt lat="45.73933" lon="4.64099">
        <ele>430</ele>
        <time>2011-10-16T08:03:17Z</time>
      </trkpt>
      <trkpt lat="45.73928" lon="4.64104">
        <ele>430</ele>
        <time>2011-10-16T08:03:19Z</time>
      </trkpt>
      <trkpt lat="45.73922" lon="4.64112">
        <ele>430</ele>
        <time>2011-10-16T08:03:21Z</time>
      </trkpt>
      <trkpt lat="45.7392" lon="4.64119">
        <ele>430</ele>
        <time>2011-10-16T08:03:25Z</time>
      </trkpt>
      <trkpt lat="45.73918" lon="4.64126">
        <ele>431</ele>
        <time>2011-10-16T08:03:28Z</time>
      </trkpt>
      <trkpt lat="45.73916" lon="4.64135">
        <ele>426</ele>
        <time>2011-10-16T08:03:32Z</time>
      </trkpt>
      <trkpt lat="45.73912" lon="4.64142">
        <ele>426</ele>
        <time>2011-10-16T08:03:35Z</time>
      </trkpt>
      <trkpt lat="45.73911" lon="4.64149">
        <ele>426</ele>
        <time>2011-10-16T08:03:38Z</time>
      </trkpt>
      <trkpt lat="45.73911" lon="4.64159">
        <ele>427</ele>
        <time>2011-10-16T08:03:41Z</time>
      </trkpt>
      <trkpt lat="45.73911" lon="4.64167">
        <ele>428</ele>
        <time>2011-10-16T08:03:43Z</time>
      </trkpt>
      <trkpt lat="45.73908" lon="4.64173">
        <ele>428</ele>
        <time>2011-10-16T08:03:45Z</time>
      </trkpt>
      <trkpt lat="45.73904" lon="4.64178">
        <ele>428</ele>
        <time>2011-10-16T08:03:47Z</time>
      </trkpt>
      <trkpt lat="45.73902" lon="4.64183">
        <ele>427</ele>
        <time>2011-10-16T08:03:49Z</time>
      </trkpt>
      <trkpt lat="45.73897" lon="4.64191">
        <ele>427</ele>
        <time>2011-10-16T08:03:52Z</time>
      </trkpt>
      <trkpt lat="45.73894" lon="4.64199">
        <ele>427</ele>
        <time>2011-10-16T08:03:54Z</time>
      </trkpt>
      <trkpt lat="45.73891" lon="4.64205">
        <ele>427</ele>
        <time>2011-10-16T08:03:56Z</time>
      </trkpt>
      <trkpt lat="45.73887" lon="4.64213">
        <ele>427</ele>
        <time>2011-10-16T08:03:58Z</time>
      </trkpt>
      <trkpt lat="45.73887" lon="4.64219">
        <ele>427</ele>
        <time>2011-10-16T08:04:00Z</time>
      </trkpt>
      <trkpt lat="45.73885" lon="4.64227">
        <ele>427</ele>
        <time>2011-10-16T08:04:03Z</time>
      </trkpt>
      <trkpt lat="45.73887" lon="4.64236">
        <ele>428</ele>
        <time>2011-10-16T08:04:06Z</time>
      </trkpt>
      <trkpt lat="45.7389" lon="4.64241">
        <ele>428</ele>
        <time>2011-10-16T08:04:09Z</time>
      </trkpt>
      <trkpt lat="45.73895" lon="4.64245">
        <ele>430</ele>
        <time>2011-10-16T08:04:13Z</time>
      </trkpt>
      <trkpt lat="45.73898" lon="4.6425">
        <ele>432</ele>
        <time>2011-10-16T08:04:16Z</time>
      </trkpt>
      <trkpt lat="45.73902" lon="4.64254">
        <ele>433</ele>
        <time>2011-10-16T08:04:19Z</time>
      </trkpt>
      <trkpt lat="45.73906" lon="4.64257">
        <ele>433</ele>
        <time>2011-10-16T08:04:22Z</time>
      </trkpt>
      <trkpt lat="45.7391" lon="4.64261">
        <ele>433</ele>
        <time>2011-10-16T08:04:25Z</time>
      </trkpt>
      <trkpt lat="45.73915" lon="4.64266">
        <ele>433</ele>
        <time>2011-10-16T08:04:29Z</time>
      </trkpt>
      <trkpt lat="45.73919" lon="4.64271">
        <ele>441</ele>
        <time>2011-10-16T08:04:32Z</time>
      </trkpt>
      <trkpt lat="45.73922" lon="4.64275">
        <ele>442</ele>
        <time>2011-10-16T08:04:34Z</time>
      </trkpt>
      <trkpt lat="45.73926" lon="4.64279">
        <ele>443</ele>
        <time>2011-10-16T08:04:37Z</time>
      </trkpt>
      <trkpt lat="45.73931" lon="4.6428">
        <ele>443</ele>
        <time>2011-10-16T08:04:40Z</time>
      </trkpt>
      <trkpt lat="45.73937" lon="4.64282">
        <ele>444</ele>
        <time>2011-10-16T08:04:43Z</time>
      </trkpt>
      <trkpt lat="45.7394" lon="4.64289">
        <ele>444</ele>
        <time>2011-10-16T08:04:47Z</time>
      </trkpt>
      <trkpt lat="45.73944" lon="4.64296">
        <ele>445</ele>
        <time>2011-10-16T08:04:50Z</time>
      </trkpt>
      <trkpt lat="45.73947" lon="4.64304">
        <ele>445</ele>
        <time>2011-10-16T08:04:54Z</time>
      </trkpt>
      <trkpt lat="45.7395" lon="4.6431">
        <ele>446</ele>
        <time>2011-10-16T08:04:57Z</time>
      </trkpt>
      <trkpt lat="45.73951" lon="4.64317">
        <ele>446</ele>
        <time>2011-10-16T08:05:01Z</time>
      </trkpt>
      <trkpt lat="45.73951" lon="4.64325">
        <ele>446</ele>
        <time>2011-10-16T08:05:04Z</time>
      </trkpt>
      <trkpt lat="45.73954" lon="4.64332">
        <ele>447</ele>
        <time>2011-10-16T08:05:07Z</time>
      </trkpt>
      <trkpt lat="45.73956" lon="4.6434">
        <ele>449</ele>
        <time>2011-10-16T08:05:10Z</time>
      </trkpt>
      <trkpt lat="45.73959" lon="4.64348">
        <ele>449</ele>
        <time>2011-10-16T08:05:14Z</time>
      </trkpt>
      <trkpt lat="45.73962" lon="4.64355">
        <ele>449</ele>
        <time>2011-10-16T08:05:18Z</time>
      </trkpt>
      <trkpt lat="45.73967" lon="4.64357">
        <ele>450</ele>
        <time>2011-10-16T08:05:22Z</time>
      </trkpt>
      <trkpt lat="45.73972" lon="4.6436">
        <ele>450</ele>
        <time>2011-10-16T08:05:25Z</time>
      </trkpt>
      <trkpt lat="45.73976" lon="4.64364">
        <ele>450</ele>
        <time>2011-10-16T08:05:29Z</time>
      </trkpt>
      <trkpt lat="45.7398" lon="4.64368">
        <ele>451</ele>
        <time>2011-10-16T08:05:32Z</time>
      </trkpt>
      <trkpt lat="45.73983" lon="4.64373">
        <ele>451</ele>
        <time>2011-10-16T08:05:35Z</time>
      </trkpt>
      <trkpt lat="45.73988" lon="4.64377">
        <ele>451</ele>
        <time>2011-10-16T08:05:39Z</time>
      </trkpt>
      <trkpt lat="45.73993" lon="4.6438">
        <ele>451</ele>
        <time>2011-10-16T08:05:43Z</time>
      </trkpt>
      <trkpt lat="45.73998" lon="4.64383">
        <ele>452</ele>
        <time>2011-10-16T08:05:47Z</time>
      </trkpt>
      <trkpt lat="45.74003" lon="4.64386">
        <ele>460</ele>
        <time>2011-10-16T08:05:50Z</time>
      </trkpt>
      <trkpt lat="45.74009" lon="4.64384">
        <ele>461</ele>
        <time>2011-10-16T08:05:53Z</time>
      </trkpt>
      <trkpt lat="45.74014" lon="4.64385">
        <ele>461</ele>
        <time>2011-10-16T08:05:57Z</time>
      </trkpt>
      <trkpt lat="45.74017" lon="4.64379">
        <ele>461</ele>
        <time>2011-10-16T08:06:03Z</time>
      </trkpt>
      <trkpt lat="45.74015" lon="4.64372">
        <ele>461</ele>
        <time>2011-10-16T08:06:07Z</time>
      </trkpt>
      <trkpt lat="45.7402" lon="4.64371">
        <ele>462</ele>
        <time>2011-10-16T08:06:13Z</time>
      </trkpt>
      <trkpt lat="45.7402" lon="4.64364">
        <ele>462</ele>
        <time>2011-10-16T08:06:17Z</time>
      </trkpt>
      <trkpt lat="45.74021" lon="4.64357">
        <ele>461</ele>
        <time>2011-10-16T08:06:21Z</time>
      </trkpt>
      <trkpt lat="45.74023" lon="4.64349">
        <ele>461</ele>
        <time>2011-10-16T08:06:25Z</time>
      </trkpt>
      <trkpt lat="45.74021" lon="4.64356">
        <ele>461</ele>
        <time>2011-10-16T08:06:30Z</time>
      </trkpt>
      <trkpt lat="45.7402" lon="4.64362">
        <ele>461</ele>
        <time>2011-10-16T08:06:33Z</time>
      </trkpt>
      <trkpt lat="45.7402" lon="4.64369">
        <ele>462</ele>
        <time>2011-10-16T08:06:38Z</time>
      </trkpt>
      <trkpt lat="45.74022" lon="4.64363">
        <ele>462</ele>
        <time>2011-10-16T08:06:48Z</time>
      </trkpt>
      <trkpt lat="45.74024" lon="4.64356">
        <ele>462</ele>
        <time>2011-10-16T08:06:52Z</time>
      </trkpt>
      <trkpt lat="45.74021" lon="4.64362">
        <ele>462</ele>
        <time>2011-10-16T08:06:59Z</time>
      </trkpt>
      <trkpt lat="45.7402" lon="4.64368">
        <ele>462</ele>
        <time>2011-10-16T08:07:03Z</time>
      </trkpt>
      <trkpt lat="45.74022" lon="4.64362">
        <ele>462</ele>
        <time>2011-10-16T08:07:16Z</time>
      </trkpt>
      <trkpt lat="45.74024" lon="4.64356">
        <ele>462</ele>
        <time>2011-10-16T08:07:20Z</time>
      </trkpt>
      <trkpt lat="45.74022" lon="4.64362">
        <ele>462</ele>
        <time>2011-10-16T08:07:28Z</time>
      </trkpt>
      <trkpt lat="45.74025" lon="4.64371">
        <ele>462</ele>
        <time>2011-10-16T08:10:27Z</time>
      </trkpt>
      <trkpt lat="45.74029" lon="4.64376">
        <ele>462</ele>
        <time>2011-10-16T08:10:31Z</time>
      </trkpt>
      <trkpt lat="45.74032" lon="4.64381">
        <ele>462</ele>
        <time>2011-10-16T08:10:34Z</time>
      </trkpt>
      <trkpt lat="45.74036" lon="4.64385">
        <ele>463</ele>
        <time>2011-10-16T08:10:36Z</time>
      </trkpt>
      <trkpt lat="45.74039" lon="4.64392">
        <ele>463</ele>
        <time>2011-10-16T08:10:39Z</time>
      </trkpt>
      <trkpt lat="45.74042" lon="4.64397">
        <ele>463</ele>
        <time>2011-10-16T08:10:42Z</time>
      </trkpt>
      <trkpt lat="45.74046" lon="4.64403">
        <ele>464</ele>
        <time>2011-10-16T08:10:45Z</time>
      </trkpt>
      <trkpt lat="45.7405" lon="4.64408">
        <ele>464</ele>
        <time>2011-10-16T08:10:48Z</time>
      </trkpt>
      <trkpt lat="45.74053" lon="4.64415">
        <ele>465</ele>
        <time>2011-10-16T08:10:50Z</time>
      </trkpt>
      <trkpt lat="45.74058" lon="4.64416">
        <ele>466</ele>
        <time>2011-10-16T08:10:55Z</time>
      </trkpt>
      <trkpt lat="45.74062" lon="4.64422">
        <ele>464</ele>
        <time>2011-10-16T08:10:58Z</time>
      </trkpt>
      <trkpt lat="45.74066" lon="4.64424">
        <ele>465</ele>
        <time>2011-10-16T08:11:02Z</time>
      </trkpt>
      <trkpt lat="45.74071" lon="4.64428">
        <ele>465</ele>
        <time>2011-10-16T08:11:06Z</time>
      </trkpt>
      <trkpt lat="45.74076" lon="4.64432">
        <ele>466</ele>
        <time>2011-10-16T08:11:10Z</time>
      </trkpt>
      <trkpt lat="45.7408" lon="4.64435">
        <ele>465</ele>
        <time>2011-10-16T08:11:13Z</time>
      </trkpt>
      <trkpt lat="45.74084" lon="4.64439">
        <ele>472</ele>
        <time>2011-10-16T08:11:16Z</time>
      </trkpt>
      <trkpt lat="45.74089" lon="4.64443">
        <ele>473</ele>
        <time>2011-10-16T08:11:19Z</time>
      </trkpt>
      <trkpt lat="45.74094" lon="4.64447">
        <ele>473</ele>
        <time>2011-10-16T08:11:22Z</time>
      </trkpt>
      <trkpt lat="45.74098" lon="4.64451">
        <ele>473</ele>
        <time>2011-10-16T08:11:25Z</time>
      </trkpt>
      <trkpt lat="45.74103" lon="4.64455">
        <ele>473</ele>
        <time>2011-10-16T08:11:28Z</time>
      </trkpt>
      <trkpt lat="45.74107" lon="4.64458">
        <ele>473</ele>
        <time>2011-10-16T08:11:31Z</time>
      </trkpt>
      <trkpt lat="45.74112" lon="4.64461">
        <ele>473</ele>
        <time>2011-10-16T08:11:34Z</time>
      </trkpt>
      <trkpt lat="45.74117" lon="4.64464">
        <ele>473</ele>
        <time>2011-10-16T08:11:37Z</time>
      </trkpt>
      <trkpt lat="45.74122" lon="4.64466">
        <ele>474</ele>
        <time>2011-10-16T08:11:40Z</time>
      </trkpt>
      <trkpt lat="45.74127" lon="4.64467">
        <ele>474</ele>
        <time>2011-10-16T08:11:43Z</time>
      </trkpt>
      <trkpt lat="45.74132" lon="4.6447">
        <ele>475</ele>
        <time>2011-10-16T08:11:46Z</time>
      </trkpt>
      <trkpt lat="45.74138" lon="4.64472">
        <ele>475</ele>
        <time>2011-10-16T08:11:49Z</time>
      </trkpt>
      <trkpt lat="45.74143" lon="4.64474">
        <ele>475</ele>
        <time>2011-10-16T08:11:51Z</time>
      </trkpt>
      <trkpt lat="45.74147" lon="4.64475">
        <ele>476</ele>
        <time>2011-10-16T08:11:54Z</time>
      </trkpt>
      <trkpt lat="45.74152" lon="4.64478">
        <ele>476</ele>
        <time>2011-10-16T08:11:57Z</time>
      </trkpt>
      <trkpt lat="45.74158" lon="4.64482">
        <ele>476</ele>
        <time>2011-10-16T08:12:00Z</time>
      </trkpt>
      <trkpt lat="45.74162" lon="4.64485">
        <ele>477</ele>
        <time>2011-10-16T08:12:03Z</time>
      </trkpt>
      <trkpt lat="45.74166" lon="4.6449">
        <ele>477</ele>
        <time>2011-10-16T08:12:06Z</time>
      </trkpt>
      <trkpt lat="45.74172" lon="4.64494">
        <ele>481</ele>
        <time>2011-10-16T08:12:09Z</time>
      </trkpt>
      <trkpt lat="45.74178" lon="4.64499">
        <ele>482</ele>
        <time>2011-10-16T08:12:12Z</time>
      </trkpt>
      <trkpt lat="45.74183" lon="4.64503">
        <ele>480</ele>
        <time>2011-10-16T08:12:14Z</time>
      </trkpt>
      <trkpt lat="45.74189" lon="4.64507">
        <ele>481</ele>
        <time>2011-10-16T08:12:17Z</time>
      </trkpt>
      <trkpt lat="45.74193" lon="4.6451">
        <ele>481</ele>
        <time>2011-10-16T08:12:19Z</time>
      </trkpt>
      <trkpt lat="45.74199" lon="4.64514">
        <ele>482</ele>
        <time>2011-10-16T08:12:22Z</time>
      </trkpt>
      <trkpt lat="45.74204" lon="4.64517">
        <ele>483</ele>
        <time>2011-10-16T08:12:25Z</time>
      </trkpt>
      <trkpt lat="45.74209" lon="4.6452">
        <ele>483</ele>
        <time>2011-10-16T08:12:27Z</time>
      </trkpt>
      <trkpt lat="45.74213" lon="4.64524">
        <ele>483</ele>
        <time>2011-10-16T08:12:29Z</time>
      </trkpt>
      <trkpt lat="45.74218" lon="4.64527">
        <ele>484</ele>
        <time>2011-10-16T08:12:31Z</time>
      </trkpt>
      <trkpt lat="45.74222" lon="4.64531">
        <ele>484</ele>
        <time>2011-10-16T08:12:33Z</time>
      </trkpt>
      <trkpt lat="45.74226" lon="4.64534">
        <ele>484</ele>
        <time>2011-10-16T08:12:35Z</time>
      </trkpt>
      <trkpt lat="45.74231" lon="4.64537">
        <ele>484</ele>
        <time>2011-10-16T08:12:37Z</time>
      </trkpt>
      <trkpt lat="45.74236" lon="4.64543">
        <ele>484</ele>
        <time>2011-10-16T08:12:40Z</time>
      </trkpt>
      <trkpt lat="45.7424" lon="4.64549">
        <ele>484</ele>
        <time>2011-10-16T08:12:43Z</time>
      </trkpt>
      <trkpt lat="45.74241" lon="4.64556">
        <ele>484</ele>
        <time>2011-10-16T08:12:45Z</time>
      </trkpt>
      <trkpt lat="45.74243" lon="4.64562">
        <ele>484</ele>
        <time>2011-10-16T08:12:47Z</time>
      </trkpt>
      <trkpt lat="45.74242" lon="4.64568">
        <ele>484</ele>
        <time>2011-10-16T08:12:49Z</time>
      </trkpt>
      <trkpt lat="45.7424" lon="4.64575">
        <ele>484</ele>
        <time>2011-10-16T08:12:52Z</time>
      </trkpt>
      <trkpt lat="45.74241" lon="4.64582">
        <ele>484</ele>
        <time>2011-10-16T08:12:56Z</time>
      </trkpt>
      <trkpt lat="45.74245" lon="4.64584">
        <ele>485</ele>
        <time>2011-10-16T08:12:59Z</time>
      </trkpt>
      <trkpt lat="45.74244" lon="4.64592">
        <ele>484</ele>
        <time>2011-10-16T08:13:03Z</time>
      </trkpt>
      <trkpt lat="45.74241" lon="4.64598">
        <ele>484</ele>
        <time>2011-10-16T08:13:06Z</time>
      </trkpt>
      <trkpt lat="45.74238" lon="4.64603">
        <ele>484</ele>
        <time>2011-10-16T08:13:09Z</time>
      </trkpt>
      <trkpt lat="45.74235" lon="4.64608">
        <ele>484</ele>
        <time>2011-10-16T08:13:12Z</time>
      </trkpt>
      <trkpt lat="45.74232" lon="4.64615">
        <ele>484</ele>
        <time>2011-10-16T08:13:16Z</time>
      </trkpt>
      <trkpt lat="45.7423" lon="4.64621">
        <ele>485</ele>
        <time>2011-10-16T08:13:19Z</time>
      </trkpt>
      <trkpt lat="45.74228" lon="4.64628">
        <ele>485</ele>
        <time>2011-10-16T08:13:22Z</time>
      </trkpt>
      <trkpt lat="45.74228" lon="4.64635">
        <ele>485</ele>
        <time>2011-10-16T08:13:25Z</time>
      </trkpt>
      <trkpt lat="45.74228" lon="4.64642">
        <ele>486</ele>
        <time>2011-10-16T08:13:28Z</time>
      </trkpt>
      <trkpt lat="45.74229" lon="4.64648">
        <ele>487</ele>
        <time>2011-10-16T08:13:31Z</time>
      </trkpt>
      <trkpt lat="45.7423" lon="4.64656">
        <ele>487</ele>
        <time>2011-10-16T08:13:35Z</time>
      </trkpt>
      <trkpt lat="45.74233" lon="4.64662">
        <ele>488</ele>
        <time>2011-10-16T08:13:39Z</time>
      </trkpt>
      <trkpt lat="45.74238" lon="4.64664">
        <ele>490</ele>
        <time>2011-10-16T08:13:43Z</time>
      </trkpt>
      <trkpt lat="45.74244" lon="4.64663">
        <ele>491</ele>
        <time>2011-10-16T08:13:47Z</time>
      </trkpt>
      <trkpt lat="45.74249" lon="4.64665">
        <ele>493</ele>
        <time>2011-10-16T08:13:51Z</time>
      </trkpt>
      <trkpt lat="45.74253" lon="4.64668">
        <ele>495</ele>
        <time>2011-10-16T08:13:55Z</time>
      </trkpt>
      <trkpt lat="45.74256" lon="4.64672">
        <ele>496</ele>
        <time>2011-10-16T08:13:58Z</time>
      </trkpt>
      <trkpt lat="45.74262" lon="4.64675">
        <ele>497</ele>
        <time>2011-10-16T08:14:02Z</time>
      </trkpt>
      <trkpt lat="45.74266" lon="4.64681">
        <ele>499</ele>
        <time>2011-10-16T08:14:06Z</time>
      </trkpt>
      <trkpt lat="45.74268" lon="4.64688">
        <ele>499</ele>
        <time>2011-10-16T08:14:10Z</time>
      </trkpt>
      <trkpt lat="45.7427" lon="4.64695">
        <ele>500</ele>
        <time>2011-10-16T08:14:14Z</time>
      </trkpt>
      <trkpt lat="45.74274" lon="4.647">
        <ele>500</ele>
        <time>2011-10-16T08:14:17Z</time>
      </trkpt>
      <trkpt lat="45.74278" lon="4.64702">
        <ele>501</ele>
        <time>2011-10-16T08:14:21Z</time>
      </trkpt>
      <trkpt lat="45.74283" lon="4.64705">
        <ele>501</ele>
        <time>2011-10-16T08:14:26Z</time>
      </trkpt>
      <trkpt lat="45.74288" lon="4.64705">
        <ele>501</ele>
        <time>2011-10-16T08:14:30Z</time>
      </trkpt>
      <trkpt lat="45.74293" lon="4.64706">
        <ele>502</ele>
        <time>2011-10-16T08:14:34Z</time>
      </trkpt>
      <trkpt lat="45.74298" lon="4.64705">
        <ele>502</ele>
        <time>2011-10-16T08:14:37Z</time>
      </trkpt>
      <trkpt lat="45.74303" lon="4.64705">
        <ele>502</ele>
        <time>2011-10-16T08:14:41Z</time>
      </trkpt>
      <trkpt lat="45.74308" lon="4.64706">
        <ele>503</ele>
        <time>2011-10-16T08:14:45Z</time>
      </trkpt>
      <trkpt lat="45.74313" lon="4.64706">
        <ele>503</ele>
        <time>2011-10-16T08:14:49Z</time>
      </trkpt>
      <trkpt lat="45.74319" lon="4.64709">
        <ele>503</ele>
        <time>2011-10-16T08:14:53Z</time>
      </trkpt>
      <trkpt lat="45.74325" lon="4.64711">
        <ele>504</ele>
        <time>2011-10-16T08:14:57Z</time>
      </trkpt>
      <trkpt lat="45.74329" lon="4.64715">
        <ele>504</ele>
        <time>2011-10-16T08:15:01Z</time>
      </trkpt>
      <trkpt lat="45.74332" lon="4.64719">
        <ele>504</ele>
        <time>2011-10-16T08:15:04Z</time>
      </trkpt>
      <trkpt lat="45.74336" lon="4.64722">
        <ele>512</ele>
        <time>2011-10-16T08:15:08Z</time>
      </trkpt>
      <trkpt lat="45.74341" lon="4.64725">
        <ele>512</ele>
        <time>2011-10-16T08:15:11Z</time>
      </trkpt>
      <trkpt lat="45.74346" lon="4.64727">
        <ele>512</ele>
        <time>2011-10-16T08:15:15Z</time>
      </trkpt>
      <trkpt lat="45.74352" lon="4.64728">
        <ele>513</ele>
        <time>2011-10-16T08:15:19Z</time>
      </trkpt>
      <trkpt lat="45.74357" lon="4.6473">
        <ele>513</ele>
        <time>2011-10-16T08:15:23Z</time>
      </trkpt>
      <trkpt lat="45.74362" lon="4.64732">
        <ele>514</ele>
        <time>2011-10-16T08:15:26Z</time>
      </trkpt>
      <trkpt lat="45.74367" lon="4.64733">
        <ele>514</ele>
        <time>2011-10-16T08:15:30Z</time>
      </trkpt>
      <trkpt lat="45.74371" lon="4.64737">
        <ele>514</ele>
        <time>2011-10-16T08:15:35Z</time>
      </trkpt>
      <trkpt lat="45.74376" lon="4.64737">
        <ele>515</ele>
        <time>2011-10-16T08:15:40Z</time>
      </trkpt>
      <trkpt lat="45.74381" lon="4.64736">
        <ele>515</ele>
        <time>2011-10-16T08:15:44Z</time>
      </trkpt>
      <trkpt lat="45.74386" lon="4.64734">
        <ele>516</ele>
        <time>2011-10-16T08:15:48Z</time>
      </trkpt>
      <trkpt lat="45.7439" lon="4.64736">
        <ele>516</ele>
        <time>2011-10-16T08:15:53Z</time>
      </trkpt>
      <trkpt lat="45.74396" lon="4.64735">
        <ele>517</ele>
        <time>2011-10-16T08:15:59Z</time>
      </trkpt>
      <trkpt lat="45.744" lon="4.64731">
        <ele>517</ele>
        <time>2011-10-16T08:16:03Z</time>
      </trkpt>
      <trkpt lat="45.74405" lon="4.64727">
        <ele>517</ele>
        <time>2011-10-16T08:16:07Z</time>
      </trkpt>
      <trkpt lat="45.74409" lon="4.64724">
        <ele>517</ele>
        <time>2011-10-16T08:16:10Z</time>
      </trkpt>
      <trkpt lat="45.74414" lon="4.64722">
        <ele>518</ele>
        <time>2011-10-16T08:16:13Z</time>
      </trkpt>
      <trkpt lat="45.74418" lon="4.6472">
        <ele>526</ele>
        <time>2011-10-16T08:16:15Z</time>
      </trkpt>
      <trkpt lat="45.74423" lon="4.64718">
        <ele>526</ele>
        <time>2011-10-16T08:16:43Z</time>
      </trkpt>
      <trkpt lat="45.74428" lon="4.64719">
        <ele>527</ele>
        <time>2011-10-16T08:16:54Z</time>
      </trkpt>
      <trkpt lat="45.74432" lon="4.64716">
        <ele>527</ele>
        <time>2011-10-16T08:17:03Z</time>
      </trkpt>
      <trkpt lat="45.74437" lon="4.64712">
        <ele>528</ele>
        <time>2011-10-16T08:17:18Z</time>
      </trkpt>
      <trkpt lat="45.74442" lon="4.6471">
        <ele>528</ele>
        <time>2011-10-16T08:17:22Z</time>
      </trkpt>
      <trkpt lat="45.74447" lon="4.6471">
        <ele>528</ele>
        <time>2011-10-16T08:17:25Z</time>
      </trkpt>
      <trkpt lat="45.74453" lon="4.64708">
        <ele>529</ele>
        <time>2011-10-16T08:17:29Z</time>
      </trkpt>
      <trkpt lat="45.74456" lon="4.64712">
        <ele>529</ele>
        <time>2011-10-16T08:17:32Z</time>
      </trkpt>
      <trkpt lat="45.74459" lon="4.64719">
        <ele>529</ele>
        <time>2011-10-16T08:17:36Z</time>
      </trkpt>
      <trkpt lat="45.74463" lon="4.64714">
        <ele>530</ele>
        <time>2011-10-16T08:17:37Z</time>
      </trkpt>
      <trkpt lat="45.74465" lon="4.64722">
        <ele>530</ele>
        <time>2011-10-16T08:17:40Z</time>
      </trkpt>
      <trkpt lat="45.74469" lon="4.64724">
        <ele>530</ele>
        <time>2011-10-16T08:17:45Z</time>
      </trkpt>
      <trkpt lat="45.74475" lon="4.64726">
        <ele>530</ele>
        <time>2011-10-16T08:17:48Z</time>
      </trkpt>
      <trkpt lat="45.7448" lon="4.64728">
        <ele>531</ele>
        <time>2011-10-16T08:17:51Z</time>
      </trkpt>
      <trkpt lat="45.74485" lon="4.64728">
        <ele>531</ele>
        <time>2011-10-16T08:17:56Z</time>
      </trkpt>
      <trkpt lat="45.74491" lon="4.64728">
        <ele>531</ele>
        <time>2011-10-16T08:18:00Z</time>
      </trkpt>
      <trkpt lat="45.74496" lon="4.6473">
        <ele>531</ele>
        <time>2011-10-16T08:18:03Z</time>
      </trkpt>
      <trkpt lat="45.745" lon="4.64727">
        <ele>531</ele>
        <time>2011-10-16T08:18:06Z</time>
      </trkpt>
      <trkpt lat="45.74505" lon="4.64726">
        <ele>537</ele>
        <time>2011-10-16T08:18:10Z</time>
      </trkpt>
      <trkpt lat="45.74512" lon="4.64725">
        <ele>538</ele>
        <time>2011-10-16T08:18:14Z</time>
      </trkpt>
      <trkpt lat="45.74516" lon="4.64721">
        <ele>538</ele>
        <time>2011-10-16T08:18:17Z</time>
      </trkpt>
      <trkpt lat="45.74521" lon="4.64722">
        <ele>538</ele>
        <time>2011-10-16T08:18:22Z</time>
      </trkpt>
      <trkpt lat="45.74526" lon="4.6472">
        <ele>539</ele>
        <time>2011-10-16T08:18:26Z</time>
      </trkpt>
      <trkpt lat="45.74531" lon="4.6472">
        <ele>539</ele>
        <time>2011-10-16T08:18:30Z</time>
      </trkpt>
      <trkpt lat="45.74537" lon="4.64718">
        <ele>539</ele>
        <time>2011-10-16T08:18:34Z</time>
      </trkpt>
      <trkpt lat="45.74542" lon="4.64716">
        <ele>540</ele>
        <time>2011-10-16T08:18:38Z</time>
      </trkpt>
      <trkpt lat="45.74546" lon="4.64713">
        <ele>540</ele>
        <time>2011-10-16T08:18:42Z</time>
      </trkpt>
      <trkpt lat="45.74551" lon="4.64711">
        <ele>540</ele>
        <time>2011-10-16T08:18:45Z</time>
      </trkpt>
      <trkpt lat="45.74554" lon="4.64706">
        <ele>541</ele>
        <time>2011-10-16T08:18:48Z</time>
      </trkpt>
      <trkpt lat="45.74555" lon="4.647">
        <ele>542</ele>
        <time>2011-10-16T08:18:53Z</time>
      </trkpt>
      <trkpt lat="45.74552" lon="4.64693">
        <ele>542</ele>
        <time>2011-10-16T08:18:57Z</time>
      </trkpt>
      <trkpt lat="45.74551" lon="4.64686">
        <ele>542</ele>
        <time>2011-10-16T08:19:01Z</time>
      </trkpt>
      <trkpt lat="45.74551" lon="4.6468">
        <ele>543</ele>
        <time>2011-10-16T08:19:04Z</time>
      </trkpt>
      <trkpt lat="45.7455" lon="4.64672">
        <ele>543</ele>
        <time>2011-10-16T08:19:07Z</time>
      </trkpt>
      <trkpt lat="45.74547" lon="4.64665">
        <ele>550</ele>
        <time>2011-10-16T08:19:10Z</time>
      </trkpt>
      <trkpt lat="45.74542" lon="4.64662">
        <ele>550</ele>
        <time>2011-10-16T08:19:13Z</time>
      </trkpt>
      <trkpt lat="45.7454" lon="4.64655">
        <ele>550</ele>
        <time>2011-10-16T08:19:16Z</time>
      </trkpt>
      <trkpt lat="45.74538" lon="4.64648">
        <ele>550</ele>
        <time>2011-10-16T08:19:19Z</time>
      </trkpt>
      <trkpt lat="45.74535" lon="4.64641">
        <ele>550</ele>
        <time>2011-10-16T08:19:22Z</time>
      </trkpt>
      <trkpt lat="45.74533" lon="4.64634">
        <ele>550</ele>
        <time>2011-10-16T08:19:26Z</time>
      </trkpt>
      <trkpt lat="45.74531" lon="4.64627">
        <ele>551</ele>
        <time>2011-10-16T08:19:30Z</time>
      </trkpt>
      <trkpt lat="45.74527" lon="4.64622">
        <ele>551</ele>
        <time>2011-10-16T08:19:35Z</time>
      </trkpt>
      <trkpt lat="45.74525" lon="4.64616">
        <ele>551</ele>
        <time>2011-10-16T08:19:49Z</time>
      </trkpt>
      <trkpt lat="45.74526" lon="4.64608">
        <ele>551</ele>
        <time>2011-10-16T08:19:54Z</time>
      </trkpt>
      <trkpt lat="45.74526" lon="4.64601">
        <ele>552</ele>
        <time>2011-10-16T08:19:57Z</time>
      </trkpt>
      <trkpt lat="45.74523" lon="4.64595">
        <ele>551</ele>
        <time>2011-10-16T08:19:59Z</time>
      </trkpt>
      <trkpt lat="45.74521" lon="4.64587">
        <ele>551</ele>
        <time>2011-10-16T08:20:02Z</time>
      </trkpt>
      <trkpt lat="45.7452" lon="4.6458">
        <ele>557</ele>
        <time>2011-10-16T08:20:06Z</time>
      </trkpt>
      <trkpt lat="45.74517" lon="4.64573">
        <ele>557</ele>
        <time>2011-10-16T08:20:09Z</time>
      </trkpt>
      <trkpt lat="45.74514" lon="4.64565">
        <ele>557</ele>
        <time>2011-10-16T08:20:12Z</time>
      </trkpt>
      <trkpt lat="45.74512" lon="4.64559">
        <ele>558</ele>
        <time>2011-10-16T08:20:14Z</time>
      </trkpt>
      <trkpt lat="45.7451" lon="4.64553">
        <ele>558</ele>
        <time>2011-10-16T08:20:17Z</time>
      </trkpt>
      <trkpt lat="45.74508" lon="4.64546">
        <ele>559</ele>
        <time>2011-10-16T08:20:20Z</time>
      </trkpt>
      <trkpt lat="45.74508" lon="4.64538">
        <ele>560</ele>
        <time>2011-10-16T08:20:24Z</time>
      </trkpt>
      <trkpt lat="45.74507" lon="4.64531">
        <ele>560</ele>
        <time>2011-10-16T08:20:27Z</time>
      </trkpt>
      <trkpt lat="45.74505" lon="4.64523">
        <ele>560</ele>
        <time>2011-10-16T08:20:30Z</time>
      </trkpt>
      <trkpt lat="45.74502" lon="4.64517">
        <ele>560</ele>
        <time>2011-10-16T08:20:33Z</time>
      </trkpt>
      <trkpt lat="45.74502" lon="4.64509">
        <ele>560</ele>
        <time>2011-10-16T08:20:37Z</time>
      </trkpt>
      <trkpt lat="45.74502" lon="4.64501">
        <ele>559</ele>
        <time>2011-10-16T08:20:41Z</time>
      </trkpt>
      <trkpt lat="45.74501" lon="4.64494">
        <ele>562</ele>
        <time>2011-10-16T08:20:44Z</time>
      </trkpt>
      <trkpt lat="45.74501" lon="4.64486">
        <ele>564</ele>
        <time>2011-10-16T08:20:48Z</time>
      </trkpt>
      <trkpt lat="45.745" lon="4.6448">
        <ele>555</ele>
        <time>2011-10-16T08:20:52Z</time>
      </trkpt>
      <trkpt lat="45.74498" lon="4.64472">
        <ele>555</ele>
        <time>2011-10-16T08:20:57Z</time>
      </trkpt>
      <trkpt lat="45.74498" lon="4.64466">
        <ele>555</ele>
        <time>2011-10-16T08:21:00Z</time>
      </trkpt>
      <trkpt lat="45.74496" lon="4.64458">
        <ele>555</ele>
        <time>2011-10-16T08:21:04Z</time>
      </trkpt>
      <trkpt lat="45.74496" lon="4.64451">
        <ele>555</ele>
        <time>2011-10-16T08:21:08Z</time>
      </trkpt>
      <trkpt lat="45.74494" lon="4.64444">
        <ele>556</ele>
        <time>2011-10-16T08:21:12Z</time>
      </trkpt>
      <trkpt lat="45.74494" lon="4.64437">
        <ele>557</ele>
        <time>2011-10-16T08:21:16Z</time>
      </trkpt>
      <trkpt lat="45.74495" lon="4.64429">
        <ele>560</ele>
        <time>2011-10-16T08:21:21Z</time>
      </trkpt>
      <trkpt lat="45.74496" lon="4.64422">
        <ele>562</ele>
        <time>2011-10-16T08:21:24Z</time>
      </trkpt>
      <trkpt lat="45.74496" lon="4.64414">
        <ele>564</ele>
        <time>2011-10-16T08:21:28Z</time>
      </trkpt>
      <trkpt lat="45.74495" lon="4.64407">
        <ele>562</ele>
        <time>2011-10-16T08:21:32Z</time>
      </trkpt>
      <trkpt lat="45.74494" lon="4.644">
        <ele>561</ele>
        <time>2011-10-16T08:21:36Z</time>
      </trkpt>
      <trkpt lat="45.74494" lon="4.64392">
        <ele>560</ele>
        <time>2011-10-16T08:21:41Z</time>
      </trkpt>
      <trkpt lat="45.74498" lon="4.64386">
        <ele>560</ele>
        <time>2011-10-16T08:21:45Z</time>
      </trkpt>
      <trkpt lat="45.74502" lon="4.64388">
        <ele>572</ele>
        <time>2011-10-16T08:21:48Z</time>
      </trkpt>
      <trkpt lat="45.74506" lon="4.64392">
        <ele>572</ele>
        <time>2011-10-16T08:21:52Z</time>
      </trkpt>
      <trkpt lat="45.7451" lon="4.64397">
        <ele>572</ele>
        <time>2011-10-16T08:21:57Z</time>
      </trkpt>
      <trkpt lat="45.74513" lon="4.64402">
        <ele>572</ele>
        <time>2011-10-16T08:22:00Z</time>
      </trkpt>
      <trkpt lat="45.74517" lon="4.64405">
        <ele>572</ele>
        <time>2011-10-16T08:22:03Z</time>
      </trkpt>
      <trkpt lat="45.74521" lon="4.64409">
        <ele>572</ele>
        <time>2011-10-16T08:22:06Z</time>
      </trkpt>
      <trkpt lat="45.74524" lon="4.64416">
        <ele>573</ele>
        <time>2011-10-16T08:22:09Z</time>
      </trkpt>
      <trkpt lat="45.74526" lon="4.64423">
        <ele>570</ele>
        <time>2011-10-16T08:22:13Z</time>
      </trkpt>
      <trkpt lat="45.74528" lon="4.6443">
        <ele>570</ele>
        <time>2011-10-16T08:22:16Z</time>
      </trkpt>
      <trkpt lat="45.7453" lon="4.64436">
        <ele>570</ele>
        <time>2011-10-16T08:22:19Z</time>
      </trkpt>
      <trkpt lat="45.74533" lon="4.64442">
        <ele>571</ele>
        <time>2011-10-16T08:22:22Z</time>
      </trkpt>
      <trkpt lat="45.74536" lon="4.64448">
        <ele>571</ele>
        <time>2011-10-16T08:22:25Z</time>
      </trkpt>
      <trkpt lat="45.74539" lon="4.64453">
        <ele>571</ele>
        <time>2011-10-16T08:22:28Z</time>
      </trkpt>
      <trkpt lat="45.74544" lon="4.64458">
        <ele>571</ele>
        <time>2011-10-16T08:22:33Z</time>
      </trkpt>
      <trkpt lat="45.74549" lon="4.64461">
        <ele>572</ele>
        <time>2011-10-16T08:22:37Z</time>
      </trkpt>
      <trkpt lat="45.74554" lon="4.64463">
        <ele>572</ele>
        <time>2011-10-16T08:22:41Z</time>
      </trkpt>
      <trkpt lat="45.74557" lon="4.64468">
        <ele>572</ele>
        <time>2011-10-16T08:24:34Z</time>
      </trkpt>
      <trkpt lat="45.7456" lon="4.64472">
        <ele>572</ele>
        <time>2011-10-16T08:24:38Z</time>
      </trkpt>
      <trkpt lat="45.74565" lon="4.64474">
        <ele>573</ele>
        <time>2011-10-16T08:24:45Z</time>
      </trkpt>
      <trkpt lat="45.7457" lon="4.64471">
        <ele>573</ele>
        <time>2011-10-16T08:24:49Z</time>
      </trkpt>
      <trkpt lat="45.74568" lon="4.64478">
        <ele>573</ele>
        <time>2011-10-16T08:26:40Z</time>
      </trkpt>
      <trkpt lat="45.74573" lon="4.64479">
        <ele>573</ele>
        <time>2011-10-16T08:26:42Z</time>
      </trkpt>
      <trkpt lat="45.74578" lon="4.64482">
        <ele>574</ele>
        <time>2011-10-16T08:26:45Z</time>
      </trkpt>
      <trkpt lat="45.74582" lon="4.64487">
        <ele>574</ele>
        <time>2011-10-16T08:26:49Z</time>
      </trkpt>
      <trkpt lat="45.74588" lon="4.64489">
        <ele>579</ele>
        <time>2011-10-16T08:26:52Z</time>
      </trkpt>
      <trkpt lat="45.74592" lon="4.64489">
        <ele>580</ele>
        <time>2011-10-16T08:26:54Z</time>
      </trkpt>
      <trkpt lat="45.74598" lon="4.6449">
        <ele>580</ele>
        <time>2011-10-16T08:26:57Z</time>
      </trkpt>
      <trkpt lat="45.74603" lon="4.64489">
        <ele>581</ele>
        <time>2011-10-16T08:27:00Z</time>
      </trkpt>
      <trkpt lat="45.74609" lon="4.64487">
        <ele>582</ele>
        <time>2011-10-16T08:27:03Z</time>
      </trkpt>
      <trkpt lat="45.74614" lon="4.64486">
        <ele>582</ele>
        <time>2011-10-16T08:27:06Z</time>
      </trkpt>
      <trkpt lat="45.74619" lon="4.64486">
        <ele>583</ele>
        <time>2011-10-16T08:27:09Z</time>
      </trkpt>
      <trkpt lat="45.74624" lon="4.64483">
        <ele>583</ele>
        <time>2011-10-16T08:27:12Z</time>
      </trkpt>
      <trkpt lat="45.7463" lon="4.64483">
        <ele>584</ele>
        <time>2011-10-16T08:27:15Z</time>
      </trkpt>
      <trkpt lat="45.74634" lon="4.64483">
        <ele>584</ele>
        <time>2011-10-16T08:27:18Z</time>
      </trkpt>
      <trkpt lat="45.7464" lon="4.64483">
        <ele>584</ele>
        <time>2011-10-16T08:27:21Z</time>
      </trkpt>
      <trkpt lat="45.74645" lon="4.64482">
        <ele>585</ele>
        <time>2011-10-16T08:27:24Z</time>
      </trkpt>
      <trkpt lat="45.7465" lon="4.64482">
        <ele>585</ele>
        <time>2011-10-16T08:27:27Z</time>
      </trkpt>
      <trkpt lat="45.74654" lon="4.64481">
        <ele>585</ele>
        <time>2011-10-16T08:27:31Z</time>
      </trkpt>
      <trkpt lat="45.7466" lon="4.64478">
        <ele>585</ele>
        <time>2011-10-16T08:27:35Z</time>
      </trkpt>
      <trkpt lat="45.74664" lon="4.64475">
        <ele>585</ele>
        <time>2011-10-16T08:27:39Z</time>
      </trkpt>
      <trkpt lat="45.74668" lon="4.64474">
        <ele>589</ele>
        <time>2011-10-16T08:27:44Z</time>
      </trkpt>
      <trkpt lat="45.74674" lon="4.6447">
        <ele>589</ele>
        <time>2011-10-16T08:27:50Z</time>
      </trkpt>
      <trkpt lat="45.74678" lon="4.64466">
        <ele>589</ele>
        <time>2011-10-16T08:27:55Z</time>
      </trkpt>
      <trkpt lat="45.74681" lon="4.64461">
        <ele>590</ele>
        <time>2011-10-16T08:28:01Z</time>
      </trkpt>
      <trkpt lat="45.74685" lon="4.64458">
        <ele>590</ele>
        <time>2011-10-16T08:28:05Z</time>
      </trkpt>
      <trkpt lat="45.7469" lon="4.64454">
        <ele>590</ele>
        <time>2011-10-16T08:28:08Z</time>
      </trkpt>
      <trkpt lat="45.74693" lon="4.64449">
        <ele>591</ele>
        <time>2011-10-16T08:28:12Z</time>
      </trkpt>
      <trkpt lat="45.74696" lon="4.64443">
        <ele>591</ele>
        <time>2011-10-16T08:28:17Z</time>
      </trkpt>
      <trkpt lat="45.74699" lon="4.64435">
        <ele>592</ele>
        <time>2011-10-16T08:28:20Z</time>
      </trkpt>
      <trkpt lat="45.74702" lon="4.64429">
        <ele>592</ele>
        <time>2011-10-16T08:28:22Z</time>
      </trkpt>
      <trkpt lat="45.74706" lon="4.64422">
        <ele>592</ele>
        <time>2011-10-16T08:28:25Z</time>
      </trkpt>
      <trkpt lat="45.7471" lon="4.64416">
        <ele>598</ele>
        <time>2011-10-16T08:28:28Z</time>
      </trkpt>
      <trkpt lat="45.74714" lon="4.64409">
        <ele>598</ele>
        <time>2011-10-16T08:28:31Z</time>
      </trkpt>
      <trkpt lat="45.74717" lon="4.64404">
        <ele>598</ele>
        <time>2011-10-16T08:28:34Z</time>
      </trkpt>
      <trkpt lat="45.74721" lon="4.64398">
        <ele>598</ele>
        <time>2011-10-16T08:28:38Z</time>
      </trkpt>
      <trkpt lat="45.74725" lon="4.64393">
        <ele>598</ele>
        <time>2011-10-16T08:28:41Z</time>
      </trkpt>
      <trkpt lat="45.7473" lon="4.64388">
        <ele>599</ele>
        <time>2011-10-16T08:28:44Z</time>
      </trkpt>
      <trkpt lat="45.74734" lon="4.64383">
        <ele>599</ele>
        <time>2011-10-16T08:28:46Z</time>
      </trkpt>
      <trkpt lat="45.74738" lon="4.64376">
        <ele>599</ele>
        <time>2011-10-16T08:28:49Z</time>
      </trkpt>
      <trkpt lat="45.74744" lon="4.64372">
        <ele>600</ele>
        <time>2011-10-16T08:28:52Z</time>
      </trkpt>
      <trkpt lat="45.74748" lon="4.64368">
        <ele>600</ele>
        <time>2011-10-16T08:28:56Z</time>
      </trkpt>
      <trkpt lat="45.7475" lon="4.64362">
        <ele>600</ele>
        <time>2011-10-16T08:28:59Z</time>
      </trkpt>
      <trkpt lat="45.74755" lon="4.64358">
        <ele>600</ele>
        <time>2011-10-16T08:29:02Z</time>
      </trkpt>
      <trkpt lat="45.74758" lon="4.64351">
        <ele>601</ele>
        <time>2011-10-16T08:29:07Z</time>
      </trkpt>
      <trkpt lat="45.74762" lon="4.64344">
        <ele>601</ele>
        <time>2011-10-16T08:29:10Z</time>
      </trkpt>
      <trkpt lat="45.74768" lon="4.64339">
        <ele>601</ele>
        <time>2011-10-16T08:29:13Z</time>
      </trkpt>
      <trkpt lat="45.74773" lon="4.64333">
        <ele>606</ele>
        <time>2011-10-16T08:29:16Z</time>
      </trkpt>
      <trkpt lat="45.74776" lon="4.64329">
        <ele>607</ele>
        <time>2011-10-16T08:29:18Z</time>
      </trkpt>
      <trkpt lat="45.74781" lon="4.64326">
        <ele>607</ele>
        <time>2011-10-16T08:29:21Z</time>
      </trkpt>
      <trkpt lat="45.74785" lon="4.6432">
        <ele>607</ele>
        <time>2011-10-16T08:29:24Z</time>
      </trkpt>
      <trkpt lat="45.74788" lon="4.64314">
        <ele>607</ele>
        <time>2011-10-16T08:29:27Z</time>
      </trkpt>
      <trkpt lat="45.74791" lon="4.64307">
        <ele>608</ele>
        <time>2011-10-16T08:29:31Z</time>
      </trkpt>
      <trkpt lat="45.74794" lon="4.643">
        <ele>608</ele>
        <time>2011-10-16T08:29:34Z</time>
      </trkpt>
      <trkpt lat="45.74798" lon="4.64293">
        <ele>609</ele>
        <time>2011-10-16T08:29:37Z</time>
      </trkpt>
      <trkpt lat="45.74802" lon="4.64289">
        <ele>609</ele>
        <time>2011-10-16T08:29:39Z</time>
      </trkpt>
      <trkpt lat="45.74806" lon="4.64284">
        <ele>609</ele>
        <time>2011-10-16T08:29:43Z</time>
      </trkpt>
      <trkpt lat="45.74809" lon="4.6428">
        <ele>610</ele>
        <time>2011-10-16T08:29:46Z</time>
      </trkpt>
      <trkpt lat="45.74812" lon="4.64273">
        <ele>610</ele>
        <time>2011-10-16T08:29:50Z</time>
      </trkpt>
      <trkpt lat="45.74817" lon="4.64269">
        <ele>610</ele>
        <time>2011-10-16T08:29:54Z</time>
      </trkpt>
      <trkpt lat="45.74821" lon="4.64262">
        <ele>611</ele>
        <time>2011-10-16T08:29:58Z</time>
      </trkpt>
      <trkpt lat="45.74826" lon="4.64257">
        <ele>612</ele>
        <time>2011-10-16T08:30:01Z</time>
      </trkpt>
      <trkpt lat="45.7483" lon="4.64253">
        <ele>612</ele>
        <time>2011-10-16T08:30:04Z</time>
      </trkpt>
      <trkpt lat="45.74834" lon="4.64244">
        <ele>614</ele>
        <time>2011-10-16T08:30:08Z</time>
      </trkpt>
      <trkpt lat="45.74837" lon="4.64239">
        <ele>614</ele>
        <time>2011-10-16T08:30:11Z</time>
      </trkpt>
      <trkpt lat="45.74841" lon="4.64236">
        <ele>614</ele>
        <time>2011-10-16T08:30:13Z</time>
      </trkpt>
      <trkpt lat="45.74845" lon="4.64231">
        <ele>615</ele>
        <time>2011-10-16T08:30:18Z</time>
      </trkpt>
      <trkpt lat="45.7485" lon="4.64221">
        <ele>615</ele>
        <time>2011-10-16T08:30:22Z</time>
      </trkpt>
      <trkpt lat="45.74852" lon="4.64213">
        <ele>616</ele>
        <time>2011-10-16T08:30:24Z</time>
      </trkpt>
      <trkpt lat="45.74856" lon="4.64209">
        <ele>616</ele>
        <time>2011-10-16T08:30:28Z</time>
      </trkpt>
      <trkpt lat="45.7486" lon="4.64203">
        <ele>616</ele>
        <time>2011-10-16T08:30:31Z</time>
      </trkpt>
      <trkpt lat="45.74866" lon="4.64197">
        <ele>617</ele>
        <time>2011-10-16T08:30:33Z</time>
      </trkpt>
      <trkpt lat="45.7487" lon="4.64191">
        <ele>617</ele>
        <time>2011-10-16T08:30:35Z</time>
      </trkpt>
      <trkpt lat="45.74871" lon="4.64184">
        <ele>617</ele>
        <time>2011-10-16T08:30:38Z</time>
      </trkpt>
      <trkpt lat="45.74876" lon="4.64178">
        <ele>617</ele>
        <time>2011-10-16T08:30:43Z</time>
      </trkpt>
      <trkpt lat="45.7488" lon="4.64175">
        <ele>617</ele>
        <time>2011-10-16T08:30:45Z</time>
      </trkpt>
      <trkpt lat="45.74886" lon="4.64171">
        <ele>617</ele>
        <time>2011-10-16T08:30:47Z</time>
      </trkpt>
      <trkpt lat="45.74885" lon="4.64163">
        <ele>622</ele>
        <time>2011-10-16T08:30:52Z</time>
      </trkpt>
      <trkpt lat="45.74889" lon="4.64156">
        <ele>622</ele>
        <time>2011-10-16T08:30:57Z</time>
      </trkpt>
      <trkpt lat="45.74892" lon="4.64147">
        <ele>622</ele>
        <time>2011-10-16T08:31:01Z</time>
      </trkpt>
      <trkpt lat="45.74897" lon="4.64144">
        <ele>622</ele>
        <time>2011-10-16T08:31:02Z</time>
      </trkpt>
      <trkpt lat="45.74903" lon="4.64141">
        <ele>622</ele>
        <time>2011-10-16T08:31:05Z</time>
      </trkpt>
      <trkpt lat="45.74906" lon="4.64135">
        <ele>622</ele>
        <time>2011-10-16T08:31:07Z</time>
      </trkpt>
      <trkpt lat="45.7491" lon="4.64129">
        <ele>623</ele>
        <time>2011-10-16T08:31:10Z</time>
      </trkpt>
      <trkpt lat="45.74912" lon="4.64122">
        <ele>623</ele>
        <time>2011-10-16T08:31:13Z</time>
      </trkpt>
      <trkpt lat="45.74916" lon="4.64117">
        <ele>624</ele>
        <time>2011-10-16T08:31:15Z</time>
      </trkpt>
      <trkpt lat="45.74918" lon="4.64111">
        <ele>623</ele>
        <time>2011-10-16T08:31:17Z</time>
      </trkpt>
      <trkpt lat="45.74921" lon="4.64102">
        <ele>623</ele>
        <time>2011-10-16T08:31:20Z</time>
      </trkpt>
      <trkpt lat="45.74925" lon="4.64095">
        <ele>624</ele>
        <time>2011-10-16T08:31:24Z</time>
      </trkpt>
      <trkpt lat="45.74929" lon="4.64088">
        <ele>624</ele>
        <time>2011-10-16T08:31:28Z</time>
      </trkpt>
      <trkpt lat="45.74933" lon="4.64082">
        <ele>628</ele>
        <time>2011-10-16T08:31:31Z</time>
      </trkpt>
      <trkpt lat="45.74935" lon="4.64076">
        <ele>628</ele>
        <time>2011-10-16T08:31:35Z</time>
      </trkpt>
      <trkpt lat="45.74938" lon="4.64068">
        <ele>629</ele>
        <time>2011-10-16T08:31:39Z</time>
      </trkpt>
      <trkpt lat="45.74942" lon="4.64063">
        <ele>630</ele>
        <time>2011-10-16T08:31:42Z</time>
      </trkpt>
      <trkpt lat="45.74945" lon="4.64058">
        <ele>630</ele>
        <time>2011-10-16T08:31:44Z</time>
      </trkpt>
      <trkpt lat="45.74949" lon="4.64052">
        <ele>630</ele>
        <time>2011-10-16T08:31:47Z</time>
      </trkpt>
      <trkpt lat="45.74953" lon="4.64046">
        <ele>631</ele>
        <time>2011-10-16T08:31:51Z</time>
      </trkpt>
      <trkpt lat="45.74956" lon="4.6404">
        <ele>631</ele>
        <time>2011-10-16T08:31:54Z</time>
      </trkpt>
      <trkpt lat="45.74961" lon="4.64036">
        <ele>632</ele>
        <time>2011-10-16T08:31:58Z</time>
      </trkpt>
      <trkpt lat="45.74964" lon="4.64031">
        <ele>632</ele>
        <time>2011-10-16T08:32:00Z</time>
      </trkpt>
      <trkpt lat="45.74968" lon="4.64026">
        <ele>632</ele>
        <time>2011-10-16T08:32:02Z</time>
      </trkpt>
      <trkpt lat="45.74972" lon="4.64019">
        <ele>633</ele>
        <time>2011-10-16T08:32:06Z</time>
      </trkpt>
      <trkpt lat="45.74975" lon="4.64014">
        <ele>634</ele>
        <time>2011-10-16T08:32:08Z</time>
      </trkpt>
      <trkpt lat="45.74977" lon="4.64008">
        <ele>634</ele>
        <time>2011-10-16T08:32:11Z</time>
      </trkpt>
      <trkpt lat="45.74978" lon="4.64001">
        <ele>634</ele>
        <time>2011-10-16T08:32:14Z</time>
      </trkpt>
      <trkpt lat="45.7498" lon="4.63994">
        <ele>638</ele>
        <time>2011-10-16T08:32:18Z</time>
      </trkpt>
      <trkpt lat="45.74984" lon="4.6399">
        <ele>638</ele>
        <time>2011-10-16T08:32:22Z</time>
      </trkpt>
      <trkpt lat="45.74986" lon="4.63985">
        <ele>638</ele>
        <time>2011-10-16T08:32:25Z</time>
      </trkpt>
      <trkpt lat="45.74992" lon="4.63985">
        <ele>638</ele>
        <time>2011-10-16T08:32:27Z</time>
      </trkpt>
      <trkpt lat="45.74995" lon="4.63981">
        <ele>638</ele>
        <time>2011-10-16T08:32:29Z</time>
      </trkpt>
      <trkpt lat="45.75" lon="4.63978">
        <ele>638</ele>
        <time>2011-10-16T08:32:32Z</time>
      </trkpt>
      <trkpt lat="45.75003" lon="4.63972">
        <ele>643</ele>
        <time>2011-10-16T08:32:35Z</time>
      </trkpt>
      <trkpt lat="45.75006" lon="4.63966">
        <ele>643</ele>
        <time>2011-10-16T08:32:39Z</time>
      </trkpt>
      <trkpt lat="45.75009" lon="4.63961">
        <ele>644</ele>
        <time>2011-10-16T08:32:44Z</time>
      </trkpt>
      <trkpt lat="45.75014" lon="4.63955">
        <ele>644</ele>
        <time>2011-10-16T08:32:49Z</time>
      </trkpt>
      <trkpt lat="45.75018" lon="4.63951">
        <ele>644</ele>
        <time>2011-10-16T08:32:52Z</time>
      </trkpt>
      <trkpt lat="45.75021" lon="4.63944">
        <ele>644</ele>
        <time>2011-10-16T08:32:54Z</time>
      </trkpt>
      <trkpt lat="45.75026" lon="4.63943">
        <ele>645</ele>
        <time>2011-10-16T08:32:57Z</time>
      </trkpt>
      <trkpt lat="45.7503" lon="4.63935">
        <ele>645</ele>
        <time>2011-10-16T08:33:00Z</time>
      </trkpt>
      <trkpt lat="45.75034" lon="4.63929">
        <ele>645</ele>
        <time>2011-10-16T08:33:03Z</time>
      </trkpt>
      <trkpt lat="45.75039" lon="4.6393">
        <ele>646</ele>
        <time>2011-10-16T08:33:04Z</time>
      </trkpt>
      <trkpt lat="45.75042" lon="4.63925">
        <ele>646</ele>
        <time>2011-10-16T08:33:08Z</time>
      </trkpt>
      <trkpt lat="45.75046" lon="4.63922">
        <ele>647</ele>
        <time>2011-10-16T08:33:11Z</time>
      </trkpt>
      <trkpt lat="45.7505" lon="4.63918">
        <ele>647</ele>
        <time>2011-10-16T08:33:14Z</time>
      </trkpt>
      <trkpt lat="45.75056" lon="4.63914">
        <ele>648</ele>
        <time>2011-10-16T08:33:22Z</time>
      </trkpt>
      <trkpt lat="45.7506" lon="4.6391">
        <ele>649</ele>
        <time>2011-10-16T08:33:25Z</time>
      </trkpt>
      <trkpt lat="45.75064" lon="4.63903">
        <ele>649</ele>
        <time>2011-10-16T08:33:27Z</time>
      </trkpt>
      <trkpt lat="45.75068" lon="4.63898">
        <ele>649</ele>
        <time>2011-10-16T08:33:30Z</time>
      </trkpt>
      <trkpt lat="45.75072" lon="4.639">
        <ele>649</ele>
        <time>2011-10-16T08:33:36Z</time>
      </trkpt>
      <trkpt lat="45.75077" lon="4.63894">
        <ele>649</ele>
        <time>2011-10-16T08:33:40Z</time>
      </trkpt>
      <trkpt lat="45.75082" lon="4.63891">
        <ele>649</ele>
        <time>2011-10-16T08:33:42Z</time>
      </trkpt>
      <trkpt lat="45.75087" lon="4.63888">
        <ele>652</ele>
        <time>2011-10-16T08:33:49Z</time>
      </trkpt>
      <trkpt lat="45.75092" lon="4.63885">
        <ele>652</ele>
        <time>2011-10-16T08:33:52Z</time>
      </trkpt>
      <trkpt lat="45.75099" lon="4.63878">
        <ele>652</ele>
        <time>2011-10-16T08:33:54Z</time>
      </trkpt>
      <trkpt lat="45.75102" lon="4.63872">
        <ele>652</ele>
        <time>2011-10-16T08:33:56Z</time>
      </trkpt>
      <trkpt lat="45.75105" lon="4.63866">
        <ele>652</ele>
        <time>2011-10-16T08:33:59Z</time>
      </trkpt>
      <trkpt lat="45.75109" lon="4.63863">
        <ele>652</ele>
        <time>2011-10-16T08:34:01Z</time>
      </trkpt>
      <trkpt lat="45.75114" lon="4.63863">
        <ele>652</ele>
        <time>2011-10-16T08:34:05Z</time>
      </trkpt>
      <trkpt lat="45.7512" lon="4.63861">
        <ele>652</ele>
        <time>2011-10-16T08:34:10Z</time>
      </trkpt>
      <trkpt lat="45.75126" lon="4.63856">
        <ele>652</ele>
        <time>2011-10-16T08:34:14Z</time>
      </trkpt>
      <trkpt lat="45.75131" lon="4.63854">
        <ele>652</ele>
        <time>2011-10-16T08:34:17Z</time>
      </trkpt>
      <trkpt lat="45.75137" lon="4.63852">
        <ele>652</ele>
        <time>2011-10-16T08:34:21Z</time>
      </trkpt>
      <trkpt lat="45.75141" lon="4.63852">
        <ele>652</ele>
        <time>2011-10-16T08:34:23Z</time>
      </trkpt>
      <trkpt lat="45.75147" lon="4.6385">
        <ele>652</ele>
        <time>2011-10-16T08:34:25Z</time>
      </trkpt>
      <trkpt lat="45.75153" lon="4.63848">
        <ele>652</ele>
        <time>2011-10-16T08:34:27Z</time>
      </trkpt>
      <trkpt lat="45.75158" lon="4.63847">
        <ele>652</ele>
        <time>2011-10-16T08:34:29Z</time>
      </trkpt>
      <trkpt lat="45.75165" lon="4.63848">
        <ele>652</ele>
        <time>2011-10-16T08:34:33Z</time>
      </trkpt>
      <trkpt lat="45.7517" lon="4.63846">
        <ele>652</ele>
        <time>2011-10-16T08:34:35Z</time>
      </trkpt>
      <trkpt lat="45.75176" lon="4.63845">
        <ele>652</ele>
        <time>2011-10-16T08:34:38Z</time>
      </trkpt>
      <trkpt lat="45.75182" lon="4.63842">
        <ele>652</ele>
        <time>2011-10-16T08:34:41Z</time>
      </trkpt>
      <trkpt lat="45.75186" lon="4.63838">
        <ele>652</ele>
        <time>2011-10-16T08:34:43Z</time>
      </trkpt>
      <trkpt lat="45.7519" lon="4.63834">
        <ele>652</ele>
        <time>2011-10-16T08:34:45Z</time>
      </trkpt>
      <trkpt lat="45.75193" lon="4.63828">
        <ele>652</ele>
        <time>2011-10-16T08:34:47Z</time>
      </trkpt>
      <trkpt lat="45.75199" lon="4.63822">
        <ele>652</ele>
        <time>2011-10-16T08:34:49Z</time>
      </trkpt>
      <trkpt lat="45.75206" lon="4.63817">
        <ele>652</ele>
        <time>2011-10-16T08:34:51Z</time>
      </trkpt>
      <trkpt lat="45.75209" lon="4.63812">
        <ele>652</ele>
        <time>2011-10-16T08:34:53Z</time>
      </trkpt>
      <trkpt lat="45.75214" lon="4.63807">
        <ele>652</ele>
        <time>2011-10-16T08:34:56Z</time>
      </trkpt>
      <trkpt lat="45.7522" lon="4.63802">
        <ele>652</ele>
        <time>2011-10-16T08:34:58Z</time>
      </trkpt>
      <trkpt lat="45.7522" lon="4.63794">
        <ele>652</ele>
        <time>2011-10-16T08:35:00Z</time>
      </trkpt>
      <trkpt lat="45.75226" lon="4.63786">
        <ele>652</ele>
        <time>2011-10-16T08:35:02Z</time>
      </trkpt>
      <trkpt lat="45.7523" lon="4.63781">
        <ele>653</ele>
        <time>2011-10-16T08:35:04Z</time>
      </trkpt>
      <trkpt lat="45.75232" lon="4.63775">
        <ele>653</ele>
        <time>2011-10-16T08:35:06Z</time>
      </trkpt>
      <trkpt lat="45.75237" lon="4.6377">
        <ele>653</ele>
        <time>2011-10-16T08:35:08Z</time>
      </trkpt>
      <trkpt lat="45.75238" lon="4.63763">
        <ele>654</ele>
        <time>2011-10-16T08:35:11Z</time>
      </trkpt>
      <trkpt lat="45.75242" lon="4.63756">
        <ele>655</ele>
        <time>2011-10-16T08:35:13Z</time>
      </trkpt>
      <trkpt lat="45.75245" lon="4.63747">
        <ele>656</ele>
        <time>2011-10-16T08:35:15Z</time>
      </trkpt>
      <trkpt lat="45.75248" lon="4.63742">
        <ele>655</ele>
        <time>2011-10-16T08:35:17Z</time>
      </trkpt>
      <trkpt lat="45.75252" lon="4.63735">
        <ele>659</ele>
        <time>2011-10-16T08:35:19Z</time>
      </trkpt>
      <trkpt lat="45.75257" lon="4.6373">
        <ele>660</ele>
        <time>2011-10-16T08:35:21Z</time>
      </trkpt>
      <trkpt lat="45.75262" lon="4.63726">
        <ele>660</ele>
        <time>2011-10-16T08:35:23Z</time>
      </trkpt>
      <trkpt lat="45.75267" lon="4.63723">
        <ele>660</ele>
        <time>2011-10-16T08:35:25Z</time>
      </trkpt>
      <trkpt lat="45.75267" lon="4.63716">
        <ele>661</ele>
        <time>2011-10-16T08:35:29Z</time>
      </trkpt>
      <trkpt lat="45.75271" lon="4.63711">
        <ele>661</ele>
        <time>2011-10-16T08:35:31Z</time>
      </trkpt>
      <trkpt lat="45.75274" lon="4.63706">
        <ele>661</ele>
        <time>2011-10-16T08:35:33Z</time>
      </trkpt>
      <trkpt lat="45.7527" lon="4.63704">
        <ele>661</ele>
        <time>2011-10-16T08:37:07Z</time>
      </trkpt>
      <trkpt lat="45.75263" lon="4.63703">
        <ele>661</ele>
        <time>2011-10-16T08:37:27Z</time>
      </trkpt>
      <trkpt lat="45.75266" lon="4.63698">
        <ele>661</ele>
        <time>2011-10-16T08:43:00Z</time>
      </trkpt>
      <trkpt lat="45.75267" lon="4.63691">
        <ele>661</ele>
        <time>2011-10-16T08:51:19Z</time>
      </trkpt>
      <trkpt lat="45.75269" lon="4.63684">
        <ele>662</ele>
        <time>2011-10-16T08:51:26Z</time>
      </trkpt>
      <trkpt lat="45.7527" lon="4.63676">
        <ele>662</ele>
        <time>2011-10-16T08:51:31Z</time>
      </trkpt>
      <trkpt lat="45.7527" lon="4.63669">
        <ele>662</ele>
        <time>2011-10-16T08:51:34Z</time>
      </trkpt>
      <trkpt lat="45.75266" lon="4.63666">
        <ele>665</ele>
        <time>2011-10-16T08:51:37Z</time>
      </trkpt>
      <trkpt lat="45.75264" lon="4.63658">
        <ele>666</ele>
        <time>2011-10-16T08:51:41Z</time>
      </trkpt>
      <trkpt lat="45.75263" lon="4.63652">
        <ele>666</ele>
        <time>2011-10-16T08:51:48Z</time>
      </trkpt>
      <trkpt lat="45.75261" lon="4.63645">
        <ele>667</ele>
        <time>2011-10-16T08:51:51Z</time>
      </trkpt>
      <trkpt lat="45.75263" lon="4.63635">
        <ele>669</ele>
        <time>2011-10-16T08:51:54Z</time>
      </trkpt>
      <trkpt lat="45.75259" lon="4.63631">
        <ele>669</ele>
        <time>2011-10-16T08:51:57Z</time>
      </trkpt>
      <trkpt lat="45.75257" lon="4.63622">
        <ele>669</ele>
        <time>2011-10-16T08:52:00Z</time>
      </trkpt>
      <trkpt lat="45.75256" lon="4.63614">
        <ele>670</ele>
        <time>2011-10-16T08:52:02Z</time>
      </trkpt>
      <trkpt lat="45.75255" lon="4.63606">
        <ele>670</ele>
        <time>2011-10-16T08:52:05Z</time>
      </trkpt>
      <trkpt lat="45.75257" lon="4.63599">
        <ele>670</ele>
        <time>2011-10-16T08:52:08Z</time>
      </trkpt>
      <trkpt lat="45.75258" lon="4.63593">
        <ele>670</ele>
        <time>2011-10-16T08:52:12Z</time>
      </trkpt>
      <trkpt lat="45.7526" lon="4.63587">
        <ele>669</ele>
        <time>2011-10-16T08:52:14Z</time>
      </trkpt>
      <trkpt lat="45.75259" lon="4.63579">
        <ele>673</ele>
        <time>2011-10-16T08:52:17Z</time>
      </trkpt>
      <trkpt lat="45.7526" lon="4.6357">
        <ele>675</ele>
        <time>2011-10-16T08:52:22Z</time>
      </trkpt>
      <trkpt lat="45.7526" lon="4.63563">
        <ele>676</ele>
        <time>2011-10-16T08:52:25Z</time>
      </trkpt>
      <trkpt lat="45.75257" lon="4.63554">
        <ele>678</ele>
        <time>2011-10-16T08:52:32Z</time>
      </trkpt>
      <trkpt lat="45.75252" lon="4.6355">
        <ele>678</ele>
        <time>2011-10-16T08:52:35Z</time>
      </trkpt>
      <trkpt lat="45.75249" lon="4.63544">
        <ele>665</ele>
        <time>2011-10-16T08:52:39Z</time>
      </trkpt>
      <trkpt lat="45.75246" lon="4.63536">
        <ele>665</ele>
        <time>2011-10-16T08:52:43Z</time>
      </trkpt>
      <trkpt lat="45.75246" lon="4.63529">
        <ele>667</ele>
        <time>2011-10-16T08:52:47Z</time>
      </trkpt>
      <trkpt lat="45.75256" lon="4.63524">
        <ele>680</ele>
        <time>2011-10-16T08:52:50Z</time>
      </trkpt>
      <trkpt lat="45.75262" lon="4.63517">
        <ele>681</ele>
        <time>2011-10-16T08:52:53Z</time>
      </trkpt>
      <trkpt lat="45.75259" lon="4.6351">
        <ele>680</ele>
        <time>2011-10-16T08:52:55Z</time>
      </trkpt>
      <trkpt lat="45.75258" lon="4.63502">
        <ele>680</ele>
        <time>2011-10-16T08:52:58Z</time>
      </trkpt>
      <trkpt lat="45.75256" lon="4.63495">
        <ele>682</ele>
        <time>2011-10-16T08:53:02Z</time>
      </trkpt>
      <trkpt lat="45.75251" lon="4.63487">
        <ele>683</ele>
        <time>2011-10-16T08:53:06Z</time>
      </trkpt>
      <trkpt lat="45.75248" lon="4.6348">
        <ele>674</ele>
        <time>2011-10-16T08:53:08Z</time>
      </trkpt>
      <trkpt lat="45.75251" lon="4.63473">
        <ele>685</ele>
        <time>2011-10-16T08:53:12Z</time>
      </trkpt>
      <trkpt lat="45.75255" lon="4.63463">
        <ele>686</ele>
        <time>2011-10-16T08:53:15Z</time>
      </trkpt>
      <trkpt lat="45.75258" lon="4.63458">
        <ele>686</ele>
        <time>2011-10-16T08:53:22Z</time>
      </trkpt>
      <trkpt lat="45.75259" lon="4.63452">
        <ele>687</ele>
        <time>2011-10-16T08:53:24Z</time>
      </trkpt>
      <trkpt lat="45.75257" lon="4.63445">
        <ele>686</ele>
        <time>2011-10-16T08:53:27Z</time>
      </trkpt>
      <trkpt lat="45.75257" lon="4.63438">
        <ele>686</ele>
        <time>2011-10-16T08:53:30Z</time>
      </trkpt>
      <trkpt lat="45.75254" lon="4.63433">
        <ele>686</ele>
        <time>2011-10-16T08:53:33Z</time>
      </trkpt>
      <trkpt lat="45.75251" lon="4.63425">
        <ele>685</ele>
        <time>2011-10-16T08:53:36Z</time>
      </trkpt>
      <trkpt lat="45.75253" lon="4.63417">
        <ele>684</ele>
        <time>2011-10-16T08:53:39Z</time>
      </trkpt>
      <trkpt lat="45.7525" lon="4.6341">
        <ele>681</ele>
        <time>2011-10-16T08:53:44Z</time>
      </trkpt>
      <trkpt lat="45.75252" lon="4.63402">
        <ele>687</ele>
        <time>2011-10-16T08:53:48Z</time>
      </trkpt>
      <trkpt lat="45.75254" lon="4.63396">
        <ele>688</ele>
        <time>2011-10-16T08:53:52Z</time>
      </trkpt>
      <trkpt lat="45.75258" lon="4.63388">
        <ele>688</ele>
        <time>2011-10-16T08:53:55Z</time>
      </trkpt>
      <trkpt lat="45.75261" lon="4.63382">
        <ele>689</ele>
        <time>2011-10-16T08:53:58Z</time>
      </trkpt>
      <trkpt lat="45.75264" lon="4.63376">
        <ele>689</ele>
        <time>2011-10-16T08:54:03Z</time>
      </trkpt>
      <trkpt lat="45.75265" lon="4.63368">
        <ele>689</ele>
        <time>2011-10-16T08:54:07Z</time>
      </trkpt>
      <trkpt lat="45.7527" lon="4.63359">
        <ele>690</ele>
        <time>2011-10-16T08:54:12Z</time>
      </trkpt>
      <trkpt lat="45.75274" lon="4.63359">
        <ele>690</ele>
        <time>2011-10-16T08:54:13Z</time>
      </trkpt>
      <trkpt lat="45.75279" lon="4.63359">
        <ele>690</ele>
        <time>2011-10-16T08:54:14Z</time>
      </trkpt>
      <trkpt lat="45.75284" lon="4.63354">
        <ele>691</ele>
        <time>2011-10-16T08:54:17Z</time>
      </trkpt>
      <trkpt lat="45.75284" lon="4.63346">
        <ele>691</ele>
        <time>2011-10-16T08:54:20Z</time>
      </trkpt>
      <trkpt lat="45.75282" lon="4.63339">
        <ele>690</ele>
        <time>2011-10-16T08:54:23Z</time>
      </trkpt>
      <trkpt lat="45.75284" lon="4.63332">
        <ele>690</ele>
        <time>2011-10-16T08:54:25Z</time>
      </trkpt>
      <trkpt lat="45.7529" lon="4.63328">
        <ele>690</ele>
        <time>2011-10-16T08:54:27Z</time>
      </trkpt>
      <trkpt lat="45.75294" lon="4.63323">
        <ele>691</ele>
        <time>2011-10-16T08:54:30Z</time>
      </trkpt>
      <trkpt lat="45.75297" lon="4.63314">
        <ele>691</ele>
        <time>2011-10-16T08:54:33Z</time>
      </trkpt>
      <trkpt lat="45.75301" lon="4.63308">
        <ele>691</ele>
        <time>2011-10-16T08:54:35Z</time>
      </trkpt>
      <trkpt lat="45.75314" lon="4.63294">
        <ele>692</ele>
        <time>2011-10-16T08:54:38Z</time>
      </trkpt>
      <trkpt lat="45.7531" lon="4.63289">
        <ele>692</ele>
        <time>2011-10-16T08:54:43Z</time>
      </trkpt>
      <trkpt lat="45.75311" lon="4.6328">
        <ele>692</ele>
        <time>2011-10-16T08:54:46Z</time>
      </trkpt>
      <trkpt lat="45.75315" lon="4.63274">
        <ele>692</ele>
        <time>2011-10-16T08:54:51Z</time>
      </trkpt>
      <trkpt lat="45.7532" lon="4.63267">
        <ele>693</ele>
        <time>2011-10-16T08:54:53Z</time>
      </trkpt>
      <trkpt lat="45.75324" lon="4.6326">
        <ele>695</ele>
        <time>2011-10-16T08:54:55Z</time>
      </trkpt>
      <trkpt lat="45.75328" lon="4.63252">
        <ele>696</ele>
        <time>2011-10-16T08:54:57Z</time>
      </trkpt>
      <trkpt lat="45.75331" lon="4.63246">
        <ele>696</ele>
        <time>2011-10-16T08:54:59Z</time>
      </trkpt>
      <trkpt lat="45.75331" lon="4.63237">
        <ele>692</ele>
        <time>2011-10-16T08:55:06Z</time>
      </trkpt>
      <trkpt lat="45.75336" lon="4.63234">
        <ele>699</ele>
        <time>2011-10-16T08:55:08Z</time>
      </trkpt>
      <trkpt lat="45.75342" lon="4.6323">
        <ele>699</ele>
        <time>2011-10-16T08:55:09Z</time>
      </trkpt>
      <trkpt lat="45.75347" lon="4.63226">
        <ele>699</ele>
        <time>2011-10-16T08:55:10Z</time>
      </trkpt>
      <trkpt lat="45.75352" lon="4.63221">
        <ele>699</ele>
        <time>2011-10-16T08:55:12Z</time>
      </trkpt>
      <trkpt lat="45.75355" lon="4.63214">
        <ele>699</ele>
        <time>2011-10-16T08:55:14Z</time>
      </trkpt>
      <trkpt lat="45.75359" lon="4.63204">
        <ele>699</ele>
        <time>2011-10-16T08:55:16Z</time>
      </trkpt>
      <trkpt lat="45.7536" lon="4.63196">
        <ele>699</ele>
        <time>2011-10-16T08:55:18Z</time>
      </trkpt>
      <trkpt lat="45.75356" lon="4.6319">
        <ele>698</ele>
        <time>2011-10-16T08:55:20Z</time>
      </trkpt>
      <trkpt lat="45.75358" lon="4.63183">
        <ele>698</ele>
        <time>2011-10-16T08:55:24Z</time>
      </trkpt>
      <trkpt lat="45.75362" lon="4.63177">
        <ele>698</ele>
        <time>2011-10-16T08:55:27Z</time>
      </trkpt>
      <trkpt lat="45.75367" lon="4.63168">
        <ele>698</ele>
        <time>2011-10-16T08:55:30Z</time>
      </trkpt>
      <trkpt lat="45.75372" lon="4.63162">
        <ele>695</ele>
        <time>2011-10-16T08:55:33Z</time>
      </trkpt>
      <trkpt lat="45.75377" lon="4.63158">
        <ele>696</ele>
        <time>2011-10-16T08:55:36Z</time>
      </trkpt>
      <trkpt lat="45.7538" lon="4.63152">
        <ele>696</ele>
        <time>2011-10-16T08:55:37Z</time>
      </trkpt>
      <trkpt lat="45.75387" lon="4.63144">
        <ele>697</ele>
        <time>2011-10-16T08:55:37Z</time>
      </trkpt>
      <trkpt lat="45.7539" lon="4.63139">
        <ele>697</ele>
        <time>2011-10-16T08:55:39Z</time>
      </trkpt>
      <trkpt lat="45.75396" lon="4.63128">
        <ele>697</ele>
        <time>2011-10-16T08:55:41Z</time>
      </trkpt>
      <trkpt lat="45.75399" lon="4.6312">
        <ele>696</ele>
        <time>2011-10-16T08:55:43Z</time>
      </trkpt>
      <trkpt lat="45.75407" lon="4.6311">
        <ele>697</ele>
        <time>2011-10-16T08:55:45Z</time>
      </trkpt>
      <trkpt lat="45.75409" lon="4.63103">
        <ele>697</ele>
        <time>2011-10-16T08:55:47Z</time>
      </trkpt>
      <trkpt lat="45.75413" lon="4.6309">
        <ele>699</ele>
        <time>2011-10-16T08:55:49Z</time>
      </trkpt>
      <trkpt lat="45.75418" lon="4.63083">
        <ele>700</ele>
        <time>2011-10-16T08:55:51Z</time>
      </trkpt>
      <trkpt lat="45.75417" lon="4.63071">
        <ele>699</ele>
        <time>2011-10-16T08:55:53Z</time>
      </trkpt>
      <trkpt lat="45.75422" lon="4.63064">
        <ele>699</ele>
        <time>2011-10-16T08:55:54Z</time>
      </trkpt>
      <trkpt lat="45.75423" lon="4.63057">
        <ele>698</ele>
        <time>2011-10-16T08:55:55Z</time>
      </trkpt>
      <trkpt lat="45.75425" lon="4.63046">
        <ele>698</ele>
        <time>2011-10-16T08:55:57Z</time>
      </trkpt>
      <trkpt lat="45.75428" lon="4.6304">
        <ele>698</ele>
        <time>2011-10-16T08:55:59Z</time>
      </trkpt>
      <trkpt lat="45.75424" lon="4.63033">
        <ele>697</ele>
        <time>2011-10-16T08:56:01Z</time>
      </trkpt>
      <trkpt lat="45.75426" lon="4.63026">
        <ele>697</ele>
        <time>2011-10-16T08:56:02Z</time>
      </trkpt>
      <trkpt lat="45.75427" lon="4.63015">
        <ele>697</ele>
        <time>2011-10-16T08:56:04Z</time>
      </trkpt>
      <trkpt lat="45.7543" lon="4.63005">
        <ele>696</ele>
        <time>2011-10-16T08:56:07Z</time>
      </trkpt>
      <trkpt lat="45.75434" lon="4.62996">
        <ele>695</ele>
        <time>2011-10-16T08:56:09Z</time>
      </trkpt>
      <trkpt lat="45.75441" lon="4.6299">
        <ele>695</ele>
        <time>2011-10-16T08:56:11Z</time>
      </trkpt>
      <trkpt lat="45.75445" lon="4.62984">
        <ele>695</ele>
        <time>2011-10-16T08:56:12Z</time>
      </trkpt>
      <trkpt lat="45.7545" lon="4.62978">
        <ele>695</ele>
        <time>2011-10-16T08:56:13Z</time>
      </trkpt>
      <trkpt lat="45.75457" lon="4.62971">
        <ele>696</ele>
        <time>2011-10-16T08:56:14Z</time>
      </trkpt>
      <trkpt lat="45.75462" lon="4.62964">
        <ele>696</ele>
        <time>2011-10-16T08:56:15Z</time>
      </trkpt>
      <trkpt lat="45.75459" lon="4.62958">
        <ele>695</ele>
        <time>2011-10-16T08:56:17Z</time>
      </trkpt>
      <trkpt lat="45.75458" lon="4.6295">
        <ele>695</ele>
        <time>2011-10-16T08:56:18Z</time>
      </trkpt>
      <trkpt lat="45.75459" lon="4.62941">
        <ele>695</ele>
        <time>2011-10-16T08:56:20Z</time>
      </trkpt>
      <trkpt lat="45.7546" lon="4.62932">
        <ele>695</ele>
        <time>2011-10-16T08:56:22Z</time>
      </trkpt>
      <trkpt lat="45.75464" lon="4.6292">
        <ele>695</ele>
        <time>2011-10-16T08:56:24Z</time>
      </trkpt>
      <trkpt lat="45.75467" lon="4.6291">
        <ele>693</ele>
        <time>2011-10-16T08:56:26Z</time>
      </trkpt>
      <trkpt lat="45.75471" lon="4.629">
        <ele>693</ele>
        <time>2011-10-16T08:56:28Z</time>
      </trkpt>
      <trkpt lat="45.75474" lon="4.62895">
        <ele>693</ele>
        <time>2011-10-16T08:56:29Z</time>
      </trkpt>
      <trkpt lat="45.75477" lon="4.62885">
        <ele>693</ele>
        <time>2011-10-16T08:56:31Z</time>
      </trkpt>
      <trkpt lat="45.7548" lon="4.62878">
        <ele>693</ele>
        <time>2011-10-16T08:56:33Z</time>
      </trkpt>
      <trkpt lat="45.75485" lon="4.62864">
        <ele>693</ele>
        <time>2011-10-16T08:56:36Z</time>
      </trkpt>
      <trkpt lat="45.7549" lon="4.62858">
        <ele>694</ele>
        <time>2011-10-16T08:56:40Z</time>
      </trkpt>
      <trkpt lat="45.75494" lon="4.62854">
        <ele>694</ele>
        <time>2011-10-16T08:56:42Z</time>
      </trkpt>
      <trkpt lat="45.75494" lon="4.62846">
        <ele>695</ele>
        <time>2011-10-16T08:56:45Z</time>
      </trkpt>
      <trkpt lat="45.75497" lon="4.6284">
        <ele>696</ele>
        <time>2011-10-16T08:56:49Z</time>
      </trkpt>
      <trkpt lat="45.75499" lon="4.62834">
        <ele>697</ele>
        <time>2011-10-16T08:56:51Z</time>
      </trkpt>
      <trkpt lat="45.75501" lon="4.62826">
        <ele>698</ele>
        <time>2011-10-16T08:56:54Z</time>
      </trkpt>
      <trkpt lat="45.75502" lon="4.6282">
        <ele>699</ele>
        <time>2011-10-16T08:56:56Z</time>
      </trkpt>
      <trkpt lat="45.75504" lon="4.62813">
        <ele>700</ele>
        <time>2011-10-16T08:56:59Z</time>
      </trkpt>
      <trkpt lat="45.75508" lon="4.62807">
        <ele>701</ele>
        <time>2011-10-16T08:57:01Z</time>
      </trkpt>
      <trkpt lat="45.75513" lon="4.62802">
        <ele>701</ele>
        <time>2011-10-16T08:57:03Z</time>
      </trkpt>
      <trkpt lat="45.75517" lon="4.62796">
        <ele>701</ele>
        <time>2011-10-16T08:57:05Z</time>
      </trkpt>
      <trkpt lat="45.75517" lon="4.62788">
        <ele>701</ele>
        <time>2011-10-16T08:57:07Z</time>
      </trkpt>
      <trkpt lat="45.75518" lon="4.62781">
        <ele>701</ele>
        <time>2011-10-16T08:57:09Z</time>
      </trkpt>
      <trkpt lat="45.7552" lon="4.62772">
        <ele>701</ele>
        <time>2011-10-16T08:57:12Z</time>
      </trkpt>
      <trkpt lat="45.75521" lon="4.62766">
        <ele>701</ele>
        <time>2011-10-16T08:57:14Z</time>
      </trkpt>
      <trkpt lat="45.75522" lon="4.62758">
        <ele>701</ele>
        <time>2011-10-16T08:57:16Z</time>
      </trkpt>
      <trkpt lat="45.75525" lon="4.6275">
        <ele>701</ele>
        <time>2011-10-16T08:57:18Z</time>
      </trkpt>
      <trkpt lat="45.75529" lon="4.62745">
        <ele>702</ele>
        <time>2011-10-16T08:57:20Z</time>
      </trkpt>
      <trkpt lat="45.75532" lon="4.62739">
        <ele>703</ele>
        <time>2011-10-16T08:57:22Z</time>
      </trkpt>
      <trkpt lat="45.75537" lon="4.62732">
        <ele>704</ele>
        <time>2011-10-16T08:57:24Z</time>
      </trkpt>
      <trkpt lat="45.7554" lon="4.62725">
        <ele>704</ele>
        <time>2011-10-16T08:57:26Z</time>
      </trkpt>
      <trkpt lat="45.75538" lon="4.62717">
        <ele>704</ele>
        <time>2011-10-16T08:57:28Z</time>
      </trkpt>
      <trkpt lat="45.7554" lon="4.6271">
        <ele>704</ele>
        <time>2011-10-16T08:57:30Z</time>
      </trkpt>
      <trkpt lat="45.75544" lon="4.62702">
        <ele>705</ele>
        <time>2011-10-16T08:57:33Z</time>
      </trkpt>
      <trkpt lat="45.75547" lon="4.62694">
        <ele>705</ele>
        <time>2011-10-16T08:57:35Z</time>
      </trkpt>
      <trkpt lat="45.75549" lon="4.62685">
        <ele>705</ele>
        <time>2011-10-16T08:57:39Z</time>
      </trkpt>
      <trkpt lat="45.75552" lon="4.62676">
        <ele>706</ele>
        <time>2011-10-16T08:57:42Z</time>
      </trkpt>
      <trkpt lat="45.75556" lon="4.62671">
        <ele>707</ele>
        <time>2011-10-16T08:57:44Z</time>
      </trkpt>
      <trkpt lat="45.75558" lon="4.62664">
        <ele>707</ele>
        <time>2011-10-16T08:57:47Z</time>
      </trkpt>
      <trkpt lat="45.75561" lon="4.62657">
        <ele>707</ele>
        <time>2011-10-16T08:57:50Z</time>
      </trkpt>
      <trkpt lat="45.75566" lon="4.62652">
        <ele>708</ele>
        <time>2011-10-16T08:57:53Z</time>
      </trkpt>
      <trkpt lat="45.75568" lon="4.62643">
        <ele>707</ele>
        <time>2011-10-16T08:57:57Z</time>
      </trkpt>
      <trkpt lat="45.75569" lon="4.62635">
        <ele>706</ele>
        <time>2011-10-16T08:58:01Z</time>
      </trkpt>
      <trkpt lat="45.75573" lon="4.62631">
        <ele>707</ele>
        <time>2011-10-16T08:58:03Z</time>
      </trkpt>
      <trkpt lat="45.75575" lon="4.62625">
        <ele>707</ele>
        <time>2011-10-16T08:58:06Z</time>
      </trkpt>
      <trkpt lat="45.75579" lon="4.6262">
        <ele>707</ele>
        <time>2011-10-16T08:58:08Z</time>
      </trkpt>
      <trkpt lat="45.75584" lon="4.62615">
        <ele>726</ele>
        <time>2011-10-16T08:58:10Z</time>
      </trkpt>
      <trkpt lat="45.75586" lon="4.62608">
        <ele>725</ele>
        <time>2011-10-16T08:58:13Z</time>
      </trkpt>
      <trkpt lat="45.75587" lon="4.62602">
        <ele>724</ele>
        <time>2011-10-16T08:58:19Z</time>
      </trkpt>
      <trkpt lat="45.75588" lon="4.62593">
        <ele>721</ele>
        <time>2011-10-16T08:58:24Z</time>
      </trkpt>
      <trkpt lat="45.75589" lon="4.62585">
        <ele>719</ele>
        <time>2011-10-16T08:58:27Z</time>
      </trkpt>
      <trkpt lat="45.75591" lon="4.62579">
        <ele>721</ele>
        <time>2011-10-16T08:58:29Z</time>
      </trkpt>
      <trkpt lat="45.75594" lon="4.62572">
        <ele>724</ele>
        <time>2011-10-16T08:58:30Z</time>
      </trkpt>
      <trkpt lat="45.75597" lon="4.62566">
        <ele>726</ele>
        <time>2011-10-16T08:58:33Z</time>
      </trkpt>
      <trkpt lat="45.75599" lon="4.62557">
        <ele>728</ele>
        <time>2011-10-16T08:58:37Z</time>
      </trkpt>
      <trkpt lat="45.75596" lon="4.62549">
        <ele>728</ele>
        <time>2011-10-16T08:58:37Z</time>
      </trkpt>
      <trkpt lat="45.75596" lon="4.6254">
        <ele>729</ele>
        <time>2011-10-16T08:58:41Z</time>
      </trkpt>
      <trkpt lat="45.75599" lon="4.62533">
        <ele>729</ele>
        <time>2011-10-16T08:58:44Z</time>
      </trkpt>
      <trkpt lat="45.75602" lon="4.62528">
        <ele>729</ele>
        <time>2011-10-16T08:58:47Z</time>
      </trkpt>
      <trkpt lat="45.75604" lon="4.62522">
        <ele>729</ele>
        <time>2011-10-16T08:58:51Z</time>
      </trkpt>
      <trkpt lat="45.75602" lon="4.62516">
        <ele>728</ele>
        <time>2011-10-16T08:58:54Z</time>
      </trkpt>
      <trkpt lat="45.75599" lon="4.62509">
        <ele>726</ele>
        <time>2011-10-16T08:58:56Z</time>
      </trkpt>
      <trkpt lat="45.756" lon="4.62501">
        <ele>726</ele>
        <time>2011-10-16T08:58:59Z</time>
      </trkpt>
      <trkpt lat="45.75599" lon="4.6249">
        <ele>728</ele>
        <time>2011-10-16T08:59:03Z</time>
      </trkpt>
      <trkpt lat="45.75602" lon="4.62484">
        <ele>730</ele>
        <time>2011-10-16T08:59:06Z</time>
      </trkpt>
      <trkpt lat="45.75601" lon="4.62476">
        <ele>731</ele>
        <time>2011-10-16T08:59:09Z</time>
      </trkpt>
      <trkpt lat="45.75602" lon="4.62468">
        <ele>732</ele>
        <time>2011-10-16T08:59:12Z</time>
      </trkpt>
      <trkpt lat="45.75605" lon="4.62461">
        <ele>733</ele>
        <time>2011-10-16T08:59:14Z</time>
      </trkpt>
      <trkpt lat="45.75607" lon="4.62454">
        <ele>734</ele>
        <time>2011-10-16T08:59:17Z</time>
      </trkpt>
      <trkpt lat="45.75606" lon="4.62445">
        <ele>733</ele>
        <time>2011-10-16T08:59:19Z</time>
      </trkpt>
      <trkpt lat="45.75602" lon="4.6244">
        <ele>732</ele>
        <time>2011-10-16T08:59:24Z</time>
      </trkpt>
      <trkpt lat="45.75605" lon="4.62433">
        <ele>732</ele>
        <time>2011-10-16T08:59:26Z</time>
      </trkpt>
      <trkpt lat="45.75608" lon="4.62426">
        <ele>733</ele>
        <time>2011-10-16T08:59:28Z</time>
      </trkpt>
      <trkpt lat="45.75611" lon="4.62416">
        <ele>735</ele>
        <time>2011-10-16T08:59:30Z</time>
      </trkpt>
      <trkpt lat="45.75609" lon="4.6241">
        <ele>735</ele>
        <time>2011-10-16T08:59:32Z</time>
      </trkpt>
      <trkpt lat="45.75614" lon="4.624">
        <ele>737</ele>
        <time>2011-10-16T08:59:34Z</time>
      </trkpt>
      <trkpt lat="45.75613" lon="4.62392">
        <ele>738</ele>
        <time>2011-10-16T08:59:36Z</time>
      </trkpt>
      <trkpt lat="45.75617" lon="4.62386">
        <ele>739</ele>
        <time>2011-10-16T08:59:37Z</time>
      </trkpt>
      <trkpt lat="45.75615" lon="4.62378">
        <ele>739</ele>
        <time>2011-10-16T08:59:41Z</time>
      </trkpt>
      <trkpt lat="45.75616" lon="4.62366">
        <ele>739</ele>
        <time>2011-10-16T08:59:43Z</time>
      </trkpt>
      <trkpt lat="45.75613" lon="4.6236">
        <ele>739</ele>
        <time>2011-10-16T08:59:45Z</time>
      </trkpt>
      <trkpt lat="45.75612" lon="4.62349">
        <ele>738</ele>
        <time>2011-10-16T08:59:47Z</time>
      </trkpt>
      <trkpt lat="45.75613" lon="4.62341">
        <ele>738</ele>
        <time>2011-10-16T08:59:49Z</time>
      </trkpt>
      <trkpt lat="45.75612" lon="4.62334">
        <ele>738</ele>
        <time>2011-10-16T08:59:51Z</time>
      </trkpt>
      <trkpt lat="45.75611" lon="4.62327">
        <ele>741</ele>
        <time>2011-10-16T08:59:53Z</time>
      </trkpt>
      <trkpt lat="45.75609" lon="4.62318">
        <ele>741</ele>
        <time>2011-10-16T08:59:56Z</time>
      </trkpt>
      <trkpt lat="45.75606" lon="4.6231">
        <ele>741</ele>
        <time>2011-10-16T08:59:59Z</time>
      </trkpt>
      <trkpt lat="45.75602" lon="4.62303">
        <ele>741</ele>
        <time>2011-10-16T09:00:02Z</time>
      </trkpt>
      <trkpt lat="45.75596" lon="4.62294">
        <ele>741</ele>
        <time>2011-10-16T09:00:05Z</time>
      </trkpt>
      <trkpt lat="45.75594" lon="4.62288">
        <ele>741</ele>
        <time>2011-10-16T09:00:07Z</time>
      </trkpt>
      <trkpt lat="45.75596" lon="4.62281">
        <ele>742</ele>
        <time>2011-10-16T09:00:09Z</time>
      </trkpt>
      <trkpt lat="45.75594" lon="4.62274">
        <ele>741</ele>
        <time>2011-10-16T09:00:10Z</time>
      </trkpt>
      <trkpt lat="45.75593" lon="4.62267">
        <ele>740</ele>
        <time>2011-10-16T09:00:12Z</time>
      </trkpt>
      <trkpt lat="45.75595" lon="4.62258">
        <ele>740</ele>
        <time>2011-10-16T09:00:15Z</time>
      </trkpt>
      <trkpt lat="45.75596" lon="4.62247">
        <ele>742</ele>
        <time>2011-10-16T09:00:18Z</time>
      </trkpt>
      <trkpt lat="45.75595" lon="4.6224">
        <ele>743</ele>
        <time>2011-10-16T09:00:21Z</time>
      </trkpt>
      <trkpt lat="45.75595" lon="4.62232">
        <ele>744</ele>
        <time>2011-10-16T09:00:25Z</time>
      </trkpt>
      <trkpt lat="45.75594" lon="4.62222">
        <ele>746</ele>
        <time>2011-10-16T09:00:27Z</time>
      </trkpt>
      <trkpt lat="45.75591" lon="4.62216">
        <ele>746</ele>
        <time>2011-10-16T09:00:29Z</time>
      </trkpt>
      <trkpt lat="45.75592" lon="4.62204">
        <ele>747</ele>
        <time>2011-10-16T09:00:34Z</time>
      </trkpt>
      <trkpt lat="45.75595" lon="4.62198">
        <ele>748</ele>
        <time>2011-10-16T09:00:37Z</time>
      </trkpt>
      <trkpt lat="45.75588" lon="4.62192">
        <ele>747</ele>
        <time>2011-10-16T09:00:37Z</time>
      </trkpt>
      <trkpt lat="45.75588" lon="4.62183">
        <ele>746</ele>
        <time>2011-10-16T09:00:41Z</time>
      </trkpt>
      <trkpt lat="45.7559" lon="4.62176">
        <ele>745</ele>
        <time>2011-10-16T09:00:44Z</time>
      </trkpt>
      <trkpt lat="45.7559" lon="4.62169">
        <ele>744</ele>
        <time>2011-10-16T09:00:47Z</time>
      </trkpt>
      <trkpt lat="45.7559" lon="4.62161">
        <ele>746</ele>
        <time>2011-10-16T09:00:52Z</time>
      </trkpt>
      <trkpt lat="45.75591" lon="4.62152">
        <ele>748</ele>
        <time>2011-10-16T09:00:56Z</time>
      </trkpt>
      <trkpt lat="45.75591" lon="4.62144">
        <ele>750</ele>
        <time>2011-10-16T09:00:59Z</time>
      </trkpt>
      <trkpt lat="45.7559" lon="4.62137">
        <ele>750</ele>
        <time>2011-10-16T09:01:01Z</time>
      </trkpt>
      <trkpt lat="45.75596" lon="4.62127">
        <ele>751</ele>
        <time>2011-10-16T09:01:03Z</time>
      </trkpt>
      <trkpt lat="45.75595" lon="4.62117">
        <ele>751</ele>
        <time>2011-10-16T09:01:07Z</time>
      </trkpt>
      <trkpt lat="45.756" lon="4.62106">
        <ele>751</ele>
        <time>2011-10-16T09:01:09Z</time>
      </trkpt>
      <trkpt lat="45.756" lon="4.62099">
        <ele>751</ele>
        <time>2011-10-16T09:01:12Z</time>
      </trkpt>
      <trkpt lat="45.75606" lon="4.62091">
        <ele>752</ele>
        <time>2011-10-16T09:01:14Z</time>
      </trkpt>
      <trkpt lat="45.75606" lon="4.62083">
        <ele>753</ele>
        <time>2011-10-16T09:01:17Z</time>
      </trkpt>
      <trkpt lat="45.75606" lon="4.62073">
        <ele>753</ele>
        <time>2011-10-16T09:01:21Z</time>
      </trkpt>
      <trkpt lat="45.75605" lon="4.62065">
        <ele>754</ele>
        <time>2011-10-16T09:01:23Z</time>
      </trkpt>
      <trkpt lat="45.75605" lon="4.62054">
        <ele>755</ele>
        <time>2011-10-16T09:01:25Z</time>
      </trkpt>
      <trkpt lat="45.75606" lon="4.62044">
        <ele>755</ele>
        <time>2011-10-16T09:01:27Z</time>
      </trkpt>
      <trkpt lat="45.75603" lon="4.62038">
        <ele>755</ele>
        <time>2011-10-16T09:01:28Z</time>
      </trkpt>
      <trkpt lat="45.75604" lon="4.62031">
        <ele>755</ele>
        <time>2011-10-16T09:01:30Z</time>
      </trkpt>
      <trkpt lat="45.75606" lon="4.62024">
        <ele>755</ele>
        <time>2011-10-16T09:01:32Z</time>
      </trkpt>
      <trkpt lat="45.75607" lon="4.62018">
        <ele>755</ele>
        <time>2011-10-16T09:01:34Z</time>
      </trkpt>
      <trkpt lat="45.75605" lon="4.6201">
        <ele>755</ele>
        <time>2011-10-16T09:01:36Z</time>
      </trkpt>
      <trkpt lat="45.75606" lon="4.62002">
        <ele>755</ele>
        <time>2011-10-16T09:01:39Z</time>
      </trkpt>
      <trkpt lat="45.75601" lon="4.61998">
        <ele>754</ele>
        <time>2011-10-16T09:01:42Z</time>
      </trkpt>
      <trkpt lat="45.75598" lon="4.61993">
        <ele>754</ele>
        <time>2011-10-16T09:01:45Z</time>
      </trkpt>
      <trkpt lat="45.75598" lon="4.61986">
        <ele>755</ele>
        <time>2011-10-16T09:01:47Z</time>
      </trkpt>
      <trkpt lat="45.756" lon="4.6198">
        <ele>756</ele>
        <time>2011-10-16T09:01:49Z</time>
      </trkpt>
      <trkpt lat="45.75602" lon="4.61972">
        <ele>757</ele>
        <time>2011-10-16T09:01:51Z</time>
      </trkpt>
      <trkpt lat="45.75603" lon="4.61963">
        <ele>757</ele>
        <time>2011-10-16T09:01:53Z</time>
      </trkpt>
      <trkpt lat="45.75604" lon="4.61955">
        <ele>757</ele>
        <time>2011-10-16T09:01:55Z</time>
      </trkpt>
      <trkpt lat="45.756" lon="4.61946">
        <ele>757</ele>
        <time>2011-10-16T09:01:57Z</time>
      </trkpt>
      <trkpt lat="45.75603" lon="4.61938">
        <ele>757</ele>
        <time>2011-10-16T09:01:59Z</time>
      </trkpt>
      <trkpt lat="45.75603" lon="4.61928">
        <ele>757</ele>
        <time>2011-10-16T09:02:03Z</time>
      </trkpt>
      <trkpt lat="45.75603" lon="4.61921">
        <ele>756</ele>
        <time>2011-10-16T09:02:05Z</time>
      </trkpt>
      <trkpt lat="45.75603" lon="4.61914">
        <ele>756</ele>
        <time>2011-10-16T09:02:08Z</time>
      </trkpt>
      <trkpt lat="45.75601" lon="4.61906">
        <ele>756</ele>
        <time>2011-10-16T09:02:10Z</time>
      </trkpt>
      <trkpt lat="45.75602" lon="4.61898">
        <ele>756</ele>
        <time>2011-10-16T09:02:13Z</time>
      </trkpt>
      <trkpt lat="45.75603" lon="4.61891">
        <ele>756</ele>
        <time>2011-10-16T09:02:15Z</time>
      </trkpt>
      <trkpt lat="45.75603" lon="4.61882">
        <ele>756</ele>
        <time>2011-10-16T09:02:18Z</time>
      </trkpt>
      <trkpt lat="45.756" lon="4.61874">
        <ele>756</ele>
        <time>2011-10-16T09:02:21Z</time>
      </trkpt>
      <trkpt lat="45.75598" lon="4.61867">
        <ele>756</ele>
        <time>2011-10-16T09:02:24Z</time>
      </trkpt>
      <trkpt lat="45.75595" lon="4.61862">
        <ele>756</ele>
        <time>2011-10-16T09:02:26Z</time>
      </trkpt>
      <trkpt lat="45.75592" lon="4.61857">
        <ele>755</ele>
        <time>2011-10-16T09:02:28Z</time>
      </trkpt>
      <trkpt lat="45.75592" lon="4.61848">
        <ele>755</ele>
        <time>2011-10-16T09:02:31Z</time>
      </trkpt>
      <trkpt lat="45.75594" lon="4.61841">
        <ele>755</ele>
        <time>2011-10-16T09:02:33Z</time>
      </trkpt>
      <trkpt lat="45.75598" lon="4.61833">
        <ele>754</ele>
        <time>2011-10-16T09:02:36Z</time>
      </trkpt>
      <trkpt lat="45.75602" lon="4.61819">
        <ele>755</ele>
        <time>2011-10-16T09:02:38Z</time>
      </trkpt>
      <trkpt lat="45.75607" lon="4.61814">
        <ele>755</ele>
        <time>2011-10-16T09:02:41Z</time>
      </trkpt>
      <trkpt lat="45.75612" lon="4.6181">
        <ele>755</ele>
        <time>2011-10-16T09:02:44Z</time>
      </trkpt>
      <trkpt lat="45.75612" lon="4.618">
        <ele>756</ele>
        <time>2011-10-16T09:02:47Z</time>
      </trkpt>
      <trkpt lat="45.75616" lon="4.61796">
        <ele>756</ele>
        <time>2011-10-16T09:02:49Z</time>
      </trkpt>
      <trkpt lat="45.75614" lon="4.61791">
        <ele>756</ele>
        <time>2011-10-16T09:02:55Z</time>
      </trkpt>
      <trkpt lat="45.75618" lon="4.61786">
        <ele>756</ele>
        <time>2011-10-16T09:07:48Z</time>
      </trkpt>
      <trkpt lat="45.75614" lon="4.61786">
        <ele>756</ele>
        <time>2011-10-16T09:07:52Z</time>
      </trkpt>
      <trkpt lat="45.75611" lon="4.61792">
        <ele>756</ele>
        <time>2011-10-16T09:09:17Z</time>
      </trkpt>
      <trkpt lat="45.75605" lon="4.61792">
        <ele>756</ele>
        <time>2011-10-16T09:09:19Z</time>
      </trkpt>
      <trkpt lat="45.756" lon="4.61793">
        <ele>756</ele>
        <time>2011-10-16T09:09:20Z</time>
      </trkpt>
      <trkpt lat="45.75595" lon="4.61793">
        <ele>756</ele>
        <time>2011-10-16T09:09:23Z</time>
      </trkpt>
      <trkpt lat="45.75589" lon="4.61791">
        <ele>756</ele>
        <time>2011-10-16T09:09:26Z</time>
      </trkpt>
      <trkpt lat="45.75588" lon="4.61784">
        <ele>757</ele>
        <time>2011-10-16T09:09:29Z</time>
      </trkpt>
      <trkpt lat="45.75584" lon="4.6178">
        <ele>757</ele>
        <time>2011-10-16T09:09:33Z</time>
      </trkpt>
      <trkpt lat="45.75577" lon="4.61775">
        <ele>755</ele>
        <time>2011-10-16T09:09:36Z</time>
      </trkpt>
      <trkpt lat="45.75572" lon="4.61771">
        <ele>755</ele>
        <time>2011-10-16T09:09:38Z</time>
      </trkpt>
      <trkpt lat="45.75567" lon="4.61766">
        <ele>755</ele>
        <time>2011-10-16T09:09:41Z</time>
      </trkpt>
      <trkpt lat="45.75564" lon="4.6176">
        <ele>755</ele>
        <time>2011-10-16T09:09:43Z</time>
      </trkpt>
      <trkpt lat="45.7556" lon="4.61748">
        <ele>762</ele>
        <time>2011-10-16T09:09:46Z</time>
      </trkpt>
      <trkpt lat="45.7556" lon="4.6174">
        <ele>762</ele>
        <time>2011-10-16T09:09:50Z</time>
      </trkpt>
      <trkpt lat="45.75556" lon="4.61733">
        <ele>762</ele>
        <time>2011-10-16T09:10:00Z</time>
      </trkpt>
      <trkpt lat="45.75553" lon="4.61725">
        <ele>762</ele>
        <time>2011-10-16T09:10:04Z</time>
      </trkpt>
      <trkpt lat="45.75548" lon="4.61721">
        <ele>762</ele>
        <time>2011-10-16T09:10:09Z</time>
      </trkpt>
      <trkpt lat="45.75544" lon="4.61716">
        <ele>762</ele>
        <time>2011-10-16T09:10:10Z</time>
      </trkpt>
      <trkpt lat="45.75541" lon="4.61711">
        <ele>763</ele>
        <time>2011-10-16T09:10:12Z</time>
      </trkpt>
      <trkpt lat="45.75537" lon="4.61707">
        <ele>763</ele>
        <time>2011-10-16T09:10:14Z</time>
      </trkpt>
      <trkpt lat="45.75532" lon="4.61702">
        <ele>763</ele>
        <time>2011-10-16T09:10:16Z</time>
      </trkpt>
      <trkpt lat="45.75531" lon="4.61694">
        <ele>764</ele>
        <time>2011-10-16T09:10:22Z</time>
      </trkpt>
      <trkpt lat="45.75526" lon="4.61688">
        <ele>764</ele>
        <time>2011-10-16T09:10:26Z</time>
      </trkpt>
      <trkpt lat="45.7552" lon="4.61685">
        <ele>765</ele>
        <time>2011-10-16T09:10:29Z</time>
      </trkpt>
      <trkpt lat="45.75515" lon="4.61683">
        <ele>765</ele>
        <time>2011-10-16T09:10:32Z</time>
      </trkpt>
      <trkpt lat="45.75515" lon="4.61673">
        <ele>766</ele>
        <time>2011-10-16T09:10:37Z</time>
      </trkpt>
      <trkpt lat="45.75509" lon="4.61669">
        <ele>767</ele>
        <time>2011-10-16T09:10:40Z</time>
      </trkpt>
      <trkpt lat="45.75504" lon="4.61668">
        <ele>768</ele>
        <time>2011-10-16T09:10:43Z</time>
      </trkpt>
      <trkpt lat="45.75501" lon="4.61662">
        <ele>769</ele>
        <time>2011-10-16T09:10:50Z</time>
      </trkpt>
      <trkpt lat="45.75496" lon="4.6166">
        <ele>770</ele>
        <time>2011-10-16T09:10:53Z</time>
      </trkpt>
      <trkpt lat="45.75489" lon="4.61654">
        <ele>771</ele>
        <time>2011-10-16T09:11:02Z</time>
      </trkpt>
      <trkpt lat="45.75483" lon="4.61653">
        <ele>772</ele>
        <time>2011-10-16T09:11:05Z</time>
      </trkpt>
      <trkpt lat="45.75478" lon="4.61649">
        <ele>772</ele>
        <time>2011-10-16T09:11:08Z</time>
      </trkpt>
      <trkpt lat="45.75473" lon="4.61645">
        <ele>773</ele>
        <time>2011-10-16T09:11:10Z</time>
      </trkpt>
      <trkpt lat="45.75465" lon="4.61642">
        <ele>773</ele>
        <time>2011-10-16T09:11:13Z</time>
      </trkpt>
      <trkpt lat="45.75459" lon="4.61637">
        <ele>774</ele>
        <time>2011-10-16T09:11:20Z</time>
      </trkpt>
      <trkpt lat="45.75453" lon="4.61636">
        <ele>774</ele>
        <time>2011-10-16T09:11:24Z</time>
      </trkpt>
      <trkpt lat="45.75447" lon="4.61634">
        <ele>774</ele>
        <time>2011-10-16T09:11:29Z</time>
      </trkpt>
      <trkpt lat="45.75442" lon="4.61631">
        <ele>774</ele>
        <time>2011-10-16T09:11:31Z</time>
      </trkpt>
      <trkpt lat="45.75437" lon="4.61629">
        <ele>774</ele>
        <time>2011-10-16T09:11:33Z</time>
      </trkpt>
      <trkpt lat="45.75432" lon="4.61626">
        <ele>775</ele>
        <time>2011-10-16T09:11:35Z</time>
      </trkpt>
      <trkpt lat="45.75429" lon="4.61622">
        <ele>775</ele>
        <time>2011-10-16T09:11:37Z</time>
      </trkpt>
      <trkpt lat="45.75422" lon="4.61619">
        <ele>776</ele>
        <time>2011-10-16T09:11:39Z</time>
      </trkpt>
      <trkpt lat="45.75414" lon="4.61615">
        <ele>777</ele>
        <time>2011-10-16T09:11:41Z</time>
      </trkpt>
      <trkpt lat="45.75408" lon="4.61615">
        <ele>777</ele>
        <time>2011-10-16T09:11:43Z</time>
      </trkpt>
      <trkpt lat="45.75403" lon="4.61612">
        <ele>778</ele>
        <time>2011-10-16T09:11:46Z</time>
      </trkpt>
      <trkpt lat="45.75399" lon="4.61608">
        <ele>778</ele>
        <time>2011-10-16T09:11:48Z</time>
      </trkpt>
      <trkpt lat="45.75393" lon="4.61605">
        <ele>778</ele>
        <time>2011-10-16T09:11:49Z</time>
      </trkpt>
      <trkpt lat="45.75386" lon="4.616">
        <ele>778</ele>
        <time>2011-10-16T09:11:51Z</time>
      </trkpt>
      <trkpt lat="45.75379" lon="4.61596">
        <ele>778</ele>
        <time>2011-10-16T09:11:54Z</time>
      </trkpt>
      <trkpt lat="45.75372" lon="4.61593">
        <ele>778</ele>
        <time>2011-10-16T09:11:55Z</time>
      </trkpt>
      <trkpt lat="45.75366" lon="4.61589">
        <ele>778</ele>
        <time>2011-10-16T09:11:57Z</time>
      </trkpt>
      <trkpt lat="45.7536" lon="4.61587">
        <ele>779</ele>
        <time>2011-10-16T09:11:58Z</time>
      </trkpt>
      <trkpt lat="45.75355" lon="4.61585">
        <ele>779</ele>
        <time>2011-10-16T09:11:59Z</time>
      </trkpt>
      <trkpt lat="45.75348" lon="4.61584">
        <ele>780</ele>
        <time>2011-10-16T09:12:01Z</time>
      </trkpt>
      <trkpt lat="45.75343" lon="4.61584">
        <ele>780</ele>
        <time>2011-10-16T09:12:07Z</time>
      </trkpt>
      <trkpt lat="45.75338" lon="4.61581">
        <ele>782</ele>
        <time>2011-10-16T09:12:10Z</time>
      </trkpt>
      <trkpt lat="45.7533" lon="4.61577">
        <ele>782</ele>
        <time>2011-10-16T09:12:12Z</time>
      </trkpt>
      <trkpt lat="45.75326" lon="4.61576">
        <ele>782</ele>
        <time>2011-10-16T09:12:14Z</time>
      </trkpt>
      <trkpt lat="45.7532" lon="4.61574">
        <ele>782</ele>
        <time>2011-10-16T09:12:16Z</time>
      </trkpt>
      <trkpt lat="45.75312" lon="4.61574">
        <ele>781</ele>
        <time>2011-10-16T09:12:18Z</time>
      </trkpt>
      <trkpt lat="45.75308" lon="4.61576">
        <ele>781</ele>
        <time>2011-10-16T09:12:20Z</time>
      </trkpt>
      <trkpt lat="45.75302" lon="4.61569">
        <ele>781</ele>
        <time>2011-10-16T09:12:24Z</time>
      </trkpt>
      <trkpt lat="45.75303" lon="4.61559">
        <ele>781</ele>
        <time>2011-10-16T09:12:26Z</time>
      </trkpt>
      <trkpt lat="45.75302" lon="4.6155">
        <ele>781</ele>
        <time>2011-10-16T09:12:27Z</time>
      </trkpt>
      <trkpt lat="45.75304" lon="4.61544">
        <ele>781</ele>
        <time>2011-10-16T09:12:28Z</time>
      </trkpt>
      <trkpt lat="45.75304" lon="4.61536">
        <ele>782</ele>
        <time>2011-10-16T09:12:29Z</time>
      </trkpt>
      <trkpt lat="45.75304" lon="4.61528">
        <ele>782</ele>
        <time>2011-10-16T09:12:30Z</time>
      </trkpt>
      <trkpt lat="45.75302" lon="4.61521">
        <ele>782</ele>
        <time>2011-10-16T09:12:31Z</time>
      </trkpt>
      <trkpt lat="45.75301" lon="4.61513">
        <ele>782</ele>
        <time>2011-10-16T09:12:32Z</time>
      </trkpt>
      <trkpt lat="45.753" lon="4.61506">
        <ele>782</ele>
        <time>2011-10-16T09:12:33Z</time>
      </trkpt>
      <trkpt lat="45.75299" lon="4.61499">
        <ele>782</ele>
        <time>2011-10-16T09:12:34Z</time>
      </trkpt>
      <trkpt lat="45.75297" lon="4.61472">
        <ele>782</ele>
        <time>2011-10-16T09:12:36Z</time>
      </trkpt>
      <trkpt lat="45.75301" lon="4.61456">
        <ele>782</ele>
        <time>2011-10-16T09:12:37Z</time>
      </trkpt>
      <trkpt lat="45.75292" lon="4.6144">
        <ele>781</ele>
        <time>2011-10-16T09:12:39Z</time>
      </trkpt>
      <trkpt lat="45.75292" lon="4.61427">
        <ele>781</ele>
        <time>2011-10-16T09:12:40Z</time>
      </trkpt>
      <trkpt lat="45.75289" lon="4.61416">
        <ele>778</ele>
        <time>2011-10-16T09:12:41Z</time>
      </trkpt>
      <trkpt lat="45.75293" lon="4.61408">
        <ele>778</ele>
        <time>2011-10-16T09:12:42Z</time>
      </trkpt>
      <trkpt lat="45.75292" lon="4.61399">
        <ele>778</ele>
        <time>2011-10-16T09:12:43Z</time>
      </trkpt>
      <trkpt lat="45.75291" lon="4.61391">
        <ele>777</ele>
        <time>2011-10-16T09:12:44Z</time>
      </trkpt>
      <trkpt lat="45.75286" lon="4.6138">
        <ele>777</ele>
        <time>2011-10-16T09:12:46Z</time>
      </trkpt>
      <trkpt lat="45.75285" lon="4.61374">
        <ele>777</ele>
        <time>2011-10-16T09:12:47Z</time>
      </trkpt>
      <trkpt lat="45.75286" lon="4.61366">
        <ele>776</ele>
        <time>2011-10-16T09:12:49Z</time>
      </trkpt>
      <trkpt lat="45.75286" lon="4.61358">
        <ele>776</ele>
        <time>2011-10-16T09:12:50Z</time>
      </trkpt>
      <trkpt lat="45.75288" lon="4.61352">
        <ele>776</ele>
        <time>2011-10-16T09:12:51Z</time>
      </trkpt>
      <trkpt lat="45.75292" lon="4.61345">
        <ele>776</ele>
        <time>2011-10-16T09:12:52Z</time>
      </trkpt>
      <trkpt lat="45.75289" lon="4.61337">
        <ele>775</ele>
        <time>2011-10-16T09:12:53Z</time>
      </trkpt>
      <trkpt lat="45.7529" lon="4.61325">
        <ele>771</ele>
        <time>2011-10-16T09:12:55Z</time>
      </trkpt>
      <trkpt lat="45.75283" lon="4.61319">
        <ele>770</ele>
        <time>2011-10-16T09:12:56Z</time>
      </trkpt>
      <trkpt lat="45.75281" lon="4.61311">
        <ele>770</ele>
        <time>2011-10-16T09:12:57Z</time>
      </trkpt>
      <trkpt lat="45.75279" lon="4.61304">
        <ele>770</ele>
        <time>2011-10-16T09:12:58Z</time>
      </trkpt>
      <trkpt lat="45.75275" lon="4.61297">
        <ele>770</ele>
        <time>2011-10-16T09:12:59Z</time>
      </trkpt>
      <trkpt lat="45.75274" lon="4.6129">
        <ele>769</ele>
        <time>2011-10-16T09:13:00Z</time>
      </trkpt>
      <trkpt lat="45.75275" lon="4.61281">
        <ele>769</ele>
        <time>2011-10-16T09:13:01Z</time>
      </trkpt>
      <trkpt lat="45.75271" lon="4.61272">
        <ele>769</ele>
        <time>2011-10-16T09:13:02Z</time>
      </trkpt>
      <trkpt lat="45.75265" lon="4.61264">
        <ele>768</ele>
        <time>2011-10-16T09:13:03Z</time>
      </trkpt>
      <trkpt lat="45.75262" lon="4.61256">
        <ele>768</ele>
        <time>2011-10-16T09:13:04Z</time>
      </trkpt>
      <trkpt lat="45.75258" lon="4.61243">
        <ele>765</ele>
        <time>2011-10-16T09:13:06Z</time>
      </trkpt>
      <trkpt lat="45.75256" lon="4.61236">
        <ele>764</ele>
        <time>2011-10-16T09:13:07Z</time>
      </trkpt>
      <trkpt lat="45.75255" lon="4.61226">
        <ele>763</ele>
        <time>2011-10-16T09:13:09Z</time>
      </trkpt>
      <trkpt lat="45.75256" lon="4.61219">
        <ele>762</ele>
        <time>2011-10-16T09:13:10Z</time>
      </trkpt>
      <trkpt lat="45.75255" lon="4.61207">
        <ele>761</ele>
        <time>2011-10-16T09:13:12Z</time>
      </trkpt>
      <trkpt lat="45.75254" lon="4.612">
        <ele>761</ele>
        <time>2011-10-16T09:13:13Z</time>
      </trkpt>
      <trkpt lat="45.75251" lon="4.61195">
        <ele>760</ele>
        <time>2011-10-16T09:13:14Z</time>
      </trkpt>
      <trkpt lat="45.75242" lon="4.61184">
        <ele>759</ele>
        <time>2011-10-16T09:13:16Z</time>
      </trkpt>
      <trkpt lat="45.75238" lon="4.6118">
        <ele>759</ele>
        <time>2011-10-16T09:13:17Z</time>
      </trkpt>
      <trkpt lat="45.75232" lon="4.61173">
        <ele>759</ele>
        <time>2011-10-16T09:13:19Z</time>
      </trkpt>
      <trkpt lat="45.75227" lon="4.61169">
        <ele>759</ele>
        <time>2011-10-16T09:13:20Z</time>
      </trkpt>
      <trkpt lat="45.75222" lon="4.61165">
        <ele>757</ele>
        <time>2011-10-16T09:13:21Z</time>
      </trkpt>
      <trkpt lat="45.75221" lon="4.61159">
        <ele>757</ele>
        <time>2011-10-16T09:13:22Z</time>
      </trkpt>
      <trkpt lat="45.75218" lon="4.61149">
        <ele>757</ele>
        <time>2011-10-16T09:13:24Z</time>
      </trkpt>
      <trkpt lat="45.75213" lon="4.61144">
        <ele>757</ele>
        <time>2011-10-16T09:13:26Z</time>
      </trkpt>
      <trkpt lat="45.75209" lon="4.6114">
        <ele>756</ele>
        <time>2011-10-16T09:13:27Z</time>
      </trkpt>
      <trkpt lat="45.75203" lon="4.61135">
        <ele>756</ele>
        <time>2011-10-16T09:13:28Z</time>
      </trkpt>
      <trkpt lat="45.75199" lon="4.61131">
        <ele>756</ele>
        <time>2011-10-16T09:13:29Z</time>
      </trkpt>
      <trkpt lat="45.75197" lon="4.61125">
        <ele>756</ele>
        <time>2011-10-16T09:13:30Z</time>
      </trkpt>
      <trkpt lat="45.75195" lon="4.61118">
        <ele>756</ele>
        <time>2011-10-16T09:13:32Z</time>
      </trkpt>
      <trkpt lat="45.75191" lon="4.61109">
        <ele>756</ele>
        <time>2011-10-16T09:13:34Z</time>
      </trkpt>
      <trkpt lat="45.75189" lon="4.61101">
        <ele>756</ele>
        <time>2011-10-16T09:13:35Z</time>
      </trkpt>
      <trkpt lat="45.75189" lon="4.6109">
        <ele>756</ele>
        <time>2011-10-16T09:13:37Z</time>
      </trkpt>
      <trkpt lat="45.75184" lon="4.61083">
        <ele>753</ele>
        <time>2011-10-16T09:13:39Z</time>
      </trkpt>
      <trkpt lat="45.75192" lon="4.61079">
        <ele>752</ele>
        <time>2011-10-16T09:13:40Z</time>
      </trkpt>
      <trkpt lat="45.75192" lon="4.61066">
        <ele>751</ele>
        <time>2011-10-16T09:13:42Z</time>
      </trkpt>
      <trkpt lat="45.7519" lon="4.61055">
        <ele>751</ele>
        <time>2011-10-16T09:13:44Z</time>
      </trkpt>
      <trkpt lat="45.75189" lon="4.61048">
        <ele>750</ele>
        <time>2011-10-16T09:13:46Z</time>
      </trkpt>
      <trkpt lat="45.7518" lon="4.61047">
        <ele>750</ele>
        <time>2011-10-16T09:13:48Z</time>
      </trkpt>
      <trkpt lat="45.75174" lon="4.61046">
        <ele>751</ele>
        <time>2011-10-16T09:13:49Z</time>
      </trkpt>
      <trkpt lat="45.75167" lon="4.61044">
        <ele>751</ele>
        <time>2011-10-16T09:13:50Z</time>
      </trkpt>
      <trkpt lat="45.75156" lon="4.61044">
        <ele>753</ele>
        <time>2011-10-16T09:13:51Z</time>
      </trkpt>
      <trkpt lat="45.75133" lon="4.61034">
        <ele>753</ele>
        <time>2011-10-16T09:13:52Z</time>
      </trkpt>
      <trkpt lat="45.75122" lon="4.6103">
        <ele>753</ele>
        <time>2011-10-16T09:13:53Z</time>
      </trkpt>
      <trkpt lat="45.75111" lon="4.61032">
        <ele>753</ele>
        <time>2011-10-16T09:13:54Z</time>
      </trkpt>
      <trkpt lat="45.751" lon="4.61029">
        <ele>752</ele>
        <time>2011-10-16T09:13:55Z</time>
      </trkpt>
      <trkpt lat="45.75093" lon="4.61029">
        <ele>752</ele>
        <time>2011-10-16T09:13:56Z</time>
      </trkpt>
      <trkpt lat="45.75088" lon="4.61028">
        <ele>752</ele>
        <time>2011-10-16T09:13:57Z</time>
      </trkpt>
      <trkpt lat="45.7508" lon="4.61028">
        <ele>752</ele>
        <time>2011-10-16T09:13:58Z</time>
      </trkpt>
      <trkpt lat="45.75073" lon="4.61028">
        <ele>752</ele>
        <time>2011-10-16T09:13:59Z</time>
      </trkpt>
      <trkpt lat="45.75065" lon="4.61033">
        <ele>753</ele>
        <time>2011-10-16T09:14:01Z</time>
      </trkpt>
      <trkpt lat="45.7506" lon="4.61034">
        <ele>753</ele>
        <time>2011-10-16T09:14:02Z</time>
      </trkpt>
      <trkpt lat="45.75053" lon="4.61033">
        <ele>753</ele>
        <time>2011-10-16T09:14:06Z</time>
      </trkpt>
      <trkpt lat="45.75039" lon="4.61036">
        <ele>753</ele>
        <time>2011-10-16T09:14:08Z</time>
      </trkpt>
      <trkpt lat="45.75033" lon="4.61036">
        <ele>753</ele>
        <time>2011-10-16T09:14:09Z</time>
      </trkpt>
      <trkpt lat="45.75026" lon="4.61036">
        <ele>753</ele>
        <time>2011-10-16T09:14:10Z</time>
      </trkpt>
      <trkpt lat="45.75018" lon="4.61036">
        <ele>753</ele>
        <time>2011-10-16T09:14:11Z</time>
      </trkpt>
      <trkpt lat="45.75011" lon="4.61037">
        <ele>753</ele>
        <time>2011-10-16T09:14:12Z</time>
      </trkpt>
      <trkpt lat="45.75006" lon="4.6104">
        <ele>753</ele>
        <time>2011-10-16T09:14:13Z</time>
      </trkpt>
      <trkpt lat="45.75001" lon="4.61043">
        <ele>753</ele>
        <time>2011-10-16T09:14:14Z</time>
      </trkpt>
      <trkpt lat="45.74996" lon="4.61047">
        <ele>751</ele>
        <time>2011-10-16T09:14:15Z</time>
      </trkpt>
      <trkpt lat="45.74991" lon="4.61048">
        <ele>751</ele>
        <time>2011-10-16T09:14:16Z</time>
      </trkpt>
      <trkpt lat="45.74984" lon="4.61053">
        <ele>751</ele>
        <time>2011-10-16T09:14:17Z</time>
      </trkpt>
      <trkpt lat="45.74979" lon="4.61053">
        <ele>751</ele>
        <time>2011-10-16T09:14:18Z</time>
      </trkpt>
      <trkpt lat="45.74974" lon="4.61054">
        <ele>750</ele>
        <time>2011-10-16T09:14:19Z</time>
      </trkpt>
      <trkpt lat="45.74967" lon="4.61055">
        <ele>750</ele>
        <time>2011-10-16T09:14:20Z</time>
      </trkpt>
      <trkpt lat="45.74962" lon="4.61058">
        <ele>750</ele>
        <time>2011-10-16T09:14:21Z</time>
      </trkpt>
      <trkpt lat="45.74953" lon="4.61063">
        <ele>750</ele>
        <time>2011-10-16T09:14:23Z</time>
      </trkpt>
      <trkpt lat="45.74948" lon="4.61064">
        <ele>750</ele>
        <time>2011-10-16T09:14:24Z</time>
      </trkpt>
      <trkpt lat="45.74941" lon="4.6107">
        <ele>750</ele>
        <time>2011-10-16T09:14:25Z</time>
      </trkpt>
      <trkpt lat="45.74935" lon="4.6107">
        <ele>750</ele>
        <time>2011-10-16T09:14:26Z</time>
      </trkpt>
      <trkpt lat="45.7493" lon="4.61074">
        <ele>750</ele>
        <time>2011-10-16T09:14:27Z</time>
      </trkpt>
      <trkpt lat="45.74922" lon="4.61076">
        <ele>750</ele>
        <time>2011-10-16T09:14:28Z</time>
      </trkpt>
      <trkpt lat="45.74912" lon="4.61084">
        <ele>748</ele>
        <time>2011-10-16T09:14:30Z</time>
      </trkpt>
      <trkpt lat="45.74906" lon="4.61088">
        <ele>746</ele>
        <time>2011-10-16T09:14:31Z</time>
      </trkpt>
      <trkpt lat="45.74901" lon="4.61092">
        <ele>745</ele>
        <time>2011-10-16T09:14:33Z</time>
      </trkpt>
      <trkpt lat="45.74896" lon="4.61097">
        <ele>744</ele>
        <time>2011-10-16T09:14:34Z</time>
      </trkpt>
      <trkpt lat="45.7489" lon="4.61101">
        <ele>743</ele>
        <time>2011-10-16T09:14:37Z</time>
      </trkpt>
      <trkpt lat="45.74884" lon="4.61108">
        <ele>742</ele>
        <time>2011-10-16T09:14:39Z</time>
      </trkpt>
      <trkpt lat="45.74878" lon="4.61109">
        <ele>741</ele>
        <time>2011-10-16T09:14:44Z</time>
      </trkpt>
      <trkpt lat="45.74871" lon="4.61108">
        <ele>741</ele>
        <time>2011-10-16T09:14:47Z</time>
      </trkpt>
      <trkpt lat="45.74865" lon="4.61105">
        <ele>740</ele>
        <time>2011-10-16T09:14:50Z</time>
      </trkpt>
      <trkpt lat="45.74857" lon="4.61105">
        <ele>740</ele>
        <time>2011-10-16T09:14:52Z</time>
      </trkpt>
      <trkpt lat="45.74849" lon="4.61103">
        <ele>739</ele>
        <time>2011-10-16T09:14:54Z</time>
      </trkpt>
      <trkpt lat="45.74845" lon="4.61103">
        <ele>739</ele>
        <time>2011-10-16T09:14:55Z</time>
      </trkpt>
      <trkpt lat="45.7484" lon="4.61102">
        <ele>739</ele>
        <time>2011-10-16T09:14:57Z</time>
      </trkpt>
      <trkpt lat="45.74834" lon="4.61107">
        <ele>739</ele>
        <time>2011-10-16T09:14:59Z</time>
      </trkpt>
      <trkpt lat="45.74827" lon="4.61112">
        <ele>736</ele>
        <time>2011-10-16T09:15:01Z</time>
      </trkpt>
      <trkpt lat="45.74822" lon="4.61116">
        <ele>736</ele>
        <time>2011-10-16T09:15:03Z</time>
      </trkpt>
      <trkpt lat="45.74816" lon="4.61125">
        <ele>736</ele>
        <time>2011-10-16T09:15:05Z</time>
      </trkpt>
      <trkpt lat="45.74812" lon="4.6113">
        <ele>736</ele>
        <time>2011-10-16T09:15:07Z</time>
      </trkpt>
      <trkpt lat="45.74808" lon="4.61134">
        <ele>736</ele>
        <time>2011-10-16T09:15:09Z</time>
      </trkpt>
      <trkpt lat="45.74799" lon="4.61138">
        <ele>736</ele>
        <time>2011-10-16T09:15:11Z</time>
      </trkpt>
      <trkpt lat="45.74795" lon="4.61143">
        <ele>736</ele>
        <time>2011-10-16T09:15:12Z</time>
      </trkpt>
      <trkpt lat="45.74798" lon="4.61148">
        <ele>736</ele>
        <time>2011-10-16T09:15:13Z</time>
      </trkpt>
      <trkpt lat="45.74795" lon="4.61156">
        <ele>736</ele>
        <time>2011-10-16T09:15:15Z</time>
      </trkpt>
      <trkpt lat="45.74793" lon="4.61162">
        <ele>736</ele>
        <time>2011-10-16T09:15:19Z</time>
      </trkpt>
      <trkpt lat="45.74792" lon="4.61168">
        <ele>735</ele>
        <time>2011-10-16T09:15:31Z</time>
      </trkpt>
      <trkpt lat="45.7479" lon="4.61175">
        <ele>735</ele>
        <time>2011-10-16T09:19:07Z</time>
      </trkpt>
      <trkpt lat="45.74785" lon="4.61179">
        <ele>735</ele>
        <time>2011-10-16T09:19:12Z</time>
      </trkpt>
      <trkpt lat="45.7478" lon="4.61187">
        <ele>735</ele>
        <time>2011-10-16T09:19:15Z</time>
      </trkpt>
      <trkpt lat="45.74776" lon="4.61191">
        <ele>735</ele>
        <time>2011-10-16T09:19:16Z</time>
      </trkpt>
      <trkpt lat="45.74769" lon="4.61191">
        <ele>735</ele>
        <time>2011-10-16T09:19:17Z</time>
      </trkpt>
      <trkpt lat="45.74764" lon="4.61194">
        <ele>735</ele>
        <time>2011-10-16T09:19:19Z</time>
      </trkpt>
      <trkpt lat="45.74763" lon="4.61203">
        <ele>735</ele>
        <time>2011-10-16T09:19:22Z</time>
      </trkpt>
      <trkpt lat="45.74762" lon="4.6121">
        <ele>735</ele>
        <time>2011-10-16T09:19:25Z</time>
      </trkpt>
      <trkpt lat="45.74757" lon="4.61216">
        <ele>735</ele>
        <time>2011-10-16T09:19:27Z</time>
      </trkpt>
      <trkpt lat="45.7475" lon="4.61221">
        <ele>735</ele>
        <time>2011-10-16T09:19:30Z</time>
      </trkpt>
      <trkpt lat="45.74737" lon="4.61221">
        <ele>743</ele>
        <time>2011-10-16T09:19:33Z</time>
      </trkpt>
      <trkpt lat="45.7473" lon="4.61221">
        <ele>743</ele>
        <time>2011-10-16T09:19:35Z</time>
      </trkpt>
      <trkpt lat="45.74723" lon="4.61225">
        <ele>744</ele>
        <time>2011-10-16T09:19:37Z</time>
      </trkpt>
      <trkpt lat="45.74716" lon="4.61233">
        <ele>745</ele>
        <time>2011-10-16T09:19:39Z</time>
      </trkpt>
      <trkpt lat="45.74712" lon="4.61238">
        <ele>745</ele>
        <time>2011-10-16T09:19:41Z</time>
      </trkpt>
      <trkpt lat="45.74709" lon="4.61245">
        <ele>746</ele>
        <time>2011-10-16T09:19:43Z</time>
      </trkpt>
      <trkpt lat="45.74706" lon="4.6125">
        <ele>746</ele>
        <time>2011-10-16T09:19:45Z</time>
      </trkpt>
      <trkpt lat="45.74701" lon="4.61252">
        <ele>741</ele>
        <time>2011-10-16T09:19:47Z</time>
      </trkpt>
      <trkpt lat="45.74695" lon="4.61257">
        <ele>742</ele>
        <time>2011-10-16T09:19:50Z</time>
      </trkpt>
      <trkpt lat="45.74691" lon="4.61262">
        <ele>743</ele>
        <time>2011-10-16T09:19:52Z</time>
      </trkpt>
      <trkpt lat="45.74685" lon="4.61265">
        <ele>744</ele>
        <time>2011-10-16T09:19:55Z</time>
      </trkpt>
      <trkpt lat="45.74682" lon="4.61269">
        <ele>743</ele>
        <time>2011-10-16T09:19:57Z</time>
      </trkpt>
      <trkpt lat="45.74678" lon="4.61276">
        <ele>742</ele>
        <time>2011-10-16T09:20:00Z</time>
      </trkpt>
      <trkpt lat="45.74672" lon="4.6128">
        <ele>742</ele>
        <time>2011-10-16T09:20:03Z</time>
      </trkpt>
      <trkpt lat="45.74668" lon="4.61285">
        <ele>741</ele>
        <time>2011-10-16T09:20:05Z</time>
      </trkpt>
      <trkpt lat="45.74663" lon="4.61288">
        <ele>750</ele>
        <time>2011-10-16T09:20:07Z</time>
      </trkpt>
      <trkpt lat="45.74657" lon="4.6129">
        <ele>750</ele>
        <time>2011-10-16T09:20:11Z</time>
      </trkpt>
      <trkpt lat="45.74652" lon="4.61291">
        <ele>750</ele>
        <time>2011-10-16T09:20:12Z</time>
      </trkpt>
      <trkpt lat="45.74644" lon="4.61293">
        <ele>750</ele>
        <time>2011-10-16T09:20:14Z</time>
      </trkpt>
      <trkpt lat="45.74639" lon="4.61295">
        <ele>750</ele>
        <time>2011-10-16T09:20:19Z</time>
      </trkpt>
      <trkpt lat="45.74635" lon="4.613">
        <ele>750</ele>
        <time>2011-10-16T09:20:21Z</time>
      </trkpt>
      <trkpt lat="45.74632" lon="4.61305">
        <ele>749</ele>
        <time>2011-10-16T09:20:23Z</time>
      </trkpt>
      <trkpt lat="45.74626" lon="4.6131">
        <ele>749</ele>
        <time>2011-10-16T09:20:26Z</time>
      </trkpt>
      <trkpt lat="45.7462" lon="4.61308">
        <ele>750</ele>
        <time>2011-10-16T09:20:28Z</time>
      </trkpt>
      <trkpt lat="45.74615" lon="4.6131">
        <ele>750</ele>
        <time>2011-10-16T09:20:33Z</time>
      </trkpt>
      <trkpt lat="45.7461" lon="4.61312">
        <ele>750</ele>
        <time>2011-10-16T09:20:36Z</time>
      </trkpt>
      <trkpt lat="45.74605" lon="4.61314">
        <ele>750</ele>
        <time>2011-10-16T09:20:39Z</time>
      </trkpt>
      <trkpt lat="45.74599" lon="4.61317">
        <ele>749</ele>
        <time>2011-10-16T09:20:41Z</time>
      </trkpt>
      <trkpt lat="45.74593" lon="4.61318">
        <ele>749</ele>
        <time>2011-10-16T09:20:44Z</time>
      </trkpt>
      <trkpt lat="45.74587" lon="4.61319">
        <ele>749</ele>
        <time>2011-10-16T09:20:46Z</time>
      </trkpt>
      <trkpt lat="45.7458" lon="4.6132">
        <ele>753</ele>
        <time>2011-10-16T09:20:49Z</time>
      </trkpt>
      <trkpt lat="45.74574" lon="4.6132">
        <ele>754</ele>
        <time>2011-10-16T09:20:53Z</time>
      </trkpt>
      <trkpt lat="45.74568" lon="4.61318">
        <ele>756</ele>
        <time>2011-10-16T09:20:55Z</time>
      </trkpt>
      <trkpt lat="45.7456" lon="4.61315">
        <ele>758</ele>
        <time>2011-10-16T09:20:57Z</time>
      </trkpt>
      <trkpt lat="45.74555" lon="4.61314">
        <ele>759</ele>
        <time>2011-10-16T09:20:59Z</time>
      </trkpt>
      <trkpt lat="45.74549" lon="4.61314">
        <ele>759</ele>
        <time>2011-10-16T09:21:01Z</time>
      </trkpt>
      <trkpt lat="45.74542" lon="4.61312">
        <ele>760</ele>
        <time>2011-10-16T09:21:03Z</time>
      </trkpt>
      <trkpt lat="45.74536" lon="4.61308">
        <ele>761</ele>
        <time>2011-10-16T09:21:05Z</time>
      </trkpt>
      <trkpt lat="45.7453" lon="4.61308">
        <ele>761</ele>
        <time>2011-10-16T09:21:07Z</time>
      </trkpt>
      <trkpt lat="45.74525" lon="4.61311">
        <ele>761</ele>
        <time>2011-10-16T09:21:10Z</time>
      </trkpt>
      <trkpt lat="45.74521" lon="4.61312">
        <ele>761</ele>
        <time>2011-10-16T09:21:12Z</time>
      </trkpt>
      <trkpt lat="45.74515" lon="4.61315">
        <ele>761</ele>
        <time>2011-10-16T09:21:14Z</time>
      </trkpt>
      <trkpt lat="45.74509" lon="4.61317">
        <ele>761</ele>
        <time>2011-10-16T09:21:17Z</time>
      </trkpt>
      <trkpt lat="45.74504" lon="4.61318">
        <ele>761</ele>
        <time>2011-10-16T09:21:20Z</time>
      </trkpt>
      <trkpt lat="45.74501" lon="4.61324">
        <ele>760</ele>
        <time>2011-10-16T09:21:23Z</time>
      </trkpt>
      <trkpt lat="45.74496" lon="4.61322">
        <ele>763</ele>
        <time>2011-10-16T09:21:25Z</time>
      </trkpt>
      <trkpt lat="45.7449" lon="4.61324">
        <ele>763</ele>
        <time>2011-10-16T09:21:27Z</time>
      </trkpt>
      <trkpt lat="45.74484" lon="4.61327">
        <ele>764</ele>
        <time>2011-10-16T09:21:31Z</time>
      </trkpt>
      <trkpt lat="45.74478" lon="4.61328">
        <ele>765</ele>
        <time>2011-10-16T09:21:35Z</time>
      </trkpt>
      <trkpt lat="45.74471" lon="4.6133">
        <ele>766</ele>
        <time>2011-10-16T09:21:38Z</time>
      </trkpt>
      <trkpt lat="45.74465" lon="4.61331">
        <ele>767</ele>
        <time>2011-10-16T09:21:40Z</time>
      </trkpt>
      <trkpt lat="45.74459" lon="4.6133">
        <ele>767</ele>
        <time>2011-10-16T09:21:42Z</time>
      </trkpt>
      <trkpt lat="45.74453" lon="4.61329">
        <ele>767</ele>
        <time>2011-10-16T09:21:44Z</time>
      </trkpt>
      <trkpt lat="45.74449" lon="4.61334">
        <ele>754</ele>
        <time>2011-10-16T09:21:47Z</time>
      </trkpt>
      <trkpt lat="45.74449" lon="4.61342">
        <ele>754</ele>
        <time>2011-10-16T09:21:51Z</time>
      </trkpt>
      <trkpt lat="45.74443" lon="4.61341">
        <ele>755</ele>
        <time>2011-10-16T09:21:53Z</time>
      </trkpt>
      <trkpt lat="45.74438" lon="4.61345">
        <ele>755</ele>
        <time>2011-10-16T09:21:57Z</time>
      </trkpt>
      <trkpt lat="45.74434" lon="4.61346">
        <ele>756</ele>
        <time>2011-10-16T09:22:01Z</time>
      </trkpt>
      <trkpt lat="45.74429" lon="4.61348">
        <ele>756</ele>
        <time>2011-10-16T09:22:02Z</time>
      </trkpt>
      <trkpt lat="45.74424" lon="4.61344">
        <ele>758</ele>
        <time>2011-10-16T09:22:05Z</time>
      </trkpt>
      <trkpt lat="45.74419" lon="4.6134">
        <ele>760</ele>
        <time>2011-10-16T09:22:08Z</time>
      </trkpt>
      <trkpt lat="45.74414" lon="4.61335">
        <ele>762</ele>
        <time>2011-10-16T09:22:13Z</time>
      </trkpt>
      <trkpt lat="45.74409" lon="4.61329">
        <ele>765</ele>
        <time>2011-10-16T09:22:16Z</time>
      </trkpt>
      <trkpt lat="45.74404" lon="4.61328">
        <ele>766</ele>
        <time>2011-10-16T09:22:18Z</time>
      </trkpt>
      <trkpt lat="45.74401" lon="4.61321">
        <ele>766</ele>
        <time>2011-10-16T09:22:22Z</time>
      </trkpt>
      <trkpt lat="45.74396" lon="4.61315">
        <ele>767</ele>
        <time>2011-10-16T09:22:24Z</time>
      </trkpt>
      <trkpt lat="45.74391" lon="4.61312">
        <ele>767</ele>
        <time>2011-10-16T09:22:26Z</time>
      </trkpt>
      <trkpt lat="45.74387" lon="4.61304">
        <ele>768</ele>
        <time>2011-10-16T09:22:28Z</time>
      </trkpt>
      <trkpt lat="45.74385" lon="4.61296">
        <ele>768</ele>
        <time>2011-10-16T09:22:30Z</time>
      </trkpt>
      <trkpt lat="45.74387" lon="4.61289">
        <ele>769</ele>
        <time>2011-10-16T09:22:31Z</time>
      </trkpt>
      <trkpt lat="45.74384" lon="4.61284">
        <ele>770</ele>
        <time>2011-10-16T09:22:33Z</time>
      </trkpt>
      <trkpt lat="45.7438" lon="4.61279">
        <ele>770</ele>
        <time>2011-10-16T09:22:36Z</time>
      </trkpt>
      <trkpt lat="45.74374" lon="4.61271">
        <ele>770</ele>
        <time>2011-10-16T09:22:38Z</time>
      </trkpt>
      <trkpt lat="45.7437" lon="4.61265">
        <ele>770</ele>
        <time>2011-10-16T09:22:40Z</time>
      </trkpt>
      <trkpt lat="45.74364" lon="4.61258">
        <ele>771</ele>
        <time>2011-10-16T09:22:42Z</time>
      </trkpt>
      <trkpt lat="45.74358" lon="4.61255">
        <ele>770</ele>
        <time>2011-10-16T09:22:44Z</time>
      </trkpt>
      <trkpt lat="45.74351" lon="4.61251">
        <ele>771</ele>
        <time>2011-10-16T09:22:47Z</time>
      </trkpt>
      <trkpt lat="45.74346" lon="4.61249">
        <ele>776</ele>
        <time>2011-10-16T09:22:49Z</time>
      </trkpt>
      <trkpt lat="45.74339" lon="4.61248">
        <ele>774</ele>
        <time>2011-10-16T09:22:53Z</time>
      </trkpt>
      <trkpt lat="45.74334" lon="4.61249">
        <ele>772</ele>
        <time>2011-10-16T09:22:57Z</time>
      </trkpt>
      <trkpt lat="45.74326" lon="4.61248">
        <ele>773</ele>
        <time>2011-10-16T09:23:01Z</time>
      </trkpt>
      <trkpt lat="45.74321" lon="4.61244">
        <ele>774</ele>
        <time>2011-10-16T09:23:02Z</time>
      </trkpt>
      <trkpt lat="45.74317" lon="4.6124">
        <ele>774</ele>
        <time>2011-10-16T09:23:04Z</time>
      </trkpt>
      <trkpt lat="45.74312" lon="4.61245">
        <ele>774</ele>
        <time>2011-10-16T09:23:06Z</time>
      </trkpt>
      <trkpt lat="45.74307" lon="4.61243">
        <ele>775</ele>
        <time>2011-10-16T09:23:08Z</time>
      </trkpt>
      <trkpt lat="45.74301" lon="4.61241">
        <ele>775</ele>
        <time>2011-10-16T09:23:11Z</time>
      </trkpt>
      <trkpt lat="45.74292" lon="4.6124">
        <ele>775</ele>
        <time>2011-10-16T09:23:15Z</time>
      </trkpt>
      <trkpt lat="45.74285" lon="4.61239">
        <ele>774</ele>
        <time>2011-10-16T09:23:17Z</time>
      </trkpt>
      <trkpt lat="45.74279" lon="4.61242">
        <ele>774</ele>
        <time>2011-10-16T09:23:19Z</time>
      </trkpt>
      <trkpt lat="45.74272" lon="4.61243">
        <ele>773</ele>
        <time>2011-10-16T09:23:24Z</time>
      </trkpt>
      <trkpt lat="45.74267" lon="4.61244">
        <ele>772</ele>
        <time>2011-10-16T09:23:26Z</time>
      </trkpt>
      <trkpt lat="45.74259" lon="4.61244">
        <ele>771</ele>
        <time>2011-10-16T09:23:29Z</time>
      </trkpt>
      <trkpt lat="45.74253" lon="4.61243">
        <ele>770</ele>
        <time>2011-10-16T09:23:31Z</time>
      </trkpt>
      <trkpt lat="45.74248" lon="4.61244">
        <ele>771</ele>
        <time>2011-10-16T09:23:33Z</time>
      </trkpt>
      <trkpt lat="45.74242" lon="4.61241">
        <ele>773</ele>
        <time>2011-10-16T09:23:35Z</time>
      </trkpt>
      <trkpt lat="45.74237" lon="4.61243">
        <ele>774</ele>
        <time>2011-10-16T09:23:37Z</time>
      </trkpt>
      <trkpt lat="45.74232" lon="4.61246">
        <ele>775</ele>
        <time>2011-10-16T09:23:40Z</time>
      </trkpt>
      <trkpt lat="45.74224" lon="4.61249">
        <ele>776</ele>
        <time>2011-10-16T09:23:43Z</time>
      </trkpt>
      <trkpt lat="45.7422" lon="4.61245">
        <ele>777</ele>
        <time>2011-10-16T09:23:45Z</time>
      </trkpt>
      <trkpt lat="45.74207" lon="4.61241">
        <ele>779</ele>
        <time>2011-10-16T09:23:47Z</time>
      </trkpt>
      <trkpt lat="45.74202" lon="4.6124">
        <ele>779</ele>
        <time>2011-10-16T09:23:48Z</time>
      </trkpt>
      <trkpt lat="45.74195" lon="4.61245">
        <ele>780</ele>
        <time>2011-10-16T09:23:51Z</time>
      </trkpt>
      <trkpt lat="45.74189" lon="4.61246">
        <ele>780</ele>
        <time>2011-10-16T09:23:53Z</time>
      </trkpt>
      <trkpt lat="45.74184" lon="4.61247">
        <ele>780</ele>
        <time>2011-10-16T09:23:55Z</time>
      </trkpt>
      <trkpt lat="45.74177" lon="4.61248">
        <ele>780</ele>
        <time>2011-10-16T09:23:57Z</time>
      </trkpt>
      <trkpt lat="45.74169" lon="4.61248">
        <ele>779</ele>
        <time>2011-10-16T09:23:59Z</time>
      </trkpt>
      <trkpt lat="45.74163" lon="4.61251">
        <ele>779</ele>
        <time>2011-10-16T09:24:01Z</time>
      </trkpt>
      <trkpt lat="45.74158" lon="4.61251">
        <ele>779</ele>
        <time>2011-10-16T09:24:03Z</time>
      </trkpt>
      <trkpt lat="45.74153" lon="4.6125">
        <ele>786</ele>
        <time>2011-10-16T09:24:04Z</time>
      </trkpt>
      <trkpt lat="45.74145" lon="4.61252">
        <ele>780</ele>
        <time>2011-10-16T09:24:06Z</time>
      </trkpt>
      <trkpt lat="45.7414" lon="4.61252">
        <ele>780</ele>
        <time>2011-10-16T09:24:07Z</time>
      </trkpt>
      <trkpt lat="45.74134" lon="4.61253">
        <ele>781</ele>
        <time>2011-10-16T09:24:09Z</time>
      </trkpt>
      <trkpt lat="45.7413" lon="4.61253">
        <ele>781</ele>
        <time>2011-10-16T09:24:11Z</time>
      </trkpt>
      <trkpt lat="45.74126" lon="4.6126">
        <ele>781</ele>
        <time>2011-10-16T09:24:13Z</time>
      </trkpt>
      <trkpt lat="45.7413" lon="4.61265">
        <ele>781</ele>
        <time>2011-10-16T09:24:17Z</time>
      </trkpt>
      <trkpt lat="45.74122" lon="4.61264">
        <ele>782</ele>
        <time>2011-10-16T09:24:21Z</time>
      </trkpt>
      <trkpt lat="45.74119" lon="4.6127">
        <ele>782</ele>
        <time>2011-10-16T09:24:25Z</time>
      </trkpt>
      <trkpt lat="45.74114" lon="4.61271">
        <ele>782</ele>
        <time>2011-10-16T09:24:27Z</time>
      </trkpt>
      <trkpt lat="45.74106" lon="4.61273">
        <ele>783</ele>
        <time>2011-10-16T09:24:30Z</time>
      </trkpt>
      <trkpt lat="45.74101" lon="4.61275">
        <ele>784</ele>
        <time>2011-10-16T09:24:32Z</time>
      </trkpt>
      <trkpt lat="45.74091" lon="4.61275">
        <ele>785</ele>
        <time>2011-10-16T09:26:15Z</time>
      </trkpt>
      <trkpt lat="45.74086" lon="4.61277">
        <ele>785</ele>
        <time>2011-10-16T09:26:17Z</time>
      </trkpt>
      <trkpt lat="45.7408" lon="4.61282">
        <ele>794</ele>
        <time>2011-10-16T09:26:19Z</time>
      </trkpt>
      <trkpt lat="45.74088" lon="4.61294">
        <ele>782</ele>
        <time>2011-10-16T09:26:21Z</time>
      </trkpt>
      <trkpt lat="45.74091" lon="4.61299">
        <ele>781</ele>
        <time>2011-10-16T09:26:22Z</time>
      </trkpt>
      <trkpt lat="45.74091" lon="4.6131">
        <ele>780</ele>
        <time>2011-10-16T09:26:24Z</time>
      </trkpt>
      <trkpt lat="45.74087" lon="4.6132">
        <ele>779</ele>
        <time>2011-10-16T09:26:26Z</time>
      </trkpt>
      <trkpt lat="45.74082" lon="4.61325">
        <ele>784</ele>
        <time>2011-10-16T09:26:27Z</time>
      </trkpt>
      <trkpt lat="45.74075" lon="4.61335">
        <ele>778</ele>
        <time>2011-10-16T09:26:28Z</time>
      </trkpt>
      <trkpt lat="45.7407" lon="4.61345">
        <ele>778</ele>
        <time>2011-10-16T09:26:29Z</time>
      </trkpt>
      <trkpt lat="45.7406" lon="4.61353">
        <ele>777</ele>
        <time>2011-10-16T09:26:30Z</time>
      </trkpt>
      <trkpt lat="45.74053" lon="4.61361">
        <ele>777</ele>
        <time>2011-10-16T09:26:31Z</time>
      </trkpt>
      <trkpt lat="45.74047" lon="4.61366">
        <ele>777</ele>
        <time>2011-10-16T09:26:32Z</time>
      </trkpt>
      <trkpt lat="45.74047" lon="4.61376">
        <ele>776</ele>
        <time>2011-10-16T09:26:33Z</time>
      </trkpt>
      <trkpt lat="45.74043" lon="4.61383">
        <ele>775</ele>
        <time>2011-10-16T09:26:34Z</time>
      </trkpt>
      <trkpt lat="45.74028" lon="4.61402">
        <ele>774</ele>
        <time>2011-10-16T09:26:37Z</time>
      </trkpt>
      <trkpt lat="45.74019" lon="4.61407">
        <ele>774</ele>
        <time>2011-10-16T09:26:38Z</time>
      </trkpt>
      <trkpt lat="45.74013" lon="4.61402">
        <ele>774</ele>
        <time>2011-10-16T09:26:38Z</time>
      </trkpt>
      <trkpt lat="45.73997" lon="4.614">
        <ele>777</ele>
        <time>2011-10-16T09:26:40Z</time>
      </trkpt>
      <trkpt lat="45.73988" lon="4.61404">
        <ele>777</ele>
        <time>2011-10-16T09:26:41Z</time>
      </trkpt>
      <trkpt lat="45.73979" lon="4.61411">
        <ele>778</ele>
        <time>2011-10-16T09:26:42Z</time>
      </trkpt>
      <trkpt lat="45.73974" lon="4.61415">
        <ele>778</ele>
        <time>2011-10-16T09:26:43Z</time>
      </trkpt>
      <trkpt lat="45.73969" lon="4.6142">
        <ele>764</ele>
        <time>2011-10-16T09:26:44Z</time>
      </trkpt>
      <trkpt lat="45.73958" lon="4.61423">
        <ele>764</ele>
        <time>2011-10-16T09:26:45Z</time>
      </trkpt>
      <trkpt lat="45.73949" lon="4.61428">
        <ele>764</ele>
        <time>2011-10-16T09:26:46Z</time>
      </trkpt>
      <trkpt lat="45.73981" lon="4.61445">
        <ele>762</ele>
        <time>2011-10-16T09:26:47Z</time>
      </trkpt>
      <trkpt lat="45.73986" lon="4.61456">
        <ele>760</ele>
        <time>2011-10-16T09:26:48Z</time>
      </trkpt>
      <trkpt lat="45.73981" lon="4.61465">
        <ele>758</ele>
        <time>2011-10-16T09:26:49Z</time>
      </trkpt>
      <trkpt lat="45.73976" lon="4.61475">
        <ele>756</ele>
        <time>2011-10-16T09:26:50Z</time>
      </trkpt>
      <trkpt lat="45.73973" lon="4.61485">
        <ele>755</ele>
        <time>2011-10-16T09:26:51Z</time>
      </trkpt>
      <trkpt lat="45.73966" lon="4.61495">
        <ele>755</ele>
        <time>2011-10-16T09:26:52Z</time>
      </trkpt>
      <trkpt lat="45.73957" lon="4.61507">
        <ele>741</ele>
        <time>2011-10-16T09:26:53Z</time>
      </trkpt>
      <trkpt lat="45.73947" lon="4.6152">
        <ele>741</ele>
        <time>2011-10-16T09:26:54Z</time>
      </trkpt>
      <trkpt lat="45.73937" lon="4.61534">
        <ele>740</ele>
        <time>2011-10-16T09:26:55Z</time>
      </trkpt>
      <trkpt lat="45.73928" lon="4.61547">
        <ele>738</ele>
        <time>2011-10-16T09:26:56Z</time>
      </trkpt>
      <trkpt lat="45.73911" lon="4.61554">
        <ele>743</ele>
        <time>2011-10-16T09:26:57Z</time>
      </trkpt>
      <trkpt lat="45.73901" lon="4.61562">
        <ele>742</ele>
        <time>2011-10-16T09:26:58Z</time>
      </trkpt>
      <trkpt lat="45.7389" lon="4.61568">
        <ele>743</ele>
        <time>2011-10-16T09:26:59Z</time>
      </trkpt>
      <trkpt lat="45.73869" lon="4.61566">
        <ele>745</ele>
        <time>2011-10-16T09:27:00Z</time>
      </trkpt>
      <trkpt lat="45.73846" lon="4.61557">
        <ele>746</ele>
        <time>2011-10-16T09:27:01Z</time>
      </trkpt>
      <trkpt lat="45.7383" lon="4.61554">
        <ele>748</ele>
        <time>2011-10-16T09:27:02Z</time>
      </trkpt>
      <trkpt lat="45.73815" lon="4.61551">
        <ele>748</ele>
        <time>2011-10-16T09:27:03Z</time>
      </trkpt>
      <trkpt lat="45.73805" lon="4.61553">
        <ele>748</ele>
        <time>2011-10-16T09:27:04Z</time>
      </trkpt>
      <trkpt lat="45.73796" lon="4.61555">
        <ele>748</ele>
        <time>2011-10-16T09:27:05Z</time>
      </trkpt>
      <trkpt lat="45.73788" lon="4.61553">
        <ele>748</ele>
        <time>2011-10-16T09:27:06Z</time>
      </trkpt>
      <trkpt lat="45.73778" lon="4.61553">
        <ele>747</ele>
        <time>2011-10-16T09:27:07Z</time>
      </trkpt>
      <trkpt lat="45.73771" lon="4.61552">
        <ele>747</ele>
        <time>2011-10-16T09:27:08Z</time>
      </trkpt>
      <trkpt lat="45.7376" lon="4.61553">
        <ele>746</ele>
        <time>2011-10-16T09:27:09Z</time>
      </trkpt>
      <trkpt lat="45.73749" lon="4.61552">
        <ele>741</ele>
        <time>2011-10-16T09:27:10Z</time>
      </trkpt>
      <trkpt lat="45.73739" lon="4.61553">
        <ele>741</ele>
        <time>2011-10-16T09:27:11Z</time>
      </trkpt>
      <trkpt lat="45.73732" lon="4.61553">
        <ele>741</ele>
        <time>2011-10-16T09:27:12Z</time>
      </trkpt>
      <trkpt lat="45.73724" lon="4.61556">
        <ele>740</ele>
        <time>2011-10-16T09:27:13Z</time>
      </trkpt>
      <trkpt lat="45.73718" lon="4.61567">
        <ele>739</ele>
        <time>2011-10-16T09:27:14Z</time>
      </trkpt>
      <trkpt lat="45.7371" lon="4.61577">
        <ele>739</ele>
        <time>2011-10-16T09:27:15Z</time>
      </trkpt>
      <trkpt lat="45.73705" lon="4.61588">
        <ele>732</ele>
        <time>2011-10-16T09:27:16Z</time>
      </trkpt>
      <trkpt lat="45.737" lon="4.61599">
        <ele>732</ele>
        <time>2011-10-16T09:27:17Z</time>
      </trkpt>
      <trkpt lat="45.73695" lon="4.6161">
        <ele>731</ele>
        <time>2011-10-16T09:27:18Z</time>
      </trkpt>
      <trkpt lat="45.73691" lon="4.6162">
        <ele>731</ele>
        <time>2011-10-16T09:27:19Z</time>
      </trkpt>
      <trkpt lat="45.73685" lon="4.61626">
        <ele>730</ele>
        <time>2011-10-16T09:27:20Z</time>
      </trkpt>
      <trkpt lat="45.7368" lon="4.61631">
        <ele>730</ele>
        <time>2011-10-16T09:27:21Z</time>
      </trkpt>
      <trkpt lat="45.73675" lon="4.61636">
        <ele>730</ele>
        <time>2011-10-16T09:27:22Z</time>
      </trkpt>
      <trkpt lat="45.73668" lon="4.61638">
        <ele>730</ele>
        <time>2011-10-16T09:27:23Z</time>
      </trkpt>
      <trkpt lat="45.73662" lon="4.61637">
        <ele>726</ele>
        <time>2011-10-16T09:27:24Z</time>
      </trkpt>
      <trkpt lat="45.73653" lon="4.61635">
        <ele>726</ele>
        <time>2011-10-16T09:27:25Z</time>
      </trkpt>
      <trkpt lat="45.73646" lon="4.61631">
        <ele>726</ele>
        <time>2011-10-16T09:27:26Z</time>
      </trkpt>
      <trkpt lat="45.73638" lon="4.61627">
        <ele>726</ele>
        <time>2011-10-16T09:27:27Z</time>
      </trkpt>
      <trkpt lat="45.73632" lon="4.61624">
        <ele>725</ele>
        <time>2011-10-16T09:27:28Z</time>
      </trkpt>
      <trkpt lat="45.73623" lon="4.61621">
        <ele>725</ele>
        <time>2011-10-16T09:27:29Z</time>
      </trkpt>
      <trkpt lat="45.73614" lon="4.61613">
        <ele>724</ele>
        <time>2011-10-16T09:27:30Z</time>
      </trkpt>
      <trkpt lat="45.7361" lon="4.61608">
        <ele>724</ele>
        <time>2011-10-16T09:27:31Z</time>
      </trkpt>
      <trkpt lat="45.73604" lon="4.616">
        <ele>724</ele>
        <time>2011-10-16T09:27:32Z</time>
      </trkpt>
      <trkpt lat="45.73599" lon="4.61594">
        <ele>723</ele>
        <time>2011-10-16T09:27:33Z</time>
      </trkpt>
      <trkpt lat="45.73594" lon="4.61586">
        <ele>722</ele>
        <time>2011-10-16T09:27:34Z</time>
      </trkpt>
      <trkpt lat="45.73585" lon="4.6157">
        <ele>723</ele>
        <time>2011-10-16T09:27:36Z</time>
      </trkpt>
      <trkpt lat="45.73583" lon="4.61562">
        <ele>716</ele>
        <time>2011-10-16T09:27:37Z</time>
      </trkpt>
      <trkpt lat="45.73582" lon="4.61554">
        <ele>715</ele>
        <time>2011-10-16T09:27:37Z</time>
      </trkpt>
      <trkpt lat="45.73579" lon="4.61541">
        <ele>715</ele>
        <time>2011-10-16T09:27:39Z</time>
      </trkpt>
      <trkpt lat="45.73576" lon="4.61532">
        <ele>715</ele>
        <time>2011-10-16T09:27:40Z</time>
      </trkpt>
      <trkpt lat="45.73573" lon="4.61523">
        <ele>715</ele>
        <time>2011-10-16T09:27:41Z</time>
      </trkpt>
      <trkpt lat="45.73573" lon="4.61513">
        <ele>716</ele>
        <time>2011-10-16T09:27:42Z</time>
      </trkpt>
      <trkpt lat="45.73572" lon="4.61504">
        <ele>717</ele>
        <time>2011-10-16T09:27:43Z</time>
      </trkpt>
      <trkpt lat="45.73573" lon="4.61494">
        <ele>717</ele>
        <time>2011-10-16T09:27:44Z</time>
      </trkpt>
      <trkpt lat="45.73574" lon="4.61485">
        <ele>716</ele>
        <time>2011-10-16T09:27:45Z</time>
      </trkpt>
      <trkpt lat="45.73575" lon="4.61476">
        <ele>716</ele>
        <time>2011-10-16T09:27:46Z</time>
      </trkpt>
      <trkpt lat="45.73575" lon="4.6147">
        <ele>715</ele>
        <time>2011-10-16T09:27:47Z</time>
      </trkpt>
      <trkpt lat="45.73575" lon="4.61461">
        <ele>715</ele>
        <time>2011-10-16T09:27:48Z</time>
      </trkpt>
      <trkpt lat="45.73574" lon="4.61454">
        <ele>715</ele>
        <time>2011-10-16T09:27:49Z</time>
      </trkpt>
      <trkpt lat="45.73573" lon="4.61445">
        <ele>715</ele>
        <time>2011-10-16T09:27:50Z</time>
      </trkpt>
      <trkpt lat="45.73571" lon="4.61436">
        <ele>716</ele>
        <time>2011-10-16T09:27:51Z</time>
      </trkpt>
      <trkpt lat="45.73571" lon="4.6143">
        <ele>717</ele>
        <time>2011-10-16T09:27:52Z</time>
      </trkpt>
      <trkpt lat="45.73569" lon="4.61421">
        <ele>717</ele>
        <time>2011-10-16T09:27:53Z</time>
      </trkpt>
      <trkpt lat="45.73568" lon="4.61412">
        <ele>718</ele>
        <time>2011-10-16T09:27:54Z</time>
      </trkpt>
      <trkpt lat="45.73568" lon="4.61404">
        <ele>717</ele>
        <time>2011-10-16T09:27:55Z</time>
      </trkpt>
      <trkpt lat="45.73567" lon="4.61396">
        <ele>717</ele>
        <time>2011-10-16T09:27:56Z</time>
      </trkpt>
      <trkpt lat="45.73567" lon="4.61387">
        <ele>716</ele>
        <time>2011-10-16T09:27:57Z</time>
      </trkpt>
      <trkpt lat="45.73564" lon="4.61376">
        <ele>716</ele>
        <time>2011-10-16T09:27:58Z</time>
      </trkpt>
      <trkpt lat="45.73562" lon="4.61368">
        <ele>716</ele>
        <time>2011-10-16T09:27:59Z</time>
      </trkpt>
      <trkpt lat="45.73561" lon="4.61359">
        <ele>717</ele>
        <time>2011-10-16T09:28:00Z</time>
      </trkpt>
      <trkpt lat="45.73559" lon="4.61353">
        <ele>717</ele>
        <time>2011-10-16T09:28:01Z</time>
      </trkpt>
      <trkpt lat="45.73556" lon="4.61345">
        <ele>717</ele>
        <time>2011-10-16T09:28:02Z</time>
      </trkpt>
      <trkpt lat="45.73552" lon="4.61338">
        <ele>716</ele>
        <time>2011-10-16T09:28:03Z</time>
      </trkpt>
      <trkpt lat="45.73545" lon="4.61331">
        <ele>718</ele>
        <time>2011-10-16T09:28:04Z</time>
      </trkpt>
      <trkpt lat="45.73542" lon="4.61323">
        <ele>718</ele>
        <time>2011-10-16T09:28:05Z</time>
      </trkpt>
      <trkpt lat="45.73536" lon="4.61314">
        <ele>717</ele>
        <time>2011-10-16T09:28:06Z</time>
      </trkpt>
      <trkpt lat="45.73528" lon="4.61303">
        <ele>716</ele>
        <time>2011-10-16T09:28:07Z</time>
      </trkpt>
      <trkpt lat="45.73523" lon="4.61294">
        <ele>716</ele>
        <time>2011-10-16T09:28:08Z</time>
      </trkpt>
      <trkpt lat="45.73516" lon="4.61285">
        <ele>716</ele>
        <time>2011-10-16T09:28:09Z</time>
      </trkpt>
      <trkpt lat="45.73511" lon="4.61274">
        <ele>715</ele>
        <time>2011-10-16T09:28:10Z</time>
      </trkpt>
      <trkpt lat="45.73506" lon="4.61265">
        <ele>714</ele>
        <time>2011-10-16T09:28:11Z</time>
      </trkpt>
      <trkpt lat="45.73501" lon="4.61254">
        <ele>711</ele>
        <time>2011-10-16T09:28:12Z</time>
      </trkpt>
      <trkpt lat="45.73499" lon="4.61247">
        <ele>709</ele>
        <time>2011-10-16T09:28:13Z</time>
      </trkpt>
      <trkpt lat="45.73496" lon="4.6124">
        <ele>708</ele>
        <time>2011-10-16T09:28:14Z</time>
      </trkpt>
      <trkpt lat="45.73492" lon="4.61235">
        <ele>707</ele>
        <time>2011-10-16T09:28:15Z</time>
      </trkpt>
      <trkpt lat="45.73489" lon="4.61226">
        <ele>707</ele>
        <time>2011-10-16T09:28:16Z</time>
      </trkpt>
      <trkpt lat="45.73484" lon="4.61218">
        <ele>707</ele>
        <time>2011-10-16T09:28:17Z</time>
      </trkpt>
      <trkpt lat="45.7348" lon="4.61208">
        <ele>707</ele>
        <time>2011-10-16T09:28:18Z</time>
      </trkpt>
      <trkpt lat="45.73478" lon="4.612">
        <ele>708</ele>
        <time>2011-10-16T09:28:19Z</time>
      </trkpt>
      <trkpt lat="45.73474" lon="4.61191">
        <ele>708</ele>
        <time>2011-10-16T09:28:20Z</time>
      </trkpt>
      <trkpt lat="45.7347" lon="4.61182">
        <ele>708</ele>
        <time>2011-10-16T09:28:21Z</time>
      </trkpt>
      <trkpt lat="45.73469" lon="4.61174">
        <ele>708</ele>
        <time>2011-10-16T09:28:22Z</time>
      </trkpt>
      <trkpt lat="45.73468" lon="4.61164">
        <ele>712</ele>
        <time>2011-10-16T09:28:23Z</time>
      </trkpt>
      <trkpt lat="45.73468" lon="4.61155">
        <ele>712</ele>
        <time>2011-10-16T09:28:24Z</time>
      </trkpt>
      <trkpt lat="45.73468" lon="4.61146">
        <ele>712</ele>
        <time>2011-10-16T09:28:25Z</time>
      </trkpt>
      <trkpt lat="45.73468" lon="4.61136">
        <ele>713</ele>
        <time>2011-10-16T09:28:26Z</time>
      </trkpt>
      <trkpt lat="45.73468" lon="4.61128">
        <ele>713</ele>
        <time>2011-10-16T09:28:27Z</time>
      </trkpt>
      <trkpt lat="45.73468" lon="4.61118">
        <ele>714</ele>
        <time>2011-10-16T09:28:28Z</time>
      </trkpt>
      <trkpt lat="45.73467" lon="4.61109">
        <ele>714</ele>
        <time>2011-10-16T09:28:29Z</time>
      </trkpt>
      <trkpt lat="45.73461" lon="4.61101">
        <ele>714</ele>
        <time>2011-10-16T09:28:30Z</time>
      </trkpt>
      <trkpt lat="45.73456" lon="4.61093">
        <ele>714</ele>
        <time>2011-10-16T09:28:31Z</time>
      </trkpt>
      <trkpt lat="45.7345" lon="4.61086">
        <ele>713</ele>
        <time>2011-10-16T09:28:32Z</time>
      </trkpt>
      <trkpt lat="45.73446" lon="4.61083">
        <ele>719</ele>
        <time>2011-10-16T09:28:33Z</time>
      </trkpt>
      <trkpt lat="45.73439" lon="4.61081">
        <ele>718</ele>
        <time>2011-10-16T09:28:34Z</time>
      </trkpt>
      <trkpt lat="45.73426" lon="4.61084">
        <ele>712</ele>
        <time>2011-10-16T09:28:36Z</time>
      </trkpt>
      <trkpt lat="45.7342" lon="4.61087">
        <ele>712</ele>
        <time>2011-10-16T09:28:37Z</time>
      </trkpt>
      <trkpt lat="45.73411" lon="4.61081">
        <ele>714</ele>
        <time>2011-10-16T09:28:39Z</time>
      </trkpt>
      <trkpt lat="45.73406" lon="4.61079">
        <ele>714</ele>
        <time>2011-10-16T09:28:40Z</time>
      </trkpt>
      <trkpt lat="45.73401" lon="4.61077">
        <ele>715</ele>
        <time>2011-10-16T09:28:41Z</time>
      </trkpt>
      <trkpt lat="45.73393" lon="4.61072">
        <ele>716</ele>
        <time>2011-10-16T09:28:43Z</time>
      </trkpt>
      <trkpt lat="45.73387" lon="4.61068">
        <ele>717</ele>
        <time>2011-10-16T09:28:45Z</time>
      </trkpt>
      <trkpt lat="45.7338" lon="4.61064">
        <ele>717</ele>
        <time>2011-10-16T09:28:47Z</time>
      </trkpt>
      <trkpt lat="45.73375" lon="4.61062">
        <ele>717</ele>
        <time>2011-10-16T09:28:49Z</time>
      </trkpt>
      <trkpt lat="45.73368" lon="4.6106">
        <ele>717</ele>
        <time>2011-10-16T09:28:51Z</time>
      </trkpt>
      <trkpt lat="45.7336" lon="4.61059">
        <ele>717</ele>
        <time>2011-10-16T09:28:53Z</time>
      </trkpt>
      <trkpt lat="45.73354" lon="4.61058">
        <ele>717</ele>
        <time>2011-10-16T09:28:56Z</time>
      </trkpt>
      <trkpt lat="45.73348" lon="4.61057">
        <ele>716</ele>
        <time>2011-10-16T09:28:58Z</time>
      </trkpt>
      <trkpt lat="45.73344" lon="4.61053">
        <ele>717</ele>
        <time>2011-10-16T09:29:00Z</time>
      </trkpt>
      <trkpt lat="45.73337" lon="4.61049">
        <ele>717</ele>
        <time>2011-10-16T09:29:02Z</time>
      </trkpt>
      <trkpt lat="45.73333" lon="4.61043">
        <ele>710</ele>
        <time>2011-10-16T09:29:04Z</time>
      </trkpt>
      <trkpt lat="45.73326" lon="4.61038">
        <ele>710</ele>
        <time>2011-10-16T09:29:06Z</time>
      </trkpt>
      <trkpt lat="45.7332" lon="4.61031">
        <ele>711</ele>
        <time>2011-10-16T09:29:08Z</time>
      </trkpt>
      <trkpt lat="45.73314" lon="4.61022">
        <ele>712</ele>
        <time>2011-10-16T09:29:10Z</time>
      </trkpt>
      <trkpt lat="45.73308" lon="4.61015">
        <ele>711</ele>
        <time>2011-10-16T09:29:12Z</time>
      </trkpt>
      <trkpt lat="45.73304" lon="4.6101">
        <ele>711</ele>
        <time>2011-10-16T09:29:13Z</time>
      </trkpt>
      <trkpt lat="45.73302" lon="4.60999">
        <ele>719</ele>
        <time>2011-10-16T09:29:15Z</time>
      </trkpt>
      <trkpt lat="45.733" lon="4.60993">
        <ele>719</ele>
        <time>2011-10-16T09:29:16Z</time>
      </trkpt>
      <trkpt lat="45.73296" lon="4.60983">
        <ele>718</ele>
        <time>2011-10-16T09:29:18Z</time>
      </trkpt>
      <trkpt lat="45.73292" lon="4.60972">
        <ele>718</ele>
        <time>2011-10-16T09:29:20Z</time>
      </trkpt>
      <trkpt lat="45.73289" lon="4.60962">
        <ele>719</ele>
        <time>2011-10-16T09:29:22Z</time>
      </trkpt>
      <trkpt lat="45.73284" lon="4.60951">
        <ele>719</ele>
        <time>2011-10-16T09:29:24Z</time>
      </trkpt>
      <trkpt lat="45.73282" lon="4.60942">
        <ele>719</ele>
        <time>2011-10-16T09:29:26Z</time>
      </trkpt>
      <trkpt lat="45.73279" lon="4.60933">
        <ele>719</ele>
        <time>2011-10-16T09:29:28Z</time>
      </trkpt>
      <trkpt lat="45.73277" lon="4.60924">
        <ele>718</ele>
        <time>2011-10-16T09:29:30Z</time>
      </trkpt>
      <trkpt lat="45.73274" lon="4.60915">
        <ele>724</ele>
        <time>2011-10-16T09:29:32Z</time>
      </trkpt>
      <trkpt lat="45.73272" lon="4.60907">
        <ele>724</ele>
        <time>2011-10-16T09:29:34Z</time>
      </trkpt>
      <trkpt lat="45.7327" lon="4.609">
        <ele>724</ele>
        <time>2011-10-16T09:29:36Z</time>
      </trkpt>
      <trkpt lat="45.73265" lon="4.60894">
        <ele>724</ele>
        <time>2011-10-16T09:29:37Z</time>
      </trkpt>
      <trkpt lat="45.73266" lon="4.60887">
        <ele>725</ele>
        <time>2011-10-16T09:29:39Z</time>
      </trkpt>
      <trkpt lat="45.73265" lon="4.6088">
        <ele>726</ele>
        <time>2011-10-16T09:29:41Z</time>
      </trkpt>
      <trkpt lat="45.73264" lon="4.60872">
        <ele>727</ele>
        <time>2011-10-16T09:29:43Z</time>
      </trkpt>
      <trkpt lat="45.73263" lon="4.60862">
        <ele>727</ele>
        <time>2011-10-16T09:29:45Z</time>
      </trkpt>
      <trkpt lat="45.73262" lon="4.60854">
        <ele>727</ele>
        <time>2011-10-16T09:29:47Z</time>
      </trkpt>
      <trkpt lat="45.7326" lon="4.60846">
        <ele>726</ele>
        <time>2011-10-16T09:29:49Z</time>
      </trkpt>
      <trkpt lat="45.73258" lon="4.60838">
        <ele>725</ele>
        <time>2011-10-16T09:29:51Z</time>
      </trkpt>
      <trkpt lat="45.73256" lon="4.6083">
        <ele>727</ele>
        <time>2011-10-16T09:29:53Z</time>
      </trkpt>
      <trkpt lat="45.73253" lon="4.60823">
        <ele>729</ele>
        <time>2011-10-16T09:29:55Z</time>
      </trkpt>
      <trkpt lat="45.73251" lon="4.60814">
        <ele>732</ele>
        <time>2011-10-16T09:29:57Z</time>
      </trkpt>
      <trkpt lat="45.73249" lon="4.60806">
        <ele>725</ele>
        <time>2011-10-16T09:29:59Z</time>
      </trkpt>
      <trkpt lat="45.73246" lon="4.60796">
        <ele>725</ele>
        <time>2011-10-16T09:30:01Z</time>
      </trkpt>
      <trkpt lat="45.73243" lon="4.60788">
        <ele>726</ele>
        <time>2011-10-16T09:30:03Z</time>
      </trkpt>
      <trkpt lat="45.7324" lon="4.60782">
        <ele>727</ele>
        <time>2011-10-16T09:30:05Z</time>
      </trkpt>
      <trkpt lat="45.73238" lon="4.60774">
        <ele>728</ele>
        <time>2011-10-16T09:30:08Z</time>
      </trkpt>
      <trkpt lat="45.73234" lon="4.60769">
        <ele>728</ele>
        <time>2011-10-16T09:30:11Z</time>
      </trkpt>
      <trkpt lat="45.7323" lon="4.60765">
        <ele>728</ele>
        <time>2011-10-16T09:30:14Z</time>
      </trkpt>
      <trkpt lat="45.73225" lon="4.60761">
        <ele>728</ele>
        <time>2011-10-16T09:30:17Z</time>
      </trkpt>
      <trkpt lat="45.7322" lon="4.6076">
        <ele>727</ele>
        <time>2011-10-16T09:30:21Z</time>
      </trkpt>
      <trkpt lat="45.73214" lon="4.6076">
        <ele>727</ele>
        <time>2011-10-16T09:30:25Z</time>
      </trkpt>
      <trkpt lat="45.73209" lon="4.60759">
        <ele>726</ele>
        <time>2011-10-16T09:30:37Z</time>
      </trkpt>
      <trkpt lat="45.73201" lon="4.60754">
        <ele>726</ele>
        <time>2011-10-16T09:30:37Z</time>
      </trkpt>
      <trkpt lat="45.73193" lon="4.60754">
        <ele>725</ele>
        <time>2011-10-16T09:30:42Z</time>
      </trkpt>
      <trkpt lat="45.73189" lon="4.60751">
        <ele>725</ele>
        <time>2011-10-16T09:30:44Z</time>
      </trkpt>
      <trkpt lat="45.73184" lon="4.60749">
        <ele>731</ele>
        <time>2011-10-16T09:30:47Z</time>
      </trkpt>
      <trkpt lat="45.73178" lon="4.60747">
        <ele>730</ele>
        <time>2011-10-16T09:30:49Z</time>
      </trkpt>
      <trkpt lat="45.73171" lon="4.60747">
        <ele>727</ele>
        <time>2011-10-16T09:30:51Z</time>
      </trkpt>
      <trkpt lat="45.73166" lon="4.60751">
        <ele>725</ele>
        <time>2011-10-16T09:30:53Z</time>
      </trkpt>
      <trkpt lat="45.73162" lon="4.60753">
        <ele>726</ele>
        <time>2011-10-16T09:30:54Z</time>
      </trkpt>
      <trkpt lat="45.73156" lon="4.60761">
        <ele>727</ele>
        <time>2011-10-16T09:30:56Z</time>
      </trkpt>
      <trkpt lat="45.73152" lon="4.60765">
        <ele>727</ele>
        <time>2011-10-16T09:31:01Z</time>
      </trkpt>
      <trkpt lat="45.73153" lon="4.60774">
        <ele>727</ele>
        <time>2011-10-16T09:31:03Z</time>
      </trkpt>
      <trkpt lat="45.73146" lon="4.60782">
        <ele>728</ele>
        <time>2011-10-16T09:31:07Z</time>
      </trkpt>
      <trkpt lat="45.73144" lon="4.60788">
        <ele>728</ele>
        <time>2011-10-16T09:31:10Z</time>
      </trkpt>
      <trkpt lat="45.73143" lon="4.60801">
        <ele>727</ele>
        <time>2011-10-16T09:31:14Z</time>
      </trkpt>
      <trkpt lat="45.73143" lon="4.60809">
        <ele>726</ele>
        <time>2011-10-16T09:31:16Z</time>
      </trkpt>
      <trkpt lat="45.73141" lon="4.60817">
        <ele>726</ele>
        <time>2011-10-16T09:31:19Z</time>
      </trkpt>
      <trkpt lat="45.7314" lon="4.60824">
        <ele>726</ele>
        <time>2011-10-16T09:31:23Z</time>
      </trkpt>
      <trkpt lat="45.73137" lon="4.60831">
        <ele>726</ele>
        <time>2011-10-16T09:31:26Z</time>
      </trkpt>
      <trkpt lat="45.73135" lon="4.60838">
        <ele>724</ele>
        <time>2011-10-16T09:31:30Z</time>
      </trkpt>
      <trkpt lat="45.73133" lon="4.60844">
        <ele>725</ele>
        <time>2011-10-16T09:31:34Z</time>
      </trkpt>
      <trkpt lat="45.73128" lon="4.60852">
        <ele>726</ele>
        <time>2011-10-16T09:31:36Z</time>
      </trkpt>
      <trkpt lat="45.73131" lon="4.6086">
        <ele>725</ele>
        <time>2011-10-16T09:31:39Z</time>
      </trkpt>
      <trkpt lat="45.73132" lon="4.60867">
        <ele>725</ele>
        <time>2011-10-16T09:31:41Z</time>
      </trkpt>
      <trkpt lat="45.73133" lon="4.60875">
        <ele>725</ele>
        <time>2011-10-16T09:31:45Z</time>
      </trkpt>
      <trkpt lat="45.73137" lon="4.60879">
        <ele>724</ele>
        <time>2011-10-16T09:31:46Z</time>
      </trkpt>
      <trkpt lat="45.73139" lon="4.60886">
        <ele>724</ele>
        <time>2011-10-16T09:31:50Z</time>
      </trkpt>
      <trkpt lat="45.73141" lon="4.60894">
        <ele>723</ele>
        <time>2011-10-16T09:31:53Z</time>
      </trkpt>
      <trkpt lat="45.73144" lon="4.60899">
        <ele>722</ele>
        <time>2011-10-16T09:31:56Z</time>
      </trkpt>
      <trkpt lat="45.73139" lon="4.60905">
        <ele>723</ele>
        <time>2011-10-16T09:31:58Z</time>
      </trkpt>
      <trkpt lat="45.73134" lon="4.6091">
        <ele>723</ele>
        <time>2011-10-16T09:32:00Z</time>
      </trkpt>
      <trkpt lat="45.73129" lon="4.60916">
        <ele>724</ele>
        <time>2011-10-16T09:32:02Z</time>
      </trkpt>
      <trkpt lat="45.73124" lon="4.60918">
        <ele>719</ele>
        <time>2011-10-16T09:32:04Z</time>
      </trkpt>
      <trkpt lat="45.73118" lon="4.60921">
        <ele>721</ele>
        <time>2011-10-16T09:32:05Z</time>
      </trkpt>
      <trkpt lat="45.73115" lon="4.60933">
        <ele>720</ele>
        <time>2011-10-16T09:32:09Z</time>
      </trkpt>
      <trkpt lat="45.73108" lon="4.60935">
        <ele>721</ele>
        <time>2011-10-16T09:32:10Z</time>
      </trkpt>
      <trkpt lat="45.73101" lon="4.6094">
        <ele>722</ele>
        <time>2011-10-16T09:32:12Z</time>
      </trkpt>
      <trkpt lat="45.73098" lon="4.60949">
        <ele>721</ele>
        <time>2011-10-16T09:32:15Z</time>
      </trkpt>
      <trkpt lat="45.73096" lon="4.60956">
        <ele>720</ele>
        <time>2011-10-16T09:32:17Z</time>
      </trkpt>
      <trkpt lat="45.73092" lon="4.60966">
        <ele>719</ele>
        <time>2011-10-16T09:32:19Z</time>
      </trkpt>
      <trkpt lat="45.73085" lon="4.60974">
        <ele>719</ele>
        <time>2011-10-16T09:32:21Z</time>
      </trkpt>
      <trkpt lat="45.73079" lon="4.60978">
        <ele>729</ele>
        <time>2011-10-16T09:32:22Z</time>
      </trkpt>
      <trkpt lat="45.73079" lon="4.6099">
        <ele>725</ele>
        <time>2011-10-16T09:32:24Z</time>
      </trkpt>
      <trkpt lat="45.7308" lon="4.60998">
        <ele>721</ele>
        <time>2011-10-16T09:32:26Z</time>
      </trkpt>
      <trkpt lat="45.73074" lon="4.60998">
        <ele>724</ele>
        <time>2011-10-16T09:32:27Z</time>
      </trkpt>
      <trkpt lat="45.73069" lon="4.61002">
        <ele>717</ele>
        <time>2011-10-16T09:32:28Z</time>
      </trkpt>
      <trkpt lat="45.73065" lon="4.61005">
        <ele>717</ele>
        <time>2011-10-16T09:32:29Z</time>
      </trkpt>
      <trkpt lat="45.7306" lon="4.6101">
        <ele>716</ele>
        <time>2011-10-16T09:32:30Z</time>
      </trkpt>
      <trkpt lat="45.73054" lon="4.61015">
        <ele>716</ele>
        <time>2011-10-16T09:32:31Z</time>
      </trkpt>
      <trkpt lat="45.73051" lon="4.61021">
        <ele>715</ele>
        <time>2011-10-16T09:32:32Z</time>
      </trkpt>
      <trkpt lat="45.73046" lon="4.61023">
        <ele>716</ele>
        <time>2011-10-16T09:32:33Z</time>
      </trkpt>
      <trkpt lat="45.73037" lon="4.61026">
        <ele>716</ele>
        <time>2011-10-16T09:32:34Z</time>
      </trkpt>
      <trkpt lat="45.73025" lon="4.61036">
        <ele>716</ele>
        <time>2011-10-16T09:32:37Z</time>
      </trkpt>
      <trkpt lat="45.73021" lon="4.6103">
        <ele>717</ele>
        <time>2011-10-16T09:32:37Z</time>
      </trkpt>
      <trkpt lat="45.73014" lon="4.61039">
        <ele>716</ele>
        <time>2011-10-16T09:32:40Z</time>
      </trkpt>
      <trkpt lat="45.73009" lon="4.61041">
        <ele>716</ele>
        <time>2011-10-16T09:32:41Z</time>
      </trkpt>
      <trkpt lat="45.73" lon="4.61044">
        <ele>719</ele>
        <time>2011-10-16T09:32:43Z</time>
      </trkpt>
      <trkpt lat="45.72995" lon="4.61047">
        <ele>719</ele>
        <time>2011-10-16T09:32:45Z</time>
      </trkpt>
      <trkpt lat="45.7299" lon="4.61055">
        <ele>717</ele>
        <time>2011-10-16T09:32:47Z</time>
      </trkpt>
      <trkpt lat="45.72983" lon="4.61056">
        <ele>717</ele>
        <time>2011-10-16T09:32:49Z</time>
      </trkpt>
      <trkpt lat="45.72976" lon="4.61055">
        <ele>717</ele>
        <time>2011-10-16T09:32:51Z</time>
      </trkpt>
      <trkpt lat="45.72969" lon="4.61057">
        <ele>717</ele>
        <time>2011-10-16T09:32:53Z</time>
      </trkpt>
      <trkpt lat="45.72962" lon="4.61063">
        <ele>716</ele>
        <time>2011-10-16T09:32:55Z</time>
      </trkpt>
      <trkpt lat="45.72955" lon="4.61064">
        <ele>716</ele>
        <time>2011-10-16T09:32:58Z</time>
      </trkpt>
      <trkpt lat="45.72956" lon="4.61057">
        <ele>717</ele>
        <time>2011-10-16T09:33:02Z</time>
      </trkpt>
      <trkpt lat="45.72949" lon="4.61052">
        <ele>717</ele>
        <time>2011-10-16T09:33:04Z</time>
      </trkpt>
      <trkpt lat="45.72941" lon="4.61049">
        <ele>718</ele>
        <time>2011-10-16T09:33:05Z</time>
      </trkpt>
      <trkpt lat="45.72935" lon="4.61044">
        <ele>718</ele>
        <time>2011-10-16T09:33:07Z</time>
      </trkpt>
      <trkpt lat="45.72929" lon="4.6104">
        <ele>719</ele>
        <time>2011-10-16T09:33:09Z</time>
      </trkpt>
      <trkpt lat="45.72925" lon="4.61036">
        <ele>720</ele>
        <time>2011-10-16T09:33:11Z</time>
      </trkpt>
      <trkpt lat="45.7292" lon="4.61036">
        <ele>720</ele>
        <time>2011-10-16T09:33:12Z</time>
      </trkpt>
      <trkpt lat="45.72915" lon="4.61038">
        <ele>713</ele>
        <time>2011-10-16T09:33:13Z</time>
      </trkpt>
      <trkpt lat="45.7291" lon="4.61036">
        <ele>713</ele>
        <time>2011-10-16T09:33:14Z</time>
      </trkpt>
      <trkpt lat="45.72905" lon="4.61034">
        <ele>713</ele>
        <time>2011-10-16T09:33:16Z</time>
      </trkpt>
      <trkpt lat="45.72899" lon="4.61034">
        <ele>712</ele>
        <time>2011-10-16T09:33:20Z</time>
      </trkpt>
      <trkpt lat="45.72896" lon="4.61028">
        <ele>713</ele>
        <time>2011-10-16T09:33:24Z</time>
      </trkpt>
      <trkpt lat="45.72891" lon="4.61022">
        <ele>713</ele>
        <time>2011-10-16T09:33:27Z</time>
      </trkpt>
      <trkpt lat="45.72884" lon="4.61022">
        <ele>712</ele>
        <time>2011-10-16T09:33:30Z</time>
      </trkpt>
      <trkpt lat="45.72879" lon="4.61022">
        <ele>711</ele>
        <time>2011-10-16T09:33:32Z</time>
      </trkpt>
      <trkpt lat="45.72871" lon="4.61022">
        <ele>710</ele>
        <time>2011-10-16T09:33:34Z</time>
      </trkpt>
      <trkpt lat="45.72865" lon="4.61023">
        <ele>709</ele>
        <time>2011-10-16T09:33:36Z</time>
      </trkpt>
      <trkpt lat="45.72857" lon="4.6102">
        <ele>709</ele>
        <time>2011-10-16T09:33:39Z</time>
      </trkpt>
      <trkpt lat="45.72852" lon="4.61017">
        <ele>708</ele>
        <time>2011-10-16T09:33:42Z</time>
      </trkpt>
      <trkpt lat="45.72844" lon="4.61016">
        <ele>708</ele>
        <time>2011-10-16T09:33:44Z</time>
      </trkpt>
      <trkpt lat="45.72839" lon="4.61014">
        <ele>708</ele>
        <time>2011-10-16T09:33:46Z</time>
      </trkpt>
      <trkpt lat="45.72834" lon="4.61013">
        <ele>708</ele>
        <time>2011-10-16T09:33:49Z</time>
      </trkpt>
      <trkpt lat="45.72829" lon="4.6101">
        <ele>704</ele>
        <time>2011-10-16T09:33:51Z</time>
      </trkpt>
      <trkpt lat="45.72824" lon="4.61008">
        <ele>704</ele>
        <time>2011-10-16T09:33:53Z</time>
      </trkpt>
      <trkpt lat="45.72818" lon="4.61005">
        <ele>703</ele>
        <time>2011-10-16T09:33:55Z</time>
      </trkpt>
      <trkpt lat="45.72811" lon="4.61007">
        <ele>702</ele>
        <time>2011-10-16T09:33:57Z</time>
      </trkpt>
      <trkpt lat="45.72803" lon="4.6102">
        <ele>700</ele>
        <time>2011-10-16T09:33:59Z</time>
      </trkpt>
      <trkpt lat="45.72798" lon="4.61026">
        <ele>699</ele>
        <time>2011-10-16T09:34:00Z</time>
      </trkpt>
      <trkpt lat="45.72793" lon="4.61032">
        <ele>699</ele>
        <time>2011-10-16T09:34:01Z</time>
      </trkpt>
      <trkpt lat="45.72786" lon="4.61036">
        <ele>698</ele>
        <time>2011-10-16T09:34:02Z</time>
      </trkpt>
      <trkpt lat="45.72782" lon="4.61038">
        <ele>698</ele>
        <time>2011-10-16T09:34:03Z</time>
      </trkpt>
      <trkpt lat="45.72775" lon="4.61042">
        <ele>698</ele>
        <time>2011-10-16T09:34:04Z</time>
      </trkpt>
      <trkpt lat="45.72769" lon="4.61045">
        <ele>697</ele>
        <time>2011-10-16T09:34:05Z</time>
      </trkpt>
      <trkpt lat="45.72763" lon="4.6105">
        <ele>697</ele>
        <time>2011-10-16T09:34:06Z</time>
      </trkpt>
      <trkpt lat="45.72758" lon="4.61053">
        <ele>697</ele>
        <time>2011-10-16T09:34:07Z</time>
      </trkpt>
      <trkpt lat="45.72752" lon="4.61058">
        <ele>696</ele>
        <time>2011-10-16T09:34:08Z</time>
      </trkpt>
      <trkpt lat="45.72746" lon="4.61061">
        <ele>701</ele>
        <time>2011-10-16T09:34:09Z</time>
      </trkpt>
      <trkpt lat="45.72742" lon="4.61066">
        <ele>700</ele>
        <time>2011-10-16T09:34:10Z</time>
      </trkpt>
      <trkpt lat="45.72738" lon="4.6107">
        <ele>700</ele>
        <time>2011-10-16T09:34:11Z</time>
      </trkpt>
      <trkpt lat="45.72731" lon="4.61078">
        <ele>700</ele>
        <time>2011-10-16T09:34:13Z</time>
      </trkpt>
      <trkpt lat="45.72723" lon="4.61083">
        <ele>702</ele>
        <time>2011-10-16T09:34:15Z</time>
      </trkpt>
      <trkpt lat="45.72717" lon="4.61086">
        <ele>696</ele>
        <time>2011-10-16T09:34:17Z</time>
      </trkpt>
      <trkpt lat="45.72711" lon="4.61088">
        <ele>697</ele>
        <time>2011-10-16T09:34:19Z</time>
      </trkpt>
      <trkpt lat="45.72704" lon="4.61086">
        <ele>699</ele>
        <time>2011-10-16T09:34:21Z</time>
      </trkpt>
      <trkpt lat="45.72695" lon="4.61084">
        <ele>701</ele>
        <time>2011-10-16T09:34:25Z</time>
      </trkpt>
      <trkpt lat="45.72688" lon="4.61088">
        <ele>702</ele>
        <time>2011-10-16T09:34:26Z</time>
      </trkpt>
      <trkpt lat="45.72679" lon="4.61089">
        <ele>705</ele>
        <time>2011-10-16T09:34:29Z</time>
      </trkpt>
      <trkpt lat="45.72672" lon="4.61093">
        <ele>707</ele>
        <time>2011-10-16T09:34:31Z</time>
      </trkpt>
      <trkpt lat="45.72665" lon="4.61101">
        <ele>709</ele>
        <time>2011-10-16T09:34:36Z</time>
      </trkpt>
      <trkpt lat="45.72662" lon="4.61106">
        <ele>708</ele>
        <time>2011-10-16T09:34:38Z</time>
      </trkpt>
      <trkpt lat="45.72658" lon="4.61114">
        <ele>706</ele>
        <time>2011-10-16T09:34:40Z</time>
      </trkpt>
      <trkpt lat="45.7265" lon="4.6112">
        <ele>705</ele>
        <time>2011-10-16T09:34:43Z</time>
      </trkpt>
      <trkpt lat="45.72644" lon="4.61125">
        <ele>705</ele>
        <time>2011-10-16T09:34:45Z</time>
      </trkpt>
      <trkpt lat="45.7264" lon="4.6113">
        <ele>704</ele>
        <time>2011-10-16T09:34:46Z</time>
      </trkpt>
      <trkpt lat="45.72635" lon="4.61134">
        <ele>704</ele>
        <time>2011-10-16T09:34:50Z</time>
      </trkpt>
      <trkpt lat="45.72629" lon="4.61132">
        <ele>704</ele>
        <time>2011-10-16T09:34:53Z</time>
      </trkpt>
      <trkpt lat="45.72634" lon="4.6113">
        <ele>704</ele>
        <time>2011-10-16T09:34:55Z</time>
      </trkpt>
      <trkpt lat="45.72626" lon="4.6113">
        <ele>704</ele>
        <time>2011-10-16T09:35:00Z</time>
      </trkpt>
      <trkpt lat="45.72616" lon="4.61134">
        <ele>704</ele>
        <time>2011-10-16T09:35:02Z</time>
      </trkpt>
      <trkpt lat="45.72607" lon="4.61131">
        <ele>704</ele>
        <time>2011-10-16T09:35:03Z</time>
      </trkpt>
      <trkpt lat="45.72602" lon="4.61134">
        <ele>704</ele>
        <time>2011-10-16T09:35:04Z</time>
      </trkpt>
      <trkpt lat="45.72593" lon="4.61134">
        <ele>704</ele>
        <time>2011-10-16T09:35:05Z</time>
      </trkpt>
      <trkpt lat="45.72584" lon="4.61138">
        <ele>703</ele>
        <time>2011-10-16T09:35:06Z</time>
      </trkpt>
      <trkpt lat="45.72574" lon="4.61139">
        <ele>699</ele>
        <time>2011-10-16T09:35:07Z</time>
      </trkpt>
      <trkpt lat="45.72568" lon="4.61141">
        <ele>699</ele>
        <time>2011-10-16T09:35:08Z</time>
      </trkpt>
      <trkpt lat="45.72561" lon="4.61145">
        <ele>698</ele>
        <time>2011-10-16T09:35:09Z</time>
      </trkpt>
      <trkpt lat="45.72554" lon="4.6115">
        <ele>698</ele>
        <time>2011-10-16T09:35:10Z</time>
      </trkpt>
      <trkpt lat="45.72544" lon="4.61157">
        <ele>697</ele>
        <time>2011-10-16T09:35:11Z</time>
      </trkpt>
      <trkpt lat="45.72537" lon="4.61157">
        <ele>696</ele>
        <time>2011-10-16T09:35:12Z</time>
      </trkpt>
      <trkpt lat="45.72528" lon="4.61155">
        <ele>696</ele>
        <time>2011-10-16T09:35:13Z</time>
      </trkpt>
      <trkpt lat="45.72518" lon="4.61151">
        <ele>695</ele>
        <time>2011-10-16T09:35:14Z</time>
      </trkpt>
      <trkpt lat="45.72513" lon="4.61147">
        <ele>695</ele>
        <time>2011-10-16T09:35:15Z</time>
      </trkpt>
      <trkpt lat="45.72508" lon="4.61145">
        <ele>694</ele>
        <time>2011-10-16T09:35:16Z</time>
      </trkpt>
      <trkpt lat="45.72504" lon="4.61144">
        <ele>694</ele>
        <time>2011-10-16T09:35:17Z</time>
      </trkpt>
      <trkpt lat="45.72498" lon="4.61146">
        <ele>684</ele>
        <time>2011-10-16T09:35:19Z</time>
      </trkpt>
      <trkpt lat="45.72498" lon="4.61156">
        <ele>686</ele>
        <time>2011-10-16T09:35:21Z</time>
      </trkpt>
      <trkpt lat="45.72498" lon="4.61164">
        <ele>688</ele>
        <time>2011-10-16T09:35:22Z</time>
      </trkpt>
      <trkpt lat="45.72498" lon="4.61171">
        <ele>687</ele>
        <time>2011-10-16T09:35:23Z</time>
      </trkpt>
      <trkpt lat="45.72498" lon="4.6118">
        <ele>684</ele>
        <time>2011-10-16T09:35:24Z</time>
      </trkpt>
      <trkpt lat="45.72497" lon="4.61188">
        <ele>682</ele>
        <time>2011-10-16T09:35:25Z</time>
      </trkpt>
      <trkpt lat="45.72496" lon="4.61196">
        <ele>681</ele>
        <time>2011-10-16T09:35:26Z</time>
      </trkpt>
      <trkpt lat="45.72494" lon="4.61202">
        <ele>680</ele>
        <time>2011-10-16T09:35:27Z</time>
      </trkpt>
      <trkpt lat="45.7249" lon="4.61209">
        <ele>679</ele>
        <time>2011-10-16T09:35:28Z</time>
      </trkpt>
      <trkpt lat="45.72486" lon="4.61218">
        <ele>679</ele>
        <time>2011-10-16T09:35:29Z</time>
      </trkpt>
      <trkpt lat="45.7248" lon="4.61227">
        <ele>678</ele>
        <time>2011-10-16T09:35:30Z</time>
      </trkpt>
      <trkpt lat="45.72476" lon="4.61235">
        <ele>678</ele>
        <time>2011-10-16T09:35:31Z</time>
      </trkpt>
      <trkpt lat="45.72471" lon="4.61241">
        <ele>678</ele>
        <time>2011-10-16T09:35:32Z</time>
      </trkpt>
      <trkpt lat="45.72467" lon="4.61245">
        <ele>677</ele>
        <time>2011-10-16T09:35:33Z</time>
      </trkpt>
      <trkpt lat="45.72463" lon="4.6125">
        <ele>677</ele>
        <time>2011-10-16T09:35:34Z</time>
      </trkpt>
      <trkpt lat="45.72457" lon="4.61258">
        <ele>673</ele>
        <time>2011-10-16T09:35:35Z</time>
      </trkpt>
      <trkpt lat="45.72452" lon="4.61255">
        <ele>673</ele>
        <time>2011-10-16T09:35:41Z</time>
      </trkpt>
      <trkpt lat="45.72445" lon="4.61253">
        <ele>673</ele>
        <time>2011-10-16T09:37:27Z</time>
      </trkpt>
      <trkpt lat="45.72442" lon="4.61248">
        <ele>675</ele>
        <time>2011-10-16T09:37:29Z</time>
      </trkpt>
      <trkpt lat="45.72438" lon="4.61242">
        <ele>675</ele>
        <time>2011-10-16T09:37:31Z</time>
      </trkpt>
      <trkpt lat="45.72436" lon="4.61237">
        <ele>675</ele>
        <time>2011-10-16T09:37:33Z</time>
      </trkpt>
      <trkpt lat="45.72433" lon="4.6123">
        <ele>675</ele>
        <time>2011-10-16T09:37:36Z</time>
      </trkpt>
      <trkpt lat="45.72425" lon="4.61226">
        <ele>674</ele>
        <time>2011-10-16T09:37:37Z</time>
      </trkpt>
      <trkpt lat="45.72427" lon="4.61214">
        <ele>675</ele>
        <time>2011-10-16T09:37:40Z</time>
      </trkpt>
      <trkpt lat="45.72429" lon="4.61208">
        <ele>675</ele>
        <time>2011-10-16T09:37:41Z</time>
      </trkpt>
      <trkpt lat="45.7243" lon="4.61197">
        <ele>674</ele>
        <time>2011-10-16T09:37:43Z</time>
      </trkpt>
      <trkpt lat="45.72432" lon="4.6119">
        <ele>674</ele>
        <time>2011-10-16T09:37:44Z</time>
      </trkpt>
      <trkpt lat="45.72433" lon="4.61182">
        <ele>673</ele>
        <time>2011-10-16T09:37:45Z</time>
      </trkpt>
      <trkpt lat="45.72434" lon="4.61174">
        <ele>673</ele>
        <time>2011-10-16T09:37:46Z</time>
      </trkpt>
      <trkpt lat="45.72435" lon="4.61166">
        <ele>673</ele>
        <time>2011-10-16T09:37:47Z</time>
      </trkpt>
      <trkpt lat="45.72437" lon="4.61158">
        <ele>674</ele>
        <time>2011-10-16T09:37:48Z</time>
      </trkpt>
      <trkpt lat="45.72438" lon="4.61151">
        <ele>675</ele>
        <time>2011-10-16T09:37:49Z</time>
      </trkpt>
      <trkpt lat="45.72438" lon="4.61142">
        <ele>675</ele>
        <time>2011-10-16T09:37:50Z</time>
      </trkpt>
      <trkpt lat="45.72443" lon="4.6113">
        <ele>676</ele>
        <time>2011-10-16T09:37:52Z</time>
      </trkpt>
      <trkpt lat="45.72447" lon="4.6112">
        <ele>677</ele>
        <time>2011-10-16T09:37:54Z</time>
      </trkpt>
      <trkpt lat="45.72448" lon="4.61113">
        <ele>677</ele>
        <time>2011-10-16T09:37:55Z</time>
      </trkpt>
      <trkpt lat="45.72448" lon="4.61106">
        <ele>677</ele>
        <time>2011-10-16T09:37:56Z</time>
      </trkpt>
      <trkpt lat="45.72449" lon="4.61097">
        <ele>677</ele>
        <time>2011-10-16T09:37:58Z</time>
      </trkpt>
      <trkpt lat="45.7245" lon="4.61089">
        <ele>677</ele>
        <time>2011-10-16T09:37:59Z</time>
      </trkpt>
      <trkpt lat="45.7245" lon="4.6108">
        <ele>677</ele>
        <time>2011-10-16T09:38:00Z</time>
      </trkpt>
      <trkpt lat="45.72448" lon="4.61072">
        <ele>676</ele>
        <time>2011-10-16T09:38:01Z</time>
      </trkpt>
      <trkpt lat="45.72446" lon="4.6106">
        <ele>676</ele>
        <time>2011-10-16T09:38:03Z</time>
      </trkpt>
      <trkpt lat="45.72448" lon="4.61052">
        <ele>677</ele>
        <time>2011-10-16T09:38:04Z</time>
      </trkpt>
      <trkpt lat="45.72448" lon="4.61042">
        <ele>676</ele>
        <time>2011-10-16T09:38:06Z</time>
      </trkpt>
      <trkpt lat="45.7245" lon="4.61031">
        <ele>677</ele>
        <time>2011-10-16T09:38:08Z</time>
      </trkpt>
      <trkpt lat="45.72451" lon="4.61017">
        <ele>676</ele>
        <time>2011-10-16T09:38:10Z</time>
      </trkpt>
      <trkpt lat="45.7245" lon="4.61009">
        <ele>676</ele>
        <time>2011-10-16T09:38:11Z</time>
      </trkpt>
      <trkpt lat="45.72452" lon="4.61002">
        <ele>676</ele>
        <time>2011-10-16T09:38:12Z</time>
      </trkpt>
      <trkpt lat="45.72454" lon="4.60991">
        <ele>676</ele>
        <time>2011-10-16T09:38:14Z</time>
      </trkpt>
      <trkpt lat="45.72454" lon="4.60978">
        <ele>676</ele>
        <time>2011-10-16T09:38:16Z</time>
      </trkpt>
      <trkpt lat="45.7246" lon="4.6097">
        <ele>677</ele>
        <time>2011-10-16T09:38:18Z</time>
      </trkpt>
      <trkpt lat="45.72462" lon="4.60959">
        <ele>677</ele>
        <time>2011-10-16T09:38:20Z</time>
      </trkpt>
      <trkpt lat="45.7246" lon="4.6095">
        <ele>677</ele>
        <time>2011-10-16T09:38:21Z</time>
      </trkpt>
      <trkpt lat="45.7246" lon="4.60943">
        <ele>677</ele>
        <time>2011-10-16T09:38:22Z</time>
      </trkpt>
      <trkpt lat="45.7246" lon="4.60931">
        <ele>677</ele>
        <time>2011-10-16T09:38:24Z</time>
      </trkpt>
      <trkpt lat="45.72461" lon="4.60924">
        <ele>677</ele>
        <time>2011-10-16T09:38:25Z</time>
      </trkpt>
      <trkpt lat="45.72461" lon="4.60916">
        <ele>676</ele>
        <time>2011-10-16T09:38:26Z</time>
      </trkpt>
      <trkpt lat="45.72461" lon="4.6091">
        <ele>676</ele>
        <time>2011-10-16T09:38:27Z</time>
      </trkpt>
      <trkpt lat="45.72464" lon="4.60902">
        <ele>677</ele>
        <time>2011-10-16T09:38:28Z</time>
      </trkpt>
      <trkpt lat="45.72466" lon="4.60891">
        <ele>677</ele>
        <time>2011-10-16T09:38:30Z</time>
      </trkpt>
      <trkpt lat="45.72466" lon="4.60882">
        <ele>677</ele>
        <time>2011-10-16T09:38:32Z</time>
      </trkpt>
      <trkpt lat="45.72468" lon="4.60874">
        <ele>677</ele>
        <time>2011-10-16T09:38:33Z</time>
      </trkpt>
      <trkpt lat="45.72469" lon="4.60867">
        <ele>677</ele>
        <time>2011-10-16T09:38:34Z</time>
      </trkpt>
      <trkpt lat="45.72471" lon="4.60853">
        <ele>678</ele>
        <time>2011-10-16T09:38:36Z</time>
      </trkpt>
      <trkpt lat="45.72467" lon="4.60843">
        <ele>677</ele>
        <time>2011-10-16T09:38:37Z</time>
      </trkpt>
      <trkpt lat="45.72468" lon="4.60832">
        <ele>680</ele>
        <time>2011-10-16T09:38:39Z</time>
      </trkpt>
      <trkpt lat="45.72471" lon="4.6082">
        <ele>681</ele>
        <time>2011-10-16T09:38:41Z</time>
      </trkpt>
      <trkpt lat="45.72472" lon="4.60811">
        <ele>681</ele>
        <time>2011-10-16T09:38:43Z</time>
      </trkpt>
      <trkpt lat="45.72474" lon="4.60803">
        <ele>682</ele>
        <time>2011-10-16T09:38:45Z</time>
      </trkpt>
      <trkpt lat="45.72477" lon="4.60792">
        <ele>682</ele>
        <time>2011-10-16T09:38:47Z</time>
      </trkpt>
      <trkpt lat="45.72472" lon="4.60787">
        <ele>682</ele>
        <time>2011-10-16T09:38:48Z</time>
      </trkpt>
      <trkpt lat="45.72476" lon="4.60784">
        <ele>683</ele>
        <time>2011-10-16T09:38:49Z</time>
      </trkpt>
      <trkpt lat="45.72478" lon="4.60772">
        <ele>684</ele>
        <time>2011-10-16T09:38:51Z</time>
      </trkpt>
      <trkpt lat="45.72475" lon="4.60763">
        <ele>684</ele>
        <time>2011-10-16T09:38:53Z</time>
      </trkpt>
      <trkpt lat="45.72476" lon="4.60755">
        <ele>685</ele>
        <time>2011-10-16T09:38:54Z</time>
      </trkpt>
      <trkpt lat="45.72477" lon="4.60743">
        <ele>694</ele>
        <time>2011-10-16T09:38:56Z</time>
      </trkpt>
      <trkpt lat="45.72475" lon="4.60735">
        <ele>694</ele>
        <time>2011-10-16T09:38:58Z</time>
      </trkpt>
      <trkpt lat="45.72473" lon="4.60728">
        <ele>695</ele>
        <time>2011-10-16T09:39:00Z</time>
      </trkpt>
      <trkpt lat="45.72472" lon="4.60718">
        <ele>695</ele>
        <time>2011-10-16T09:39:02Z</time>
      </trkpt>
      <trkpt lat="45.72467" lon="4.60718">
        <ele>695</ele>
        <time>2011-10-16T09:39:06Z</time>
      </trkpt>
      <trkpt lat="45.72461" lon="4.60724">
        <ele>694</ele>
        <time>2011-10-16T09:39:12Z</time>
      </trkpt>
      <trkpt lat="45.72452" lon="4.60723">
        <ele>694</ele>
        <time>2011-10-16T09:39:14Z</time>
      </trkpt>
      <trkpt lat="45.72444" lon="4.60723">
        <ele>693</ele>
        <time>2011-10-16T09:39:16Z</time>
      </trkpt>
      <trkpt lat="45.72435" lon="4.60722">
        <ele>692</ele>
        <time>2011-10-16T09:39:17Z</time>
      </trkpt>
      <trkpt lat="45.72431" lon="4.60722">
        <ele>692</ele>
        <time>2011-10-16T09:39:18Z</time>
      </trkpt>
      <trkpt lat="45.72422" lon="4.60721">
        <ele>691</ele>
        <time>2011-10-16T09:39:20Z</time>
      </trkpt>
      <trkpt lat="45.72416" lon="4.60721">
        <ele>688</ele>
        <time>2011-10-16T09:39:22Z</time>
      </trkpt>
      <trkpt lat="45.72411" lon="4.60726">
        <ele>687</ele>
        <time>2011-10-16T09:39:23Z</time>
      </trkpt>
      <trkpt lat="45.72406" lon="4.60729">
        <ele>686</ele>
        <time>2011-10-16T09:39:24Z</time>
      </trkpt>
      <trkpt lat="45.72402" lon="4.60732">
        <ele>686</ele>
        <time>2011-10-16T09:39:25Z</time>
      </trkpt>
      <trkpt lat="45.72392" lon="4.60732">
        <ele>686</ele>
        <time>2011-10-16T09:39:27Z</time>
      </trkpt>
      <trkpt lat="45.72386" lon="4.60732">
        <ele>687</ele>
        <time>2011-10-16T09:39:28Z</time>
      </trkpt>
      <trkpt lat="45.72376" lon="4.60729">
        <ele>687</ele>
        <time>2011-10-16T09:39:30Z</time>
      </trkpt>
      <trkpt lat="45.72368" lon="4.6073">
        <ele>687</ele>
        <time>2011-10-16T09:39:32Z</time>
      </trkpt>
      <trkpt lat="45.72364" lon="4.60731">
        <ele>686</ele>
        <time>2011-10-16T09:39:33Z</time>
      </trkpt>
      <trkpt lat="45.72359" lon="4.60731">
        <ele>686</ele>
        <time>2011-10-16T09:39:34Z</time>
      </trkpt>
      <trkpt lat="45.7235" lon="4.6073">
        <ele>685</ele>
        <time>2011-10-16T09:39:37Z</time>
      </trkpt>
      <trkpt lat="45.72345" lon="4.60726">
        <ele>686</ele>
        <time>2011-10-16T09:39:38Z</time>
      </trkpt>
      <trkpt lat="45.72342" lon="4.60721">
        <ele>687</ele>
        <time>2011-10-16T09:39:38Z</time>
      </trkpt>
      <trkpt lat="45.72336" lon="4.6072">
        <ele>687</ele>
        <time>2011-10-16T09:39:40Z</time>
      </trkpt>
      <trkpt lat="45.72326" lon="4.60712">
        <ele>683</ele>
        <time>2011-10-16T09:39:42Z</time>
      </trkpt>
      <trkpt lat="45.72318" lon="4.60709">
        <ele>683</ele>
        <time>2011-10-16T09:39:43Z</time>
      </trkpt>
      <trkpt lat="45.72313" lon="4.60706">
        <ele>683</ele>
        <time>2011-10-16T09:39:44Z</time>
      </trkpt>
      <trkpt lat="45.72308" lon="4.60698">
        <ele>685</ele>
        <time>2011-10-16T09:39:47Z</time>
      </trkpt>
      <trkpt lat="45.72304" lon="4.60693">
        <ele>685</ele>
        <time>2011-10-16T09:39:49Z</time>
      </trkpt>
      <trkpt lat="45.72298" lon="4.60686">
        <ele>685</ele>
        <time>2011-10-16T09:39:52Z</time>
      </trkpt>
      <trkpt lat="45.72292" lon="4.60681">
        <ele>685</ele>
        <time>2011-10-16T09:39:54Z</time>
      </trkpt>
      <trkpt lat="45.72286" lon="4.60678">
        <ele>685</ele>
        <time>2011-10-16T09:39:55Z</time>
      </trkpt>
      <trkpt lat="45.7228" lon="4.60674">
        <ele>685</ele>
        <time>2011-10-16T09:39:57Z</time>
      </trkpt>
      <trkpt lat="45.72274" lon="4.60672">
        <ele>684</ele>
        <time>2011-10-16T09:39:59Z</time>
      </trkpt>
      <trkpt lat="45.72262" lon="4.60666">
        <ele>694</ele>
        <time>2011-10-16T09:40:01Z</time>
      </trkpt>
      <trkpt lat="45.72254" lon="4.60662">
        <ele>691</ele>
        <time>2011-10-16T09:40:03Z</time>
      </trkpt>
      <trkpt lat="45.72249" lon="4.60657">
        <ele>687</ele>
        <time>2011-10-16T09:40:04Z</time>
      </trkpt>
      <trkpt lat="45.72244" lon="4.60651">
        <ele>688</ele>
        <time>2011-10-16T09:40:06Z</time>
      </trkpt>
      <trkpt lat="45.72234" lon="4.60648">
        <ele>687</ele>
        <time>2011-10-16T09:40:08Z</time>
      </trkpt>
      <trkpt lat="45.72231" lon="4.60642">
        <ele>688</ele>
        <time>2011-10-16T09:40:09Z</time>
      </trkpt>
      <trkpt lat="45.72218" lon="4.60632">
        <ele>687</ele>
        <time>2011-10-16T09:40:11Z</time>
      </trkpt>
      <trkpt lat="45.72208" lon="4.60628">
        <ele>686</ele>
        <time>2011-10-16T09:40:12Z</time>
      </trkpt>
      <trkpt lat="45.72203" lon="4.60625">
        <ele>686</ele>
        <time>2011-10-16T09:40:13Z</time>
      </trkpt>
      <trkpt lat="45.72196" lon="4.6062">
        <ele>686</ele>
        <time>2011-10-16T09:40:15Z</time>
      </trkpt>
      <trkpt lat="45.72193" lon="4.60609">
        <ele>686</ele>
        <time>2011-10-16T09:40:17Z</time>
      </trkpt>
      <trkpt lat="45.72184" lon="4.606">
        <ele>685</ele>
        <time>2011-10-16T09:40:19Z</time>
      </trkpt>
      <trkpt lat="45.72179" lon="4.606">
        <ele>684</ele>
        <time>2011-10-16T09:40:20Z</time>
      </trkpt>
      <trkpt lat="45.72174" lon="4.60597">
        <ele>684</ele>
        <time>2011-10-16T09:40:22Z</time>
      </trkpt>
      <trkpt lat="45.72167" lon="4.60587">
        <ele>682</ele>
        <time>2011-10-16T09:40:24Z</time>
      </trkpt>
      <trkpt lat="45.72162" lon="4.6058">
        <ele>679</ele>
        <time>2011-10-16T09:40:26Z</time>
      </trkpt>
      <trkpt lat="45.72159" lon="4.60573">
        <ele>677</ele>
        <time>2011-10-16T09:40:28Z</time>
      </trkpt>
      <trkpt lat="45.72158" lon="4.60564">
        <ele>676</ele>
        <time>2011-10-16T09:40:30Z</time>
      </trkpt>
      <trkpt lat="45.72161" lon="4.60555">
        <ele>676</ele>
        <time>2011-10-16T09:40:32Z</time>
      </trkpt>
      <trkpt lat="45.7216" lon="4.60546">
        <ele>676</ele>
        <time>2011-10-16T09:40:34Z</time>
      </trkpt>
      <trkpt lat="45.72161" lon="4.60539">
        <ele>677</ele>
        <time>2011-10-16T09:40:36Z</time>
      </trkpt>
      <trkpt lat="45.72161" lon="4.6053">
        <ele>678</ele>
        <time>2011-10-16T09:40:37Z</time>
      </trkpt>
      <trkpt lat="45.72156" lon="4.60519">
        <ele>680</ele>
        <time>2011-10-16T09:40:39Z</time>
      </trkpt>
      <trkpt lat="45.72155" lon="4.60512">
        <ele>681</ele>
        <time>2011-10-16T09:40:40Z</time>
      </trkpt>
      <trkpt lat="45.72153" lon="4.60499">
        <ele>685</ele>
        <time>2011-10-16T09:40:42Z</time>
      </trkpt>
      <trkpt lat="45.72152" lon="4.6049">
        <ele>684</ele>
        <time>2011-10-16T09:40:44Z</time>
      </trkpt>
      <trkpt lat="45.72147" lon="4.60487">
        <ele>682</ele>
        <time>2011-10-16T09:40:45Z</time>
      </trkpt>
      <trkpt lat="45.72146" lon="4.60476">
        <ele>681</ele>
        <time>2011-10-16T09:40:47Z</time>
      </trkpt>
      <trkpt lat="45.72145" lon="4.60466">
        <ele>681</ele>
        <time>2011-10-16T09:40:49Z</time>
      </trkpt>
      <trkpt lat="45.72141" lon="4.60461">
        <ele>680</ele>
        <time>2011-10-16T09:40:50Z</time>
      </trkpt>
      <trkpt lat="45.72135" lon="4.60462">
        <ele>679</ele>
        <time>2011-10-16T09:40:51Z</time>
      </trkpt>
      <trkpt lat="45.72129" lon="4.60457">
        <ele>678</ele>
        <time>2011-10-16T09:40:53Z</time>
      </trkpt>
      <trkpt lat="45.72124" lon="4.60449">
        <ele>678</ele>
        <time>2011-10-16T09:40:55Z</time>
      </trkpt>
      <trkpt lat="45.72116" lon="4.6044">
        <ele>676</ele>
        <time>2011-10-16T09:40:57Z</time>
      </trkpt>
      <trkpt lat="45.72114" lon="4.60433">
        <ele>676</ele>
        <time>2011-10-16T09:40:58Z</time>
      </trkpt>
      <trkpt lat="45.7211" lon="4.60425">
        <ele>674</ele>
        <time>2011-10-16T09:40:59Z</time>
      </trkpt>
      <trkpt lat="45.72108" lon="4.60416">
        <ele>675</ele>
        <time>2011-10-16T09:41:00Z</time>
      </trkpt>
      <trkpt lat="45.72107" lon="4.60404">
        <ele>675</ele>
        <time>2011-10-16T09:41:02Z</time>
      </trkpt>
      <trkpt lat="45.72107" lon="4.60395">
        <ele>676</ele>
        <time>2011-10-16T09:41:03Z</time>
      </trkpt>
      <trkpt lat="45.72104" lon="4.60383">
        <ele>676</ele>
        <time>2011-10-16T09:41:04Z</time>
      </trkpt>
      <trkpt lat="45.72104" lon="4.60376">
        <ele>676</ele>
        <time>2011-10-16T09:41:05Z</time>
      </trkpt>
      <trkpt lat="45.72106" lon="4.60364">
        <ele>676</ele>
        <time>2011-10-16T09:41:07Z</time>
      </trkpt>
      <trkpt lat="45.72108" lon="4.60352">
        <ele>676</ele>
        <time>2011-10-16T09:41:09Z</time>
      </trkpt>
      <trkpt lat="45.72111" lon="4.60343">
        <ele>676</ele>
        <time>2011-10-16T09:41:10Z</time>
      </trkpt>
      <trkpt lat="45.72114" lon="4.60332">
        <ele>678</ele>
        <time>2011-10-16T09:41:12Z</time>
      </trkpt>
      <trkpt lat="45.72116" lon="4.60325">
        <ele>679</ele>
        <time>2011-10-16T09:41:13Z</time>
      </trkpt>
      <trkpt lat="45.72119" lon="4.6032">
        <ele>680</ele>
        <time>2011-10-16T09:41:14Z</time>
      </trkpt>
      <trkpt lat="45.72123" lon="4.60309">
        <ele>681</ele>
        <time>2011-10-16T09:41:16Z</time>
      </trkpt>
      <trkpt lat="45.72124" lon="4.60302">
        <ele>681</ele>
        <time>2011-10-16T09:41:17Z</time>
      </trkpt>
      <trkpt lat="45.72124" lon="4.60294">
        <ele>682</ele>
        <time>2011-10-16T09:41:18Z</time>
      </trkpt>
      <trkpt lat="45.72123" lon="4.60287">
        <ele>682</ele>
        <time>2011-10-16T09:41:19Z</time>
      </trkpt>
      <trkpt lat="45.72122" lon="4.6028">
        <ele>681</ele>
        <time>2011-10-16T09:41:20Z</time>
      </trkpt>
      <trkpt lat="45.72122" lon="4.6027">
        <ele>682</ele>
        <time>2011-10-16T09:41:22Z</time>
      </trkpt>
      <trkpt lat="45.72119" lon="4.60258">
        <ele>681</ele>
        <time>2011-10-16T09:41:24Z</time>
      </trkpt>
      <trkpt lat="45.72116" lon="4.60247">
        <ele>687</ele>
        <time>2011-10-16T09:41:25Z</time>
      </trkpt>
      <trkpt lat="45.72112" lon="4.60244">
        <ele>685</ele>
        <time>2011-10-16T09:41:26Z</time>
      </trkpt>
      <trkpt lat="45.72111" lon="4.6023">
        <ele>687</ele>
        <time>2011-10-16T09:41:28Z</time>
      </trkpt>
      <trkpt lat="45.72109" lon="4.60224">
        <ele>687</ele>
        <time>2011-10-16T09:41:29Z</time>
      </trkpt>
      <trkpt lat="45.72106" lon="4.60213">
        <ele>688</ele>
        <time>2011-10-16T09:41:31Z</time>
      </trkpt>
      <trkpt lat="45.72103" lon="4.60206">
        <ele>689</ele>
        <time>2011-10-16T09:41:32Z</time>
      </trkpt>
      <trkpt lat="45.72099" lon="4.60196">
        <ele>689</ele>
        <time>2011-10-16T09:41:34Z</time>
      </trkpt>
      <trkpt lat="45.72096" lon="4.60189">
        <ele>689</ele>
        <time>2011-10-16T09:41:35Z</time>
      </trkpt>
      <trkpt lat="45.72095" lon="4.60181">
        <ele>689</ele>
        <time>2011-10-16T09:41:36Z</time>
      </trkpt>
      <trkpt lat="45.72092" lon="4.60175">
        <ele>688</ele>
        <time>2011-10-16T09:41:37Z</time>
      </trkpt>
      <trkpt lat="45.7209" lon="4.60164">
        <ele>692</ele>
        <time>2011-10-16T09:41:39Z</time>
      </trkpt>
      <trkpt lat="45.72088" lon="4.60156">
        <ele>695</ele>
        <time>2011-10-16T09:41:41Z</time>
      </trkpt>
      <trkpt lat="45.72085" lon="4.60146">
        <ele>699</ele>
        <time>2011-10-16T09:41:43Z</time>
      </trkpt>
      <trkpt lat="45.72084" lon="4.60134">
        <ele>703</ele>
        <time>2011-10-16T09:41:45Z</time>
      </trkpt>
      <trkpt lat="45.72083" lon="4.60128">
        <ele>693</ele>
        <time>2011-10-16T09:41:47Z</time>
      </trkpt>
      <trkpt lat="45.7208" lon="4.60121">
        <ele>695</ele>
        <time>2011-10-16T09:41:49Z</time>
      </trkpt>
      <trkpt lat="45.72071" lon="4.60121">
        <ele>695</ele>
        <time>2011-10-16T09:41:52Z</time>
      </trkpt>
      <trkpt lat="45.72067" lon="4.60124">
        <ele>694</ele>
        <time>2011-10-16T09:41:53Z</time>
      </trkpt>
      <trkpt lat="45.72057" lon="4.60123">
        <ele>693</ele>
        <time>2011-10-16T09:41:55Z</time>
      </trkpt>
      <trkpt lat="45.72052" lon="4.60123">
        <ele>693</ele>
        <time>2011-10-16T09:41:57Z</time>
      </trkpt>
      <trkpt lat="45.72046" lon="4.60122">
        <ele>693</ele>
        <time>2011-10-16T09:41:58Z</time>
      </trkpt>
      <trkpt lat="45.7204" lon="4.6012">
        <ele>693</ele>
        <time>2011-10-16T09:41:59Z</time>
      </trkpt>
      <trkpt lat="45.72036" lon="4.60121">
        <ele>692</ele>
        <time>2011-10-16T09:42:00Z</time>
      </trkpt>
      <trkpt lat="45.7203" lon="4.6012">
        <ele>692</ele>
        <time>2011-10-16T09:42:01Z</time>
      </trkpt>
      <trkpt lat="45.72023" lon="4.60124">
        <ele>691</ele>
        <time>2011-10-16T09:42:03Z</time>
      </trkpt>
      <trkpt lat="45.72017" lon="4.60123">
        <ele>691</ele>
        <time>2011-10-16T09:42:04Z</time>
      </trkpt>
      <trkpt lat="45.72003" lon="4.60125">
        <ele>690</ele>
        <time>2011-10-16T09:42:06Z</time>
      </trkpt>
      <trkpt lat="45.71994" lon="4.60127">
        <ele>683</ele>
        <time>2011-10-16T09:42:08Z</time>
      </trkpt>
      <trkpt lat="45.71988" lon="4.60127">
        <ele>682</ele>
        <time>2011-10-16T09:42:10Z</time>
      </trkpt>
      <trkpt lat="45.71982" lon="4.60127">
        <ele>682</ele>
        <time>2011-10-16T09:42:11Z</time>
      </trkpt>
      <trkpt lat="45.71977" lon="4.60124">
        <ele>683</ele>
        <time>2011-10-16T09:42:12Z</time>
      </trkpt>
      <trkpt lat="45.71972" lon="4.60124">
        <ele>682</ele>
        <time>2011-10-16T09:42:13Z</time>
      </trkpt>
      <trkpt lat="45.71963" lon="4.60121">
        <ele>682</ele>
        <time>2011-10-16T09:42:15Z</time>
      </trkpt>
      <trkpt lat="45.71956" lon="4.60119">
        <ele>682</ele>
        <time>2011-10-16T09:42:16Z</time>
      </trkpt>
      <trkpt lat="45.71949" lon="4.60117">
        <ele>682</ele>
        <time>2011-10-16T09:42:17Z</time>
      </trkpt>
      <trkpt lat="45.71945" lon="4.60117">
        <ele>682</ele>
        <time>2011-10-16T09:42:18Z</time>
      </trkpt>
      <trkpt lat="45.7194" lon="4.60112">
        <ele>682</ele>
        <time>2011-10-16T09:42:19Z</time>
      </trkpt>
      <trkpt lat="45.71936" lon="4.60107">
        <ele>683</ele>
        <time>2011-10-16T09:42:20Z</time>
      </trkpt>
      <trkpt lat="45.71929" lon="4.60104">
        <ele>683</ele>
        <time>2011-10-16T09:42:21Z</time>
      </trkpt>
      <trkpt lat="45.71926" lon="4.60098">
        <ele>684</ele>
        <time>2011-10-16T09:42:22Z</time>
      </trkpt>
      <trkpt lat="45.71919" lon="4.60092">
        <ele>685</ele>
        <time>2011-10-16T09:42:24Z</time>
      </trkpt>
      <trkpt lat="45.71917" lon="4.60086">
        <ele>686</ele>
        <time>2011-10-16T09:42:25Z</time>
      </trkpt>
      <trkpt lat="45.71914" lon="4.60075">
        <ele>682</ele>
        <time>2011-10-16T09:42:27Z</time>
      </trkpt>
      <trkpt lat="45.71914" lon="4.60068">
        <ele>680</ele>
        <time>2011-10-16T09:42:28Z</time>
      </trkpt>
      <trkpt lat="45.71909" lon="4.60058">
        <ele>677</ele>
        <time>2011-10-16T09:42:30Z</time>
      </trkpt>
      <trkpt lat="45.71905" lon="4.60051">
        <ele>676</ele>
        <time>2011-10-16T09:42:31Z</time>
      </trkpt>
      <trkpt lat="45.71903" lon="4.60045">
        <ele>676</ele>
        <time>2011-10-16T09:42:32Z</time>
      </trkpt>
      <trkpt lat="45.71904" lon="4.60037">
        <ele>677</ele>
        <time>2011-10-16T09:42:33Z</time>
      </trkpt>
      <trkpt lat="45.71903" lon="4.60028">
        <ele>678</ele>
        <time>2011-10-16T09:42:34Z</time>
      </trkpt>
      <trkpt lat="45.719" lon="4.60018">
        <ele>679</ele>
        <time>2011-10-16T09:42:35Z</time>
      </trkpt>
      <trkpt lat="45.71895" lon="4.60008">
        <ele>679</ele>
        <time>2011-10-16T09:42:37Z</time>
      </trkpt>
      <trkpt lat="45.71892" lon="4.59997">
        <ele>680</ele>
        <time>2011-10-16T09:42:39Z</time>
      </trkpt>
      <trkpt lat="45.71892" lon="4.59989">
        <ele>680</ele>
        <time>2011-10-16T09:42:40Z</time>
      </trkpt>
      <trkpt lat="45.7189" lon="4.5998">
        <ele>678</ele>
        <time>2011-10-16T09:42:41Z</time>
      </trkpt>
      <trkpt lat="45.71889" lon="4.59974">
        <ele>678</ele>
        <time>2011-10-16T09:42:42Z</time>
      </trkpt>
      <trkpt lat="45.71891" lon="4.59967">
        <ele>678</ele>
        <time>2011-10-16T09:42:44Z</time>
      </trkpt>
      <trkpt lat="45.71892" lon="4.59958">
        <ele>678</ele>
        <time>2011-10-16T09:42:46Z</time>
      </trkpt>
      <trkpt lat="45.7189" lon="4.59952">
        <ele>678</ele>
        <time>2011-10-16T09:42:47Z</time>
      </trkpt>
      <trkpt lat="45.7189" lon="4.59937">
        <ele>679</ele>
        <time>2011-10-16T09:42:49Z</time>
      </trkpt>
      <trkpt lat="45.7189" lon="4.59931">
        <ele>679</ele>
        <time>2011-10-16T09:42:50Z</time>
      </trkpt>
      <trkpt lat="45.71892" lon="4.5992">
        <ele>681</ele>
        <time>2011-10-16T09:42:52Z</time>
      </trkpt>
      <trkpt lat="45.71893" lon="4.59912">
        <ele>681</ele>
        <time>2011-10-16T09:42:53Z</time>
      </trkpt>
      <trkpt lat="45.71894" lon="4.59905">
        <ele>681</ele>
        <time>2011-10-16T09:42:54Z</time>
      </trkpt>
      <trkpt lat="45.71893" lon="4.59894">
        <ele>679</ele>
        <time>2011-10-16T09:42:56Z</time>
      </trkpt>
      <trkpt lat="45.71896" lon="4.59882">
        <ele>679</ele>
        <time>2011-10-16T09:42:58Z</time>
      </trkpt>
      <trkpt lat="45.71896" lon="4.59875">
        <ele>678</ele>
        <time>2011-10-16T09:42:59Z</time>
      </trkpt>
      <trkpt lat="45.71899" lon="4.59866">
        <ele>679</ele>
        <time>2011-10-16T09:43:01Z</time>
      </trkpt>
      <trkpt lat="45.719" lon="4.59857">
        <ele>680</ele>
        <time>2011-10-16T09:43:03Z</time>
      </trkpt>
      <trkpt lat="45.71903" lon="4.59849">
        <ele>681</ele>
        <time>2011-10-16T09:43:04Z</time>
      </trkpt>
      <trkpt lat="45.71903" lon="4.59839">
        <ele>683</ele>
        <time>2011-10-16T09:43:06Z</time>
      </trkpt>
      <trkpt lat="45.71906" lon="4.59832">
        <ele>685</ele>
        <time>2011-10-16T09:43:07Z</time>
      </trkpt>
      <trkpt lat="45.7191" lon="4.59818">
        <ele>683</ele>
        <time>2011-10-16T09:43:09Z</time>
      </trkpt>
      <trkpt lat="45.71913" lon="4.59807">
        <ele>682</ele>
        <time>2011-10-16T09:43:11Z</time>
      </trkpt>
      <trkpt lat="45.71916" lon="4.59796">
        <ele>681</ele>
        <time>2011-10-16T09:43:13Z</time>
      </trkpt>
      <trkpt lat="45.71915" lon="4.59788">
        <ele>681</ele>
        <time>2011-10-16T09:43:14Z</time>
      </trkpt>
      <trkpt lat="45.71915" lon="4.59778">
        <ele>682</ele>
        <time>2011-10-16T09:43:16Z</time>
      </trkpt>
      <trkpt lat="45.71914" lon="4.59768">
        <ele>683</ele>
        <time>2011-10-16T09:43:18Z</time>
      </trkpt>
      <trkpt lat="45.71911" lon="4.59744">
        <ele>687</ele>
        <time>2011-10-16T09:43:20Z</time>
      </trkpt>
      <trkpt lat="45.71908" lon="4.59736">
        <ele>686</ele>
        <time>2011-10-16T09:43:21Z</time>
      </trkpt>
      <trkpt lat="45.71905" lon="4.59725">
        <ele>686</ele>
        <time>2011-10-16T09:43:23Z</time>
      </trkpt>
      <trkpt lat="45.71901" lon="4.59712">
        <ele>686</ele>
        <time>2011-10-16T09:43:25Z</time>
      </trkpt>
      <trkpt lat="45.719" lon="4.59704">
        <ele>686</ele>
        <time>2011-10-16T09:43:26Z</time>
      </trkpt>
      <trkpt lat="45.71896" lon="4.59691">
        <ele>687</ele>
        <time>2011-10-16T09:43:28Z</time>
      </trkpt>
      <trkpt lat="45.719" lon="4.59686">
        <ele>688</ele>
        <time>2011-10-16T09:43:29Z</time>
      </trkpt>
      <trkpt lat="45.71897" lon="4.59679">
        <ele>688</ele>
        <time>2011-10-16T09:43:30Z</time>
      </trkpt>
      <trkpt lat="45.71894" lon="4.59668">
        <ele>688</ele>
        <time>2011-10-16T09:43:32Z</time>
      </trkpt>
      <trkpt lat="45.71891" lon="4.59663">
        <ele>696</ele>
        <time>2011-10-16T09:43:33Z</time>
      </trkpt>
      <trkpt lat="45.71883" lon="4.59652">
        <ele>696</ele>
        <time>2011-10-16T09:43:36Z</time>
      </trkpt>
      <trkpt lat="45.71875" lon="4.59652">
        <ele>695</ele>
        <time>2011-10-16T09:43:37Z</time>
      </trkpt>
      <trkpt lat="45.7187" lon="4.59652">
        <ele>695</ele>
        <time>2011-10-16T09:43:38Z</time>
      </trkpt>
      <trkpt lat="45.71865" lon="4.59652">
        <ele>695</ele>
        <time>2011-10-16T09:43:39Z</time>
      </trkpt>
      <trkpt lat="45.71861" lon="4.59648">
        <ele>695</ele>
        <time>2011-10-16T09:43:40Z</time>
      </trkpt>
      <trkpt lat="45.71856" lon="4.59653">
        <ele>694</ele>
        <time>2011-10-16T09:43:42Z</time>
      </trkpt>
      <trkpt lat="45.71848" lon="4.59655">
        <ele>692</ele>
        <time>2011-10-16T09:43:45Z</time>
      </trkpt>
      <trkpt lat="45.71844" lon="4.59656">
        <ele>691</ele>
        <time>2011-10-16T09:43:46Z</time>
      </trkpt>
      <trkpt lat="45.71837" lon="4.59661">
        <ele>689</ele>
        <time>2011-10-16T09:43:48Z</time>
      </trkpt>
      <trkpt lat="45.7183" lon="4.59662">
        <ele>690</ele>
        <time>2011-10-16T09:43:50Z</time>
      </trkpt>
      <trkpt lat="45.71823" lon="4.59662">
        <ele>693</ele>
        <time>2011-10-16T09:43:52Z</time>
      </trkpt>
      <trkpt lat="45.71822" lon="4.59668">
        <ele>686</ele>
        <time>2011-10-16T09:43:57Z</time>
      </trkpt>
      <trkpt lat="45.71816" lon="4.5967">
        <ele>686</ele>
        <time>2011-10-16T09:43:59Z</time>
      </trkpt>
      <trkpt lat="45.7181" lon="4.59673">
        <ele>686</ele>
        <time>2011-10-16T09:44:02Z</time>
      </trkpt>
      <trkpt lat="45.71804" lon="4.59676">
        <ele>687</ele>
        <time>2011-10-16T09:44:04Z</time>
      </trkpt>
      <trkpt lat="45.71798" lon="4.59677">
        <ele>688</ele>
        <time>2011-10-16T09:44:06Z</time>
      </trkpt>
      <trkpt lat="45.71793" lon="4.59683">
        <ele>688</ele>
        <time>2011-10-16T09:44:08Z</time>
      </trkpt>
      <trkpt lat="45.71787" lon="4.59687">
        <ele>688</ele>
        <time>2011-10-16T09:44:10Z</time>
      </trkpt>
      <trkpt lat="45.71783" lon="4.59691">
        <ele>688</ele>
        <time>2011-10-16T09:44:11Z</time>
      </trkpt>
      <trkpt lat="45.71772" lon="4.59691">
        <ele>690</ele>
        <time>2011-10-16T09:44:13Z</time>
      </trkpt>
      <trkpt lat="45.71767" lon="4.59692">
        <ele>691</ele>
        <time>2011-10-16T09:44:14Z</time>
      </trkpt>
      <trkpt lat="45.71762" lon="4.5969">
        <ele>692</ele>
        <time>2011-10-16T09:44:15Z</time>
      </trkpt>
      <trkpt lat="45.71758" lon="4.59688">
        <ele>694</ele>
        <time>2011-10-16T09:44:16Z</time>
      </trkpt>
      <trkpt lat="45.71753" lon="4.59695">
        <ele>691</ele>
        <time>2011-10-16T09:44:18Z</time>
      </trkpt>
      <trkpt lat="45.71748" lon="4.59697">
        <ele>699</ele>
        <time>2011-10-16T09:44:20Z</time>
      </trkpt>
      <trkpt lat="45.71742" lon="4.59704">
        <ele>697</ele>
        <time>2011-10-16T09:44:23Z</time>
      </trkpt>
      <trkpt lat="45.71738" lon="4.59707">
        <ele>697</ele>
        <time>2011-10-16T09:44:24Z</time>
      </trkpt>
      <trkpt lat="45.71733" lon="4.59712">
        <ele>696</ele>
        <time>2011-10-16T09:44:29Z</time>
      </trkpt>
      <trkpt lat="45.71728" lon="4.59711">
        <ele>696</ele>
        <time>2011-10-16T09:44:31Z</time>
      </trkpt>
      <trkpt lat="45.71725" lon="4.59715">
        <ele>695</ele>
        <time>2011-10-16T09:44:32Z</time>
      </trkpt>
      <trkpt lat="45.71718" lon="4.59719">
        <ele>695</ele>
        <time>2011-10-16T09:44:34Z</time>
      </trkpt>
      <trkpt lat="45.71704" lon="4.59725">
        <ele>695</ele>
        <time>2011-10-16T09:44:36Z</time>
      </trkpt>
      <trkpt lat="45.7169" lon="4.59731">
        <ele>694</ele>
        <time>2011-10-16T09:44:39Z</time>
      </trkpt>
      <trkpt lat="45.71683" lon="4.59734">
        <ele>693</ele>
        <time>2011-10-16T09:44:40Z</time>
      </trkpt>
      <trkpt lat="45.71678" lon="4.5974">
        <ele>691</ele>
        <time>2011-10-16T09:44:42Z</time>
      </trkpt>
      <trkpt lat="45.71671" lon="4.59742">
        <ele>689</ele>
        <time>2011-10-16T09:44:43Z</time>
      </trkpt>
      <trkpt lat="45.71664" lon="4.59745">
        <ele>690</ele>
        <time>2011-10-16T09:44:45Z</time>
      </trkpt>
      <trkpt lat="45.71659" lon="4.59747">
        <ele>692</ele>
        <time>2011-10-16T09:44:46Z</time>
      </trkpt>
      <trkpt lat="45.71651" lon="4.59752">
        <ele>684</ele>
        <time>2011-10-16T09:44:48Z</time>
      </trkpt>
      <trkpt lat="45.71646" lon="4.59754">
        <ele>684</ele>
        <time>2011-10-16T09:44:49Z</time>
      </trkpt>
      <trkpt lat="45.71638" lon="4.59758">
        <ele>684</ele>
        <time>2011-10-16T09:44:51Z</time>
      </trkpt>
      <trkpt lat="45.7163" lon="4.59758">
        <ele>684</ele>
        <time>2011-10-16T09:44:53Z</time>
      </trkpt>
      <trkpt lat="45.71625" lon="4.59759">
        <ele>685</ele>
        <time>2011-10-16T09:44:55Z</time>
      </trkpt>
      <trkpt lat="45.71617" lon="4.59763">
        <ele>685</ele>
        <time>2011-10-16T09:44:57Z</time>
      </trkpt>
      <trkpt lat="45.71613" lon="4.59771">
        <ele>685</ele>
        <time>2011-10-16T09:45:00Z</time>
      </trkpt>
      <trkpt lat="45.71609" lon="4.59777">
        <ele>685</ele>
        <time>2011-10-16T09:45:02Z</time>
      </trkpt>
      <trkpt lat="45.71602" lon="4.59782">
        <ele>685</ele>
        <time>2011-10-16T09:45:04Z</time>
      </trkpt>
      <trkpt lat="45.71597" lon="4.59786">
        <ele>684</ele>
        <time>2011-10-16T09:45:05Z</time>
      </trkpt>
      <trkpt lat="45.71593" lon="4.59788">
        <ele>684</ele>
        <time>2011-10-16T09:45:06Z</time>
      </trkpt>
      <trkpt lat="45.71586" lon="4.59788">
        <ele>684</ele>
        <time>2011-10-16T09:45:07Z</time>
      </trkpt>
      <trkpt lat="45.7158" lon="4.59789">
        <ele>687</ele>
        <time>2011-10-16T09:45:08Z</time>
      </trkpt>
      <trkpt lat="45.71573" lon="4.59795">
        <ele>686</ele>
        <time>2011-10-16T09:45:10Z</time>
      </trkpt>
      <trkpt lat="45.71568" lon="4.59799">
        <ele>685</ele>
        <time>2011-10-16T09:45:11Z</time>
      </trkpt>
      <trkpt lat="45.71563" lon="4.59802">
        <ele>685</ele>
        <time>2011-10-16T09:45:12Z</time>
      </trkpt>
      <trkpt lat="45.71559" lon="4.59808">
        <ele>684</ele>
        <time>2011-10-16T09:45:13Z</time>
      </trkpt>
      <trkpt lat="45.71552" lon="4.59814">
        <ele>683</ele>
        <time>2011-10-16T09:45:15Z</time>
      </trkpt>
      <trkpt lat="45.71548" lon="4.5981">
        <ele>684</ele>
        <time>2011-10-16T09:45:16Z</time>
      </trkpt>
      <trkpt lat="45.71541" lon="4.59809">
        <ele>684</ele>
        <time>2011-10-16T09:45:17Z</time>
      </trkpt>
      <trkpt lat="45.71534" lon="4.59806">
        <ele>684</ele>
        <time>2011-10-16T09:45:18Z</time>
      </trkpt>
      <trkpt lat="45.71528" lon="4.59803">
        <ele>684</ele>
        <time>2011-10-16T09:45:19Z</time>
      </trkpt>
      <trkpt lat="45.71516" lon="4.59796">
        <ele>684</ele>
        <time>2011-10-16T09:45:21Z</time>
      </trkpt>
      <trkpt lat="45.71512" lon="4.5979">
        <ele>685</ele>
        <time>2011-10-16T09:45:22Z</time>
      </trkpt>
      <trkpt lat="45.7151" lon="4.59783">
        <ele>686</ele>
        <time>2011-10-16T09:45:23Z</time>
      </trkpt>
      <trkpt lat="45.71504" lon="4.59772">
        <ele>688</ele>
        <time>2011-10-16T09:45:25Z</time>
      </trkpt>
      <trkpt lat="45.7149" lon="4.59767">
        <ele>680</ele>
        <time>2011-10-16T09:45:26Z</time>
      </trkpt>
      <trkpt lat="45.71483" lon="4.59765">
        <ele>679</ele>
        <time>2011-10-16T09:45:27Z</time>
      </trkpt>
      <trkpt lat="45.71481" lon="4.59758">
        <ele>679</ele>
        <time>2011-10-16T09:45:28Z</time>
      </trkpt>
      <trkpt lat="45.71477" lon="4.59748">
        <ele>689</ele>
        <time>2011-10-16T09:45:30Z</time>
      </trkpt>
      <trkpt lat="45.71472" lon="4.59736">
        <ele>688</ele>
        <time>2011-10-16T09:45:32Z</time>
      </trkpt>
      <trkpt lat="45.71461" lon="4.5973">
        <ele>686</ele>
        <time>2011-10-16T09:45:34Z</time>
      </trkpt>
      <trkpt lat="45.71452" lon="4.59715">
        <ele>686</ele>
        <time>2011-10-16T09:45:36Z</time>
      </trkpt>
      <trkpt lat="45.71436" lon="4.59712">
        <ele>684</ele>
        <time>2011-10-16T09:45:37Z</time>
      </trkpt>
      <trkpt lat="45.71438" lon="4.59703">
        <ele>685</ele>
        <time>2011-10-16T09:45:39Z</time>
      </trkpt>
      <trkpt lat="45.71437" lon="4.59694">
        <ele>686</ele>
        <time>2011-10-16T09:45:41Z</time>
      </trkpt>
      <trkpt lat="45.71433" lon="4.59689">
        <ele>685</ele>
        <time>2011-10-16T09:45:42Z</time>
      </trkpt>
      <trkpt lat="45.71432" lon="4.59679">
        <ele>685</ele>
        <time>2011-10-16T09:45:44Z</time>
      </trkpt>
      <trkpt lat="45.71431" lon="4.59672">
        <ele>684</ele>
        <time>2011-10-16T09:45:45Z</time>
      </trkpt>
      <trkpt lat="45.71428" lon="4.5966">
        <ele>688</ele>
        <time>2011-10-16T09:45:47Z</time>
      </trkpt>
      <trkpt lat="45.71426" lon="4.5965">
        <ele>690</ele>
        <time>2011-10-16T09:45:49Z</time>
      </trkpt>
      <trkpt lat="45.71421" lon="4.59637">
        <ele>692</ele>
        <time>2011-10-16T09:45:51Z</time>
      </trkpt>
      <trkpt lat="45.71418" lon="4.59625">
        <ele>693</ele>
        <time>2011-10-16T09:45:53Z</time>
      </trkpt>
      <trkpt lat="45.71418" lon="4.59612">
        <ele>692</ele>
        <time>2011-10-16T09:45:55Z</time>
      </trkpt>
      <trkpt lat="45.71417" lon="4.59605">
        <ele>691</ele>
        <time>2011-10-16T09:45:56Z</time>
      </trkpt>
      <trkpt lat="45.71417" lon="4.59598">
        <ele>689</ele>
        <time>2011-10-16T09:45:57Z</time>
      </trkpt>
      <trkpt lat="45.71415" lon="4.59588">
        <ele>679</ele>
        <time>2011-10-16T09:45:59Z</time>
      </trkpt>
      <trkpt lat="45.71413" lon="4.59582">
        <ele>679</ele>
        <time>2011-10-16T09:46:00Z</time>
      </trkpt>
      <trkpt lat="45.71414" lon="4.59571">
        <ele>675</ele>
        <time>2011-10-16T09:46:02Z</time>
      </trkpt>
      <trkpt lat="45.71417" lon="4.5956">
        <ele>693</ele>
        <time>2011-10-16T09:46:04Z</time>
      </trkpt>
      <trkpt lat="45.71415" lon="4.59548">
        <ele>670</ele>
        <time>2011-10-16T09:46:06Z</time>
      </trkpt>
      <trkpt lat="45.71416" lon="4.59534">
        <ele>671</ele>
        <time>2011-10-16T09:46:08Z</time>
      </trkpt>
      <trkpt lat="45.71418" lon="4.59528">
        <ele>695</ele>
        <time>2011-10-16T09:46:09Z</time>
      </trkpt>
      <trkpt lat="45.7142" lon="4.59522">
        <ele>694</ele>
        <time>2011-10-16T09:46:10Z</time>
      </trkpt>
      <trkpt lat="45.71422" lon="4.59509">
        <ele>690</ele>
        <time>2011-10-16T09:46:12Z</time>
      </trkpt>
      <trkpt lat="45.71421" lon="4.595">
        <ele>687</ele>
        <time>2011-10-16T09:46:14Z</time>
      </trkpt>
      <trkpt lat="45.71421" lon="4.59487">
        <ele>692</ele>
        <time>2011-10-16T09:46:16Z</time>
      </trkpt>
      <trkpt lat="45.71421" lon="4.59478">
        <ele>695</ele>
        <time>2011-10-16T09:46:17Z</time>
      </trkpt>
      <trkpt lat="45.71422" lon="4.5947">
        <ele>697</ele>
        <time>2011-10-16T09:46:18Z</time>
      </trkpt>
      <trkpt lat="45.71422" lon="4.59463">
        <ele>697</ele>
        <time>2011-10-16T09:46:19Z</time>
      </trkpt>
      <trkpt lat="45.71419" lon="4.59458">
        <ele>697</ele>
        <time>2011-10-16T09:46:20Z</time>
      </trkpt>
      <trkpt lat="45.71418" lon="4.59451">
        <ele>697</ele>
        <time>2011-10-16T09:46:21Z</time>
      </trkpt>
      <trkpt lat="45.7142" lon="4.59441">
        <ele>696</ele>
        <time>2011-10-16T09:46:23Z</time>
      </trkpt>
      <trkpt lat="45.71422" lon="4.59431">
        <ele>694</ele>
        <time>2011-10-16T09:46:25Z</time>
      </trkpt>
      <trkpt lat="45.71423" lon="4.59419">
        <ele>690</ele>
        <time>2011-10-16T09:46:27Z</time>
      </trkpt>
      <trkpt lat="45.71422" lon="4.59411">
        <ele>691</ele>
        <time>2011-10-16T09:46:28Z</time>
      </trkpt>
      <trkpt lat="45.71422" lon="4.59404">
        <ele>694</ele>
        <time>2011-10-16T09:46:29Z</time>
      </trkpt>
      <trkpt lat="45.7142" lon="4.59395">
        <ele>696</ele>
        <time>2011-10-16T09:46:30Z</time>
      </trkpt>
      <trkpt lat="45.7142" lon="4.5938">
        <ele>698</ele>
        <time>2011-10-16T09:46:32Z</time>
      </trkpt>
      <trkpt lat="45.7142" lon="4.59368">
        <ele>698</ele>
        <time>2011-10-16T09:46:33Z</time>
      </trkpt>
      <trkpt lat="45.71419" lon="4.59361">
        <ele>697</ele>
        <time>2011-10-16T09:46:34Z</time>
      </trkpt>
      <trkpt lat="45.7142" lon="4.59349">
        <ele>694</ele>
        <time>2011-10-16T09:46:36Z</time>
      </trkpt>
      <trkpt lat="45.7142" lon="4.59342">
        <ele>692</ele>
        <time>2011-10-16T09:46:37Z</time>
      </trkpt>
      <trkpt lat="45.7142" lon="4.59336">
        <ele>689</ele>
        <time>2011-10-16T09:46:38Z</time>
      </trkpt>
      <trkpt lat="45.71416" lon="4.59329">
        <ele>683</ele>
        <time>2011-10-16T09:46:38Z</time>
      </trkpt>
      <trkpt lat="45.71417" lon="4.59317">
        <ele>694</ele>
        <time>2011-10-16T09:46:40Z</time>
      </trkpt>
      <trkpt lat="45.71416" lon="4.59306">
        <ele>677</ele>
        <time>2011-10-16T09:46:42Z</time>
      </trkpt>
      <trkpt lat="45.71416" lon="4.59296">
        <ele>677</ele>
        <time>2011-10-16T09:46:44Z</time>
      </trkpt>
      <trkpt lat="45.71417" lon="4.59285">
        <ele>697</ele>
        <time>2011-10-16T09:46:46Z</time>
      </trkpt>
      <trkpt lat="45.7142" lon="4.59276">
        <ele>696</ele>
        <time>2011-10-16T09:46:48Z</time>
      </trkpt>
      <trkpt lat="45.71422" lon="4.59265">
        <ele>694</ele>
        <time>2011-10-16T09:46:50Z</time>
      </trkpt>
      <trkpt lat="45.71422" lon="4.59253">
        <ele>691</ele>
        <time>2011-10-16T09:46:52Z</time>
      </trkpt>
      <trkpt lat="45.71423" lon="4.59243">
        <ele>692</ele>
        <time>2011-10-16T09:46:54Z</time>
      </trkpt>
      <trkpt lat="45.71422" lon="4.59232">
        <ele>695</ele>
        <time>2011-10-16T09:46:56Z</time>
      </trkpt>
      <trkpt lat="45.71424" lon="4.5922">
        <ele>697</ele>
        <time>2011-10-16T09:46:58Z</time>
      </trkpt>
      <trkpt lat="45.71421" lon="4.59214">
        <ele>697</ele>
        <time>2011-10-16T09:46:59Z</time>
      </trkpt>
      <trkpt lat="45.7142" lon="4.59206">
        <ele>698</ele>
        <time>2011-10-16T09:47:01Z</time>
      </trkpt>
      <trkpt lat="45.71421" lon="4.59196">
        <ele>698</ele>
        <time>2011-10-16T09:47:03Z</time>
      </trkpt>
      <trkpt lat="45.71417" lon="4.59184">
        <ele>696</ele>
        <time>2011-10-16T09:47:05Z</time>
      </trkpt>
      <trkpt lat="45.71409" lon="4.59178">
        <ele>687</ele>
        <time>2011-10-16T09:47:07Z</time>
      </trkpt>
      <trkpt lat="45.71404" lon="4.59172">
        <ele>687</ele>
        <time>2011-10-16T09:47:09Z</time>
      </trkpt>
      <trkpt lat="45.714" lon="4.59166">
        <ele>695</ele>
        <time>2011-10-16T09:47:11Z</time>
      </trkpt>
      <trkpt lat="45.71395" lon="4.59161">
        <ele>696</ele>
        <time>2011-10-16T09:47:13Z</time>
      </trkpt>
      <trkpt lat="45.71391" lon="4.59156">
        <ele>696</ele>
        <time>2011-10-16T09:47:15Z</time>
      </trkpt>
      <trkpt lat="45.71382" lon="4.59151">
        <ele>697</ele>
        <time>2011-10-16T09:47:18Z</time>
      </trkpt>
      <trkpt lat="45.7138" lon="4.59145">
        <ele>697</ele>
        <time>2011-10-16T09:47:20Z</time>
      </trkpt>
      <trkpt lat="45.71377" lon="4.59138">
        <ele>698</ele>
        <time>2011-10-16T09:47:22Z</time>
      </trkpt>
      <trkpt lat="45.71374" lon="4.59132">
        <ele>699</ele>
        <time>2011-10-16T09:47:24Z</time>
      </trkpt>
      <trkpt lat="45.71371" lon="4.59126">
        <ele>700</ele>
        <time>2011-10-16T09:47:26Z</time>
      </trkpt>
      <trkpt lat="45.71366" lon="4.59123">
        <ele>700</ele>
        <time>2011-10-16T09:47:29Z</time>
      </trkpt>
      <trkpt lat="45.7136" lon="4.5912">
        <ele>700</ele>
        <time>2011-10-16T09:47:32Z</time>
      </trkpt>
      <trkpt lat="45.71352" lon="4.59119">
        <ele>701</ele>
        <time>2011-10-16T09:47:36Z</time>
      </trkpt>
      <trkpt lat="45.71343" lon="4.59116">
        <ele>701</ele>
        <time>2011-10-16T09:47:37Z</time>
      </trkpt>
      <trkpt lat="45.71338" lon="4.59118">
        <ele>701</ele>
        <time>2011-10-16T09:47:39Z</time>
      </trkpt>
      <trkpt lat="45.71333" lon="4.59118">
        <ele>701</ele>
        <time>2011-10-16T09:47:44Z</time>
      </trkpt>
      <trkpt lat="45.71327" lon="4.59117">
        <ele>701</ele>
        <time>2011-10-16T09:47:47Z</time>
      </trkpt>
      <trkpt lat="45.71322" lon="4.59116">
        <ele>702</ele>
        <time>2011-10-16T09:47:50Z</time>
      </trkpt>
      <trkpt lat="45.71318" lon="4.59119">
        <ele>701</ele>
        <time>2011-10-16T09:47:54Z</time>
      </trkpt>
      <trkpt lat="45.71313" lon="4.59118">
        <ele>701</ele>
        <time>2011-10-16T09:47:58Z</time>
      </trkpt>
      <trkpt lat="45.7131" lon="4.59111">
        <ele>703</ele>
        <time>2011-10-16T09:48:02Z</time>
      </trkpt>
      <trkpt lat="45.71304" lon="4.59115">
        <ele>702</ele>
        <time>2011-10-16T09:48:05Z</time>
      </trkpt>
      <trkpt lat="45.713" lon="4.59119">
        <ele>701</ele>
        <time>2011-10-16T09:48:07Z</time>
      </trkpt>
      <trkpt lat="45.71295" lon="4.59122">
        <ele>701</ele>
        <time>2011-10-16T09:48:09Z</time>
      </trkpt>
      <trkpt lat="45.7129" lon="4.59124">
        <ele>701</ele>
        <time>2011-10-16T09:50:17Z</time>
      </trkpt>
      <trkpt lat="45.71286" lon="4.59123">
        <ele>701</ele>
        <time>2011-10-16T09:50:25Z</time>
      </trkpt>
      <trkpt lat="45.7128" lon="4.59126">
        <ele>701</ele>
        <time>2011-10-16T09:51:00Z</time>
      </trkpt>
      <trkpt lat="45.71276" lon="4.59128">
        <ele>701</ele>
        <time>2011-10-16T09:51:02Z</time>
      </trkpt>
      <trkpt lat="45.7127" lon="4.59129">
        <ele>701</ele>
        <time>2011-10-16T09:51:03Z</time>
      </trkpt>
      <trkpt lat="45.71262" lon="4.59132">
        <ele>700</ele>
        <time>2011-10-16T09:51:05Z</time>
      </trkpt>
      <trkpt lat="45.71255" lon="4.59136">
        <ele>699</ele>
        <time>2011-10-16T09:51:07Z</time>
      </trkpt>
      <trkpt lat="45.7125" lon="4.59138">
        <ele>706</ele>
        <time>2011-10-16T09:51:08Z</time>
      </trkpt>
      <trkpt lat="45.71245" lon="4.59141">
        <ele>705</ele>
        <time>2011-10-16T09:51:09Z</time>
      </trkpt>
      <trkpt lat="45.71239" lon="4.59146">
        <ele>704</ele>
        <time>2011-10-16T09:51:11Z</time>
      </trkpt>
      <trkpt lat="45.71235" lon="4.59149">
        <ele>704</ele>
        <time>2011-10-16T09:51:12Z</time>
      </trkpt>
      <trkpt lat="45.71227" lon="4.59152">
        <ele>705</ele>
        <time>2011-10-16T09:51:14Z</time>
      </trkpt>
      <trkpt lat="45.71218" lon="4.59156">
        <ele>707</ele>
        <time>2011-10-16T09:51:16Z</time>
      </trkpt>
      <trkpt lat="45.71213" lon="4.59157">
        <ele>707</ele>
        <time>2011-10-16T09:51:17Z</time>
      </trkpt>
      <trkpt lat="45.71208" lon="4.59161">
        <ele>708</ele>
        <time>2011-10-16T09:51:18Z</time>
      </trkpt>
      <trkpt lat="45.71199" lon="4.59168">
        <ele>692</ele>
        <time>2011-10-16T09:51:20Z</time>
      </trkpt>
      <trkpt lat="45.71189" lon="4.59172">
        <ele>694</ele>
        <time>2011-10-16T09:51:22Z</time>
      </trkpt>
      <trkpt lat="45.71184" lon="4.59177">
        <ele>695</ele>
        <time>2011-10-16T09:51:23Z</time>
      </trkpt>
      <trkpt lat="45.71179" lon="4.59183">
        <ele>695</ele>
        <time>2011-10-16T09:51:25Z</time>
      </trkpt>
      <trkpt lat="45.71172" lon="4.59188">
        <ele>694</ele>
        <time>2011-10-16T09:51:27Z</time>
      </trkpt>
      <trkpt lat="45.71167" lon="4.59192">
        <ele>693</ele>
        <time>2011-10-16T09:51:29Z</time>
      </trkpt>
      <trkpt lat="45.71164" lon="4.59198">
        <ele>693</ele>
        <time>2011-10-16T09:51:30Z</time>
      </trkpt>
      <trkpt lat="45.7116" lon="4.59201">
        <ele>692</ele>
        <time>2011-10-16T09:51:32Z</time>
      </trkpt>
      <trkpt lat="45.71156" lon="4.59208">
        <ele>690</ele>
        <time>2011-10-16T09:51:34Z</time>
      </trkpt>
      <trkpt lat="45.71151" lon="4.59216">
        <ele>688</ele>
        <time>2011-10-16T09:51:36Z</time>
      </trkpt>
      <trkpt lat="45.71138" lon="4.59217">
        <ele>687</ele>
        <time>2011-10-16T09:51:37Z</time>
      </trkpt>
      <trkpt lat="45.71134" lon="4.59224">
        <ele>686</ele>
        <time>2011-10-16T09:51:39Z</time>
      </trkpt>
      <trkpt lat="45.7113" lon="4.5923">
        <ele>685</ele>
        <time>2011-10-16T09:51:40Z</time>
      </trkpt>
      <trkpt lat="45.71122" lon="4.59237">
        <ele>684</ele>
        <time>2011-10-16T09:51:41Z</time>
      </trkpt>
      <trkpt lat="45.71115" lon="4.5924">
        <ele>683</ele>
        <time>2011-10-16T09:51:42Z</time>
      </trkpt>
      <trkpt lat="45.71107" lon="4.59237">
        <ele>682</ele>
        <time>2011-10-16T09:51:43Z</time>
      </trkpt>
      <trkpt lat="45.71101" lon="4.59233">
        <ele>682</ele>
        <time>2011-10-16T09:51:44Z</time>
      </trkpt>
      <trkpt lat="45.71094" lon="4.59225">
        <ele>683</ele>
        <time>2011-10-16T09:51:45Z</time>
      </trkpt>
      <trkpt lat="45.71089" lon="4.59216">
        <ele>684</ele>
        <time>2011-10-16T09:51:46Z</time>
      </trkpt>
      <trkpt lat="45.71084" lon="4.59209">
        <ele>686</ele>
        <time>2011-10-16T09:51:47Z</time>
      </trkpt>
      <trkpt lat="45.71078" lon="4.59204">
        <ele>677</ele>
        <time>2011-10-16T09:51:48Z</time>
      </trkpt>
      <trkpt lat="45.71073" lon="4.59196">
        <ele>678</ele>
        <time>2011-10-16T09:51:49Z</time>
      </trkpt>
      <trkpt lat="45.71069" lon="4.59191">
        <ele>679</ele>
        <time>2011-10-16T09:51:50Z</time>
      </trkpt>
      <trkpt lat="45.7106" lon="4.59184">
        <ele>679</ele>
        <time>2011-10-16T09:51:51Z</time>
      </trkpt>
      <trkpt lat="45.71052" lon="4.59179">
        <ele>677</ele>
        <time>2011-10-16T09:51:52Z</time>
      </trkpt>
      <trkpt lat="45.71042" lon="4.59172">
        <ele>676</ele>
        <time>2011-10-16T09:51:53Z</time>
      </trkpt>
      <trkpt lat="45.71031" lon="4.59165">
        <ele>691</ele>
        <time>2011-10-16T09:51:54Z</time>
      </trkpt>
      <trkpt lat="45.71024" lon="4.59157">
        <ele>690</ele>
        <time>2011-10-16T09:51:55Z</time>
      </trkpt>
      <trkpt lat="45.71021" lon="4.5915">
        <ele>691</ele>
        <time>2011-10-16T09:51:56Z</time>
      </trkpt>
      <trkpt lat="45.71014" lon="4.59145">
        <ele>690</ele>
        <time>2011-10-16T09:51:57Z</time>
      </trkpt>
      <trkpt lat="45.71009" lon="4.59137">
        <ele>692</ele>
        <time>2011-10-16T09:51:58Z</time>
      </trkpt>
      <trkpt lat="45.71001" lon="4.59134">
        <ele>693</ele>
        <time>2011-10-16T09:52:00Z</time>
      </trkpt>
      <trkpt lat="45.70996" lon="4.59128">
        <ele>687</ele>
        <time>2011-10-16T09:52:02Z</time>
      </trkpt>
      <trkpt lat="45.70991" lon="4.59119">
        <ele>689</ele>
        <time>2011-10-16T09:52:05Z</time>
      </trkpt>
      <trkpt lat="45.70985" lon="4.59113">
        <ele>690</ele>
        <time>2011-10-16T09:52:07Z</time>
      </trkpt>
      <trkpt lat="45.70981" lon="4.59108">
        <ele>691</ele>
        <time>2011-10-16T09:52:09Z</time>
      </trkpt>
      <trkpt lat="45.70978" lon="4.59103">
        <ele>692</ele>
        <time>2011-10-16T09:52:10Z</time>
      </trkpt>
      <trkpt lat="45.70973" lon="4.591">
        <ele>692</ele>
        <time>2011-10-16T09:52:12Z</time>
      </trkpt>
      <trkpt lat="45.7097" lon="4.59094">
        <ele>692</ele>
        <time>2011-10-16T09:52:14Z</time>
      </trkpt>
      <trkpt lat="45.70963" lon="4.5909">
        <ele>691</ele>
        <time>2011-10-16T09:52:16Z</time>
      </trkpt>
      <trkpt lat="45.70957" lon="4.59083">
        <ele>702</ele>
        <time>2011-10-16T09:52:18Z</time>
      </trkpt>
      <trkpt lat="45.70953" lon="4.59075">
        <ele>701</ele>
        <time>2011-10-16T09:52:20Z</time>
      </trkpt>
      <trkpt lat="45.7095" lon="4.59069">
        <ele>701</ele>
        <time>2011-10-16T09:52:21Z</time>
      </trkpt>
      <trkpt lat="45.70947" lon="4.59063">
        <ele>701</ele>
        <time>2011-10-16T09:52:23Z</time>
      </trkpt>
      <trkpt lat="45.70944" lon="4.59056">
        <ele>702</ele>
        <time>2011-10-16T09:52:24Z</time>
      </trkpt>
      <trkpt lat="45.70937" lon="4.59054">
        <ele>701</ele>
        <time>2011-10-16T09:52:26Z</time>
      </trkpt>
      <trkpt lat="45.70934" lon="4.59046">
        <ele>702</ele>
        <time>2011-10-16T09:52:27Z</time>
      </trkpt>
      <trkpt lat="45.70928" lon="4.59041">
        <ele>702</ele>
        <time>2011-10-16T09:52:28Z</time>
      </trkpt>
      <trkpt lat="45.7092" lon="4.59035">
        <ele>702</ele>
        <time>2011-10-16T09:52:30Z</time>
      </trkpt>
      <trkpt lat="45.70915" lon="4.59029">
        <ele>699</ele>
        <time>2011-10-16T09:52:33Z</time>
      </trkpt>
      <trkpt lat="45.70909" lon="4.59023">
        <ele>699</ele>
        <time>2011-10-16T09:52:36Z</time>
      </trkpt>
      <trkpt lat="45.70903" lon="4.59015">
        <ele>700</ele>
        <time>2011-10-16T09:52:37Z</time>
      </trkpt>
      <trkpt lat="45.70897" lon="4.5901">
        <ele>700</ele>
        <time>2011-10-16T09:52:41Z</time>
      </trkpt>
      <trkpt lat="45.70894" lon="4.59002">
        <ele>700</ele>
        <time>2011-10-16T09:52:43Z</time>
      </trkpt>
      <trkpt lat="45.70892" lon="4.58996">
        <ele>704</ele>
        <time>2011-10-16T09:52:45Z</time>
      </trkpt>
      <trkpt lat="45.70885" lon="4.58991">
        <ele>704</ele>
        <time>2011-10-16T09:52:48Z</time>
      </trkpt>
      <trkpt lat="45.7088" lon="4.5899">
        <ele>704</ele>
        <time>2011-10-16T09:52:50Z</time>
      </trkpt>
      <trkpt lat="45.70875" lon="4.58991">
        <ele>703</ele>
        <time>2011-10-16T09:52:51Z</time>
      </trkpt>
      <trkpt lat="45.70872" lon="4.58983">
        <ele>703</ele>
        <time>2011-10-16T09:52:54Z</time>
      </trkpt>
      <trkpt lat="45.7087" lon="4.58977">
        <ele>704</ele>
        <time>2011-10-16T09:52:56Z</time>
      </trkpt>
      <trkpt lat="45.70866" lon="4.58971">
        <ele>704</ele>
        <time>2011-10-16T09:53:00Z</time>
      </trkpt>
      <trkpt lat="45.70861" lon="4.58969">
        <ele>703</ele>
        <time>2011-10-16T09:53:03Z</time>
      </trkpt>
      <trkpt lat="45.70857" lon="4.58964">
        <ele>703</ele>
        <time>2011-10-16T09:53:06Z</time>
      </trkpt>
      <trkpt lat="45.70851" lon="4.58961">
        <ele>703</ele>
        <time>2011-10-16T09:53:09Z</time>
      </trkpt>
      <trkpt lat="45.70845" lon="4.58959">
        <ele>703</ele>
        <time>2011-10-16T09:53:11Z</time>
      </trkpt>
      <trkpt lat="45.70841" lon="4.58952">
        <ele>703</ele>
        <time>2011-10-16T09:53:14Z</time>
      </trkpt>
      <trkpt lat="45.70836" lon="4.58952">
        <ele>703</ele>
        <time>2011-10-16T09:53:19Z</time>
      </trkpt>
      <trkpt lat="45.70835" lon="4.58959">
        <ele>703</ele>
        <time>2011-10-16T09:53:22Z</time>
      </trkpt>
      <trkpt lat="45.70831" lon="4.58964">
        <ele>703</ele>
        <time>2011-10-16T09:53:26Z</time>
      </trkpt>
      <trkpt lat="45.70826" lon="4.58968">
        <ele>703</ele>
        <time>2011-10-16T09:53:29Z</time>
      </trkpt>
      <trkpt lat="45.70821" lon="4.58963">
        <ele>703</ele>
        <time>2011-10-16T09:53:32Z</time>
      </trkpt>
      <trkpt lat="45.70812" lon="4.58962">
        <ele>704</ele>
        <time>2011-10-16T09:53:37Z</time>
      </trkpt>
      <trkpt lat="45.70808" lon="4.58957">
        <ele>704</ele>
        <time>2011-10-16T09:53:41Z</time>
      </trkpt>
      <trkpt lat="45.70804" lon="4.58958">
        <ele>704</ele>
        <time>2011-10-16T09:53:45Z</time>
      </trkpt>
      <trkpt lat="45.70801" lon="4.58965">
        <ele>704</ele>
        <time>2011-10-16T09:53:49Z</time>
      </trkpt>
      <trkpt lat="45.70806" lon="4.5897">
        <ele>704</ele>
        <time>2011-10-16T09:53:54Z</time>
      </trkpt>
      <trkpt lat="45.70807" lon="4.58977">
        <ele>704</ele>
        <time>2011-10-16T09:53:58Z</time>
      </trkpt>
      <trkpt lat="45.7081" lon="4.58984">
        <ele>703</ele>
        <time>2011-10-16T09:54:03Z</time>
      </trkpt>
      <trkpt lat="45.70812" lon="4.5899">
        <ele>703</ele>
        <time>2011-10-16T09:54:07Z</time>
      </trkpt>
      <trkpt lat="45.70815" lon="4.58996">
        <ele>702</ele>
        <time>2011-10-16T09:54:12Z</time>
      </trkpt>
      <trkpt lat="45.70816" lon="4.59003">
        <ele>704</ele>
        <time>2011-10-16T09:54:15Z</time>
      </trkpt>
      <trkpt lat="45.70818" lon="4.5901">
        <ele>704</ele>
        <time>2011-10-16T09:54:19Z</time>
      </trkpt>
      <trkpt lat="45.70819" lon="4.59018">
        <ele>705</ele>
        <time>2011-10-16T09:54:20Z</time>
      </trkpt>
      <trkpt lat="45.70822" lon="4.59024">
        <ele>705</ele>
        <time>2011-10-16T09:54:22Z</time>
      </trkpt>
      <trkpt lat="45.70825" lon="4.5903">
        <ele>705</ele>
        <time>2011-10-16T09:54:27Z</time>
      </trkpt>
      <trkpt lat="45.70827" lon="4.59038">
        <ele>706</ele>
        <time>2011-10-16T09:54:32Z</time>
      </trkpt>
      <trkpt lat="45.70821" lon="4.59038">
        <ele>706</ele>
        <time>2011-10-16T09:54:38Z</time>
      </trkpt>
      <trkpt lat="45.70817" lon="4.59035">
        <ele>706</ele>
        <time>2011-10-16T09:54:41Z</time>
      </trkpt>
      <trkpt lat="45.70812" lon="4.59032">
        <ele>706</ele>
        <time>2011-10-16T09:54:46Z</time>
      </trkpt>
      <trkpt lat="45.70806" lon="4.59028">
        <ele>707</ele>
        <time>2011-10-16T09:54:50Z</time>
      </trkpt>
      <trkpt lat="45.70802" lon="4.59027">
        <ele>707</ele>
        <time>2011-10-16T09:54:52Z</time>
      </trkpt>
      <trkpt lat="45.70797" lon="4.59028">
        <ele>707</ele>
        <time>2011-10-16T09:54:55Z</time>
      </trkpt>
      <trkpt lat="45.70791" lon="4.59032">
        <ele>708</ele>
        <time>2011-10-16T09:54:58Z</time>
      </trkpt>
      <trkpt lat="45.70786" lon="4.59031">
        <ele>708</ele>
        <time>2011-10-16T09:55:02Z</time>
      </trkpt>
      <trkpt lat="45.70781" lon="4.59032">
        <ele>709</ele>
        <time>2011-10-16T09:55:06Z</time>
      </trkpt>
      <trkpt lat="45.70776" lon="4.59038">
        <ele>709</ele>
        <time>2011-10-16T09:55:09Z</time>
      </trkpt>
      <trkpt lat="45.70775" lon="4.59044">
        <ele>709</ele>
        <time>2011-10-16T09:55:11Z</time>
      </trkpt>
      <trkpt lat="45.70769" lon="4.59046">
        <ele>710</ele>
        <time>2011-10-16T09:55:15Z</time>
      </trkpt>
      <trkpt lat="45.70764" lon="4.59048">
        <ele>710</ele>
        <time>2011-10-16T09:55:18Z</time>
      </trkpt>
      <trkpt lat="45.70766" lon="4.59054">
        <ele>710</ele>
        <time>2011-10-16T09:55:20Z</time>
      </trkpt>
      <trkpt lat="45.70772" lon="4.59056">
        <ele>710</ele>
        <time>2011-10-16T09:55:22Z</time>
      </trkpt>
      <trkpt lat="45.70778" lon="4.5906">
        <ele>710</ele>
        <time>2011-10-16T09:55:24Z</time>
      </trkpt>
      <trkpt lat="45.70783" lon="4.59064">
        <ele>709</ele>
        <time>2011-10-16T09:55:37Z</time>
      </trkpt>
      <trkpt lat="45.70782" lon="4.59071">
        <ele>710</ele>
        <time>2011-10-16T09:57:42Z</time>
      </trkpt>
      <trkpt lat="45.70778" lon="4.59077">
        <ele>710</ele>
        <time>2011-10-16T09:59:24Z</time>
      </trkpt>
      <trkpt lat="45.70774" lon="4.59081">
        <ele>711</ele>
        <time>2011-10-16T09:59:26Z</time>
      </trkpt>
      <trkpt lat="45.7077" lon="4.59087">
        <ele>711</ele>
        <time>2011-10-16T09:59:29Z</time>
      </trkpt>
      <trkpt lat="45.70766" lon="4.59092">
        <ele>711</ele>
        <time>2011-10-16T09:59:31Z</time>
      </trkpt>
      <trkpt lat="45.7077" lon="4.59098">
        <ele>710</ele>
        <time>2011-10-16T09:59:32Z</time>
      </trkpt>
      <trkpt lat="45.70764" lon="4.59106">
        <ele>710</ele>
        <time>2011-10-16T09:59:34Z</time>
      </trkpt>
      <trkpt lat="45.70756" lon="4.59111">
        <ele>709</ele>
        <time>2011-10-16T09:59:37Z</time>
      </trkpt>
      <trkpt lat="45.70749" lon="4.59116">
        <ele>715</ele>
        <time>2011-10-16T09:59:39Z</time>
      </trkpt>
      <trkpt lat="45.70743" lon="4.5912">
        <ele>715</ele>
        <time>2011-10-16T09:59:41Z</time>
      </trkpt>
      <trkpt lat="45.70737" lon="4.59124">
        <ele>715</ele>
        <time>2011-10-16T09:59:43Z</time>
      </trkpt>
      <trkpt lat="45.70732" lon="4.59127">
        <ele>715</ele>
        <time>2011-10-16T09:59:45Z</time>
      </trkpt>
      <trkpt lat="45.70727" lon="4.59131">
        <ele>715</ele>
        <time>2011-10-16T09:59:46Z</time>
      </trkpt>
      <trkpt lat="45.70724" lon="4.59135">
        <ele>715</ele>
        <time>2011-10-16T09:59:48Z</time>
      </trkpt>
      <trkpt lat="45.7072" lon="4.59142">
        <ele>715</ele>
        <time>2011-10-16T09:59:52Z</time>
      </trkpt>
      <trkpt lat="45.70716" lon="4.59146">
        <ele>715</ele>
        <time>2011-10-16T09:59:54Z</time>
      </trkpt>
      <trkpt lat="45.7071" lon="4.59152">
        <ele>716</ele>
        <time>2011-10-16T09:59:56Z</time>
      </trkpt>
      <trkpt lat="45.70706" lon="4.59157">
        <ele>717</ele>
        <time>2011-10-16T09:59:58Z</time>
      </trkpt>
      <trkpt lat="45.707" lon="4.59161">
        <ele>717</ele>
        <time>2011-10-16T10:00:00Z</time>
      </trkpt>
      <trkpt lat="45.70696" lon="4.59165">
        <ele>718</ele>
        <time>2011-10-16T10:00:02Z</time>
      </trkpt>
      <trkpt lat="45.7069" lon="4.5917">
        <ele>713</ele>
        <time>2011-10-16T10:00:04Z</time>
      </trkpt>
      <trkpt lat="45.70687" lon="4.59177">
        <ele>713</ele>
        <time>2011-10-16T10:00:06Z</time>
      </trkpt>
      <trkpt lat="45.70682" lon="4.59183">
        <ele>714</ele>
        <time>2011-10-16T10:00:08Z</time>
      </trkpt>
      <trkpt lat="45.70678" lon="4.59188">
        <ele>713</ele>
        <time>2011-10-16T10:00:11Z</time>
      </trkpt>
      <trkpt lat="45.70671" lon="4.59188">
        <ele>714</ele>
        <time>2011-10-16T10:00:13Z</time>
      </trkpt>
      <trkpt lat="45.70669" lon="4.59194">
        <ele>713</ele>
        <time>2011-10-16T10:00:15Z</time>
      </trkpt>
      <trkpt lat="45.70665" lon="4.59198">
        <ele>722</ele>
        <time>2011-10-16T10:00:17Z</time>
      </trkpt>
      <trkpt lat="45.70661" lon="4.59202">
        <ele>721</ele>
        <time>2011-10-16T10:00:19Z</time>
      </trkpt>
      <trkpt lat="45.70658" lon="4.59208">
        <ele>721</ele>
        <time>2011-10-16T10:00:21Z</time>
      </trkpt>
      <trkpt lat="45.70655" lon="4.59214">
        <ele>720</ele>
        <time>2011-10-16T10:00:23Z</time>
      </trkpt>
      <trkpt lat="45.7065" lon="4.59218">
        <ele>720</ele>
        <time>2011-10-16T10:00:25Z</time>
      </trkpt>
      <trkpt lat="45.70645" lon="4.59224">
        <ele>720</ele>
        <time>2011-10-16T10:00:28Z</time>
      </trkpt>
      <trkpt lat="45.7064" lon="4.5923">
        <ele>720</ele>
        <time>2011-10-16T10:00:30Z</time>
      </trkpt>
      <trkpt lat="45.70635" lon="4.59236">
        <ele>720</ele>
        <time>2011-10-16T10:00:32Z</time>
      </trkpt>
      <trkpt lat="45.70628" lon="4.59244">
        <ele>721</ele>
        <time>2011-10-16T10:00:36Z</time>
      </trkpt>
      <trkpt lat="45.70623" lon="4.59246">
        <ele>722</ele>
        <time>2011-10-16T10:00:37Z</time>
      </trkpt>
      <trkpt lat="45.70619" lon="4.5925">
        <ele>715</ele>
        <time>2011-10-16T10:00:40Z</time>
      </trkpt>
      <trkpt lat="45.70613" lon="4.59247">
        <ele>723</ele>
        <time>2011-10-16T10:00:43Z</time>
      </trkpt>
      <trkpt lat="45.70608" lon="4.59244">
        <ele>724</ele>
        <time>2011-10-16T10:00:45Z</time>
      </trkpt>
      <trkpt lat="45.70601" lon="4.59256">
        <ele>719</ele>
        <time>2011-10-16T10:00:47Z</time>
      </trkpt>
      <trkpt lat="45.70594" lon="4.59259">
        <ele>721</ele>
        <time>2011-10-16T10:00:49Z</time>
      </trkpt>
      <trkpt lat="45.70592" lon="4.59266">
        <ele>720</ele>
        <time>2011-10-16T10:00:51Z</time>
      </trkpt>
      <trkpt lat="45.70591" lon="4.59274">
        <ele>718</ele>
        <time>2011-10-16T10:00:53Z</time>
      </trkpt>
      <trkpt lat="45.70586" lon="4.59279">
        <ele>717</ele>
        <time>2011-10-16T10:00:54Z</time>
      </trkpt>
      <trkpt lat="45.70581" lon="4.59281">
        <ele>725</ele>
        <time>2011-10-16T10:00:55Z</time>
      </trkpt>
      <trkpt lat="45.70576" lon="4.59283">
        <ele>725</ele>
        <time>2011-10-16T10:00:56Z</time>
      </trkpt>
      <trkpt lat="45.70569" lon="4.59285">
        <ele>725</ele>
        <time>2011-10-16T10:00:59Z</time>
      </trkpt>
      <trkpt lat="45.70561" lon="4.59285">
        <ele>725</ele>
        <time>2011-10-16T10:01:01Z</time>
      </trkpt>
      <trkpt lat="45.70555" lon="4.59288">
        <ele>725</ele>
        <time>2011-10-16T10:01:03Z</time>
      </trkpt>
      <trkpt lat="45.70548" lon="4.5929">
        <ele>726</ele>
        <time>2011-10-16T10:01:06Z</time>
      </trkpt>
      <trkpt lat="45.70545" lon="4.59296">
        <ele>725</ele>
        <time>2011-10-16T10:01:09Z</time>
      </trkpt>
      <trkpt lat="45.7054" lon="4.59299">
        <ele>726</ele>
        <time>2011-10-16T10:01:11Z</time>
      </trkpt>
      <trkpt lat="45.70533" lon="4.593">
        <ele>726</ele>
        <time>2011-10-16T10:01:13Z</time>
      </trkpt>
      <trkpt lat="45.70527" lon="4.59304">
        <ele>726</ele>
        <time>2011-10-16T10:01:16Z</time>
      </trkpt>
      <trkpt lat="45.70522" lon="4.59303">
        <ele>727</ele>
        <time>2011-10-16T10:01:18Z</time>
      </trkpt>
      <trkpt lat="45.70515" lon="4.59301">
        <ele>727</ele>
        <time>2011-10-16T10:01:20Z</time>
      </trkpt>
      <trkpt lat="45.7051" lon="4.59303">
        <ele>727</ele>
        <time>2011-10-16T10:01:22Z</time>
      </trkpt>
      <trkpt lat="45.70503" lon="4.59306">
        <ele>728</ele>
        <time>2011-10-16T10:01:25Z</time>
      </trkpt>
      <trkpt lat="45.70494" lon="4.5931">
        <ele>728</ele>
        <time>2011-10-16T10:01:27Z</time>
      </trkpt>
      <trkpt lat="45.70487" lon="4.5931">
        <ele>728</ele>
        <time>2011-10-16T10:01:30Z</time>
      </trkpt>
      <trkpt lat="45.70482" lon="4.5931">
        <ele>728</ele>
        <time>2011-10-16T10:01:31Z</time>
      </trkpt>
      <trkpt lat="45.70472" lon="4.5931">
        <ele>727</ele>
        <time>2011-10-16T10:01:33Z</time>
      </trkpt>
      <trkpt lat="45.70466" lon="4.59311">
        <ele>727</ele>
        <time>2011-10-16T10:01:36Z</time>
      </trkpt>
      <trkpt lat="45.7046" lon="4.59312">
        <ele>727</ele>
        <time>2011-10-16T10:01:37Z</time>
      </trkpt>
      <trkpt lat="45.70454" lon="4.59314">
        <ele>727</ele>
        <time>2011-10-16T10:01:40Z</time>
      </trkpt>
      <trkpt lat="45.7045" lon="4.59316">
        <ele>727</ele>
        <time>2011-10-16T10:01:41Z</time>
      </trkpt>
      <trkpt lat="45.70445" lon="4.59318">
        <ele>727</ele>
        <time>2011-10-16T10:01:43Z</time>
      </trkpt>
      <trkpt lat="45.70438" lon="4.5932">
        <ele>727</ele>
        <time>2011-10-16T10:01:45Z</time>
      </trkpt>
      <trkpt lat="45.70432" lon="4.59321">
        <ele>727</ele>
        <time>2011-10-16T10:01:46Z</time>
      </trkpt>
      <trkpt lat="45.70421" lon="4.59322">
        <ele>727</ele>
        <time>2011-10-16T10:01:48Z</time>
      </trkpt>
      <trkpt lat="45.70413" lon="4.59327">
        <ele>725</ele>
        <time>2011-10-16T10:01:50Z</time>
      </trkpt>
      <trkpt lat="45.70405" lon="4.59331">
        <ele>723</ele>
        <time>2011-10-16T10:01:52Z</time>
      </trkpt>
      <trkpt lat="45.70398" lon="4.59341">
        <ele>725</ele>
        <time>2011-10-16T10:01:54Z</time>
      </trkpt>
      <trkpt lat="45.70394" lon="4.59346">
        <ele>724</ele>
        <time>2011-10-16T10:01:55Z</time>
      </trkpt>
      <trkpt lat="45.7039" lon="4.59351">
        <ele>724</ele>
        <time>2011-10-16T10:01:56Z</time>
      </trkpt>
      <trkpt lat="45.70391" lon="4.59361">
        <ele>724</ele>
        <time>2011-10-16T10:01:57Z</time>
      </trkpt>
      <trkpt lat="45.70394" lon="4.59369">
        <ele>724</ele>
        <time>2011-10-16T10:01:58Z</time>
      </trkpt>
      <trkpt lat="45.70391" lon="4.59382">
        <ele>724</ele>
        <time>2011-10-16T10:02:00Z</time>
      </trkpt>
      <trkpt lat="45.70388" lon="4.59391">
        <ele>725</ele>
        <time>2011-10-16T10:02:01Z</time>
      </trkpt>
      <trkpt lat="45.70386" lon="4.594">
        <ele>725</ele>
        <time>2011-10-16T10:02:02Z</time>
      </trkpt>
      <trkpt lat="45.70373" lon="4.59408">
        <ele>723</ele>
        <time>2011-10-16T10:02:03Z</time>
      </trkpt>
      <trkpt lat="45.70365" lon="4.59418">
        <ele>727</ele>
        <time>2011-10-16T10:02:04Z</time>
      </trkpt>
      <trkpt lat="45.70351" lon="4.59425">
        <ele>724</ele>
        <time>2011-10-16T10:02:05Z</time>
      </trkpt>
      <trkpt lat="45.7034" lon="4.59431">
        <ele>723</ele>
        <time>2011-10-16T10:02:06Z</time>
      </trkpt>
      <trkpt lat="45.70334" lon="4.59438">
        <ele>724</ele>
        <time>2011-10-16T10:02:07Z</time>
      </trkpt>
      <trkpt lat="45.7033" lon="4.59449">
        <ele>713</ele>
        <time>2011-10-16T10:02:08Z</time>
      </trkpt>
      <trkpt lat="45.70321" lon="4.59459">
        <ele>713</ele>
        <time>2011-10-16T10:02:09Z</time>
      </trkpt>
      <trkpt lat="45.70314" lon="4.5947">
        <ele>714</ele>
        <time>2011-10-16T10:02:10Z</time>
      </trkpt>
      <trkpt lat="45.70312" lon="4.5948">
        <ele>715</ele>
        <time>2011-10-16T10:02:11Z</time>
      </trkpt>
      <trkpt lat="45.70303" lon="4.59492">
        <ele>714</ele>
        <time>2011-10-16T10:02:12Z</time>
      </trkpt>
      <trkpt lat="45.70296" lon="4.595">
        <ele>712</ele>
        <time>2011-10-16T10:02:13Z</time>
      </trkpt>
      <trkpt lat="45.70289" lon="4.59511">
        <ele>719</ele>
        <time>2011-10-16T10:02:14Z</time>
      </trkpt>
      <trkpt lat="45.70279" lon="4.59522">
        <ele>718</ele>
        <time>2011-10-16T10:02:15Z</time>
      </trkpt>
      <trkpt lat="45.70275" lon="4.59533">
        <ele>718</ele>
        <time>2011-10-16T10:02:16Z</time>
      </trkpt>
      <trkpt lat="45.70266" lon="4.59544">
        <ele>718</ele>
        <time>2011-10-16T10:02:17Z</time>
      </trkpt>
      <trkpt lat="45.7026" lon="4.59557">
        <ele>719</ele>
        <time>2011-10-16T10:02:18Z</time>
      </trkpt>
      <trkpt lat="45.70254" lon="4.59566">
        <ele>718</ele>
        <time>2011-10-16T10:02:19Z</time>
      </trkpt>
      <trkpt lat="45.70244" lon="4.59574">
        <ele>708</ele>
        <time>2011-10-16T10:02:20Z</time>
      </trkpt>
      <trkpt lat="45.70237" lon="4.59586">
        <ele>713</ele>
        <time>2011-10-16T10:02:21Z</time>
      </trkpt>
      <trkpt lat="45.70226" lon="4.59597">
        <ele>711</ele>
        <time>2011-10-16T10:02:22Z</time>
      </trkpt>
      <trkpt lat="45.70218" lon="4.59606">
        <ele>709</ele>
        <time>2011-10-16T10:02:23Z</time>
      </trkpt>
      <trkpt lat="45.70212" lon="4.5962">
        <ele>709</ele>
        <time>2011-10-16T10:02:24Z</time>
      </trkpt>
      <trkpt lat="45.70206" lon="4.59635">
        <ele>710</ele>
        <time>2011-10-16T10:02:25Z</time>
      </trkpt>
      <trkpt lat="45.70197" lon="4.59648">
        <ele>709</ele>
        <time>2011-10-16T10:02:26Z</time>
      </trkpt>
      <trkpt lat="45.70187" lon="4.59658">
        <ele>706</ele>
        <time>2011-10-16T10:02:27Z</time>
      </trkpt>
      <trkpt lat="45.70179" lon="4.59674">
        <ele>711</ele>
        <time>2011-10-16T10:02:28Z</time>
      </trkpt>
      <trkpt lat="45.70167" lon="4.59694">
        <ele>716</ele>
        <time>2011-10-16T10:02:29Z</time>
      </trkpt>
      <trkpt lat="45.70162" lon="4.59707">
        <ele>697</ele>
        <time>2011-10-16T10:02:30Z</time>
      </trkpt>
      <trkpt lat="45.70158" lon="4.59714">
        <ele>698</ele>
        <time>2011-10-16T10:02:31Z</time>
      </trkpt>
      <trkpt lat="45.70154" lon="4.5972">
        <ele>699</ele>
        <time>2011-10-16T10:02:32Z</time>
      </trkpt>
      <trkpt lat="45.70144" lon="4.59733">
        <ele>700</ele>
        <time>2011-10-16T10:02:33Z</time>
      </trkpt>
      <trkpt lat="45.70135" lon="4.59743">
        <ele>698</ele>
        <time>2011-10-16T10:02:34Z</time>
      </trkpt>
      <trkpt lat="45.70117" lon="4.59777">
        <ele>706</ele>
        <time>2011-10-16T10:02:36Z</time>
      </trkpt>
      <trkpt lat="45.70113" lon="4.59785">
        <ele>706</ele>
        <time>2011-10-16T10:02:37Z</time>
      </trkpt>
      <trkpt lat="45.70104" lon="4.5979">
        <ele>705</ele>
        <time>2011-10-16T10:02:38Z</time>
      </trkpt>
      <trkpt lat="45.70099" lon="4.59814">
        <ele>705</ele>
        <time>2011-10-16T10:02:40Z</time>
      </trkpt>
      <trkpt lat="45.70093" lon="4.59821">
        <ele>704</ele>
        <time>2011-10-16T10:02:41Z</time>
      </trkpt>
      <trkpt lat="45.70091" lon="4.59828">
        <ele>702</ele>
        <time>2011-10-16T10:02:42Z</time>
      </trkpt>
      <trkpt lat="45.70088" lon="4.59833">
        <ele>701</ele>
        <time>2011-10-16T10:02:43Z</time>
      </trkpt>
      <trkpt lat="45.70085" lon="4.59846">
        <ele>709</ele>
        <time>2011-10-16T10:02:45Z</time>
      </trkpt>
      <trkpt lat="45.70083" lon="4.59852">
        <ele>696</ele>
        <time>2011-10-16T10:02:46Z</time>
      </trkpt>
      <trkpt lat="45.7008" lon="4.5986">
        <ele>695</ele>
        <time>2011-10-16T10:02:48Z</time>
      </trkpt>
      <trkpt lat="45.70077" lon="4.59868">
        <ele>695</ele>
        <time>2011-10-16T10:02:50Z</time>
      </trkpt>
      <trkpt lat="45.70073" lon="4.59879">
        <ele>696</ele>
        <time>2011-10-16T10:02:53Z</time>
      </trkpt>
      <trkpt lat="45.7007" lon="4.5989">
        <ele>698</ele>
        <time>2011-10-16T10:02:56Z</time>
      </trkpt>
      <trkpt lat="45.70066" lon="4.59896">
        <ele>699</ele>
        <time>2011-10-16T10:02:57Z</time>
      </trkpt>
      <trkpt lat="45.70065" lon="4.59904">
        <ele>700</ele>
        <time>2011-10-16T10:02:58Z</time>
      </trkpt>
      <trkpt lat="45.70064" lon="4.59911">
        <ele>701</ele>
        <time>2011-10-16T10:02:59Z</time>
      </trkpt>
      <trkpt lat="45.70056" lon="4.59916">
        <ele>698</ele>
        <time>2011-10-16T10:03:01Z</time>
      </trkpt>
      <trkpt lat="45.7005" lon="4.59918">
        <ele>707</ele>
        <time>2011-10-16T10:03:02Z</time>
      </trkpt>
      <trkpt lat="45.70046" lon="4.59929">
        <ele>706</ele>
        <time>2011-10-16T10:03:04Z</time>
      </trkpt>
      <trkpt lat="45.70045" lon="4.59938">
        <ele>707</ele>
        <time>2011-10-16T10:03:06Z</time>
      </trkpt>
      <trkpt lat="45.70031" lon="4.59942">
        <ele>704</ele>
        <time>2011-10-16T10:03:07Z</time>
      </trkpt>
      <trkpt lat="45.70025" lon="4.59952">
        <ele>704</ele>
        <time>2011-10-16T10:03:09Z</time>
      </trkpt>
      <trkpt lat="45.70024" lon="4.59958">
        <ele>705</ele>
        <time>2011-10-16T10:03:10Z</time>
      </trkpt>
      <trkpt lat="45.70022" lon="4.59965">
        <ele>705</ele>
        <time>2011-10-16T10:03:12Z</time>
      </trkpt>
      <trkpt lat="45.70019" lon="4.59973">
        <ele>705</ele>
        <time>2011-10-16T10:03:13Z</time>
      </trkpt>
      <trkpt lat="45.70014" lon="4.59976">
        <ele>704</ele>
        <time>2011-10-16T10:03:15Z</time>
      </trkpt>
      <trkpt lat="45.70008" lon="4.59989">
        <ele>703</ele>
        <time>2011-10-16T10:03:17Z</time>
      </trkpt>
      <trkpt lat="45.70006" lon="4.59996">
        <ele>702</ele>
        <time>2011-10-16T10:03:18Z</time>
      </trkpt>
      <trkpt lat="45.70006" lon="4.60006">
        <ele>707</ele>
        <time>2011-10-16T10:03:19Z</time>
      </trkpt>
      <trkpt lat="45.70001" lon="4.60016">
        <ele>712</ele>
        <time>2011-10-16T10:03:20Z</time>
      </trkpt>
      <trkpt lat="45.69998" lon="4.60024">
        <ele>698</ele>
        <time>2011-10-16T10:03:21Z</time>
      </trkpt>
      <trkpt lat="45.69987" lon="4.60027">
        <ele>697</ele>
        <time>2011-10-16T10:03:22Z</time>
      </trkpt>
      <trkpt lat="45.69984" lon="4.60037">
        <ele>698</ele>
        <time>2011-10-16T10:03:23Z</time>
      </trkpt>
      <trkpt lat="45.69982" lon="4.60043">
        <ele>698</ele>
        <time>2011-10-16T10:03:24Z</time>
      </trkpt>
      <trkpt lat="45.6998" lon="4.60051">
        <ele>699</ele>
        <time>2011-10-16T10:03:25Z</time>
      </trkpt>
      <trkpt lat="45.6998" lon="4.60058">
        <ele>700</ele>
        <time>2011-10-16T10:03:26Z</time>
      </trkpt>
      <trkpt lat="45.69977" lon="4.60066">
        <ele>701</ele>
        <time>2011-10-16T10:03:28Z</time>
      </trkpt>
      <trkpt lat="45.6997" lon="4.60073">
        <ele>700</ele>
        <time>2011-10-16T10:03:29Z</time>
      </trkpt>
      <trkpt lat="45.69967" lon="4.6008">
        <ele>700</ele>
        <time>2011-10-16T10:03:30Z</time>
      </trkpt>
      <trkpt lat="45.69963" lon="4.60085">
        <ele>709</ele>
        <time>2011-10-16T10:03:31Z</time>
      </trkpt>
      <trkpt lat="45.69954" lon="4.60094">
        <ele>708</ele>
        <time>2011-10-16T10:03:32Z</time>
      </trkpt>
      <trkpt lat="45.69946" lon="4.601">
        <ele>706</ele>
        <time>2011-10-16T10:03:34Z</time>
      </trkpt>
      <trkpt lat="45.69945" lon="4.60111">
        <ele>707</ele>
        <time>2011-10-16T10:03:36Z</time>
      </trkpt>
      <trkpt lat="45.6994" lon="4.60116">
        <ele>707</ele>
        <time>2011-10-16T10:03:37Z</time>
      </trkpt>
      <trkpt lat="45.69938" lon="4.60124">
        <ele>708</ele>
        <time>2011-10-16T10:03:39Z</time>
      </trkpt>
      <trkpt lat="45.69938" lon="4.60131">
        <ele>708</ele>
        <time>2011-10-16T10:03:40Z</time>
      </trkpt>
      <trkpt lat="45.69921" lon="4.60135">
        <ele>707</ele>
        <time>2011-10-16T10:03:42Z</time>
      </trkpt>
      <trkpt lat="45.69919" lon="4.60143">
        <ele>707</ele>
        <time>2011-10-16T10:03:44Z</time>
      </trkpt>
      <trkpt lat="45.69918" lon="4.60151">
        <ele>707</ele>
        <time>2011-10-16T10:03:46Z</time>
      </trkpt>
      <trkpt lat="45.69918" lon="4.60159">
        <ele>706</ele>
        <time>2011-10-16T10:03:47Z</time>
      </trkpt>
      <trkpt lat="45.6991" lon="4.60163">
        <ele>699</ele>
        <time>2011-10-16T10:03:48Z</time>
      </trkpt>
      <trkpt lat="45.69906" lon="4.60169">
        <ele>703</ele>
        <time>2011-10-16T10:03:49Z</time>
      </trkpt>
      <trkpt lat="45.69893" lon="4.60175">
        <ele>702</ele>
        <time>2011-10-16T10:03:51Z</time>
      </trkpt>
      <trkpt lat="45.69889" lon="4.60186">
        <ele>701</ele>
        <time>2011-10-16T10:03:52Z</time>
      </trkpt>
      <trkpt lat="45.69883" lon="4.60192">
        <ele>701</ele>
        <time>2011-10-16T10:03:54Z</time>
      </trkpt>
      <trkpt lat="45.69878" lon="4.602">
        <ele>701</ele>
        <time>2011-10-16T10:03:56Z</time>
      </trkpt>
      <trkpt lat="45.6987" lon="4.60206">
        <ele>700</ele>
        <time>2011-10-16T10:03:58Z</time>
      </trkpt>
      <trkpt lat="45.69866" lon="4.60211">
        <ele>700</ele>
        <time>2011-10-16T10:03:59Z</time>
      </trkpt>
      <trkpt lat="45.69861" lon="4.6022">
        <ele>700</ele>
        <time>2011-10-16T10:04:01Z</time>
      </trkpt>
      <trkpt lat="45.69861" lon="4.60228">
        <ele>701</ele>
        <time>2011-10-16T10:04:03Z</time>
      </trkpt>
      <trkpt lat="45.69856" lon="4.60238">
        <ele>700</ele>
        <time>2011-10-16T10:04:05Z</time>
      </trkpt>
      <trkpt lat="45.69851" lon="4.60246">
        <ele>699</ele>
        <time>2011-10-16T10:04:06Z</time>
      </trkpt>
      <trkpt lat="45.69853" lon="4.60253">
        <ele>704</ele>
        <time>2011-10-16T10:04:08Z</time>
      </trkpt>
      <trkpt lat="45.69853" lon="4.60261">
        <ele>705</ele>
        <time>2011-10-16T10:04:09Z</time>
      </trkpt>
      <trkpt lat="45.69854" lon="4.60268">
        <ele>706</ele>
        <time>2011-10-16T10:04:11Z</time>
      </trkpt>
      <trkpt lat="45.69854" lon="4.60276">
        <ele>707</ele>
        <time>2011-10-16T10:04:13Z</time>
      </trkpt>
      <trkpt lat="45.69852" lon="4.60284">
        <ele>707</ele>
        <time>2011-10-16T10:04:16Z</time>
      </trkpt>
      <trkpt lat="45.69841" lon="4.60286">
        <ele>706</ele>
        <time>2011-10-16T10:04:18Z</time>
      </trkpt>
      <trkpt lat="45.69844" lon="4.60293">
        <ele>707</ele>
        <time>2011-10-16T10:04:20Z</time>
      </trkpt>
      <trkpt lat="45.69845" lon="4.60303">
        <ele>707</ele>
        <time>2011-10-16T10:04:22Z</time>
      </trkpt>
      <trkpt lat="45.69849" lon="4.60312">
        <ele>707</ele>
        <time>2011-10-16T10:04:24Z</time>
      </trkpt>
      <trkpt lat="45.69849" lon="4.60321">
        <ele>706</ele>
        <time>2011-10-16T10:04:26Z</time>
      </trkpt>
      <trkpt lat="45.69846" lon="4.60332">
        <ele>704</ele>
        <time>2011-10-16T10:04:28Z</time>
      </trkpt>
      <trkpt lat="45.69846" lon="4.6034">
        <ele>706</ele>
        <time>2011-10-16T10:04:30Z</time>
      </trkpt>
      <trkpt lat="45.69845" lon="4.60352">
        <ele>709</ele>
        <time>2011-10-16T10:04:32Z</time>
      </trkpt>
      <trkpt lat="45.69844" lon="4.6036">
        <ele>710</ele>
        <time>2011-10-16T10:04:33Z</time>
      </trkpt>
      <trkpt lat="45.69844" lon="4.60367">
        <ele>711</ele>
        <time>2011-10-16T10:04:34Z</time>
      </trkpt>
      <trkpt lat="45.69845" lon="4.60392">
        <ele>711</ele>
        <time>2011-10-16T10:04:36Z</time>
      </trkpt>
      <trkpt lat="45.69823" lon="4.60388">
        <ele>687</ele>
        <time>2011-10-16T10:04:37Z</time>
      </trkpt>
      <trkpt lat="45.69828" lon="4.60403">
        <ele>692</ele>
        <time>2011-10-16T10:04:39Z</time>
      </trkpt>
      <trkpt lat="45.69828" lon="4.60413">
        <ele>696</ele>
        <time>2011-10-16T10:04:40Z</time>
      </trkpt>
      <trkpt lat="45.6983" lon="4.60425">
        <ele>695</ele>
        <time>2011-10-16T10:04:41Z</time>
      </trkpt>
      <trkpt lat="45.69833" lon="4.60437">
        <ele>690</ele>
        <time>2011-10-16T10:04:42Z</time>
      </trkpt>
      <trkpt lat="45.69833" lon="4.60447">
        <ele>688</ele>
        <time>2011-10-16T10:04:43Z</time>
      </trkpt>
      <trkpt lat="45.69834" lon="4.60458">
        <ele>710</ele>
        <time>2011-10-16T10:04:44Z</time>
      </trkpt>
      <trkpt lat="45.69836" lon="4.6047">
        <ele>709</ele>
        <time>2011-10-16T10:04:45Z</time>
      </trkpt>
      <trkpt lat="45.69838" lon="4.60483">
        <ele>707</ele>
        <time>2011-10-16T10:04:46Z</time>
      </trkpt>
      <trkpt lat="45.6984" lon="4.60492">
        <ele>704</ele>
        <time>2011-10-16T10:04:47Z</time>
      </trkpt>
      <trkpt lat="45.69844" lon="4.60502">
        <ele>703</ele>
        <time>2011-10-16T10:04:48Z</time>
      </trkpt>
      <trkpt lat="45.6984" lon="4.6051">
        <ele>703</ele>
        <time>2011-10-16T10:04:49Z</time>
      </trkpt>
      <trkpt lat="45.69839" lon="4.60521">
        <ele>705</ele>
        <time>2011-10-16T10:04:50Z</time>
      </trkpt>
      <trkpt lat="45.69837" lon="4.60533">
        <ele>705</ele>
        <time>2011-10-16T10:04:51Z</time>
      </trkpt>
      <trkpt lat="45.69839" lon="4.6054">
        <ele>705</ele>
        <time>2011-10-16T10:04:52Z</time>
      </trkpt>
      <trkpt lat="45.69839" lon="4.60553">
        <ele>704</ele>
        <time>2011-10-16T10:04:53Z</time>
      </trkpt>
      <trkpt lat="45.69843" lon="4.60563">
        <ele>703</ele>
        <time>2011-10-16T10:04:54Z</time>
      </trkpt>
      <trkpt lat="45.69845" lon="4.6057">
        <ele>701</ele>
        <time>2011-10-16T10:04:55Z</time>
      </trkpt>
      <trkpt lat="45.69845" lon="4.60583">
        <ele>699</ele>
        <time>2011-10-16T10:04:56Z</time>
      </trkpt>
      <trkpt lat="45.69848" lon="4.60593">
        <ele>695</ele>
        <time>2011-10-16T10:04:57Z</time>
      </trkpt>
      <trkpt lat="45.69855" lon="4.60604">
        <ele>696</ele>
        <time>2011-10-16T10:04:58Z</time>
      </trkpt>
      <trkpt lat="45.69861" lon="4.6061">
        <ele>697</ele>
        <time>2011-10-16T10:04:59Z</time>
      </trkpt>
      <trkpt lat="45.69872" lon="4.60617">
        <ele>698</ele>
        <time>2011-10-16T10:05:00Z</time>
      </trkpt>
      <trkpt lat="45.69877" lon="4.60625">
        <ele>698</ele>
        <time>2011-10-16T10:05:01Z</time>
      </trkpt>
      <trkpt lat="45.69885" lon="4.6063">
        <ele>699</ele>
        <time>2011-10-16T10:05:02Z</time>
      </trkpt>
      <trkpt lat="45.6989" lon="4.60638">
        <ele>699</ele>
        <time>2011-10-16T10:05:03Z</time>
      </trkpt>
      <trkpt lat="45.69895" lon="4.60645">
        <ele>699</ele>
        <time>2011-10-16T10:05:04Z</time>
      </trkpt>
      <trkpt lat="45.69898" lon="4.60654">
        <ele>699</ele>
        <time>2011-10-16T10:05:05Z</time>
      </trkpt>
      <trkpt lat="45.699" lon="4.6066">
        <ele>700</ele>
        <time>2011-10-16T10:05:06Z</time>
      </trkpt>
      <trkpt lat="45.69905" lon="4.60671">
        <ele>695</ele>
        <time>2011-10-16T10:05:07Z</time>
      </trkpt>
      <trkpt lat="45.69909" lon="4.60677">
        <ele>695</ele>
        <time>2011-10-16T10:05:08Z</time>
      </trkpt>
      <trkpt lat="45.69911" lon="4.60687">
        <ele>692</ele>
        <time>2011-10-16T10:05:09Z</time>
      </trkpt>
      <trkpt lat="45.69913" lon="4.60695">
        <ele>691</ele>
        <time>2011-10-16T10:05:10Z</time>
      </trkpt>
      <trkpt lat="45.69917" lon="4.60703">
        <ele>709</ele>
        <time>2011-10-16T10:05:11Z</time>
      </trkpt>
      <trkpt lat="45.69921" lon="4.60714">
        <ele>709</ele>
        <time>2011-10-16T10:05:13Z</time>
      </trkpt>
      <trkpt lat="45.69921" lon="4.60722">
        <ele>708</ele>
        <time>2011-10-16T10:05:14Z</time>
      </trkpt>
      <trkpt lat="45.69924" lon="4.6073">
        <ele>706</ele>
        <time>2011-10-16T10:05:15Z</time>
      </trkpt>
      <trkpt lat="45.69928" lon="4.60741">
        <ele>704</ele>
        <time>2011-10-16T10:05:17Z</time>
      </trkpt>
      <trkpt lat="45.6993" lon="4.60752">
        <ele>704</ele>
        <time>2011-10-16T10:05:19Z</time>
      </trkpt>
      <trkpt lat="45.6993" lon="4.60762">
        <ele>706</ele>
        <time>2011-10-16T10:05:20Z</time>
      </trkpt>
      <trkpt lat="45.69929" lon="4.60768">
        <ele>708</ele>
        <time>2011-10-16T10:05:21Z</time>
      </trkpt>
      <trkpt lat="45.69924" lon="4.60775">
        <ele>708</ele>
        <time>2011-10-16T10:05:23Z</time>
      </trkpt>
      <trkpt lat="45.69919" lon="4.60777">
        <ele>708</ele>
        <time>2011-10-16T10:05:25Z</time>
      </trkpt>
      <trkpt lat="45.69918" lon="4.60784">
        <ele>709</ele>
        <time>2011-10-16T10:05:26Z</time>
      </trkpt>
      <trkpt lat="45.69918" lon="4.60791">
        <ele>710</ele>
        <time>2011-10-16T10:05:27Z</time>
      </trkpt>
      <trkpt lat="45.69916" lon="4.60802">
        <ele>689</ele>
        <time>2011-10-16T10:05:30Z</time>
      </trkpt>
      <trkpt lat="45.69917" lon="4.60808">
        <ele>710</ele>
        <time>2011-10-16T10:05:31Z</time>
      </trkpt>
      <trkpt lat="45.69916" lon="4.60815">
        <ele>693</ele>
        <time>2011-10-16T10:05:33Z</time>
      </trkpt>
      <trkpt lat="45.69911" lon="4.60816">
        <ele>692</ele>
        <time>2011-10-16T10:05:34Z</time>
      </trkpt>
      <trkpt lat="45.69911" lon="4.60826">
        <ele>697</ele>
        <time>2011-10-16T10:05:37Z</time>
      </trkpt>
      <trkpt lat="45.69901" lon="4.60826">
        <ele>692</ele>
        <time>2011-10-16T10:05:37Z</time>
      </trkpt>
      <trkpt lat="45.69904" lon="4.60833">
        <ele>695</ele>
        <time>2011-10-16T10:05:39Z</time>
      </trkpt>
      <trkpt lat="45.69904" lon="4.60839">
        <ele>699</ele>
        <time>2011-10-16T10:05:40Z</time>
      </trkpt>
      <trkpt lat="45.69905" lon="4.60848">
        <ele>698</ele>
        <time>2011-10-16T10:05:42Z</time>
      </trkpt>
      <trkpt lat="45.69907" lon="4.60855">
        <ele>698</ele>
        <time>2011-10-16T10:05:43Z</time>
      </trkpt>
      <trkpt lat="45.69907" lon="4.60862">
        <ele>698</ele>
        <time>2011-10-16T10:05:46Z</time>
      </trkpt>
      <trkpt lat="45.69902" lon="4.60863">
        <ele>697</ele>
        <time>2011-10-16T10:05:47Z</time>
      </trkpt>
      <trkpt lat="45.69896" lon="4.60868">
        <ele>696</ele>
        <time>2011-10-16T10:05:49Z</time>
      </trkpt>
      <trkpt lat="45.69897" lon="4.6088">
        <ele>698</ele>
        <time>2011-10-16T10:05:51Z</time>
      </trkpt>
      <trkpt lat="45.69892" lon="4.60888">
        <ele>698</ele>
        <time>2011-10-16T10:05:53Z</time>
      </trkpt>
      <trkpt lat="45.69887" lon="4.60895">
        <ele>698</ele>
        <time>2011-10-16T10:06:00Z</time>
      </trkpt>
      <trkpt lat="45.69884" lon="4.609">
        <ele>697</ele>
        <time>2011-10-16T10:06:01Z</time>
      </trkpt>
      <trkpt lat="45.69885" lon="4.60908">
        <ele>699</ele>
        <time>2011-10-16T10:06:03Z</time>
      </trkpt>
      <trkpt lat="45.69884" lon="4.60918">
        <ele>706</ele>
        <time>2011-10-16T10:06:05Z</time>
      </trkpt>
      <trkpt lat="45.69883" lon="4.60927">
        <ele>706</ele>
        <time>2011-10-16T10:06:07Z</time>
      </trkpt>
      <trkpt lat="45.69881" lon="4.60935">
        <ele>705</ele>
        <time>2011-10-16T10:06:10Z</time>
      </trkpt>
      <trkpt lat="45.69883" lon="4.60943">
        <ele>706</ele>
        <time>2011-10-16T10:06:13Z</time>
      </trkpt>
      <trkpt lat="45.6988" lon="4.60948">
        <ele>706</ele>
        <time>2011-10-16T10:06:15Z</time>
      </trkpt>
      <trkpt lat="45.69877" lon="4.60957">
        <ele>705</ele>
        <time>2011-10-16T10:06:17Z</time>
      </trkpt>
      <trkpt lat="45.69878" lon="4.60964">
        <ele>706</ele>
        <time>2011-10-16T10:06:20Z</time>
      </trkpt>
      <trkpt lat="45.69876" lon="4.60974">
        <ele>706</ele>
        <time>2011-10-16T10:06:23Z</time>
      </trkpt>
      <trkpt lat="45.69874" lon="4.6098">
        <ele>706</ele>
        <time>2011-10-16T10:06:25Z</time>
      </trkpt>
      <trkpt lat="45.69875" lon="4.60988">
        <ele>706</ele>
        <time>2011-10-16T10:06:28Z</time>
      </trkpt>
      <trkpt lat="45.69868" lon="4.60988">
        <ele>705</ele>
        <time>2011-10-16T10:06:29Z</time>
      </trkpt>
      <trkpt lat="45.69865" lon="4.60996">
        <ele>704</ele>
        <time>2011-10-16T10:06:32Z</time>
      </trkpt>
      <trkpt lat="45.6987" lon="4.61004">
        <ele>707</ele>
        <time>2011-10-16T10:06:34Z</time>
      </trkpt>
      <trkpt lat="45.69876" lon="4.61017">
        <ele>708</ele>
        <time>2011-10-16T10:06:37Z</time>
      </trkpt>
      <trkpt lat="45.69883" lon="4.6102">
        <ele>710</ele>
        <time>2011-10-16T10:06:39Z</time>
      </trkpt>
      <trkpt lat="45.69885" lon="4.61027">
        <ele>710</ele>
        <time>2011-10-16T10:06:42Z</time>
      </trkpt>
      <trkpt lat="45.69889" lon="4.61031">
        <ele>711</ele>
        <time>2011-10-16T10:06:44Z</time>
      </trkpt>
      <trkpt lat="45.69889" lon="4.61042">
        <ele>710</ele>
        <time>2011-10-16T10:06:46Z</time>
      </trkpt>
      <trkpt lat="45.6989" lon="4.61049">
        <ele>710</ele>
        <time>2011-10-16T10:06:49Z</time>
      </trkpt>
      <trkpt lat="45.69896" lon="4.61057">
        <ele>712</ele>
        <time>2011-10-16T10:06:52Z</time>
      </trkpt>
      <trkpt lat="45.69895" lon="4.61064">
        <ele>712</ele>
        <time>2011-10-16T10:06:55Z</time>
      </trkpt>
      <trkpt lat="45.69896" lon="4.61075">
        <ele>713</ele>
        <time>2011-10-16T10:06:58Z</time>
      </trkpt>
      <trkpt lat="45.69894" lon="4.61082">
        <ele>713</ele>
        <time>2011-10-16T10:07:00Z</time>
      </trkpt>
      <trkpt lat="45.69898" lon="4.6109">
        <ele>714</ele>
        <time>2011-10-16T10:07:02Z</time>
      </trkpt>
      <trkpt lat="45.69899" lon="4.61097">
        <ele>714</ele>
        <time>2011-10-16T10:07:05Z</time>
      </trkpt>
      <trkpt lat="45.69902" lon="4.61104">
        <ele>714</ele>
        <time>2011-10-16T10:07:07Z</time>
      </trkpt>
      <trkpt lat="45.69904" lon="4.61114">
        <ele>713</ele>
        <time>2011-10-16T10:07:09Z</time>
      </trkpt>
      <trkpt lat="45.69905" lon="4.61124">
        <ele>713</ele>
        <time>2011-10-16T10:07:11Z</time>
      </trkpt>
      <trkpt lat="45.69905" lon="4.61134">
        <ele>714</ele>
        <time>2011-10-16T10:07:13Z</time>
      </trkpt>
      <trkpt lat="45.69892" lon="4.61141">
        <ele>712</ele>
        <time>2011-10-16T10:07:14Z</time>
      </trkpt>
      <trkpt lat="45.6989" lon="4.61152">
        <ele>713</ele>
        <time>2011-10-16T10:07:17Z</time>
      </trkpt>
      <trkpt lat="45.6989" lon="4.61162">
        <ele>713</ele>
        <time>2011-10-16T10:07:19Z</time>
      </trkpt>
      <trkpt lat="45.69888" lon="4.61173">
        <ele>719</ele>
        <time>2011-10-16T10:07:20Z</time>
      </trkpt>
      <trkpt lat="45.69885" lon="4.61184">
        <ele>718</ele>
        <time>2011-10-16T10:07:24Z</time>
      </trkpt>
      <trkpt lat="45.69884" lon="4.61192">
        <ele>719</ele>
        <time>2011-10-16T10:07:25Z</time>
      </trkpt>
      <trkpt lat="45.69884" lon="4.612">
        <ele>719</ele>
        <time>2011-10-16T10:07:26Z</time>
      </trkpt>
      <trkpt lat="45.6988" lon="4.61204">
        <ele>719</ele>
        <time>2011-10-16T10:07:27Z</time>
      </trkpt>
      <trkpt lat="45.69877" lon="4.61211">
        <ele>719</ele>
        <time>2011-10-16T10:07:29Z</time>
      </trkpt>
      <trkpt lat="45.69875" lon="4.61218">
        <ele>719</ele>
        <time>2011-10-16T10:07:30Z</time>
      </trkpt>
      <trkpt lat="45.69874" lon="4.61226">
        <ele>720</ele>
        <time>2011-10-16T10:07:32Z</time>
      </trkpt>
      <trkpt lat="45.69869" lon="4.61226">
        <ele>719</ele>
        <time>2011-10-16T10:07:33Z</time>
      </trkpt>
      <trkpt lat="45.69865" lon="4.61233">
        <ele>718</ele>
        <time>2011-10-16T10:07:34Z</time>
      </trkpt>
      <trkpt lat="45.69846" lon="4.61245">
        <ele>715</ele>
        <time>2011-10-16T10:07:37Z</time>
      </trkpt>
      <trkpt lat="45.69835" lon="4.61248">
        <ele>713</ele>
        <time>2011-10-16T10:07:37Z</time>
      </trkpt>
      <trkpt lat="45.69827" lon="4.61252">
        <ele>710</ele>
        <time>2011-10-16T10:07:39Z</time>
      </trkpt>
      <trkpt lat="45.69826" lon="4.61261">
        <ele>709</ele>
        <time>2011-10-16T10:07:40Z</time>
      </trkpt>
      <trkpt lat="45.69822" lon="4.61269">
        <ele>708</ele>
        <time>2011-10-16T10:07:42Z</time>
      </trkpt>
      <trkpt lat="45.69819" lon="4.61279">
        <ele>708</ele>
        <time>2011-10-16T10:07:44Z</time>
      </trkpt>
      <trkpt lat="45.69809" lon="4.61282">
        <ele>707</ele>
        <time>2011-10-16T10:07:46Z</time>
      </trkpt>
      <trkpt lat="45.69812" lon="4.6129">
        <ele>708</ele>
        <time>2011-10-16T10:07:47Z</time>
      </trkpt>
      <trkpt lat="45.69812" lon="4.61296">
        <ele>708</ele>
        <time>2011-10-16T10:07:48Z</time>
      </trkpt>
      <trkpt lat="45.69809" lon="4.61301">
        <ele>709</ele>
        <time>2011-10-16T10:07:49Z</time>
      </trkpt>
      <trkpt lat="45.69805" lon="4.6131">
        <ele>709</ele>
        <time>2011-10-16T10:07:51Z</time>
      </trkpt>
      <trkpt lat="45.69803" lon="4.61316">
        <ele>709</ele>
        <time>2011-10-16T10:07:52Z</time>
      </trkpt>
      <trkpt lat="45.698" lon="4.61326">
        <ele>709</ele>
        <time>2011-10-16T10:07:54Z</time>
      </trkpt>
      <trkpt lat="45.69797" lon="4.61332">
        <ele>709</ele>
        <time>2011-10-16T10:07:56Z</time>
      </trkpt>
      <trkpt lat="45.69794" lon="4.6134">
        <ele>713</ele>
        <time>2011-10-16T10:07:58Z</time>
      </trkpt>
      <trkpt lat="45.69794" lon="4.61347">
        <ele>714</ele>
        <time>2011-10-16T10:07:59Z</time>
      </trkpt>
      <trkpt lat="45.69792" lon="4.61356">
        <ele>713</ele>
        <time>2011-10-16T10:08:01Z</time>
      </trkpt>
      <trkpt lat="45.69795" lon="4.61365">
        <ele>714</ele>
        <time>2011-10-16T10:08:04Z</time>
      </trkpt>
      <trkpt lat="45.69797" lon="4.61374">
        <ele>715</ele>
        <time>2011-10-16T10:08:05Z</time>
      </trkpt>
      <trkpt lat="45.698" lon="4.61379">
        <ele>716</ele>
        <time>2011-10-16T10:08:09Z</time>
      </trkpt>
      <trkpt lat="45.69802" lon="4.61385">
        <ele>716</ele>
        <time>2011-10-16T10:08:11Z</time>
      </trkpt>
      <trkpt lat="45.69804" lon="4.61392">
        <ele>717</ele>
        <time>2011-10-16T10:08:12Z</time>
      </trkpt>
      <trkpt lat="45.69802" lon="4.61402">
        <ele>717</ele>
        <time>2011-10-16T10:08:15Z</time>
      </trkpt>
      <trkpt lat="45.69792" lon="4.61412">
        <ele>715</ele>
        <time>2011-10-16T10:08:17Z</time>
      </trkpt>
      <trkpt lat="45.69788" lon="4.61419">
        <ele>715</ele>
        <time>2011-10-16T10:08:19Z</time>
      </trkpt>
      <trkpt lat="45.6979" lon="4.61427">
        <ele>716</ele>
        <time>2011-10-16T10:08:22Z</time>
      </trkpt>
      <trkpt lat="45.69789" lon="4.61439">
        <ele>715</ele>
        <time>2011-10-16T10:08:24Z</time>
      </trkpt>
      <trkpt lat="45.69791" lon="4.61446">
        <ele>716</ele>
        <time>2011-10-16T10:08:26Z</time>
      </trkpt>
      <trkpt lat="45.69794" lon="4.61452">
        <ele>717</ele>
        <time>2011-10-16T10:08:27Z</time>
      </trkpt>
      <trkpt lat="45.69795" lon="4.61458">
        <ele>717</ele>
        <time>2011-10-16T10:08:29Z</time>
      </trkpt>
      <trkpt lat="45.69795" lon="4.61468">
        <ele>717</ele>
        <time>2011-10-16T10:08:31Z</time>
      </trkpt>
      <trkpt lat="45.69796" lon="4.61476">
        <ele>717</ele>
        <time>2011-10-16T10:08:32Z</time>
      </trkpt>
      <trkpt lat="45.69796" lon="4.61484">
        <ele>717</ele>
        <time>2011-10-16T10:08:34Z</time>
      </trkpt>
      <trkpt lat="45.69795" lon="4.615">
        <ele>716</ele>
        <time>2011-10-16T10:08:37Z</time>
      </trkpt>
      <trkpt lat="45.69792" lon="4.61512">
        <ele>715</ele>
        <time>2011-10-16T10:08:39Z</time>
      </trkpt>
      <trkpt lat="45.6979" lon="4.61519">
        <ele>714</ele>
        <time>2011-10-16T10:08:40Z</time>
      </trkpt>
      <trkpt lat="45.69786" lon="4.61537">
        <ele>713</ele>
        <time>2011-10-16T10:08:42Z</time>
      </trkpt>
      <trkpt lat="45.69789" lon="4.61549">
        <ele>714</ele>
        <time>2011-10-16T10:08:44Z</time>
      </trkpt>
      <trkpt lat="45.69791" lon="4.61561">
        <ele>714</ele>
        <time>2011-10-16T10:08:46Z</time>
      </trkpt>
      <trkpt lat="45.6979" lon="4.61572">
        <ele>714</ele>
        <time>2011-10-16T10:08:48Z</time>
      </trkpt>
      <trkpt lat="45.69794" lon="4.61584">
        <ele>713</ele>
        <time>2011-10-16T10:08:50Z</time>
      </trkpt>
      <trkpt lat="45.69794" lon="4.61594">
        <ele>713</ele>
        <time>2011-10-16T10:08:52Z</time>
      </trkpt>
      <trkpt lat="45.69792" lon="4.61599">
        <ele>712</ele>
        <time>2011-10-16T10:08:53Z</time>
      </trkpt>
      <trkpt lat="45.69791" lon="4.61607">
        <ele>712</ele>
        <time>2011-10-16T10:08:53Z</time>
      </trkpt>
      <trkpt lat="45.69791" lon="4.61617">
        <ele>712</ele>
        <time>2011-10-16T10:08:55Z</time>
      </trkpt>
      <trkpt lat="45.69793" lon="4.61626">
        <ele>712</ele>
        <time>2011-10-16T10:08:57Z</time>
      </trkpt>
      <trkpt lat="45.69795" lon="4.61635">
        <ele>712</ele>
        <time>2011-10-16T10:08:59Z</time>
      </trkpt>
      <trkpt lat="45.69798" lon="4.6164">
        <ele>713</ele>
        <time>2011-10-16T10:09:00Z</time>
      </trkpt>
      <trkpt lat="45.69801" lon="4.61646">
        <ele>714</ele>
        <time>2011-10-16T10:09:03Z</time>
      </trkpt>
      <trkpt lat="45.69804" lon="4.61653">
        <ele>714</ele>
        <time>2011-10-16T10:09:05Z</time>
      </trkpt>
      <trkpt lat="45.69807" lon="4.61662">
        <ele>716</ele>
        <time>2011-10-16T10:09:07Z</time>
      </trkpt>
      <trkpt lat="45.69808" lon="4.61669">
        <ele>711</ele>
        <time>2011-10-16T10:09:08Z</time>
      </trkpt>
      <trkpt lat="45.69812" lon="4.61672">
        <ele>712</ele>
        <time>2011-10-16T10:09:09Z</time>
      </trkpt>
      <trkpt lat="45.69814" lon="4.61679">
        <ele>712</ele>
        <time>2011-10-16T10:09:11Z</time>
      </trkpt>
      <trkpt lat="45.69819" lon="4.6168">
        <ele>713</ele>
        <time>2011-10-16T10:09:13Z</time>
      </trkpt>
      <trkpt lat="45.69824" lon="4.61682">
        <ele>714</ele>
        <time>2011-10-16T10:09:15Z</time>
      </trkpt>
      <trkpt lat="45.69826" lon="4.61689">
        <ele>712</ele>
        <time>2011-10-16T10:09:17Z</time>
      </trkpt>
      <trkpt lat="45.69831" lon="4.61697">
        <ele>710</ele>
        <time>2011-10-16T10:09:20Z</time>
      </trkpt>
      <trkpt lat="45.69835" lon="4.61702">
        <ele>725</ele>
        <time>2011-10-16T10:09:22Z</time>
      </trkpt>
      <trkpt lat="45.69839" lon="4.61707">
        <ele>724</ele>
        <time>2011-10-16T10:09:24Z</time>
      </trkpt>
      <trkpt lat="45.69842" lon="4.61711">
        <ele>724</ele>
        <time>2011-10-16T10:09:26Z</time>
      </trkpt>
      <trkpt lat="45.69847" lon="4.61714">
        <ele>724</ele>
        <time>2011-10-16T10:09:28Z</time>
      </trkpt>
      <trkpt lat="45.69851" lon="4.61719">
        <ele>723</ele>
        <time>2011-10-16T10:09:31Z</time>
      </trkpt>
      <trkpt lat="45.69854" lon="4.61724">
        <ele>723</ele>
        <time>2011-10-16T10:09:33Z</time>
      </trkpt>
      <trkpt lat="45.6986" lon="4.61729">
        <ele>723</ele>
        <time>2011-10-16T10:09:36Z</time>
      </trkpt>
      <trkpt lat="45.69865" lon="4.61735">
        <ele>723</ele>
        <time>2011-10-16T10:09:42Z</time>
      </trkpt>
      <trkpt lat="45.69871" lon="4.61739">
        <ele>724</ele>
        <time>2011-10-16T10:09:44Z</time>
      </trkpt>
      <trkpt lat="45.69876" lon="4.61741">
        <ele>725</ele>
        <time>2011-10-16T10:09:46Z</time>
      </trkpt>
      <trkpt lat="45.69881" lon="4.61744">
        <ele>726</ele>
        <time>2011-10-16T10:09:48Z</time>
      </trkpt>
      <trkpt lat="45.69885" lon="4.61745">
        <ele>726</ele>
        <time>2011-10-16T10:09:50Z</time>
      </trkpt>
      <trkpt lat="45.69889" lon="4.6175">
        <ele>727</ele>
        <time>2011-10-16T10:09:52Z</time>
      </trkpt>
      <trkpt lat="45.69893" lon="4.61754">
        <ele>718</ele>
        <time>2011-10-16T10:09:54Z</time>
      </trkpt>
      <trkpt lat="45.69897" lon="4.61758">
        <ele>719</ele>
        <time>2011-10-16T10:09:56Z</time>
      </trkpt>
      <trkpt lat="45.69901" lon="4.6176">
        <ele>720</ele>
        <time>2011-10-16T10:09:58Z</time>
      </trkpt>
      <trkpt lat="45.69906" lon="4.61764">
        <ele>721</ele>
        <time>2011-10-16T10:10:00Z</time>
      </trkpt>
      <trkpt lat="45.6991" lon="4.61768">
        <ele>720</ele>
        <time>2011-10-16T10:10:02Z</time>
      </trkpt>
      <trkpt lat="45.69915" lon="4.61772">
        <ele>720</ele>
        <time>2011-10-16T10:10:05Z</time>
      </trkpt>
      <trkpt lat="45.69921" lon="4.61776">
        <ele>729</ele>
        <time>2011-10-16T10:10:07Z</time>
      </trkpt>
      <trkpt lat="45.69926" lon="4.61782">
        <ele>728</ele>
        <time>2011-10-16T10:10:09Z</time>
      </trkpt>
      <trkpt lat="45.69929" lon="4.61789">
        <ele>728</ele>
        <time>2011-10-16T10:10:11Z</time>
      </trkpt>
      <trkpt lat="45.69932" lon="4.61796">
        <ele>727</ele>
        <time>2011-10-16T10:10:13Z</time>
      </trkpt>
      <trkpt lat="45.69935" lon="4.61809">
        <ele>726</ele>
        <time>2011-10-16T10:10:15Z</time>
      </trkpt>
      <trkpt lat="45.69937" lon="4.61817">
        <ele>725</ele>
        <time>2011-10-16T10:10:16Z</time>
      </trkpt>
      <trkpt lat="45.6994" lon="4.61827">
        <ele>725</ele>
        <time>2011-10-16T10:10:17Z</time>
      </trkpt>
      <trkpt lat="45.69942" lon="4.61837">
        <ele>720</ele>
        <time>2011-10-16T10:10:18Z</time>
      </trkpt>
      <trkpt lat="45.69946" lon="4.61846">
        <ele>720</ele>
        <time>2011-10-16T10:10:20Z</time>
      </trkpt>
      <trkpt lat="45.69949" lon="4.61853">
        <ele>720</ele>
        <time>2011-10-16T10:10:21Z</time>
      </trkpt>
      <trkpt lat="45.69953" lon="4.6186">
        <ele>720</ele>
        <time>2011-10-16T10:10:22Z</time>
      </trkpt>
      <trkpt lat="45.69957" lon="4.61867">
        <ele>720</ele>
        <time>2011-10-16T10:10:24Z</time>
      </trkpt>
      <trkpt lat="45.6996" lon="4.61874">
        <ele>720</ele>
        <time>2011-10-16T10:10:26Z</time>
      </trkpt>
      <trkpt lat="45.69964" lon="4.61878">
        <ele>720</ele>
        <time>2011-10-16T10:10:27Z</time>
      </trkpt>
      <trkpt lat="45.69969" lon="4.61888">
        <ele>720</ele>
        <time>2011-10-16T10:10:29Z</time>
      </trkpt>
      <trkpt lat="45.69975" lon="4.61898">
        <ele>721</ele>
        <time>2011-10-16T10:10:31Z</time>
      </trkpt>
      <trkpt lat="45.69978" lon="4.61903">
        <ele>721</ele>
        <time>2011-10-16T10:10:32Z</time>
      </trkpt>
      <trkpt lat="45.69984" lon="4.61909">
        <ele>722</ele>
        <time>2011-10-16T10:10:34Z</time>
      </trkpt>
      <trkpt lat="45.6999" lon="4.61917">
        <ele>720</ele>
        <time>2011-10-16T10:10:36Z</time>
      </trkpt>
      <trkpt lat="45.69996" lon="4.61918">
        <ele>722</ele>
        <time>2011-10-16T10:10:38Z</time>
      </trkpt>
      <trkpt lat="45.70001" lon="4.61916">
        <ele>724</ele>
        <time>2011-10-16T10:10:40Z</time>
      </trkpt>
      <trkpt lat="45.70006" lon="4.61915">
        <ele>726</ele>
        <time>2011-10-16T10:10:42Z</time>
      </trkpt>
      <trkpt lat="45.7001" lon="4.61914">
        <ele>726</ele>
        <time>2011-10-16T10:10:45Z</time>
      </trkpt>
      <trkpt lat="45.70015" lon="4.61914">
        <ele>727</ele>
        <time>2011-10-16T10:10:52Z</time>
      </trkpt>
      <trkpt lat="45.70017" lon="4.61923">
        <ele>724</ele>
        <time>2011-10-16T10:10:56Z</time>
      </trkpt>
      <trkpt lat="45.70022" lon="4.61926">
        <ele>724</ele>
        <time>2011-10-16T10:15:44Z</time>
      </trkpt>
      <trkpt lat="45.70024" lon="4.61934">
        <ele>724</ele>
        <time>2011-10-16T10:15:58Z</time>
      </trkpt>
      <trkpt lat="45.70028" lon="4.6194">
        <ele>724</ele>
        <time>2011-10-16T10:16:00Z</time>
      </trkpt>
      <trkpt lat="45.70034" lon="4.61947">
        <ele>724</ele>
        <time>2011-10-16T10:16:02Z</time>
      </trkpt>
      <trkpt lat="45.70041" lon="4.61957">
        <ele>724</ele>
        <time>2011-10-16T10:16:04Z</time>
      </trkpt>
      <trkpt lat="45.70046" lon="4.61962">
        <ele>724</ele>
        <time>2011-10-16T10:16:05Z</time>
      </trkpt>
      <trkpt lat="45.70049" lon="4.61969">
        <ele>723</ele>
        <time>2011-10-16T10:16:06Z</time>
      </trkpt>
      <trkpt lat="45.70052" lon="4.61976">
        <ele>723</ele>
        <time>2011-10-16T10:16:07Z</time>
      </trkpt>
      <trkpt lat="45.70056" lon="4.61982">
        <ele>723</ele>
        <time>2011-10-16T10:16:08Z</time>
      </trkpt>
      <trkpt lat="45.7006" lon="4.61987">
        <ele>723</ele>
        <time>2011-10-16T10:16:09Z</time>
      </trkpt>
      <trkpt lat="45.70062" lon="4.61993">
        <ele>723</ele>
        <time>2011-10-16T10:16:10Z</time>
      </trkpt>
      <trkpt lat="45.70068" lon="4.62003">
        <ele>719</ele>
        <time>2011-10-16T10:16:12Z</time>
      </trkpt>
      <trkpt lat="45.70067" lon="4.62012">
        <ele>718</ele>
        <time>2011-10-16T10:16:14Z</time>
      </trkpt>
      <trkpt lat="45.70064" lon="4.62023">
        <ele>716</ele>
        <time>2011-10-16T10:16:16Z</time>
      </trkpt>
      <trkpt lat="45.7006" lon="4.62033">
        <ele>715</ele>
        <time>2011-10-16T10:16:18Z</time>
      </trkpt>
      <trkpt lat="45.7006" lon="4.62044">
        <ele>715</ele>
        <time>2011-10-16T10:16:20Z</time>
      </trkpt>
      <trkpt lat="45.70064" lon="4.62052">
        <ele>714</ele>
        <time>2011-10-16T10:16:22Z</time>
      </trkpt>
      <trkpt lat="45.70067" lon="4.62061">
        <ele>714</ele>
        <time>2011-10-16T10:16:24Z</time>
      </trkpt>
      <trkpt lat="45.70067" lon="4.6207">
        <ele>713</ele>
        <time>2011-10-16T10:16:26Z</time>
      </trkpt>
      <trkpt lat="45.70065" lon="4.62078">
        <ele>713</ele>
        <time>2011-10-16T10:16:29Z</time>
      </trkpt>
      <trkpt lat="45.70066" lon="4.62086">
        <ele>707</ele>
        <time>2011-10-16T10:16:31Z</time>
      </trkpt>
      <trkpt lat="45.70067" lon="4.62097">
        <ele>706</ele>
        <time>2011-10-16T10:16:33Z</time>
      </trkpt>
      <trkpt lat="45.70067" lon="4.62104">
        <ele>704</ele>
        <time>2011-10-16T10:16:34Z</time>
      </trkpt>
      <trkpt lat="45.70068" lon="4.62116">
        <ele>703</ele>
        <time>2011-10-16T10:16:36Z</time>
      </trkpt>
      <trkpt lat="45.70069" lon="4.62123">
        <ele>702</ele>
        <time>2011-10-16T10:16:37Z</time>
      </trkpt>
      <trkpt lat="45.70059" lon="4.62121">
        <ele>702</ele>
        <time>2011-10-16T10:16:37Z</time>
      </trkpt>
      <trkpt lat="45.70065" lon="4.62123">
        <ele>702</ele>
        <time>2011-10-16T10:16:39Z</time>
      </trkpt>
      <trkpt lat="45.70068" lon="4.62131">
        <ele>700</ele>
        <time>2011-10-16T10:16:41Z</time>
      </trkpt>
      <trkpt lat="45.70074" lon="4.62138">
        <ele>699</ele>
        <time>2011-10-16T10:16:43Z</time>
      </trkpt>
      <trkpt lat="45.7008" lon="4.62142">
        <ele>698</ele>
        <time>2011-10-16T10:16:45Z</time>
      </trkpt>
      <trkpt lat="45.70086" lon="4.62146">
        <ele>700</ele>
        <time>2011-10-16T10:16:47Z</time>
      </trkpt>
      <trkpt lat="45.70094" lon="4.62153">
        <ele>699</ele>
        <time>2011-10-16T10:16:49Z</time>
      </trkpt>
      <trkpt lat="45.701" lon="4.62159">
        <ele>699</ele>
        <time>2011-10-16T10:16:51Z</time>
      </trkpt>
      <trkpt lat="45.70101" lon="4.62167">
        <ele>688</ele>
        <time>2011-10-16T10:16:52Z</time>
      </trkpt>
      <trkpt lat="45.70108" lon="4.62175">
        <ele>686</ele>
        <time>2011-10-16T10:16:54Z</time>
      </trkpt>
      <trkpt lat="45.70112" lon="4.62179">
        <ele>686</ele>
        <time>2011-10-16T10:16:56Z</time>
      </trkpt>
      <trkpt lat="45.70119" lon="4.62182">
        <ele>686</ele>
        <time>2011-10-16T10:16:58Z</time>
      </trkpt>
      <trkpt lat="45.70125" lon="4.62188">
        <ele>685</ele>
        <time>2011-10-16T10:17:00Z</time>
      </trkpt>
      <trkpt lat="45.70132" lon="4.62196">
        <ele>685</ele>
        <time>2011-10-16T10:17:02Z</time>
      </trkpt>
      <trkpt lat="45.70136" lon="4.62199">
        <ele>684</ele>
        <time>2011-10-16T10:17:03Z</time>
      </trkpt>
      <trkpt lat="45.70142" lon="4.62205">
        <ele>684</ele>
        <time>2011-10-16T10:17:04Z</time>
      </trkpt>
      <trkpt lat="45.70145" lon="4.62213">
        <ele>682</ele>
        <time>2011-10-16T10:17:05Z</time>
      </trkpt>
      <trkpt lat="45.7015" lon="4.62215">
        <ele>682</ele>
        <time>2011-10-16T10:17:06Z</time>
      </trkpt>
      <trkpt lat="45.70157" lon="4.62221">
        <ele>681</ele>
        <time>2011-10-16T10:17:07Z</time>
      </trkpt>
      <trkpt lat="45.70165" lon="4.6223">
        <ele>680</ele>
        <time>2011-10-16T10:17:08Z</time>
      </trkpt>
      <trkpt lat="45.7017" lon="4.62239">
        <ele>682</ele>
        <time>2011-10-16T10:17:09Z</time>
      </trkpt>
      <trkpt lat="45.70177" lon="4.62249">
        <ele>681</ele>
        <time>2011-10-16T10:17:10Z</time>
      </trkpt>
      <trkpt lat="45.7018" lon="4.62257">
        <ele>674</ele>
        <time>2011-10-16T10:17:11Z</time>
      </trkpt>
      <trkpt lat="45.70187" lon="4.62263">
        <ele>674</ele>
        <time>2011-10-16T10:17:12Z</time>
      </trkpt>
      <trkpt lat="45.7019" lon="4.62273">
        <ele>674</ele>
        <time>2011-10-16T10:17:13Z</time>
      </trkpt>
      <trkpt lat="45.70188" lon="4.62281">
        <ele>673</ele>
        <time>2011-10-16T10:17:14Z</time>
      </trkpt>
      <trkpt lat="45.7019" lon="4.62291">
        <ele>672</ele>
        <time>2011-10-16T10:17:15Z</time>
      </trkpt>
      <trkpt lat="45.70198" lon="4.62298">
        <ele>671</ele>
        <time>2011-10-16T10:17:16Z</time>
      </trkpt>
      <trkpt lat="45.70204" lon="4.62305">
        <ele>671</ele>
        <time>2011-10-16T10:17:17Z</time>
      </trkpt>
      <trkpt lat="45.7021" lon="4.62312">
        <ele>671</ele>
        <time>2011-10-16T10:17:18Z</time>
      </trkpt>
      <trkpt lat="45.70216" lon="4.62318">
        <ele>672</ele>
        <time>2011-10-16T10:17:19Z</time>
      </trkpt>
      <trkpt lat="45.70222" lon="4.62328">
        <ele>672</ele>
        <time>2011-10-16T10:17:20Z</time>
      </trkpt>
      <trkpt lat="45.70229" lon="4.62336">
        <ele>664</ele>
        <time>2011-10-16T10:17:21Z</time>
      </trkpt>
      <trkpt lat="45.70235" lon="4.62344">
        <ele>665</ele>
        <time>2011-10-16T10:17:22Z</time>
      </trkpt>
      <trkpt lat="45.70241" lon="4.62351">
        <ele>664</ele>
        <time>2011-10-16T10:17:23Z</time>
      </trkpt>
      <trkpt lat="45.70245" lon="4.62357">
        <ele>663</ele>
        <time>2011-10-16T10:17:24Z</time>
      </trkpt>
      <trkpt lat="45.70249" lon="4.62364">
        <ele>662</ele>
        <time>2011-10-16T10:17:25Z</time>
      </trkpt>
      <trkpt lat="45.70254" lon="4.62375">
        <ele>671</ele>
        <time>2011-10-16T10:17:26Z</time>
      </trkpt>
      <trkpt lat="45.7026" lon="4.62385">
        <ele>670</ele>
        <time>2011-10-16T10:17:27Z</time>
      </trkpt>
      <trkpt lat="45.70266" lon="4.62389">
        <ele>670</ele>
        <time>2011-10-16T10:17:27Z</time>
      </trkpt>
      <trkpt lat="45.70274" lon="4.624">
        <ele>670</ele>
        <time>2011-10-16T10:17:29Z</time>
      </trkpt>
      <trkpt lat="45.70277" lon="4.62408">
        <ele>669</ele>
        <time>2011-10-16T10:17:30Z</time>
      </trkpt>
      <trkpt lat="45.70282" lon="4.62416">
        <ele>670</ele>
        <time>2011-10-16T10:17:31Z</time>
      </trkpt>
      <trkpt lat="45.70286" lon="4.62425">
        <ele>664</ele>
        <time>2011-10-16T10:17:32Z</time>
      </trkpt>
      <trkpt lat="45.70287" lon="4.62431">
        <ele>664</ele>
        <time>2011-10-16T10:17:33Z</time>
      </trkpt>
      <trkpt lat="45.70297" lon="4.6245">
        <ele>664</ele>
        <time>2011-10-16T10:17:37Z</time>
      </trkpt>
      <trkpt lat="45.70292" lon="4.62453">
        <ele>664</ele>
        <time>2011-10-16T10:17:38Z</time>
      </trkpt>
      <trkpt lat="45.70298" lon="4.62466">
        <ele>664</ele>
        <time>2011-10-16T10:17:40Z</time>
      </trkpt>
      <trkpt lat="45.70304" lon="4.62474">
        <ele>664</ele>
        <time>2011-10-16T10:17:41Z</time>
      </trkpt>
      <trkpt lat="45.7031" lon="4.62482">
        <ele>665</ele>
        <time>2011-10-16T10:17:42Z</time>
      </trkpt>
      <trkpt lat="45.70315" lon="4.62494">
        <ele>666</ele>
        <time>2011-10-16T10:17:43Z</time>
      </trkpt>
      <trkpt lat="45.70321" lon="4.62504">
        <ele>665</ele>
        <time>2011-10-16T10:17:44Z</time>
      </trkpt>
      <trkpt lat="45.70324" lon="4.62516">
        <ele>663</ele>
        <time>2011-10-16T10:17:45Z</time>
      </trkpt>
      <trkpt lat="45.70323" lon="4.6253">
        <ele>660</ele>
        <time>2011-10-16T10:17:46Z</time>
      </trkpt>
      <trkpt lat="45.70328" lon="4.62538">
        <ele>660</ele>
        <time>2011-10-16T10:17:47Z</time>
      </trkpt>
      <trkpt lat="45.70329" lon="4.62546">
        <ele>659</ele>
        <time>2011-10-16T10:17:48Z</time>
      </trkpt>
      <trkpt lat="45.70332" lon="4.62556">
        <ele>659</ele>
        <time>2011-10-16T10:17:49Z</time>
      </trkpt>
      <trkpt lat="45.70334" lon="4.62564">
        <ele>662</ele>
        <time>2011-10-16T10:17:50Z</time>
      </trkpt>
      <trkpt lat="45.70336" lon="4.6257">
        <ele>662</ele>
        <time>2011-10-16T10:17:51Z</time>
      </trkpt>
      <trkpt lat="45.70335" lon="4.62578">
        <ele>663</ele>
        <time>2011-10-16T10:17:53Z</time>
      </trkpt>
      <trkpt lat="45.70337" lon="4.62584">
        <ele>661</ele>
        <time>2011-10-16T10:17:57Z</time>
      </trkpt>
      <trkpt lat="45.70332" lon="4.62587">
        <ele>661</ele>
        <time>2011-10-16T10:17:59Z</time>
      </trkpt>
      <trkpt lat="45.70333" lon="4.62594">
        <ele>658</ele>
        <time>2011-10-16T10:18:12Z</time>
      </trkpt>
      <trkpt lat="45.70329" lon="4.62596">
        <ele>657</ele>
        <time>2011-10-16T10:18:29Z</time>
      </trkpt>
      <trkpt lat="45.7032" lon="4.626">
        <ele>655</ele>
        <time>2011-10-16T10:18:31Z</time>
      </trkpt>
      <trkpt lat="45.70315" lon="4.62604">
        <ele>654</ele>
        <time>2011-10-16T10:18:32Z</time>
      </trkpt>
      <trkpt lat="45.70309" lon="4.62608">
        <ele>652</ele>
        <time>2011-10-16T10:18:34Z</time>
      </trkpt>
      <trkpt lat="45.70304" lon="4.62615">
        <ele>651</ele>
        <time>2011-10-16T10:18:36Z</time>
      </trkpt>
      <trkpt lat="45.703" lon="4.62621">
        <ele>650</ele>
        <time>2011-10-16T10:18:37Z</time>
      </trkpt>
      <trkpt lat="45.70296" lon="4.62628">
        <ele>650</ele>
        <time>2011-10-16T10:18:38Z</time>
      </trkpt>
      <trkpt lat="45.70288" lon="4.62631">
        <ele>649</ele>
        <time>2011-10-16T10:18:38Z</time>
      </trkpt>
      <trkpt lat="45.70283" lon="4.62647">
        <ele>647</ele>
        <time>2011-10-16T10:18:40Z</time>
      </trkpt>
      <trkpt lat="45.7028" lon="4.62658">
        <ele>646</ele>
        <time>2011-10-16T10:18:41Z</time>
      </trkpt>
      <trkpt lat="45.70264" lon="4.6266">
        <ele>643</ele>
        <time>2011-10-16T10:18:41Z</time>
      </trkpt>
      <trkpt lat="45.7026" lon="4.62677">
        <ele>643</ele>
        <time>2011-10-16T10:18:43Z</time>
      </trkpt>
      <trkpt lat="45.70256" lon="4.62683">
        <ele>643</ele>
        <time>2011-10-16T10:18:44Z</time>
      </trkpt>
      <trkpt lat="45.7025" lon="4.62705">
        <ele>646</ele>
        <time>2011-10-16T10:18:45Z</time>
      </trkpt>
      <trkpt lat="45.70249" lon="4.6272">
        <ele>631</ele>
        <time>2011-10-16T10:18:46Z</time>
      </trkpt>
      <trkpt lat="45.70247" lon="4.62728">
        <ele>632</ele>
        <time>2011-10-16T10:18:47Z</time>
      </trkpt>
      <trkpt lat="45.70244" lon="4.62741">
        <ele>636</ele>
        <time>2011-10-16T10:18:48Z</time>
      </trkpt>
      <trkpt lat="45.70239" lon="4.62752">
        <ele>638</ele>
        <time>2011-10-16T10:18:49Z</time>
      </trkpt>
      <trkpt lat="45.70234" lon="4.62761">
        <ele>636</ele>
        <time>2011-10-16T10:18:50Z</time>
      </trkpt>
      <trkpt lat="45.70232" lon="4.62768">
        <ele>635</ele>
        <time>2011-10-16T10:18:51Z</time>
      </trkpt>
      <trkpt lat="45.70231" lon="4.62778">
        <ele>635</ele>
        <time>2011-10-16T10:18:52Z</time>
      </trkpt>
      <trkpt lat="45.70224" lon="4.62788">
        <ele>634</ele>
        <time>2011-10-16T10:18:54Z</time>
      </trkpt>
      <trkpt lat="45.70218" lon="4.62792">
        <ele>633</ele>
        <time>2011-10-16T10:18:55Z</time>
      </trkpt>
      <trkpt lat="45.70214" lon="4.62797">
        <ele>633</ele>
        <time>2011-10-16T10:18:56Z</time>
      </trkpt>
      <trkpt lat="45.70204" lon="4.628">
        <ele>631</ele>
        <time>2011-10-16T10:18:57Z</time>
      </trkpt>
      <trkpt lat="45.70196" lon="4.62808">
        <ele>630</ele>
        <time>2011-10-16T10:18:58Z</time>
      </trkpt>
      <trkpt lat="45.70192" lon="4.62815">
        <ele>629</ele>
        <time>2011-10-16T10:18:59Z</time>
      </trkpt>
      <trkpt lat="45.70186" lon="4.62824">
        <ele>627</ele>
        <time>2011-10-16T10:19:00Z</time>
      </trkpt>
      <trkpt lat="45.70185" lon="4.62832">
        <ele>627</ele>
        <time>2011-10-16T10:19:01Z</time>
      </trkpt>
      <trkpt lat="45.7018" lon="4.62836">
        <ele>631</ele>
        <time>2011-10-16T10:19:02Z</time>
      </trkpt>
      <trkpt lat="45.70176" lon="4.62846">
        <ele>632</ele>
        <time>2011-10-16T10:19:03Z</time>
      </trkpt>
      <trkpt lat="45.70174" lon="4.62853">
        <ele>634</ele>
        <time>2011-10-16T10:19:04Z</time>
      </trkpt>
      <trkpt lat="45.70166" lon="4.62858">
        <ele>620</ele>
        <time>2011-10-16T10:19:05Z</time>
      </trkpt>
      <trkpt lat="45.70162" lon="4.62863">
        <ele>620</ele>
        <time>2011-10-16T10:19:06Z</time>
      </trkpt>
      <trkpt lat="45.70157" lon="4.62876">
        <ele>621</ele>
        <time>2011-10-16T10:19:07Z</time>
      </trkpt>
      <trkpt lat="45.70148" lon="4.62886">
        <ele>621</ele>
        <time>2011-10-16T10:19:08Z</time>
      </trkpt>
      <trkpt lat="45.70145" lon="4.62898">
        <ele>623</ele>
        <time>2011-10-16T10:19:09Z</time>
      </trkpt>
      <trkpt lat="45.70141" lon="4.62904">
        <ele>623</ele>
        <time>2011-10-16T10:19:10Z</time>
      </trkpt>
      <trkpt lat="45.70132" lon="4.62907">
        <ele>621</ele>
        <time>2011-10-16T10:19:11Z</time>
      </trkpt>
      <trkpt lat="45.70127" lon="4.62916">
        <ele>621</ele>
        <time>2011-10-16T10:19:12Z</time>
      </trkpt>
      <trkpt lat="45.7012" lon="4.62922">
        <ele>631</ele>
        <time>2011-10-16T10:19:13Z</time>
      </trkpt>
      <trkpt lat="45.70114" lon="4.62932">
        <ele>631</ele>
        <time>2011-10-16T10:19:14Z</time>
      </trkpt>
      <trkpt lat="45.70104" lon="4.62938">
        <ele>630</ele>
        <time>2011-10-16T10:19:16Z</time>
      </trkpt>
      <trkpt lat="45.70096" lon="4.62945">
        <ele>630</ele>
        <time>2011-10-16T10:19:18Z</time>
      </trkpt>
      <trkpt lat="45.70091" lon="4.62948">
        <ele>630</ele>
        <time>2011-10-16T10:19:19Z</time>
      </trkpt>
      <trkpt lat="45.70086" lon="4.62955">
        <ele>631</ele>
        <time>2011-10-16T10:19:21Z</time>
      </trkpt>
      <trkpt lat="45.70076" lon="4.62957">
        <ele>619</ele>
        <time>2011-10-16T10:19:22Z</time>
      </trkpt>
      <trkpt lat="45.70069" lon="4.62958">
        <ele>619</ele>
        <time>2011-10-16T10:19:23Z</time>
      </trkpt>
      <trkpt lat="45.70061" lon="4.62963">
        <ele>619</ele>
        <time>2011-10-16T10:19:24Z</time>
      </trkpt>
      <trkpt lat="45.70053" lon="4.62967">
        <ele>619</ele>
        <time>2011-10-16T10:19:25Z</time>
      </trkpt>
      <trkpt lat="45.70047" lon="4.6297">
        <ele>619</ele>
        <time>2011-10-16T10:19:26Z</time>
      </trkpt>
      <trkpt lat="45.7004" lon="4.62972">
        <ele>618</ele>
        <time>2011-10-16T10:19:27Z</time>
      </trkpt>
      <trkpt lat="45.70031" lon="4.62978">
        <ele>618</ele>
        <time>2011-10-16T10:19:28Z</time>
      </trkpt>
      <trkpt lat="45.70026" lon="4.62983">
        <ele>618</ele>
        <time>2011-10-16T10:19:29Z</time>
      </trkpt>
      <trkpt lat="45.7002" lon="4.62985">
        <ele>617</ele>
        <time>2011-10-16T10:19:30Z</time>
      </trkpt>
      <trkpt lat="45.7001" lon="4.62991">
        <ele>617</ele>
        <time>2011-10-16T10:19:31Z</time>
      </trkpt>
      <trkpt lat="45.70003" lon="4.62995">
        <ele>618</ele>
        <time>2011-10-16T10:19:32Z</time>
      </trkpt>
      <trkpt lat="45.69996" lon="4.62997">
        <ele>614</ele>
        <time>2011-10-16T10:19:34Z</time>
      </trkpt>
      <trkpt lat="45.69989" lon="4.62994">
        <ele>610</ele>
        <time>2011-10-16T10:19:36Z</time>
      </trkpt>
      <trkpt lat="45.69982" lon="4.62994">
        <ele>608</ele>
        <time>2011-10-16T10:19:37Z</time>
      </trkpt>
      <trkpt lat="45.69974" lon="4.62993">
        <ele>605</ele>
        <time>2011-10-16T10:19:39Z</time>
      </trkpt>
      <trkpt lat="45.69966" lon="4.62994">
        <ele>603</ele>
        <time>2011-10-16T10:19:41Z</time>
      </trkpt>
      <trkpt lat="45.69958" lon="4.62998">
        <ele>602</ele>
        <time>2011-10-16T10:19:43Z</time>
      </trkpt>
      <trkpt lat="45.69953" lon="4.63">
        <ele>601</ele>
        <time>2011-10-16T10:19:44Z</time>
      </trkpt>
      <trkpt lat="45.69943" lon="4.63">
        <ele>600</ele>
        <time>2011-10-16T10:19:45Z</time>
      </trkpt>
      <trkpt lat="45.69935" lon="4.63003">
        <ele>605</ele>
        <time>2011-10-16T10:19:47Z</time>
      </trkpt>
      <trkpt lat="45.69929" lon="4.63003">
        <ele>603</ele>
        <time>2011-10-16T10:19:48Z</time>
      </trkpt>
      <trkpt lat="45.69921" lon="4.63004">
        <ele>600</ele>
        <time>2011-10-16T10:19:50Z</time>
      </trkpt>
      <trkpt lat="45.69916" lon="4.63006">
        <ele>595</ele>
        <time>2011-10-16T10:19:51Z</time>
      </trkpt>
      <trkpt lat="45.69912" lon="4.63005">
        <ele>595</ele>
        <time>2011-10-16T10:19:52Z</time>
      </trkpt>
      <trkpt lat="45.69904" lon="4.6301">
        <ele>592</ele>
        <time>2011-10-16T10:19:55Z</time>
      </trkpt>
      <trkpt lat="45.69901" lon="4.63017">
        <ele>591</ele>
        <time>2011-10-16T10:19:57Z</time>
      </trkpt>
      <trkpt lat="45.69901" lon="4.63024">
        <ele>590</ele>
        <time>2011-10-16T10:19:59Z</time>
      </trkpt>
      <trkpt lat="45.69899" lon="4.63031">
        <ele>590</ele>
        <time>2011-10-16T10:20:01Z</time>
      </trkpt>
      <trkpt lat="45.69904" lon="4.63032">
        <ele>591</ele>
        <time>2011-10-16T10:20:07Z</time>
      </trkpt>
      <trkpt lat="45.69898" lon="4.63034">
        <ele>590</ele>
        <time>2011-10-16T10:23:25Z</time>
      </trkpt>
      <trkpt lat="45.69894" lon="4.63035">
        <ele>589</ele>
        <time>2011-10-16T10:23:27Z</time>
      </trkpt>
      <trkpt lat="45.6989" lon="4.63042">
        <ele>589</ele>
        <time>2011-10-16T10:23:29Z</time>
      </trkpt>
      <trkpt lat="45.69886" lon="4.63048">
        <ele>589</ele>
        <time>2011-10-16T10:23:31Z</time>
      </trkpt>
      <trkpt lat="45.69881" lon="4.63055">
        <ele>588</ele>
        <time>2011-10-16T10:23:33Z</time>
      </trkpt>
      <trkpt lat="45.69875" lon="4.63066">
        <ele>587</ele>
        <time>2011-10-16T10:23:36Z</time>
      </trkpt>
      <trkpt lat="45.69868" lon="4.63069">
        <ele>586</ele>
        <time>2011-10-16T10:23:37Z</time>
      </trkpt>
      <trkpt lat="45.69867" lon="4.63076">
        <ele>585</ele>
        <time>2011-10-16T10:23:39Z</time>
      </trkpt>
      <trkpt lat="45.69864" lon="4.63082">
        <ele>585</ele>
        <time>2011-10-16T10:23:41Z</time>
      </trkpt>
      <trkpt lat="45.69861" lon="4.63087">
        <ele>587</ele>
        <time>2011-10-16T10:23:43Z</time>
      </trkpt>
      <trkpt lat="45.69856" lon="4.63095">
        <ele>586</ele>
        <time>2011-10-16T10:23:45Z</time>
      </trkpt>
      <trkpt lat="45.6985" lon="4.63104">
        <ele>586</ele>
        <time>2011-10-16T10:23:47Z</time>
      </trkpt>
      <trkpt lat="45.69845" lon="4.63116">
        <ele>587</ele>
        <time>2011-10-16T10:23:49Z</time>
      </trkpt>
      <trkpt lat="45.69841" lon="4.63122">
        <ele>587</ele>
        <time>2011-10-16T10:23:50Z</time>
      </trkpt>
      <trkpt lat="45.69837" lon="4.63128">
        <ele>587</ele>
        <time>2011-10-16T10:23:51Z</time>
      </trkpt>
      <trkpt lat="45.69831" lon="4.63134">
        <ele>569</ele>
        <time>2011-10-16T10:23:52Z</time>
      </trkpt>
      <trkpt lat="45.69826" lon="4.6314">
        <ele>569</ele>
        <time>2011-10-16T10:23:53Z</time>
      </trkpt>
      <trkpt lat="45.69822" lon="4.63147">
        <ele>570</ele>
        <time>2011-10-16T10:23:54Z</time>
      </trkpt>
      <trkpt lat="45.69818" lon="4.63154">
        <ele>570</ele>
        <time>2011-10-16T10:23:55Z</time>
      </trkpt>
      <trkpt lat="45.69814" lon="4.63161">
        <ele>570</ele>
        <time>2011-10-16T10:23:56Z</time>
      </trkpt>
      <trkpt lat="45.69811" lon="4.63169">
        <ele>571</ele>
        <time>2011-10-16T10:23:57Z</time>
      </trkpt>
      <trkpt lat="45.69808" lon="4.63177">
        <ele>569</ele>
        <time>2011-10-16T10:23:58Z</time>
      </trkpt>
      <trkpt lat="45.69806" lon="4.63186">
        <ele>568</ele>
        <time>2011-10-16T10:23:59Z</time>
      </trkpt>
      <trkpt lat="45.69806" lon="4.63195">
        <ele>568</ele>
        <time>2011-10-16T10:24:00Z</time>
      </trkpt>
      <trkpt lat="45.69803" lon="4.63203">
        <ele>567</ele>
        <time>2011-10-16T10:24:01Z</time>
      </trkpt>
      <trkpt lat="45.69801" lon="4.63214">
        <ele>567</ele>
        <time>2011-10-16T10:24:02Z</time>
      </trkpt>
      <trkpt lat="45.69799" lon="4.63225">
        <ele>567</ele>
        <time>2011-10-16T10:24:03Z</time>
      </trkpt>
      <trkpt lat="45.69797" lon="4.63238">
        <ele>566</ele>
        <time>2011-10-16T10:24:04Z</time>
      </trkpt>
      <trkpt lat="45.69795" lon="4.6325">
        <ele>562</ele>
        <time>2011-10-16T10:24:05Z</time>
      </trkpt>
      <trkpt lat="45.69793" lon="4.63263">
        <ele>561</ele>
        <time>2011-10-16T10:24:06Z</time>
      </trkpt>
      <trkpt lat="45.69792" lon="4.63275">
        <ele>560</ele>
        <time>2011-10-16T10:24:07Z</time>
      </trkpt>
      <trkpt lat="45.69792" lon="4.63286">
        <ele>559</ele>
        <time>2011-10-16T10:24:08Z</time>
      </trkpt>
      <trkpt lat="45.69791" lon="4.63297">
        <ele>558</ele>
        <time>2011-10-16T10:24:09Z</time>
      </trkpt>
      <trkpt lat="45.6979" lon="4.63307">
        <ele>557</ele>
        <time>2011-10-16T10:24:10Z</time>
      </trkpt>
      <trkpt lat="45.69789" lon="4.63317">
        <ele>557</ele>
        <time>2011-10-16T10:24:11Z</time>
      </trkpt>
      <trkpt lat="45.6979" lon="4.63327">
        <ele>556</ele>
        <time>2011-10-16T10:24:12Z</time>
      </trkpt>
      <trkpt lat="45.69792" lon="4.63337">
        <ele>549</ele>
        <time>2011-10-16T10:24:13Z</time>
      </trkpt>
      <trkpt lat="45.69793" lon="4.63346">
        <ele>548</ele>
        <time>2011-10-16T10:24:14Z</time>
      </trkpt>
      <trkpt lat="45.69796" lon="4.63355">
        <ele>548</ele>
        <time>2011-10-16T10:24:15Z</time>
      </trkpt>
      <trkpt lat="45.698" lon="4.63361">
        <ele>548</ele>
        <time>2011-10-16T10:24:16Z</time>
      </trkpt>
      <trkpt lat="45.69805" lon="4.63369">
        <ele>548</ele>
        <time>2011-10-16T10:24:17Z</time>
      </trkpt>
      <trkpt lat="45.69811" lon="4.63374">
        <ele>548</ele>
        <time>2011-10-16T10:24:18Z</time>
      </trkpt>
      <trkpt lat="45.69816" lon="4.63379">
        <ele>548</ele>
        <time>2011-10-16T10:24:19Z</time>
      </trkpt>
      <trkpt lat="45.69823" lon="4.63388">
        <ele>547</ele>
        <time>2011-10-16T10:24:20Z</time>
      </trkpt>
      <trkpt lat="45.69829" lon="4.63394">
        <ele>547</ele>
        <time>2011-10-16T10:24:21Z</time>
      </trkpt>
      <trkpt lat="45.69834" lon="4.63402">
        <ele>556</ele>
        <time>2011-10-16T10:24:22Z</time>
      </trkpt>
      <trkpt lat="45.6984" lon="4.63404">
        <ele>556</ele>
        <time>2011-10-16T10:24:23Z</time>
      </trkpt>
      <trkpt lat="45.69846" lon="4.63408">
        <ele>556</ele>
        <time>2011-10-16T10:24:25Z</time>
      </trkpt>
      <trkpt lat="45.6985" lon="4.63412">
        <ele>557</ele>
        <time>2011-10-16T10:24:26Z</time>
      </trkpt>
      <trkpt lat="45.69855" lon="4.6342">
        <ele>551</ele>
        <time>2011-10-16T10:24:27Z</time>
      </trkpt>
      <trkpt lat="45.69857" lon="4.63428">
        <ele>552</ele>
        <time>2011-10-16T10:24:28Z</time>
      </trkpt>
      <trkpt lat="45.69859" lon="4.63437">
        <ele>552</ele>
        <time>2011-10-16T10:24:29Z</time>
      </trkpt>
      <trkpt lat="45.6986" lon="4.63445">
        <ele>552</ele>
        <time>2011-10-16T10:24:30Z</time>
      </trkpt>
      <trkpt lat="45.69861" lon="4.63457">
        <ele>552</ele>
        <time>2011-10-16T10:24:31Z</time>
      </trkpt>
      <trkpt lat="45.69858" lon="4.63465">
        <ele>550</ele>
        <time>2011-10-16T10:24:32Z</time>
      </trkpt>
      <trkpt lat="45.69857" lon="4.63481">
        <ele>548</ele>
        <time>2011-10-16T10:24:34Z</time>
      </trkpt>
      <trkpt lat="45.69856" lon="4.63497">
        <ele>546</ele>
        <time>2011-10-16T10:24:36Z</time>
      </trkpt>
      <trkpt lat="45.69858" lon="4.63506">
        <ele>542</ele>
        <time>2011-10-16T10:24:37Z</time>
      </trkpt>
      <trkpt lat="45.69861" lon="4.63516">
        <ele>542</ele>
        <time>2011-10-16T10:24:38Z</time>
      </trkpt>
      <trkpt lat="45.69861" lon="4.63524">
        <ele>543</ele>
        <time>2011-10-16T10:24:39Z</time>
      </trkpt>
      <trkpt lat="45.69861" lon="4.63533">
        <ele>543</ele>
        <time>2011-10-16T10:24:40Z</time>
      </trkpt>
      <trkpt lat="45.6986" lon="4.63542">
        <ele>542</ele>
        <time>2011-10-16T10:24:41Z</time>
      </trkpt>
      <trkpt lat="45.69857" lon="4.63548">
        <ele>541</ele>
        <time>2011-10-16T10:24:42Z</time>
      </trkpt>
      <trkpt lat="45.69855" lon="4.63554">
        <ele>540</ele>
        <time>2011-10-16T10:24:43Z</time>
      </trkpt>
      <trkpt lat="45.69852" lon="4.63562">
        <ele>539</ele>
        <time>2011-10-16T10:24:44Z</time>
      </trkpt>
      <trkpt lat="45.69852" lon="4.63571">
        <ele>537</ele>
        <time>2011-10-16T10:24:45Z</time>
      </trkpt>
      <trkpt lat="45.69849" lon="4.63579">
        <ele>535</ele>
        <time>2011-10-16T10:24:46Z</time>
      </trkpt>
      <trkpt lat="45.69842" lon="4.63574">
        <ele>533</ele>
        <time>2011-10-16T10:24:46Z</time>
      </trkpt>
      <trkpt lat="45.69841" lon="4.63593">
        <ele>532</ele>
        <time>2011-10-16T10:24:48Z</time>
      </trkpt>
      <trkpt lat="45.69839" lon="4.63603">
        <ele>534</ele>
        <time>2011-10-16T10:24:49Z</time>
      </trkpt>
      <trkpt lat="45.69838" lon="4.6361">
        <ele>535</ele>
        <time>2011-10-16T10:24:50Z</time>
      </trkpt>
      <trkpt lat="45.69837" lon="4.63621">
        <ele>536</ele>
        <time>2011-10-16T10:24:52Z</time>
      </trkpt>
      <trkpt lat="45.69838" lon="4.63627">
        <ele>536</ele>
        <time>2011-10-16T10:24:53Z</time>
      </trkpt>
      <trkpt lat="45.69836" lon="4.63634">
        <ele>536</ele>
        <time>2011-10-16T10:24:54Z</time>
      </trkpt>
      <trkpt lat="45.69834" lon="4.63641">
        <ele>535</ele>
        <time>2011-10-16T10:24:55Z</time>
      </trkpt>
      <trkpt lat="45.69832" lon="4.63649">
        <ele>521</ele>
        <time>2011-10-16T10:24:56Z</time>
      </trkpt>
      <trkpt lat="45.6983" lon="4.63659">
        <ele>523</ele>
        <time>2011-10-16T10:24:57Z</time>
      </trkpt>
      <trkpt lat="45.69829" lon="4.6367">
        <ele>524</ele>
        <time>2011-10-16T10:24:58Z</time>
      </trkpt>
      <trkpt lat="45.69826" lon="4.63681">
        <ele>522</ele>
        <time>2011-10-16T10:24:59Z</time>
      </trkpt>
      <trkpt lat="45.69823" lon="4.63691">
        <ele>521</ele>
        <time>2011-10-16T10:25:00Z</time>
      </trkpt>
      <trkpt lat="45.69819" lon="4.637">
        <ele>521</ele>
        <time>2011-10-16T10:25:01Z</time>
      </trkpt>
      <trkpt lat="45.69814" lon="4.63708">
        <ele>520</ele>
        <time>2011-10-16T10:25:02Z</time>
      </trkpt>
      <trkpt lat="45.69808" lon="4.63715">
        <ele>520</ele>
        <time>2011-10-16T10:25:03Z</time>
      </trkpt>
      <trkpt lat="45.69803" lon="4.63723">
        <ele>520</ele>
        <time>2011-10-16T10:25:04Z</time>
      </trkpt>
      <trkpt lat="45.698" lon="4.63731">
        <ele>520</ele>
        <time>2011-10-16T10:25:05Z</time>
      </trkpt>
      <trkpt lat="45.69795" lon="4.63741">
        <ele>519</ele>
        <time>2011-10-16T10:25:06Z</time>
      </trkpt>
      <trkpt lat="45.69791" lon="4.63748">
        <ele>518</ele>
        <time>2011-10-16T10:25:07Z</time>
      </trkpt>
      <trkpt lat="45.69787" lon="4.63757">
        <ele>518</ele>
        <time>2011-10-16T10:25:08Z</time>
      </trkpt>
      <trkpt lat="45.69785" lon="4.63766">
        <ele>518</ele>
        <time>2011-10-16T10:25:09Z</time>
      </trkpt>
      <trkpt lat="45.69782" lon="4.63772">
        <ele>517</ele>
        <time>2011-10-16T10:25:10Z</time>
      </trkpt>
      <trkpt lat="45.69779" lon="4.63779">
        <ele>517</ele>
        <time>2011-10-16T10:25:11Z</time>
      </trkpt>
      <trkpt lat="45.69775" lon="4.63784">
        <ele>517</ele>
        <time>2011-10-16T10:25:12Z</time>
      </trkpt>
      <trkpt lat="45.6977" lon="4.63788">
        <ele>516</ele>
        <time>2011-10-16T10:25:13Z</time>
      </trkpt>
      <trkpt lat="45.69766" lon="4.63791">
        <ele>516</ele>
        <time>2011-10-16T10:25:14Z</time>
      </trkpt>
      <trkpt lat="45.6976" lon="4.63796">
        <ele>515</ele>
        <time>2011-10-16T10:25:15Z</time>
      </trkpt>
      <trkpt lat="45.69759" lon="4.63804">
        <ele>515</ele>
        <time>2011-10-16T10:25:16Z</time>
      </trkpt>
      <trkpt lat="45.69758" lon="4.63813">
        <ele>514</ele>
        <time>2011-10-16T10:25:17Z</time>
      </trkpt>
      <trkpt lat="45.69759" lon="4.63821">
        <ele>513</ele>
        <time>2011-10-16T10:25:18Z</time>
      </trkpt>
      <trkpt lat="45.6976" lon="4.6383">
        <ele>512</ele>
        <time>2011-10-16T10:25:19Z</time>
      </trkpt>
      <trkpt lat="45.69761" lon="4.63839">
        <ele>511</ele>
        <time>2011-10-16T10:25:20Z</time>
      </trkpt>
      <trkpt lat="45.69765" lon="4.63846">
        <ele>511</ele>
        <time>2011-10-16T10:25:21Z</time>
      </trkpt>
      <trkpt lat="45.69768" lon="4.63852">
        <ele>512</ele>
        <time>2011-10-16T10:25:22Z</time>
      </trkpt>
      <trkpt lat="45.6977" lon="4.63859">
        <ele>512</ele>
        <time>2011-10-16T10:25:23Z</time>
      </trkpt>
      <trkpt lat="45.69769" lon="4.6387">
        <ele>511</ele>
        <time>2011-10-16T10:25:25Z</time>
      </trkpt>
      <trkpt lat="45.69768" lon="4.63876">
        <ele>511</ele>
        <time>2011-10-16T10:25:26Z</time>
      </trkpt>
      <trkpt lat="45.69762" lon="4.63883">
        <ele>510</ele>
        <time>2011-10-16T10:25:27Z</time>
      </trkpt>
      <trkpt lat="45.69758" lon="4.63887">
        <ele>509</ele>
        <time>2011-10-16T10:25:28Z</time>
      </trkpt>
      <trkpt lat="45.69754" lon="4.6389">
        <ele>508</ele>
        <time>2011-10-16T10:25:29Z</time>
      </trkpt>
      <trkpt lat="45.69747" lon="4.63892">
        <ele>501</ele>
        <time>2011-10-16T10:25:30Z</time>
      </trkpt>
      <trkpt lat="45.69741" lon="4.63891">
        <ele>501</ele>
        <time>2011-10-16T10:25:31Z</time>
      </trkpt>
      <trkpt lat="45.69738" lon="4.63896">
        <ele>501</ele>
        <time>2011-10-16T10:25:32Z</time>
      </trkpt>
      <trkpt lat="45.69744" lon="4.63901">
        <ele>501</ele>
        <time>2011-10-16T10:25:34Z</time>
      </trkpt>
      <trkpt lat="45.6975" lon="4.63903">
        <ele>501</ele>
        <time>2011-10-16T10:25:36Z</time>
      </trkpt>
      <trkpt lat="45.69745" lon="4.639">
        <ele>501</ele>
        <time>2011-10-16T10:25:43Z</time>
      </trkpt>
      <trkpt lat="45.69753" lon="4.63899">
        <ele>507</ele>
        <time>2011-10-16T10:25:57Z</time>
      </trkpt>
      <trkpt lat="45.69758" lon="4.63902">
        <ele>507</ele>
        <time>2011-10-16T10:25:59Z</time>
      </trkpt>
      <trkpt lat="45.69762" lon="4.63903">
        <ele>507</ele>
        <time>2011-10-16T10:26:01Z</time>
      </trkpt>
      <trkpt lat="45.69769" lon="4.63904">
        <ele>508</ele>
        <time>2011-10-16T10:26:03Z</time>
      </trkpt>
      <trkpt lat="45.69774" lon="4.63903">
        <ele>509</ele>
        <time>2011-10-16T10:26:04Z</time>
      </trkpt>
      <trkpt lat="45.69779" lon="4.63906">
        <ele>510</ele>
        <time>2011-10-16T10:26:06Z</time>
      </trkpt>
      <trkpt lat="45.69784" lon="4.63913">
        <ele>510</ele>
        <time>2011-10-16T10:26:08Z</time>
      </trkpt>
      <trkpt lat="45.69788" lon="4.63915">
        <ele>511</ele>
        <time>2011-10-16T10:26:10Z</time>
      </trkpt>
      <trkpt lat="45.69787" lon="4.63923">
        <ele>507</ele>
        <time>2011-10-16T10:26:14Z</time>
      </trkpt>
      <trkpt lat="45.69783" lon="4.63927">
        <ele>506</ele>
        <time>2011-10-16T10:26:16Z</time>
      </trkpt>
      <trkpt lat="45.69784" lon="4.63919">
        <ele>506</ele>
        <time>2011-10-16T10:26:25Z</time>
      </trkpt>
      <trkpt lat="45.69797" lon="4.63921">
        <ele>508</ele>
        <time>2011-10-16T10:26:39Z</time>
      </trkpt>
      <trkpt lat="45.69802" lon="4.63914">
        <ele>513</ele>
        <time>2011-10-16T10:27:21Z</time>
      </trkpt>
      <trkpt lat="45.69799" lon="4.6392">
        <ele>508</ele>
        <time>2011-10-16T10:27:26Z</time>
      </trkpt>
      <trkpt lat="45.69799" lon="4.6393">
        <ele>508</ele>
        <time>2011-10-16T10:29:03Z</time>
      </trkpt>
      <trkpt lat="45.69794" lon="4.63934">
        <ele>507</ele>
        <time>2011-10-16T10:29:05Z</time>
      </trkpt>
      <trkpt lat="45.6979" lon="4.6394">
        <ele>507</ele>
        <time>2011-10-16T10:29:07Z</time>
      </trkpt>
      <trkpt lat="45.69782" lon="4.63947">
        <ele>506</ele>
        <time>2011-10-16T10:29:09Z</time>
      </trkpt>
      <trkpt lat="45.69779" lon="4.63954">
        <ele>505</ele>
        <time>2011-10-16T10:29:12Z</time>
      </trkpt>
      <trkpt lat="45.69775" lon="4.63959">
        <ele>505</ele>
        <time>2011-10-16T10:29:13Z</time>
      </trkpt>
      <trkpt lat="45.69778" lon="4.63965">
        <ele>505</ele>
        <time>2011-10-16T10:29:15Z</time>
      </trkpt>
      <trkpt lat="45.69771" lon="4.63978">
        <ele>503</ele>
        <time>2011-10-16T10:29:18Z</time>
      </trkpt>
      <trkpt lat="45.6977" lon="4.63988">
        <ele>502</ele>
        <time>2011-10-16T10:29:20Z</time>
      </trkpt>
      <trkpt lat="45.69766" lon="4.63993">
        <ele>500</ele>
        <time>2011-10-16T10:29:21Z</time>
      </trkpt>
      <trkpt lat="45.69762" lon="4.63995">
        <ele>499</ele>
        <time>2011-10-16T10:29:23Z</time>
      </trkpt>
      <trkpt lat="45.69764" lon="4.64002">
        <ele>498</ele>
        <time>2011-10-16T10:29:25Z</time>
      </trkpt>
      <trkpt lat="45.69768" lon="4.64014">
        <ele>500</ele>
        <time>2011-10-16T10:29:27Z</time>
      </trkpt>
      <trkpt lat="45.69765" lon="4.64023">
        <ele>500</ele>
        <time>2011-10-16T10:29:29Z</time>
      </trkpt>
      <trkpt lat="45.69765" lon="4.64033">
        <ele>501</ele>
        <time>2011-10-16T10:29:31Z</time>
      </trkpt>
      <trkpt lat="45.69765" lon="4.64044">
        <ele>501</ele>
        <time>2011-10-16T10:29:33Z</time>
      </trkpt>
      <trkpt lat="45.69768" lon="4.64058">
        <ele>501</ele>
        <time>2011-10-16T10:29:36Z</time>
      </trkpt>
      <trkpt lat="45.6976" lon="4.64063">
        <ele>500</ele>
        <time>2011-10-16T10:29:37Z</time>
      </trkpt>
      <trkpt lat="45.69764" lon="4.64079">
        <ele>499</ele>
        <time>2011-10-16T10:29:39Z</time>
      </trkpt>
      <trkpt lat="45.69766" lon="4.64091">
        <ele>499</ele>
        <time>2011-10-16T10:29:40Z</time>
      </trkpt>
      <trkpt lat="45.69766" lon="4.641">
        <ele>500</ele>
        <time>2011-10-16T10:29:41Z</time>
      </trkpt>
      <trkpt lat="45.69767" lon="4.64109">
        <ele>501</ele>
        <time>2011-10-16T10:29:42Z</time>
      </trkpt>
      <trkpt lat="45.69767" lon="4.64117">
        <ele>501</ele>
        <time>2011-10-16T10:29:43Z</time>
      </trkpt>
      <trkpt lat="45.69766" lon="4.64125">
        <ele>501</ele>
        <time>2011-10-16T10:29:44Z</time>
      </trkpt>
      <trkpt lat="45.69765" lon="4.64132">
        <ele>501</ele>
        <time>2011-10-16T10:29:45Z</time>
      </trkpt>
      <trkpt lat="45.69758" lon="4.64141">
        <ele>500</ele>
        <time>2011-10-16T10:29:47Z</time>
      </trkpt>
      <trkpt lat="45.69753" lon="4.64143">
        <ele>500</ele>
        <time>2011-10-16T10:29:47Z</time>
      </trkpt>
      <trkpt lat="45.69747" lon="4.64149">
        <ele>491</ele>
        <time>2011-10-16T10:29:49Z</time>
      </trkpt>
      <trkpt lat="45.69744" lon="4.64154">
        <ele>492</ele>
        <time>2011-10-16T10:29:50Z</time>
      </trkpt>
      <trkpt lat="45.69737" lon="4.64167">
        <ele>495</ele>
        <time>2011-10-16T10:29:52Z</time>
      </trkpt>
      <trkpt lat="45.69735" lon="4.64175">
        <ele>495</ele>
        <time>2011-10-16T10:29:53Z</time>
      </trkpt>
      <trkpt lat="45.69736" lon="4.64186">
        <ele>495</ele>
        <time>2011-10-16T10:29:55Z</time>
      </trkpt>
      <trkpt lat="45.69733" lon="4.64198">
        <ele>495</ele>
        <time>2011-10-16T10:29:57Z</time>
      </trkpt>
      <trkpt lat="45.69734" lon="4.64206">
        <ele>496</ele>
        <time>2011-10-16T10:29:59Z</time>
      </trkpt>
      <trkpt lat="45.69731" lon="4.64218">
        <ele>497</ele>
        <time>2011-10-16T10:30:01Z</time>
      </trkpt>
      <trkpt lat="45.6973" lon="4.64226">
        <ele>497</ele>
        <time>2011-10-16T10:30:03Z</time>
      </trkpt>
      <trkpt lat="45.69729" lon="4.64233">
        <ele>498</ele>
        <time>2011-10-16T10:30:05Z</time>
      </trkpt>
      <trkpt lat="45.69729" lon="4.64242">
        <ele>499</ele>
        <time>2011-10-16T10:30:08Z</time>
      </trkpt>
      <trkpt lat="45.69728" lon="4.64249">
        <ele>499</ele>
        <time>2011-10-16T10:30:11Z</time>
      </trkpt>
      <trkpt lat="45.69731" lon="4.64255">
        <ele>504</ele>
        <time>2011-10-16T10:30:14Z</time>
      </trkpt>
      <trkpt lat="45.69727" lon="4.6426">
        <ele>503</ele>
        <time>2011-10-16T10:30:20Z</time>
      </trkpt>
      <trkpt lat="45.69723" lon="4.64267">
        <ele>503</ele>
        <time>2011-10-16T10:30:23Z</time>
      </trkpt>
      <trkpt lat="45.6972" lon="4.64274">
        <ele>503</ele>
        <time>2011-10-16T10:30:26Z</time>
      </trkpt>
      <trkpt lat="45.69718" lon="4.64281">
        <ele>502</ele>
        <time>2011-10-16T10:30:28Z</time>
      </trkpt>
      <trkpt lat="45.69714" lon="4.64286">
        <ele>502</ele>
        <time>2011-10-16T10:30:30Z</time>
      </trkpt>
      <trkpt lat="45.69712" lon="4.64292">
        <ele>502</ele>
        <time>2011-10-16T10:30:32Z</time>
      </trkpt>
      <trkpt lat="45.6971" lon="4.64298">
        <ele>502</ele>
        <time>2011-10-16T10:30:36Z</time>
      </trkpt>
      <trkpt lat="45.69712" lon="4.64304">
        <ele>503</ele>
        <time>2011-10-16T10:30:37Z</time>
      </trkpt>
      <trkpt lat="45.69705" lon="4.64305">
        <ele>502</ele>
        <time>2011-10-16T10:30:38Z</time>
      </trkpt>
      <trkpt lat="45.69704" lon="4.64312">
        <ele>502</ele>
        <time>2011-10-16T10:30:40Z</time>
      </trkpt>
      <trkpt lat="45.69705" lon="4.6432">
        <ele>502</ele>
        <time>2011-10-16T10:30:42Z</time>
      </trkpt>
      <trkpt lat="45.69706" lon="4.64327">
        <ele>503</ele>
        <time>2011-10-16T10:30:44Z</time>
      </trkpt>
      <trkpt lat="45.69703" lon="4.64335">
        <ele>503</ele>
        <time>2011-10-16T10:30:46Z</time>
      </trkpt>
      <trkpt lat="45.69704" lon="4.64341">
        <ele>503</ele>
        <time>2011-10-16T10:30:48Z</time>
      </trkpt>
      <trkpt lat="45.69703" lon="4.64349">
        <ele>503</ele>
        <time>2011-10-16T10:30:50Z</time>
      </trkpt>
      <trkpt lat="45.69704" lon="4.64358">
        <ele>503</ele>
        <time>2011-10-16T10:30:52Z</time>
      </trkpt>
      <trkpt lat="45.69704" lon="4.64367">
        <ele>503</ele>
        <time>2011-10-16T10:30:54Z</time>
      </trkpt>
      <trkpt lat="45.69705" lon="4.64376">
        <ele>503</ele>
        <time>2011-10-16T10:30:56Z</time>
      </trkpt>
      <trkpt lat="45.69706" lon="4.64387">
        <ele>503</ele>
        <time>2011-10-16T10:30:58Z</time>
      </trkpt>
      <trkpt lat="45.69711" lon="4.64399">
        <ele>503</ele>
        <time>2011-10-16T10:31:00Z</time>
      </trkpt>
      <trkpt lat="45.69714" lon="4.64406">
        <ele>503</ele>
        <time>2011-10-16T10:31:01Z</time>
      </trkpt>
      <trkpt lat="45.69716" lon="4.64413">
        <ele>503</ele>
        <time>2011-10-16T10:31:02Z</time>
      </trkpt>
      <trkpt lat="45.6972" lon="4.64421">
        <ele>500</ele>
        <time>2011-10-16T10:31:03Z</time>
      </trkpt>
      <trkpt lat="45.69724" lon="4.64429">
        <ele>500</ele>
        <time>2011-10-16T10:31:04Z</time>
      </trkpt>
      <trkpt lat="45.69728" lon="4.64435">
        <ele>500</ele>
        <time>2011-10-16T10:31:05Z</time>
      </trkpt>
      <trkpt lat="45.69734" lon="4.64443">
        <ele>500</ele>
        <time>2011-10-16T10:31:06Z</time>
      </trkpt>
      <trkpt lat="45.69744" lon="4.64444">
        <ele>501</ele>
        <time>2011-10-16T10:31:07Z</time>
      </trkpt>
      <trkpt lat="45.69754" lon="4.64448">
        <ele>507</ele>
        <time>2011-10-16T10:31:08Z</time>
      </trkpt>
      <trkpt lat="45.69762" lon="4.64449">
        <ele>507</ele>
        <time>2011-10-16T10:31:09Z</time>
      </trkpt>
      <trkpt lat="45.6977" lon="4.64446">
        <ele>508</ele>
        <time>2011-10-16T10:31:10Z</time>
      </trkpt>
      <trkpt lat="45.69775" lon="4.6445">
        <ele>508</ele>
        <time>2011-10-16T10:31:11Z</time>
      </trkpt>
      <trkpt lat="45.69783" lon="4.64449">
        <ele>508</ele>
        <time>2011-10-16T10:31:12Z</time>
      </trkpt>
      <trkpt lat="45.69791" lon="4.64455">
        <ele>509</ele>
        <time>2011-10-16T10:31:13Z</time>
      </trkpt>
      <trkpt lat="45.69795" lon="4.64457">
        <ele>509</ele>
        <time>2011-10-16T10:31:14Z</time>
      </trkpt>
      <trkpt lat="45.698" lon="4.64469">
        <ele>509</ele>
        <time>2011-10-16T10:31:16Z</time>
      </trkpt>
      <trkpt lat="45.69803" lon="4.64478">
        <ele>509</ele>
        <time>2011-10-16T10:31:17Z</time>
      </trkpt>
      <trkpt lat="45.69804" lon="4.64485">
        <ele>509</ele>
        <time>2011-10-16T10:31:18Z</time>
      </trkpt>
      <trkpt lat="45.69802" lon="4.64493">
        <ele>508</ele>
        <time>2011-10-16T10:31:20Z</time>
      </trkpt>
      <trkpt lat="45.69791" lon="4.64497">
        <ele>507</ele>
        <time>2011-10-16T10:31:21Z</time>
      </trkpt>
      <trkpt lat="45.69783" lon="4.64504">
        <ele>507</ele>
        <time>2011-10-16T10:31:23Z</time>
      </trkpt>
      <trkpt lat="45.69778" lon="4.64511">
        <ele>506</ele>
        <time>2011-10-16T10:31:24Z</time>
      </trkpt>
      <trkpt lat="45.69774" lon="4.64517">
        <ele>506</ele>
        <time>2011-10-16T10:31:25Z</time>
      </trkpt>
      <trkpt lat="45.69768" lon="4.64524">
        <ele>506</ele>
        <time>2011-10-16T10:31:27Z</time>
      </trkpt>
      <trkpt lat="45.69765" lon="4.6453">
        <ele>506</ele>
        <time>2011-10-16T10:31:28Z</time>
      </trkpt>
      <trkpt lat="45.69762" lon="4.64535">
        <ele>506</ele>
        <time>2011-10-16T10:31:29Z</time>
      </trkpt>
      <trkpt lat="45.69757" lon="4.6454">
        <ele>506</ele>
        <time>2011-10-16T10:31:31Z</time>
      </trkpt>
      <trkpt lat="45.69756" lon="4.6455">
        <ele>507</ele>
        <time>2011-10-16T10:31:33Z</time>
      </trkpt>
      <trkpt lat="45.69752" lon="4.64556">
        <ele>507</ele>
        <time>2011-10-16T10:31:34Z</time>
      </trkpt>
      <trkpt lat="45.69743" lon="4.6457">
        <ele>501</ele>
        <time>2011-10-16T10:31:37Z</time>
      </trkpt>
      <trkpt lat="45.69735" lon="4.64564">
        <ele>499</ele>
        <time>2011-10-16T10:31:37Z</time>
      </trkpt>
      <trkpt lat="45.69732" lon="4.64578">
        <ele>500</ele>
        <time>2011-10-16T10:31:39Z</time>
      </trkpt>
      <trkpt lat="45.69728" lon="4.64589">
        <ele>504</ele>
        <time>2011-10-16T10:31:41Z</time>
      </trkpt>
      <trkpt lat="45.69724" lon="4.64598">
        <ele>504</ele>
        <time>2011-10-16T10:31:43Z</time>
      </trkpt>
      <trkpt lat="45.69722" lon="4.6461">
        <ele>505</ele>
        <time>2011-10-16T10:31:45Z</time>
      </trkpt>
      <trkpt lat="45.69718" lon="4.64618">
        <ele>505</ele>
        <time>2011-10-16T10:31:47Z</time>
      </trkpt>
      <trkpt lat="45.69716" lon="4.64625">
        <ele>505</ele>
        <time>2011-10-16T10:31:48Z</time>
      </trkpt>
      <trkpt lat="45.69713" lon="4.64631">
        <ele>505</ele>
        <time>2011-10-16T10:31:49Z</time>
      </trkpt>
      <trkpt lat="45.69711" lon="4.64636">
        <ele>506</ele>
        <time>2011-10-16T10:31:50Z</time>
      </trkpt>
      <trkpt lat="45.69707" lon="4.64647">
        <ele>506</ele>
        <time>2011-10-16T10:31:52Z</time>
      </trkpt>
      <trkpt lat="45.69704" lon="4.64656">
        <ele>506</ele>
        <time>2011-10-16T10:31:54Z</time>
      </trkpt>
      <trkpt lat="45.697" lon="4.64662">
        <ele>506</ele>
        <time>2011-10-16T10:31:56Z</time>
      </trkpt>
      <trkpt lat="45.69698" lon="4.64669">
        <ele>511</ele>
        <time>2011-10-16T10:31:58Z</time>
      </trkpt>
      <trkpt lat="45.69695" lon="4.64675">
        <ele>511</ele>
        <time>2011-10-16T10:32:00Z</time>
      </trkpt>
      <trkpt lat="45.69695" lon="4.64685">
        <ele>511</ele>
        <time>2011-10-16T10:32:02Z</time>
      </trkpt>
      <trkpt lat="45.69694" lon="4.64692">
        <ele>512</ele>
        <time>2011-10-16T10:32:04Z</time>
      </trkpt>
      <trkpt lat="45.69694" lon="4.647">
        <ele>512</ele>
        <time>2011-10-16T10:32:06Z</time>
      </trkpt>
      <trkpt lat="45.69692" lon="4.64709">
        <ele>512</ele>
        <time>2011-10-16T10:32:08Z</time>
      </trkpt>
      <trkpt lat="45.69692" lon="4.64716">
        <ele>513</ele>
        <time>2011-10-16T10:32:10Z</time>
      </trkpt>
      <trkpt lat="45.69692" lon="4.64724">
        <ele>513</ele>
        <time>2011-10-16T10:32:12Z</time>
      </trkpt>
      <trkpt lat="45.69691" lon="4.64732">
        <ele>513</ele>
        <time>2011-10-16T10:32:14Z</time>
      </trkpt>
      <trkpt lat="45.6969" lon="4.6474">
        <ele>513</ele>
        <time>2011-10-16T10:32:16Z</time>
      </trkpt>
      <trkpt lat="45.69689" lon="4.64747">
        <ele>513</ele>
        <time>2011-10-16T10:32:18Z</time>
      </trkpt>
      <trkpt lat="45.69691" lon="4.64755">
        <ele>515</ele>
        <time>2011-10-16T10:32:20Z</time>
      </trkpt>
      <trkpt lat="45.69689" lon="4.64764">
        <ele>515</ele>
        <time>2011-10-16T10:32:22Z</time>
      </trkpt>
      <trkpt lat="45.69689" lon="4.64774">
        <ele>515</ele>
        <time>2011-10-16T10:32:24Z</time>
      </trkpt>
      <trkpt lat="45.69688" lon="4.6478">
        <ele>515</ele>
        <time>2011-10-16T10:32:25Z</time>
      </trkpt>
      <trkpt lat="45.69689" lon="4.64789">
        <ele>515</ele>
        <time>2011-10-16T10:32:27Z</time>
      </trkpt>
      <trkpt lat="45.69688" lon="4.64801">
        <ele>515</ele>
        <time>2011-10-16T10:32:29Z</time>
      </trkpt>
      <trkpt lat="45.69691" lon="4.64804">
        <ele>515</ele>
        <time>2011-10-16T10:32:30Z</time>
      </trkpt>
      <trkpt lat="45.69691" lon="4.64811">
        <ele>515</ele>
        <time>2011-10-16T10:32:31Z</time>
      </trkpt>
      <trkpt lat="45.6969" lon="4.64818">
        <ele>515</ele>
        <time>2011-10-16T10:32:32Z</time>
      </trkpt>
      <trkpt lat="45.69691" lon="4.64826">
        <ele>515</ele>
        <time>2011-10-16T10:32:33Z</time>
      </trkpt>
      <trkpt lat="45.69694" lon="4.6484">
        <ele>514</ele>
        <time>2011-10-16T10:32:36Z</time>
      </trkpt>
      <trkpt lat="45.6969" lon="4.64846">
        <ele>513</ele>
        <time>2011-10-16T10:32:37Z</time>
      </trkpt>
      <trkpt lat="45.69695" lon="4.64853">
        <ele>514</ele>
        <time>2011-10-16T10:32:39Z</time>
      </trkpt>
      <trkpt lat="45.69697" lon="4.64865">
        <ele>514</ele>
        <time>2011-10-16T10:32:41Z</time>
      </trkpt>
      <trkpt lat="45.697" lon="4.6487">
        <ele>514</ele>
        <time>2011-10-16T10:32:42Z</time>
      </trkpt>
      <trkpt lat="45.69702" lon="4.64876">
        <ele>514</ele>
        <time>2011-10-16T10:32:43Z</time>
      </trkpt>
      <trkpt lat="45.69703" lon="4.64888">
        <ele>514</ele>
        <time>2011-10-16T10:32:45Z</time>
      </trkpt>
      <trkpt lat="45.69706" lon="4.64897">
        <ele>514</ele>
        <time>2011-10-16T10:32:47Z</time>
      </trkpt>
      <trkpt lat="45.69711" lon="4.6491">
        <ele>514</ele>
        <time>2011-10-16T10:32:49Z</time>
      </trkpt>
      <trkpt lat="45.69712" lon="4.64916">
        <ele>514</ele>
        <time>2011-10-16T10:32:50Z</time>
      </trkpt>
      <trkpt lat="45.69714" lon="4.64924">
        <ele>513</ele>
        <time>2011-10-16T10:32:51Z</time>
      </trkpt>
      <trkpt lat="45.69717" lon="4.6493">
        <ele>514</ele>
        <time>2011-10-16T10:32:52Z</time>
      </trkpt>
      <trkpt lat="45.69719" lon="4.64941">
        <ele>514</ele>
        <time>2011-10-16T10:32:54Z</time>
      </trkpt>
      <trkpt lat="45.69721" lon="4.64948">
        <ele>514</ele>
        <time>2011-10-16T10:32:55Z</time>
      </trkpt>
      <trkpt lat="45.69723" lon="4.64956">
        <ele>514</ele>
        <time>2011-10-16T10:32:56Z</time>
      </trkpt>
      <trkpt lat="45.69726" lon="4.64966">
        <ele>514</ele>
        <time>2011-10-16T10:32:58Z</time>
      </trkpt>
      <trkpt lat="45.69729" lon="4.64976">
        <ele>514</ele>
        <time>2011-10-16T10:33:00Z</time>
      </trkpt>
      <trkpt lat="45.69728" lon="4.64987">
        <ele>515</ele>
        <time>2011-10-16T10:33:02Z</time>
      </trkpt>
      <trkpt lat="45.69726" lon="4.64998">
        <ele>515</ele>
        <time>2011-10-16T10:33:04Z</time>
      </trkpt>
      <trkpt lat="45.6973" lon="4.65006">
        <ele>516</ele>
        <time>2011-10-16T10:33:06Z</time>
      </trkpt>
      <trkpt lat="45.69729" lon="4.65013">
        <ele>516</ele>
        <time>2011-10-16T10:33:07Z</time>
      </trkpt>
      <trkpt lat="45.69731" lon="4.65019">
        <ele>516</ele>
        <time>2011-10-16T10:33:08Z</time>
      </trkpt>
      <trkpt lat="45.69733" lon="4.65029">
        <ele>516</ele>
        <time>2011-10-16T10:33:11Z</time>
      </trkpt>
      <trkpt lat="45.69735" lon="4.65039">
        <ele>516</ele>
        <time>2011-10-16T10:33:14Z</time>
      </trkpt>
      <trkpt lat="45.6974" lon="4.65046">
        <ele>516</ele>
        <time>2011-10-16T10:33:16Z</time>
      </trkpt>
      <trkpt lat="45.69746" lon="4.65049">
        <ele>516</ele>
        <time>2011-10-16T10:33:18Z</time>
      </trkpt>
      <trkpt lat="45.69751" lon="4.65053">
        <ele>520</ele>
        <time>2011-10-16T10:33:20Z</time>
      </trkpt>
      <trkpt lat="45.69756" lon="4.65056">
        <ele>520</ele>
        <time>2011-10-16T10:33:22Z</time>
      </trkpt>
      <trkpt lat="45.6976" lon="4.6506">
        <ele>520</ele>
        <time>2011-10-16T10:33:25Z</time>
      </trkpt>
      <trkpt lat="45.69756" lon="4.65064">
        <ele>520</ele>
        <time>2011-10-16T10:33:30Z</time>
      </trkpt>
      <trkpt lat="45.69753" lon="4.65072">
        <ele>519</ele>
        <time>2011-10-16T10:33:34Z</time>
      </trkpt>
      <trkpt lat="45.69754" lon="4.65086">
        <ele>518</ele>
        <time>2011-10-16T10:33:37Z</time>
      </trkpt>
      <trkpt lat="45.69754" lon="4.65096">
        <ele>517</ele>
        <time>2011-10-16T10:33:39Z</time>
      </trkpt>
      <trkpt lat="45.69744" lon="4.65101">
        <ele>516</ele>
        <time>2011-10-16T10:33:40Z</time>
      </trkpt>
      <trkpt lat="45.69745" lon="4.6511">
        <ele>515</ele>
        <time>2011-10-16T10:33:42Z</time>
      </trkpt>
      <trkpt lat="45.69744" lon="4.65119">
        <ele>515</ele>
        <time>2011-10-16T10:33:44Z</time>
      </trkpt>
      <trkpt lat="45.6974" lon="4.65126">
        <ele>515</ele>
        <time>2011-10-16T10:33:46Z</time>
      </trkpt>
      <trkpt lat="45.69736" lon="4.65132">
        <ele>514</ele>
        <time>2011-10-16T10:33:48Z</time>
      </trkpt>
      <trkpt lat="45.69732" lon="4.65142">
        <ele>514</ele>
        <time>2011-10-16T10:33:50Z</time>
      </trkpt>
      <trkpt lat="45.69728" lon="4.65152">
        <ele>514</ele>
        <time>2011-10-16T10:33:52Z</time>
      </trkpt>
      <trkpt lat="45.69724" lon="4.65162">
        <ele>514</ele>
        <time>2011-10-16T10:33:54Z</time>
      </trkpt>
      <trkpt lat="45.69722" lon="4.65168">
        <ele>510</ele>
        <time>2011-10-16T10:33:55Z</time>
      </trkpt>
      <trkpt lat="45.69721" lon="4.65174">
        <ele>509</ele>
        <time>2011-10-16T10:33:56Z</time>
      </trkpt>
      <trkpt lat="45.69718" lon="4.65179">
        <ele>509</ele>
        <time>2011-10-16T10:33:58Z</time>
      </trkpt>
      <trkpt lat="45.69715" lon="4.65186">
        <ele>509</ele>
        <time>2011-10-16T10:34:00Z</time>
      </trkpt>
      <trkpt lat="45.69712" lon="4.65193">
        <ele>508</ele>
        <time>2011-10-16T10:34:02Z</time>
      </trkpt>
      <trkpt lat="45.69707" lon="4.65199">
        <ele>508</ele>
        <time>2011-10-16T10:34:05Z</time>
      </trkpt>
      <trkpt lat="45.69707" lon="4.65206">
        <ele>508</ele>
        <time>2011-10-16T10:34:07Z</time>
      </trkpt>
      <trkpt lat="45.69706" lon="4.65212">
        <ele>507</ele>
        <time>2011-10-16T10:34:09Z</time>
      </trkpt>
      <trkpt lat="45.69705" lon="4.65219">
        <ele>507</ele>
        <time>2011-10-16T10:34:12Z</time>
      </trkpt>
      <trkpt lat="45.69707" lon="4.65226">
        <ele>506</ele>
        <time>2011-10-16T10:34:14Z</time>
      </trkpt>
      <trkpt lat="45.69709" lon="4.65232">
        <ele>506</ele>
        <time>2011-10-16T10:34:16Z</time>
      </trkpt>
      <trkpt lat="45.69711" lon="4.65241">
        <ele>506</ele>
        <time>2011-10-16T10:34:18Z</time>
      </trkpt>
      <trkpt lat="45.69717" lon="4.65242">
        <ele>506</ele>
        <time>2011-10-16T10:34:19Z</time>
      </trkpt>
      <trkpt lat="45.69722" lon="4.65245">
        <ele>506</ele>
        <time>2011-10-16T10:34:23Z</time>
      </trkpt>
      <trkpt lat="45.69725" lon="4.65251">
        <ele>499</ele>
        <time>2011-10-16T10:34:26Z</time>
      </trkpt>
      <trkpt lat="45.69725" lon="4.65258">
        <ele>499</ele>
        <time>2011-10-16T10:34:28Z</time>
      </trkpt>
      <trkpt lat="45.69725" lon="4.65265">
        <ele>498</ele>
        <time>2011-10-16T10:34:32Z</time>
      </trkpt>
      <trkpt lat="45.69726" lon="4.65272">
        <ele>498</ele>
        <time>2011-10-16T10:34:38Z</time>
      </trkpt>
      <trkpt lat="45.69727" lon="4.65281">
        <ele>497</ele>
        <time>2011-10-16T10:34:53Z</time>
      </trkpt>
      <trkpt lat="45.69732" lon="4.65283">
        <ele>497</ele>
        <time>2011-10-16T10:35:25Z</time>
      </trkpt>
      <trkpt lat="45.69734" lon="4.65289">
        <ele>496</ele>
        <time>2011-10-16T10:35:26Z</time>
      </trkpt>
      <trkpt lat="45.69736" lon="4.65295">
        <ele>495</ele>
        <time>2011-10-16T10:35:28Z</time>
      </trkpt>
      <trkpt lat="45.6974" lon="4.65299">
        <ele>495</ele>
        <time>2011-10-16T10:35:30Z</time>
      </trkpt>
      <trkpt lat="45.69742" lon="4.65306">
        <ele>494</ele>
        <time>2011-10-16T10:35:33Z</time>
      </trkpt>
      <trkpt lat="45.69748" lon="4.65315">
        <ele>493</ele>
        <time>2011-10-16T10:35:37Z</time>
      </trkpt>
      <trkpt lat="45.69742" lon="4.65316">
        <ele>493</ele>
        <time>2011-10-16T10:35:37Z</time>
      </trkpt>
      <trkpt lat="45.69745" lon="4.65322">
        <ele>492</ele>
        <time>2011-10-16T10:35:39Z</time>
      </trkpt>
      <trkpt lat="45.69746" lon="4.65328">
        <ele>491</ele>
        <time>2011-10-16T10:35:41Z</time>
      </trkpt>
      <trkpt lat="45.69745" lon="4.65338">
        <ele>488</ele>
        <time>2011-10-16T10:35:43Z</time>
      </trkpt>
      <trkpt lat="45.69745" lon="4.65347">
        <ele>487</ele>
        <time>2011-10-16T10:35:45Z</time>
      </trkpt>
      <trkpt lat="45.69747" lon="4.65356">
        <ele>486</ele>
        <time>2011-10-16T10:35:48Z</time>
      </trkpt>
      <trkpt lat="45.69747" lon="4.65364">
        <ele>485</ele>
        <time>2011-10-16T10:35:51Z</time>
      </trkpt>
      <trkpt lat="45.69749" lon="4.6537">
        <ele>484</ele>
        <time>2011-10-16T10:35:54Z</time>
      </trkpt>
      <trkpt lat="45.69754" lon="4.65373">
        <ele>483</ele>
        <time>2011-10-16T10:36:07Z</time>
      </trkpt>
      <trkpt lat="45.69758" lon="4.65379">
        <ele>482</ele>
        <time>2011-10-16T10:36:15Z</time>
      </trkpt>
      <trkpt lat="45.69755" lon="4.65387">
        <ele>482</ele>
        <time>2011-10-16T10:36:16Z</time>
      </trkpt>
      <trkpt lat="45.69755" lon="4.65397">
        <ele>481</ele>
        <time>2011-10-16T10:36:18Z</time>
      </trkpt>
      <trkpt lat="45.69757" lon="4.6541">
        <ele>480</ele>
        <time>2011-10-16T10:36:20Z</time>
      </trkpt>
      <trkpt lat="45.69758" lon="4.65418">
        <ele>477</ele>
        <time>2011-10-16T10:36:21Z</time>
      </trkpt>
      <trkpt lat="45.6976" lon="4.6543">
        <ele>475</ele>
        <time>2011-10-16T10:36:23Z</time>
      </trkpt>
      <trkpt lat="45.69763" lon="4.65442">
        <ele>474</ele>
        <time>2011-10-16T10:36:25Z</time>
      </trkpt>
      <trkpt lat="45.69767" lon="4.65455">
        <ele>472</ele>
        <time>2011-10-16T10:36:27Z</time>
      </trkpt>
      <trkpt lat="45.6977" lon="4.65464">
        <ele>471</ele>
        <time>2011-10-16T10:36:28Z</time>
      </trkpt>
      <trkpt lat="45.69774" lon="4.65473">
        <ele>471</ele>
        <time>2011-10-16T10:36:29Z</time>
      </trkpt>
      <trkpt lat="45.69779" lon="4.65483">
        <ele>470</ele>
        <time>2011-10-16T10:36:30Z</time>
      </trkpt>
      <trkpt lat="45.69784" lon="4.65495">
        <ele>470</ele>
        <time>2011-10-16T10:36:31Z</time>
      </trkpt>
      <trkpt lat="45.69788" lon="4.65508">
        <ele>463</ele>
        <time>2011-10-16T10:36:32Z</time>
      </trkpt>
      <trkpt lat="45.69792" lon="4.65521">
        <ele>463</ele>
        <time>2011-10-16T10:36:33Z</time>
      </trkpt>
      <trkpt lat="45.69795" lon="4.65533">
        <ele>462</ele>
        <time>2011-10-16T10:36:34Z</time>
      </trkpt>
      <trkpt lat="45.698" lon="4.65554">
        <ele>461</ele>
        <time>2011-10-16T10:36:36Z</time>
      </trkpt>
      <trkpt lat="45.69792" lon="4.6556">
        <ele>461</ele>
        <time>2011-10-16T10:36:37Z</time>
      </trkpt>
      <trkpt lat="45.69799" lon="4.65572">
        <ele>460</ele>
        <time>2011-10-16T10:36:39Z</time>
      </trkpt>
      <trkpt lat="45.69801" lon="4.65581">
        <ele>460</ele>
        <time>2011-10-16T10:36:40Z</time>
      </trkpt>
      <trkpt lat="45.69803" lon="4.65591">
        <ele>454</ele>
        <time>2011-10-16T10:36:41Z</time>
      </trkpt>
      <trkpt lat="45.69804" lon="4.65603">
        <ele>454</ele>
        <time>2011-10-16T10:36:42Z</time>
      </trkpt>
      <trkpt lat="45.69806" lon="4.65614">
        <ele>453</ele>
        <time>2011-10-16T10:36:43Z</time>
      </trkpt>
      <trkpt lat="45.69807" lon="4.65626">
        <ele>452</ele>
        <time>2011-10-16T10:36:44Z</time>
      </trkpt>
      <trkpt lat="45.69809" lon="4.65637">
        <ele>451</ele>
        <time>2011-10-16T10:36:45Z</time>
      </trkpt>
      <trkpt lat="45.69816" lon="4.65643">
        <ele>451</ele>
        <time>2011-10-16T10:36:46Z</time>
      </trkpt>
      <trkpt lat="45.69822" lon="4.65647">
        <ele>450</ele>
        <time>2011-10-16T10:36:47Z</time>
      </trkpt>
      <trkpt lat="45.69827" lon="4.65654">
        <ele>449</ele>
        <time>2011-10-16T10:36:48Z</time>
      </trkpt>
      <trkpt lat="45.69835" lon="4.65661">
        <ele>447</ele>
        <time>2011-10-16T10:36:49Z</time>
      </trkpt>
      <trkpt lat="45.69841" lon="4.65667">
        <ele>444</ele>
        <time>2011-10-16T10:36:50Z</time>
      </trkpt>
      <trkpt lat="45.69851" lon="4.65673">
        <ele>443</ele>
        <time>2011-10-16T10:36:51Z</time>
      </trkpt>
      <trkpt lat="45.6986" lon="4.65675">
        <ele>442</ele>
        <time>2011-10-16T10:36:52Z</time>
      </trkpt>
      <trkpt lat="45.69868" lon="4.65675">
        <ele>442</ele>
        <time>2011-10-16T10:36:53Z</time>
      </trkpt>
      <trkpt lat="45.69877" lon="4.65675">
        <ele>441</ele>
        <time>2011-10-16T10:36:54Z</time>
      </trkpt>
      <trkpt lat="45.69884" lon="4.65676">
        <ele>441</ele>
        <time>2011-10-16T10:36:55Z</time>
      </trkpt>
      <trkpt lat="45.69884" lon="4.65683">
        <ele>441</ele>
        <time>2011-10-16T10:36:56Z</time>
      </trkpt>
      <trkpt lat="45.69886" lon="4.65691">
        <ele>440</ele>
        <time>2011-10-16T10:36:57Z</time>
      </trkpt>
      <trkpt lat="45.69886" lon="4.657">
        <ele>440</ele>
        <time>2011-10-16T10:36:58Z</time>
      </trkpt>
      <trkpt lat="45.69885" lon="4.6571">
        <ele>440</ele>
        <time>2011-10-16T10:36:59Z</time>
      </trkpt>
      <trkpt lat="45.69885" lon="4.65721">
        <ele>439</ele>
        <time>2011-10-16T10:37:00Z</time>
      </trkpt>
      <trkpt lat="45.69884" lon="4.65732">
        <ele>439</ele>
        <time>2011-10-16T10:37:01Z</time>
      </trkpt>
      <trkpt lat="45.69884" lon="4.65742">
        <ele>438</ele>
        <time>2011-10-16T10:37:02Z</time>
      </trkpt>
      <trkpt lat="45.69884" lon="4.65754">
        <ele>434</ele>
        <time>2011-10-16T10:37:03Z</time>
      </trkpt>
      <trkpt lat="45.69885" lon="4.65766">
        <ele>434</ele>
        <time>2011-10-16T10:37:04Z</time>
      </trkpt>
      <trkpt lat="45.69884" lon="4.65781">
        <ele>433</ele>
        <time>2011-10-16T10:37:05Z</time>
      </trkpt>
      <trkpt lat="45.69885" lon="4.65795">
        <ele>433</ele>
        <time>2011-10-16T10:37:06Z</time>
      </trkpt>
      <trkpt lat="45.69886" lon="4.6581">
        <ele>432</ele>
        <time>2011-10-16T10:37:07Z</time>
      </trkpt>
      <trkpt lat="45.69886" lon="4.65824">
        <ele>431</ele>
        <time>2011-10-16T10:37:08Z</time>
      </trkpt>
      <trkpt lat="45.69887" lon="4.65838">
        <ele>428</ele>
        <time>2011-10-16T10:37:09Z</time>
      </trkpt>
      <trkpt lat="45.69886" lon="4.65852">
        <ele>428</ele>
        <time>2011-10-16T10:37:10Z</time>
      </trkpt>
      <trkpt lat="45.69886" lon="4.65867">
        <ele>428</ele>
        <time>2011-10-16T10:37:11Z</time>
      </trkpt>
      <trkpt lat="45.69883" lon="4.65882">
        <ele>427</ele>
        <time>2011-10-16T10:37:12Z</time>
      </trkpt>
      <trkpt lat="45.69881" lon="4.65898">
        <ele>427</ele>
        <time>2011-10-16T10:37:13Z</time>
      </trkpt>
      <trkpt lat="45.6988" lon="4.65913">
        <ele>427</ele>
        <time>2011-10-16T10:37:14Z</time>
      </trkpt>
      <trkpt lat="45.69878" lon="4.65928">
        <ele>424</ele>
        <time>2011-10-16T10:37:15Z</time>
      </trkpt>
      <trkpt lat="45.69876" lon="4.65942">
        <ele>424</ele>
        <time>2011-10-16T10:37:16Z</time>
      </trkpt>
      <trkpt lat="45.69875" lon="4.65949">
        <ele>423</ele>
        <time>2011-10-16T10:37:16Z</time>
      </trkpt>
      <trkpt lat="45.69872" lon="4.6597">
        <ele>423</ele>
        <time>2011-10-16T10:37:18Z</time>
      </trkpt>
      <trkpt lat="45.69872" lon="4.65985">
        <ele>423</ele>
        <time>2011-10-16T10:37:19Z</time>
      </trkpt>
      <trkpt lat="45.6987" lon="4.66">
        <ele>419</ele>
        <time>2011-10-16T10:37:20Z</time>
      </trkpt>
      <trkpt lat="45.69868" lon="4.66015">
        <ele>419</ele>
        <time>2011-10-16T10:37:21Z</time>
      </trkpt>
      <trkpt lat="45.69866" lon="4.6603">
        <ele>418</ele>
        <time>2011-10-16T10:37:22Z</time>
      </trkpt>
      <trkpt lat="45.69865" lon="4.66045">
        <ele>418</ele>
        <time>2011-10-16T10:37:23Z</time>
      </trkpt>
      <trkpt lat="45.6986" lon="4.66062">
        <ele>417</ele>
        <time>2011-10-16T10:37:24Z</time>
      </trkpt>
      <trkpt lat="45.69858" lon="4.66078">
        <ele>416</ele>
        <time>2011-10-16T10:37:25Z</time>
      </trkpt>
      <trkpt lat="45.69855" lon="4.66094">
        <ele>412</ele>
        <time>2011-10-16T10:37:26Z</time>
      </trkpt>
      <trkpt lat="45.69852" lon="4.66111">
        <ele>412</ele>
        <time>2011-10-16T10:37:27Z</time>
      </trkpt>
      <trkpt lat="45.6985" lon="4.66127">
        <ele>411</ele>
        <time>2011-10-16T10:37:28Z</time>
      </trkpt>
      <trkpt lat="45.69847" lon="4.66141">
        <ele>411</ele>
        <time>2011-10-16T10:37:29Z</time>
      </trkpt>
      <trkpt lat="45.69845" lon="4.66154">
        <ele>410</ele>
        <time>2011-10-16T10:37:30Z</time>
      </trkpt>
      <trkpt lat="45.69844" lon="4.66169">
        <ele>408</ele>
        <time>2011-10-16T10:37:31Z</time>
      </trkpt>
      <trkpt lat="45.69847" lon="4.66183">
        <ele>407</ele>
        <time>2011-10-16T10:37:32Z</time>
      </trkpt>
      <trkpt lat="45.69848" lon="4.66195">
        <ele>407</ele>
        <time>2011-10-16T10:37:33Z</time>
      </trkpt>
      <trkpt lat="45.6985" lon="4.66216">
        <ele>406</ele>
        <time>2011-10-16T10:37:36Z</time>
      </trkpt>
      <trkpt lat="45.69851" lon="4.66225">
        <ele>406</ele>
        <time>2011-10-16T10:37:37Z</time>
      </trkpt>
      <trkpt lat="45.69848" lon="4.66237">
        <ele>406</ele>
        <time>2011-10-16T10:37:39Z</time>
      </trkpt>
      <trkpt lat="45.69845" lon="4.66248">
        <ele>405</ele>
        <time>2011-10-16T10:37:41Z</time>
      </trkpt>
      <trkpt lat="45.69846" lon="4.66256">
        <ele>404</ele>
        <time>2011-10-16T10:37:42Z</time>
      </trkpt>
      <trkpt lat="45.69848" lon="4.66266">
        <ele>404</ele>
        <time>2011-10-16T10:37:44Z</time>
      </trkpt>
      <trkpt lat="45.69846" lon="4.66276">
        <ele>404</ele>
        <time>2011-10-16T10:37:46Z</time>
      </trkpt>
      <trkpt lat="45.69844" lon="4.66286">
        <ele>405</ele>
        <time>2011-10-16T10:37:48Z</time>
      </trkpt>
      <trkpt lat="45.69841" lon="4.66294">
        <ele>404</ele>
        <time>2011-10-16T10:37:50Z</time>
      </trkpt>
      <trkpt lat="45.6984" lon="4.66303">
        <ele>404</ele>
        <time>2011-10-16T10:37:52Z</time>
      </trkpt>
      <trkpt lat="45.69837" lon="4.66314">
        <ele>404</ele>
        <time>2011-10-16T10:37:54Z</time>
      </trkpt>
      <trkpt lat="45.69836" lon="4.66323">
        <ele>404</ele>
        <time>2011-10-16T10:37:56Z</time>
      </trkpt>
      <trkpt lat="45.69836" lon="4.66331">
        <ele>404</ele>
        <time>2011-10-16T10:37:58Z</time>
      </trkpt>
      <trkpt lat="45.69834" lon="4.66338">
        <ele>404</ele>
        <time>2011-10-16T10:38:00Z</time>
      </trkpt>
      <trkpt lat="45.69831" lon="4.66345">
        <ele>403</ele>
        <time>2011-10-16T10:38:02Z</time>
      </trkpt>
      <trkpt lat="45.6983" lon="4.66352">
        <ele>402</ele>
        <time>2011-10-16T10:38:04Z</time>
      </trkpt>
      <trkpt lat="45.69828" lon="4.66362">
        <ele>402</ele>
        <time>2011-10-16T10:38:06Z</time>
      </trkpt>
      <trkpt lat="45.69827" lon="4.66369">
        <ele>402</ele>
        <time>2011-10-16T10:38:08Z</time>
      </trkpt>
      <trkpt lat="45.69825" lon="4.66382">
        <ele>402</ele>
        <time>2011-10-16T10:38:10Z</time>
      </trkpt>
      <trkpt lat="45.69824" lon="4.6639">
        <ele>402</ele>
        <time>2011-10-16T10:38:12Z</time>
      </trkpt>
      <trkpt lat="45.69819" lon="4.664">
        <ele>402</ele>
        <time>2011-10-16T10:38:14Z</time>
      </trkpt>
      <trkpt lat="45.69818" lon="4.66409">
        <ele>402</ele>
        <time>2011-10-16T10:38:16Z</time>
      </trkpt>
      <trkpt lat="45.69814" lon="4.66418">
        <ele>403</ele>
        <time>2011-10-16T10:38:18Z</time>
      </trkpt>
      <trkpt lat="45.69812" lon="4.66428">
        <ele>403</ele>
        <time>2011-10-16T10:38:20Z</time>
      </trkpt>
      <trkpt lat="45.69811" lon="4.66436">
        <ele>403</ele>
        <time>2011-10-16T10:38:22Z</time>
      </trkpt>
      <trkpt lat="45.69809" lon="4.66445">
        <ele>403</ele>
        <time>2011-10-16T10:38:24Z</time>
      </trkpt>
      <trkpt lat="45.69806" lon="4.66454">
        <ele>403</ele>
        <time>2011-10-16T10:38:26Z</time>
      </trkpt>
      <trkpt lat="45.69804" lon="4.66462">
        <ele>404</ele>
        <time>2011-10-16T10:38:28Z</time>
      </trkpt>
      <trkpt lat="45.69802" lon="4.6647">
        <ele>404</ele>
        <time>2011-10-16T10:38:30Z</time>
      </trkpt>
      <trkpt lat="45.698" lon="4.66477">
        <ele>404</ele>
        <time>2011-10-16T10:38:32Z</time>
      </trkpt>
      <trkpt lat="45.69798" lon="4.66485">
        <ele>404</ele>
        <time>2011-10-16T10:38:34Z</time>
      </trkpt>
      <trkpt lat="45.69796" lon="4.66492">
        <ele>404</ele>
        <time>2011-10-16T10:38:36Z</time>
      </trkpt>
      <trkpt lat="45.69791" lon="4.66493">
        <ele>404</ele>
        <time>2011-10-16T10:38:37Z</time>
      </trkpt>
      <trkpt lat="45.6979" lon="4.66499">
        <ele>404</ele>
        <time>2011-10-16T10:38:39Z</time>
      </trkpt>
      <trkpt lat="45.69787" lon="4.66507">
        <ele>406</ele>
        <time>2011-10-16T10:38:41Z</time>
      </trkpt>
      <trkpt lat="45.69786" lon="4.66514">
        <ele>407</ele>
        <time>2011-10-16T10:38:43Z</time>
      </trkpt>
      <trkpt lat="45.69784" lon="4.66521">
        <ele>407</ele>
        <time>2011-10-16T10:38:45Z</time>
      </trkpt>
      <trkpt lat="45.69781" lon="4.66527">
        <ele>407</ele>
        <time>2011-10-16T10:38:47Z</time>
      </trkpt>
      <trkpt lat="45.69779" lon="4.66532">
        <ele>407</ele>
        <time>2011-10-16T10:38:49Z</time>
      </trkpt>
      <trkpt lat="45.69776" lon="4.6654">
        <ele>407</ele>
        <time>2011-10-16T10:38:52Z</time>
      </trkpt>
      <trkpt lat="45.69775" lon="4.66547">
        <ele>407</ele>
        <time>2011-10-16T10:38:56Z</time>
      </trkpt>
      <trkpt lat="45.69774" lon="4.66554">
        <ele>407</ele>
        <time>2011-10-16T10:38:59Z</time>
      </trkpt>
      <trkpt lat="45.6977" lon="4.66562">
        <ele>407</ele>
        <time>2011-10-16T10:39:02Z</time>
      </trkpt>
      <trkpt lat="45.69767" lon="4.6657">
        <ele>408</ele>
        <time>2011-10-16T10:39:04Z</time>
      </trkpt>
      <trkpt lat="45.69766" lon="4.66579">
        <ele>408</ele>
        <time>2011-10-16T10:39:06Z</time>
      </trkpt>
      <trkpt lat="45.69766" lon="4.6659">
        <ele>406</ele>
        <time>2011-10-16T10:39:08Z</time>
      </trkpt>
      <trkpt lat="45.69761" lon="4.666">
        <ele>405</ele>
        <time>2011-10-16T10:39:09Z</time>
      </trkpt>
      <trkpt lat="45.69762" lon="4.66609">
        <ele>405</ele>
        <time>2011-10-16T10:39:10Z</time>
      </trkpt>
      <trkpt lat="45.69761" lon="4.66616">
        <ele>404</ele>
        <time>2011-10-16T10:39:11Z</time>
      </trkpt>
      <trkpt lat="45.6976" lon="4.66623">
        <ele>403</ele>
        <time>2011-10-16T10:39:12Z</time>
      </trkpt>
      <trkpt lat="45.69758" lon="4.66632">
        <ele>403</ele>
        <time>2011-10-16T10:39:13Z</time>
      </trkpt>
      <trkpt lat="45.69756" lon="4.66643">
        <ele>402</ele>
        <time>2011-10-16T10:39:14Z</time>
      </trkpt>
      <trkpt lat="45.69756" lon="4.66655">
        <ele>401</ele>
        <time>2011-10-16T10:39:15Z</time>
      </trkpt>
      <trkpt lat="45.69756" lon="4.66664">
        <ele>400</ele>
        <time>2011-10-16T10:39:16Z</time>
      </trkpt>
      <trkpt lat="45.69754" lon="4.66675">
        <ele>398</ele>
        <time>2011-10-16T10:39:17Z</time>
      </trkpt>
      <trkpt lat="45.69753" lon="4.66687">
        <ele>397</ele>
        <time>2011-10-16T10:39:18Z</time>
      </trkpt>
      <trkpt lat="45.69752" lon="4.667">
        <ele>396</ele>
        <time>2011-10-16T10:39:19Z</time>
      </trkpt>
      <trkpt lat="45.69755" lon="4.66716">
        <ele>396</ele>
        <time>2011-10-16T10:39:20Z</time>
      </trkpt>
      <trkpt lat="45.69752" lon="4.6673">
        <ele>395</ele>
        <time>2011-10-16T10:39:21Z</time>
      </trkpt>
      <trkpt lat="45.69753" lon="4.66742">
        <ele>394</ele>
        <time>2011-10-16T10:39:22Z</time>
      </trkpt>
      <trkpt lat="45.69754" lon="4.66755">
        <ele>393</ele>
        <time>2011-10-16T10:39:23Z</time>
      </trkpt>
      <trkpt lat="45.69751" lon="4.66769">
        <ele>392</ele>
        <time>2011-10-16T10:39:24Z</time>
      </trkpt>
      <trkpt lat="45.69754" lon="4.66786">
        <ele>391</ele>
        <time>2011-10-16T10:39:25Z</time>
      </trkpt>
      <trkpt lat="45.69754" lon="4.66802">
        <ele>390</ele>
        <time>2011-10-16T10:39:26Z</time>
      </trkpt>
      <trkpt lat="45.69752" lon="4.6682">
        <ele>389</ele>
        <time>2011-10-16T10:39:27Z</time>
      </trkpt>
      <trkpt lat="45.69752" lon="4.66837">
        <ele>388</ele>
        <time>2011-10-16T10:39:28Z</time>
      </trkpt>
      <trkpt lat="45.69753" lon="4.66852">
        <ele>387</ele>
        <time>2011-10-16T10:39:29Z</time>
      </trkpt>
      <trkpt lat="45.69755" lon="4.66868">
        <ele>386</ele>
        <time>2011-10-16T10:39:30Z</time>
      </trkpt>
      <trkpt lat="45.69754" lon="4.66885">
        <ele>386</ele>
        <time>2011-10-16T10:39:31Z</time>
      </trkpt>
      <trkpt lat="45.69756" lon="4.66903">
        <ele>385</ele>
        <time>2011-10-16T10:39:32Z</time>
      </trkpt>
      <trkpt lat="45.69755" lon="4.66921">
        <ele>383</ele>
        <time>2011-10-16T10:39:33Z</time>
      </trkpt>
      <trkpt lat="45.69756" lon="4.66938">
        <ele>383</ele>
        <time>2011-10-16T10:39:34Z</time>
      </trkpt>
      <trkpt lat="45.69755" lon="4.66974">
        <ele>381</ele>
        <time>2011-10-16T10:39:36Z</time>
      </trkpt>
      <trkpt lat="45.69755" lon="4.66994">
        <ele>380</ele>
        <time>2011-10-16T10:39:37Z</time>
      </trkpt>
      <trkpt lat="45.6975" lon="4.67002">
        <ele>380</ele>
        <time>2011-10-16T10:39:37Z</time>
      </trkpt>
      <trkpt lat="45.69754" lon="4.67028">
        <ele>379</ele>
        <time>2011-10-16T10:39:39Z</time>
      </trkpt>
      <trkpt lat="45.69755" lon="4.67045">
        <ele>378</ele>
        <time>2011-10-16T10:39:40Z</time>
      </trkpt>
      <trkpt lat="45.69755" lon="4.67063">
        <ele>377</ele>
        <time>2011-10-16T10:39:41Z</time>
      </trkpt>
      <trkpt lat="45.69755" lon="4.6708">
        <ele>376</ele>
        <time>2011-10-16T10:39:42Z</time>
      </trkpt>
      <trkpt lat="45.69755" lon="4.67097">
        <ele>376</ele>
        <time>2011-10-16T10:39:43Z</time>
      </trkpt>
      <trkpt lat="45.69756" lon="4.67114">
        <ele>375</ele>
        <time>2011-10-16T10:39:44Z</time>
      </trkpt>
      <trkpt lat="45.69756" lon="4.67129">
        <ele>375</ele>
        <time>2011-10-16T10:39:45Z</time>
      </trkpt>
      <trkpt lat="45.69756" lon="4.67144">
        <ele>374</ele>
        <time>2011-10-16T10:39:46Z</time>
      </trkpt>
      <trkpt lat="45.69756" lon="4.67159">
        <ele>374</ele>
        <time>2011-10-16T10:39:47Z</time>
      </trkpt>
      <trkpt lat="45.69757" lon="4.67175">
        <ele>373</ele>
        <time>2011-10-16T10:39:48Z</time>
      </trkpt>
      <trkpt lat="45.69757" lon="4.67189">
        <ele>373</ele>
        <time>2011-10-16T10:39:49Z</time>
      </trkpt>
      <trkpt lat="45.69756" lon="4.67203">
        <ele>372</ele>
        <time>2011-10-16T10:39:50Z</time>
      </trkpt>
      <trkpt lat="45.69755" lon="4.6722">
        <ele>372</ele>
        <time>2011-10-16T10:39:51Z</time>
      </trkpt>
      <trkpt lat="45.69754" lon="4.67234">
        <ele>372</ele>
        <time>2011-10-16T10:39:52Z</time>
      </trkpt>
      <trkpt lat="45.69752" lon="4.67248">
        <ele>371</ele>
        <time>2011-10-16T10:39:53Z</time>
      </trkpt>
      <trkpt lat="45.69751" lon="4.67264">
        <ele>370</ele>
        <time>2011-10-16T10:39:54Z</time>
      </trkpt>
      <trkpt lat="45.69749" lon="4.67279">
        <ele>368</ele>
        <time>2011-10-16T10:39:55Z</time>
      </trkpt>
      <trkpt lat="45.69747" lon="4.67293">
        <ele>368</ele>
        <time>2011-10-16T10:39:56Z</time>
      </trkpt>
      <trkpt lat="45.69746" lon="4.67306">
        <ele>367</ele>
        <time>2011-10-16T10:39:57Z</time>
      </trkpt>
      <trkpt lat="45.69744" lon="4.67317">
        <ele>367</ele>
        <time>2011-10-16T10:39:58Z</time>
      </trkpt>
      <trkpt lat="45.69742" lon="4.67328">
        <ele>367</ele>
        <time>2011-10-16T10:39:59Z</time>
      </trkpt>
      <trkpt lat="45.69739" lon="4.67337">
        <ele>366</ele>
        <time>2011-10-16T10:40:00Z</time>
      </trkpt>
      <trkpt lat="45.69738" lon="4.67347">
        <ele>366</ele>
        <time>2011-10-16T10:40:01Z</time>
      </trkpt>
      <trkpt lat="45.69737" lon="4.67353">
        <ele>365</ele>
        <time>2011-10-16T10:40:02Z</time>
      </trkpt>
      <trkpt lat="45.6973" lon="4.67357">
        <ele>365</ele>
        <time>2011-10-16T10:40:04Z</time>
      </trkpt>
      <trkpt lat="45.69721" lon="4.67365">
        <ele>365</ele>
        <time>2011-10-16T10:40:06Z</time>
      </trkpt>
      <trkpt lat="45.69715" lon="4.67363">
        <ele>365</ele>
        <time>2011-10-16T10:40:10Z</time>
      </trkpt>
      <trkpt lat="45.69712" lon="4.67355">
        <ele>365</ele>
        <time>2011-10-16T10:40:13Z</time>
      </trkpt>
      <trkpt lat="45.69715" lon="4.67362">
        <ele>365</ele>
        <time>2011-10-16T10:40:54Z</time>
      </trkpt>
      <trkpt lat="45.6972" lon="4.67366">
        <ele>365</ele>
        <time>2011-10-16T10:40:57Z</time>
      </trkpt>
      <trkpt lat="45.69723" lon="4.67359">
        <ele>365</ele>
        <time>2011-10-16T10:40:59Z</time>
      </trkpt>
    </trkseg>
  </trk>
</gpx>